<?xml version="1.0" encoding="UTF-8" standalone="no" ?>
<gpx xmlns="http://www.topografix.com/GPX/1/1" xmlns:xsi="http://www.w3.org/2001/XMLSchema-instance" xsi:schemaLocation="http://www.topografix.com/GPX/1/1 http://www.topografix.com/GPX/1/1/gpx.xsd" version="1.1" creator="VisuGPX - https://www.visugpx.com">
  <metadata>
    <name>Roques Altes et St-Véran</name>
    <desc><![CDATA[On a raté un sentier évitant une bonne partie de la petite route après la chapelle.
Pour éviter la grande route, ont peut remonter sur Montméjean.
Le village de Saint-Véran est magnifique.

#enregistré #asptt-jeudi]]></desc>
  </metadata>
  <trk>
    <name><![CDATA[2026-04-02 09:03]]></name>
    <extensions>
      <line xmlns="http://www.topografix.com/GPX/gpx_style/0/2">
        <color>0000FF</color>
        <opacity>0.59</opacity>
        <width>6.0</width>
      </line>
    </extensions>
    <trkseg>
      <trkpt lat="44.12324" lon="3.22199">
        <ele>403.38</ele>
        <time>2026-04-02T07:03:39.257Z</time>
      </trkpt>
      <trkpt lat="44.12327" lon="3.22199">
        <ele>403.38</ele>
        <time>2026-04-02T07:03:44.520Z</time>
      </trkpt>
      <trkpt lat="44.1233" lon="3.22191">
        <ele>403.38</ele>
        <time>2026-04-02T07:03:49.688Z</time>
      </trkpt>
      <trkpt lat="44.1233" lon="3.22184">
        <ele>403.38</ele>
        <time>2026-04-02T07:03:54.696Z</time>
      </trkpt>
      <trkpt lat="44.12331" lon="3.22184">
        <ele>403.38</ele>
        <time>2026-04-02T07:04:01.659Z</time>
      </trkpt>
      <trkpt lat="44.12331" lon="3.22183">
        <ele>403.38</ele>
        <time>2026-04-02T07:04:07.658Z</time>
      </trkpt>
      <trkpt lat="44.12331" lon="3.22182">
        <ele>403.38</ele>
        <time>2026-04-02T07:04:19.553Z</time>
      </trkpt>
      <trkpt lat="44.12333" lon="3.22182">
        <ele>403.38</ele>
        <time>2026-04-02T07:04:42.600Z</time>
      </trkpt>
      <trkpt lat="44.12337" lon="3.22189">
        <ele>403.38</ele>
        <time>2026-04-02T07:04:47.644Z</time>
      </trkpt>
      <trkpt lat="44.12341" lon="3.22198">
        <ele>403.38</ele>
        <time>2026-04-02T07:04:53.222Z</time>
      </trkpt>
      <trkpt lat="44.12344" lon="3.22207">
        <ele>403.38</ele>
        <time>2026-04-02T07:04:58.620Z</time>
      </trkpt>
      <trkpt lat="44.12347" lon="3.22214">
        <ele>403.38</ele>
        <time>2026-04-02T07:05:03.918Z</time>
      </trkpt>
      <trkpt lat="44.12349" lon="3.22223">
        <ele>403.38</ele>
        <time>2026-04-02T07:05:09.084Z</time>
      </trkpt>
      <trkpt lat="44.12351" lon="3.22232">
        <ele>403.38</ele>
        <time>2026-04-02T07:05:14.621Z</time>
      </trkpt>
      <trkpt lat="44.12354" lon="3.2224">
        <ele>403.38</ele>
        <time>2026-04-02T07:05:19.953Z</time>
      </trkpt>
      <trkpt lat="44.1236" lon="3.22244">
        <ele>403.38</ele>
        <time>2026-04-02T07:05:25.306Z</time>
      </trkpt>
      <trkpt lat="44.12365" lon="3.22248">
        <ele>403.38</ele>
        <time>2026-04-02T07:05:30.716Z</time>
      </trkpt>
      <trkpt lat="44.12371" lon="3.22253">
        <ele>403.38</ele>
        <time>2026-04-02T07:05:36.604Z</time>
      </trkpt>
      <trkpt lat="44.12375" lon="3.22259">
        <ele>403.38</ele>
        <time>2026-04-02T07:05:42.019Z</time>
      </trkpt>
      <trkpt lat="44.12379" lon="3.22261">
        <ele>403.59</ele>
        <time>2026-04-02T07:05:47.379Z</time>
      </trkpt>
      <trkpt lat="44.12385" lon="3.22261">
        <ele>403.58</ele>
        <time>2026-04-02T07:05:52.485Z</time>
      </trkpt>
      <trkpt lat="44.12392" lon="3.22261">
        <ele>403.59</ele>
        <time>2026-04-02T07:05:57.618Z</time>
      </trkpt>
      <trkpt lat="44.12399" lon="3.2226">
        <ele>403.58</ele>
        <time>2026-04-02T07:06:02.923Z</time>
      </trkpt>
      <trkpt lat="44.12405" lon="3.22264">
        <ele>403.58</ele>
        <time>2026-04-02T07:06:08.205Z</time>
      </trkpt>
      <trkpt lat="44.12411" lon="3.22267">
        <ele>403.88</ele>
        <time>2026-04-02T07:06:13.604Z</time>
      </trkpt>
      <trkpt lat="44.12419" lon="3.22265">
        <ele>404.04</ele>
        <time>2026-04-02T07:06:18.980Z</time>
      </trkpt>
      <trkpt lat="44.12425" lon="3.22264">
        <ele>404.05</ele>
        <time>2026-04-02T07:06:24.630Z</time>
      </trkpt>
      <trkpt lat="44.1243" lon="3.22261">
        <ele>403.24</ele>
        <time>2026-04-02T07:06:30.566Z</time>
      </trkpt>
      <trkpt lat="44.12426" lon="3.22262">
        <ele>403.32</ele>
        <time>2026-04-02T07:06:35.595Z</time>
      </trkpt>
      <trkpt lat="44.12426" lon="3.22263">
        <ele>407.82</ele>
        <time>2026-04-02T07:06:40.628Z</time>
      </trkpt>
      <trkpt lat="44.12425" lon="3.22262">
        <ele>406.03</ele>
        <time>2026-04-02T07:06:50.132Z</time>
      </trkpt>
      <trkpt lat="44.1243" lon="3.22262">
        <ele>406.08</ele>
        <time>2026-04-02T07:06:55.147Z</time>
      </trkpt>
      <trkpt lat="44.12431" lon="3.22263">
        <ele>406.08</ele>
        <time>2026-04-02T07:07:00.524Z</time>
      </trkpt>
      <trkpt lat="44.12435" lon="3.22266">
        <ele>406.38</ele>
        <time>2026-04-02T07:07:05.608Z</time>
      </trkpt>
      <trkpt lat="44.12439" lon="3.22274">
        <ele>406.08</ele>
        <time>2026-04-02T07:07:10.608Z</time>
      </trkpt>
      <trkpt lat="44.12443" lon="3.22271">
        <ele>406.45</ele>
        <time>2026-04-02T07:07:16.178Z</time>
      </trkpt>
      <trkpt lat="44.12447" lon="3.22272">
        <ele>406.18</ele>
        <time>2026-04-02T07:07:21.522Z</time>
      </trkpt>
      <trkpt lat="44.12451" lon="3.22274">
        <ele>406.08</ele>
        <time>2026-04-02T07:07:26.623Z</time>
      </trkpt>
      <trkpt lat="44.12457" lon="3.22277">
        <ele>406.48</ele>
        <time>2026-04-02T07:07:32.076Z</time>
      </trkpt>
      <trkpt lat="44.12463" lon="3.22279">
        <ele>406.54</ele>
        <time>2026-04-02T07:07:37.655Z</time>
      </trkpt>
      <trkpt lat="44.12466" lon="3.22284">
        <ele>405.28</ele>
        <time>2026-04-02T07:07:43.156Z</time>
      </trkpt>
      <trkpt lat="44.1247" lon="3.22287">
        <ele>409.27</ele>
        <time>2026-04-02T07:07:48.562Z</time>
      </trkpt>
      <trkpt lat="44.12471" lon="3.22282">
        <ele>410.15</ele>
        <time>2026-04-02T07:07:54.041Z</time>
      </trkpt>
      <trkpt lat="44.12472" lon="3.22273">
        <ele>410.94</ele>
        <time>2026-04-02T07:07:59.594Z</time>
      </trkpt>
      <trkpt lat="44.12472" lon="3.22268">
        <ele>414.72</ele>
        <time>2026-04-02T07:08:05.572Z</time>
      </trkpt>
      <trkpt lat="44.12472" lon="3.22264">
        <ele>414.88</ele>
        <time>2026-04-02T07:08:11.571Z</time>
      </trkpt>
      <trkpt lat="44.12472" lon="3.22263">
        <ele>412.8</ele>
        <time>2026-04-02T07:08:17.626Z</time>
      </trkpt>
      <trkpt lat="44.12475" lon="3.22262">
        <ele>411.98</ele>
        <time>2026-04-02T07:08:22.755Z</time>
      </trkpt>
      <trkpt lat="44.12477" lon="3.22262">
        <ele>412.52</ele>
        <time>2026-04-02T07:08:28.508Z</time>
      </trkpt>
      <trkpt lat="44.12478" lon="3.22263">
        <ele>414.11</ele>
        <time>2026-04-02T07:08:35.495Z</time>
      </trkpt>
      <trkpt lat="44.12477" lon="3.22261">
        <ele>413.16</ele>
        <time>2026-04-02T07:08:46.318Z</time>
      </trkpt>
      <trkpt lat="44.1248" lon="3.22257">
        <ele>412.2</ele>
        <time>2026-04-02T07:08:51.565Z</time>
      </trkpt>
      <trkpt lat="44.12473" lon="3.22251">
        <ele>411.96</ele>
        <time>2026-04-02T07:08:56.676Z</time>
      </trkpt>
      <trkpt lat="44.12471" lon="3.22249">
        <ele>411.15</ele>
        <time>2026-04-02T07:09:02.162Z</time>
      </trkpt>
      <trkpt lat="44.12472" lon="3.2225">
        <ele>411.4</ele>
        <time>2026-04-02T07:09:07.614Z</time>
      </trkpt>
      <trkpt lat="44.12473" lon="3.22252">
        <ele>411.18</ele>
        <time>2026-04-02T07:09:13.539Z</time>
      </trkpt>
      <trkpt lat="44.12474" lon="3.22254">
        <ele>411.31</ele>
        <time>2026-04-02T07:09:18.584Z</time>
      </trkpt>
      <trkpt lat="44.12477" lon="3.22257">
        <ele>412.29</ele>
        <time>2026-04-02T07:09:24.162Z</time>
      </trkpt>
      <trkpt lat="44.12483" lon="3.22257">
        <ele>412.06</ele>
        <time>2026-04-02T07:09:29.603Z</time>
      </trkpt>
      <trkpt lat="44.12487" lon="3.22253">
        <ele>412.43</ele>
        <time>2026-04-02T07:09:35.599Z</time>
      </trkpt>
      <trkpt lat="44.12489" lon="3.22243">
        <ele>414.43</ele>
        <time>2026-04-02T07:09:41.481Z</time>
      </trkpt>
      <trkpt lat="44.12493" lon="3.22234">
        <ele>411.91</ele>
        <time>2026-04-02T07:09:49.120Z</time>
      </trkpt>
      <trkpt lat="44.12497" lon="3.22225">
        <ele>411.88</ele>
        <time>2026-04-02T07:09:56.037Z</time>
      </trkpt>
      <trkpt lat="44.12503" lon="3.22223">
        <ele>411.88</ele>
        <time>2026-04-02T07:10:01.334Z</time>
      </trkpt>
      <trkpt lat="44.12508" lon="3.22226">
        <ele>411.98</ele>
        <time>2026-04-02T07:10:06.554Z</time>
      </trkpt>
      <trkpt lat="44.12509" lon="3.22226">
        <ele>411.84</ele>
        <time>2026-04-02T07:10:12.596Z</time>
      </trkpt>
      <trkpt lat="44.12505" lon="3.22218">
        <ele>413.77</ele>
        <time>2026-04-02T07:10:18.553Z</time>
      </trkpt>
      <trkpt lat="44.12506" lon="3.2222">
        <ele>411.88</ele>
        <time>2026-04-02T07:10:23.971Z</time>
      </trkpt>
      <trkpt lat="44.1251" lon="3.22224">
        <ele>406.66</ele>
        <time>2026-04-02T07:10:29.580Z</time>
      </trkpt>
      <trkpt lat="44.12512" lon="3.22228">
        <ele>411.95</ele>
        <time>2026-04-02T07:10:34.998Z</time>
      </trkpt>
      <trkpt lat="44.12516" lon="3.22232">
        <ele>410.54</ele>
        <time>2026-04-02T07:10:40.177Z</time>
      </trkpt>
      <trkpt lat="44.12517" lon="3.22234">
        <ele>409.32</ele>
        <time>2026-04-02T07:10:45.735Z</time>
      </trkpt>
      <trkpt lat="44.12517" lon="3.22235">
        <ele>409.29</ele>
        <time>2026-04-02T07:10:52.555Z</time>
      </trkpt>
      <trkpt lat="44.12517" lon="3.22237">
        <ele>409.24</ele>
        <time>2026-04-02T07:10:58.210Z</time>
      </trkpt>
      <trkpt lat="44.12518" lon="3.22241">
        <ele>410.01</ele>
        <time>2026-04-02T07:11:03.575Z</time>
      </trkpt>
      <trkpt lat="44.12522" lon="3.22248">
        <ele>409.9</ele>
        <time>2026-04-02T07:11:09.551Z</time>
      </trkpt>
      <trkpt lat="44.12528" lon="3.22254">
        <ele>410.24</ele>
        <time>2026-04-02T07:11:15.014Z</time>
      </trkpt>
      <trkpt lat="44.12533" lon="3.2226">
        <ele>411.87</ele>
        <time>2026-04-02T07:11:20.168Z</time>
      </trkpt>
      <trkpt lat="44.12537" lon="3.22265">
        <ele>409.89</ele>
        <time>2026-04-02T07:11:25.575Z</time>
      </trkpt>
      <trkpt lat="44.12541" lon="3.22271">
        <ele>407.34</ele>
        <time>2026-04-02T07:11:30.976Z</time>
      </trkpt>
      <trkpt lat="44.12548" lon="3.22277">
        <ele>411.75</ele>
        <time>2026-04-02T07:11:36.132Z</time>
      </trkpt>
      <trkpt lat="44.1255" lon="3.22281">
        <ele>414.75</ele>
        <time>2026-04-02T07:11:41.545Z</time>
      </trkpt>
      <trkpt lat="44.1255" lon="3.2228">
        <ele>412.42</ele>
        <time>2026-04-02T07:11:58.697Z</time>
      </trkpt>
      <trkpt lat="44.12557" lon="3.22278">
        <ele>411.68</ele>
        <time>2026-04-02T07:12:03.932Z</time>
      </trkpt>
      <trkpt lat="44.12565" lon="3.22276">
        <ele>411.79</ele>
        <time>2026-04-02T07:12:09.367Z</time>
      </trkpt>
      <trkpt lat="44.12574" lon="3.22277">
        <ele>412.29</ele>
        <time>2026-04-02T07:12:14.906Z</time>
      </trkpt>
      <trkpt lat="44.1258" lon="3.22276">
        <ele>413.13</ele>
        <time>2026-04-02T07:12:20.043Z</time>
      </trkpt>
      <trkpt lat="44.12587" lon="3.22273">
        <ele>414.88</ele>
        <time>2026-04-02T07:12:25.486Z</time>
      </trkpt>
      <trkpt lat="44.12593" lon="3.2227">
        <ele>412.96</ele>
        <time>2026-04-02T07:12:30.574Z</time>
      </trkpt>
      <trkpt lat="44.12599" lon="3.22266">
        <ele>416.88</ele>
        <time>2026-04-02T07:12:36.467Z</time>
      </trkpt>
      <trkpt lat="44.12606" lon="3.22262">
        <ele>420.84</ele>
        <time>2026-04-02T07:12:41.871Z</time>
      </trkpt>
      <trkpt lat="44.12612" lon="3.22258">
        <ele>418.52</ele>
        <time>2026-04-02T07:12:46.984Z</time>
      </trkpt>
      <trkpt lat="44.12618" lon="3.22256">
        <ele>418.29</ele>
        <time>2026-04-02T07:12:52.260Z</time>
      </trkpt>
      <trkpt lat="44.12624" lon="3.22256">
        <ele>419.37</ele>
        <time>2026-04-02T07:12:57.589Z</time>
      </trkpt>
      <trkpt lat="44.12631" lon="3.22257">
        <ele>420.76</ele>
        <time>2026-04-02T07:13:03.547Z</time>
      </trkpt>
      <trkpt lat="44.12636" lon="3.22255">
        <ele>421.52</ele>
        <time>2026-04-02T07:13:08.571Z</time>
      </trkpt>
      <trkpt lat="44.12641" lon="3.22253">
        <ele>421.73</ele>
        <time>2026-04-02T07:13:14.081Z</time>
      </trkpt>
      <trkpt lat="44.12647" lon="3.22254">
        <ele>421.61</ele>
        <time>2026-04-02T07:13:19.523Z</time>
      </trkpt>
      <trkpt lat="44.12652" lon="3.22259">
        <ele>422.4</ele>
        <time>2026-04-02T07:13:24.586Z</time>
      </trkpt>
      <trkpt lat="44.12658" lon="3.22262">
        <ele>421.04</ele>
        <time>2026-04-02T07:13:30.174Z</time>
      </trkpt>
      <trkpt lat="44.12663" lon="3.22263">
        <ele>420.84</ele>
        <time>2026-04-02T07:13:35.347Z</time>
      </trkpt>
      <trkpt lat="44.12669" lon="3.22262">
        <ele>421.07</ele>
        <time>2026-04-02T07:13:41.367Z</time>
      </trkpt>
      <trkpt lat="44.12674" lon="3.22256">
        <ele>421.61</ele>
        <time>2026-04-02T07:13:46.626Z</time>
      </trkpt>
      <trkpt lat="44.1268" lon="3.22248">
        <ele>423.2</ele>
        <time>2026-04-02T07:13:52.007Z</time>
      </trkpt>
      <trkpt lat="44.12683" lon="3.2224">
        <ele>423.57</ele>
        <time>2026-04-02T07:13:57.482Z</time>
      </trkpt>
      <trkpt lat="44.12684" lon="3.22232">
        <ele>422.99</ele>
        <time>2026-04-02T07:14:02.965Z</time>
      </trkpt>
      <trkpt lat="44.12687" lon="3.22224">
        <ele>423.12</ele>
        <time>2026-04-02T07:14:08.465Z</time>
      </trkpt>
      <trkpt lat="44.1269" lon="3.22216">
        <ele>424.35</ele>
        <time>2026-04-02T07:14:14.388Z</time>
      </trkpt>
      <trkpt lat="44.1269" lon="3.22208">
        <ele>424.93</ele>
        <time>2026-04-02T07:14:19.508Z</time>
      </trkpt>
      <trkpt lat="44.1269" lon="3.22202">
        <ele>425.97</ele>
        <time>2026-04-02T07:14:24.571Z</time>
      </trkpt>
      <trkpt lat="44.12692" lon="3.22195">
        <ele>427.36</ele>
        <time>2026-04-02T07:14:29.602Z</time>
      </trkpt>
      <trkpt lat="44.12691" lon="3.22187">
        <ele>427.19</ele>
        <time>2026-04-02T07:14:34.634Z</time>
      </trkpt>
      <trkpt lat="44.12691" lon="3.22179">
        <ele>427.01</ele>
        <time>2026-04-02T07:14:40.614Z</time>
      </trkpt>
      <trkpt lat="44.12692" lon="3.22176">
        <ele>426.39</ele>
        <time>2026-04-02T07:14:46.271Z</time>
      </trkpt>
      <trkpt lat="44.12697" lon="3.22172">
        <ele>428.17</ele>
        <time>2026-04-02T07:14:51.549Z</time>
      </trkpt>
      <trkpt lat="44.12702" lon="3.22167">
        <ele>429.33</ele>
        <time>2026-04-02T07:14:57.311Z</time>
      </trkpt>
      <trkpt lat="44.12707" lon="3.22161">
        <ele>430.08</ele>
        <time>2026-04-02T07:15:02.331Z</time>
      </trkpt>
      <trkpt lat="44.12713" lon="3.22158">
        <ele>430.24</ele>
        <time>2026-04-02T07:15:07.631Z</time>
      </trkpt>
      <trkpt lat="44.12721" lon="3.22155">
        <ele>429.83</ele>
        <time>2026-04-02T07:15:13.409Z</time>
      </trkpt>
      <trkpt lat="44.12729" lon="3.22153">
        <ele>429.47</ele>
        <time>2026-04-02T07:15:19.294Z</time>
      </trkpt>
      <trkpt lat="44.12735" lon="3.2215">
        <ele>429.36</ele>
        <time>2026-04-02T07:15:24.595Z</time>
      </trkpt>
      <trkpt lat="44.12739" lon="3.22146">
        <ele>430.91</ele>
        <time>2026-04-02T07:15:29.628Z</time>
      </trkpt>
      <trkpt lat="44.12744" lon="3.22144">
        <ele>431.91</ele>
        <time>2026-04-02T07:15:35.126Z</time>
      </trkpt>
      <trkpt lat="44.12749" lon="3.2214">
        <ele>433.03</ele>
        <time>2026-04-02T07:15:40.326Z</time>
      </trkpt>
      <trkpt lat="44.12753" lon="3.22133">
        <ele>432.8</ele>
        <time>2026-04-02T07:15:46.088Z</time>
      </trkpt>
      <trkpt lat="44.12754" lon="3.22128">
        <ele>432.35</ele>
        <time>2026-04-02T07:15:51.164Z</time>
      </trkpt>
      <trkpt lat="44.12757" lon="3.22123">
        <ele>432.25</ele>
        <time>2026-04-02T07:15:56.382Z</time>
      </trkpt>
      <trkpt lat="44.1276" lon="3.22117">
        <ele>432.12</ele>
        <time>2026-04-02T07:16:01.631Z</time>
      </trkpt>
      <trkpt lat="44.12765" lon="3.22113">
        <ele>433.2</ele>
        <time>2026-04-02T07:16:07.083Z</time>
      </trkpt>
      <trkpt lat="44.1277" lon="3.22109">
        <ele>434.77</ele>
        <time>2026-04-02T07:16:12.508Z</time>
      </trkpt>
      <trkpt lat="44.12772" lon="3.22106">
        <ele>435.26</ele>
        <time>2026-04-02T07:16:17.674Z</time>
      </trkpt>
      <trkpt lat="44.12776" lon="3.22102">
        <ele>436.71</ele>
        <time>2026-04-02T07:16:23.086Z</time>
      </trkpt>
      <trkpt lat="44.12778" lon="3.22098">
        <ele>436.9</ele>
        <time>2026-04-02T07:16:28.598Z</time>
      </trkpt>
      <trkpt lat="44.12783" lon="3.22098">
        <ele>437.95</ele>
        <time>2026-04-02T07:16:33.640Z</time>
      </trkpt>
      <trkpt lat="44.12791" lon="3.22098">
        <ele>438.72</ele>
        <time>2026-04-02T07:16:39.132Z</time>
      </trkpt>
      <trkpt lat="44.12798" lon="3.22094">
        <ele>438.64</ele>
        <time>2026-04-02T07:16:44.589Z</time>
      </trkpt>
      <trkpt lat="44.12802" lon="3.22086">
        <ele>438.4</ele>
        <time>2026-04-02T07:16:49.630Z</time>
      </trkpt>
      <trkpt lat="44.12803" lon="3.2208">
        <ele>439.26</ele>
        <time>2026-04-02T07:16:54.669Z</time>
      </trkpt>
      <trkpt lat="44.12805" lon="3.22075">
        <ele>441.03</ele>
        <time>2026-04-02T07:16:59.945Z</time>
      </trkpt>
      <trkpt lat="44.12805" lon="3.22076">
        <ele>438.67</ele>
        <time>2026-04-02T07:17:05.616Z</time>
      </trkpt>
      <trkpt lat="44.12805" lon="3.22079">
        <ele>438.12</ele>
        <time>2026-04-02T07:17:10.623Z</time>
      </trkpt>
      <trkpt lat="44.12806" lon="3.2208">
        <ele>439.02</ele>
        <time>2026-04-02T07:17:20.678Z</time>
      </trkpt>
      <trkpt lat="44.12807" lon="3.2208">
        <ele>441.82</ele>
        <time>2026-04-02T07:17:28.131Z</time>
      </trkpt>
      <trkpt lat="44.12808" lon="3.22079">
        <ele>443.03</ele>
        <time>2026-04-02T07:17:33.206Z</time>
      </trkpt>
      <trkpt lat="44.12816" lon="3.2208">
        <ele>445.17</ele>
        <time>2026-04-02T07:17:38.606Z</time>
      </trkpt>
      <trkpt lat="44.12823" lon="3.22086">
        <ele>445.42</ele>
        <time>2026-04-02T07:17:43.608Z</time>
      </trkpt>
      <trkpt lat="44.12835" lon="3.2209">
        <ele>444.01</ele>
        <time>2026-04-02T07:17:49.627Z</time>
      </trkpt>
      <trkpt lat="44.12844" lon="3.22099">
        <ele>444.16</ele>
        <time>2026-04-02T07:17:55.208Z</time>
      </trkpt>
      <trkpt lat="44.1285" lon="3.22105">
        <ele>444.59</ele>
        <time>2026-04-02T07:18:00.311Z</time>
      </trkpt>
      <trkpt lat="44.12852" lon="3.22109">
        <ele>445.33</ele>
        <time>2026-04-02T07:18:05.510Z</time>
      </trkpt>
      <trkpt lat="44.12852" lon="3.22108">
        <ele>445.95</ele>
        <time>2026-04-02T07:18:10.534Z</time>
      </trkpt>
      <trkpt lat="44.12857" lon="3.22109">
        <ele>447.63</ele>
        <time>2026-04-02T07:18:15.974Z</time>
      </trkpt>
      <trkpt lat="44.1286" lon="3.22114">
        <ele>447.67</ele>
        <time>2026-04-02T07:18:21.164Z</time>
      </trkpt>
      <trkpt lat="44.12862" lon="3.22122">
        <ele>446.78</ele>
        <time>2026-04-02T07:18:26.570Z</time>
      </trkpt>
      <trkpt lat="44.12864" lon="3.22128">
        <ele>449.1</ele>
        <time>2026-04-02T07:18:31.592Z</time>
      </trkpt>
      <trkpt lat="44.12869" lon="3.22133">
        <ele>449.91</ele>
        <time>2026-04-02T07:18:37.025Z</time>
      </trkpt>
      <trkpt lat="44.12876" lon="3.22132">
        <ele>453.35</ele>
        <time>2026-04-02T07:18:42.510Z</time>
      </trkpt>
      <trkpt lat="44.12882" lon="3.22129">
        <ele>453.41</ele>
        <time>2026-04-02T07:18:47.581Z</time>
      </trkpt>
      <trkpt lat="44.12887" lon="3.22128">
        <ele>452.7</ele>
        <time>2026-04-02T07:18:52.592Z</time>
      </trkpt>
      <trkpt lat="44.12889" lon="3.22128">
        <ele>454.05</ele>
        <time>2026-04-02T07:18:57.592Z</time>
      </trkpt>
      <trkpt lat="44.12888" lon="3.22128">
        <ele>453.81</ele>
        <time>2026-04-02T07:19:06.597Z</time>
      </trkpt>
      <trkpt lat="44.12887" lon="3.22127">
        <ele>453.88</ele>
        <time>2026-04-02T07:19:12.634Z</time>
      </trkpt>
      <trkpt lat="44.12888" lon="3.22128">
        <ele>453.17</ele>
        <time>2026-04-02T07:19:19.278Z</time>
      </trkpt>
      <trkpt lat="44.12898" lon="3.22127">
        <ele>454.9</ele>
        <time>2026-04-02T07:19:24.645Z</time>
      </trkpt>
      <trkpt lat="44.12906" lon="3.22124">
        <ele>458.11</ele>
        <time>2026-04-02T07:19:30.303Z</time>
      </trkpt>
      <trkpt lat="44.12913" lon="3.22127">
        <ele>458.13</ele>
        <time>2026-04-02T07:19:35.633Z</time>
      </trkpt>
      <trkpt lat="44.12922" lon="3.22131">
        <ele>457.26</ele>
        <time>2026-04-02T07:19:41.622Z</time>
      </trkpt>
      <trkpt lat="44.12926" lon="3.22136">
        <ele>458.78</ele>
        <time>2026-04-02T07:19:47.520Z</time>
      </trkpt>
      <trkpt lat="44.12933" lon="3.22138">
        <ele>458.28</ele>
        <time>2026-04-02T07:19:53.238Z</time>
      </trkpt>
      <trkpt lat="44.12939" lon="3.22144">
        <ele>459.2</ele>
        <time>2026-04-02T07:19:58.617Z</time>
      </trkpt>
      <trkpt lat="44.12947" lon="3.22142">
        <ele>459.86</ele>
        <time>2026-04-02T07:20:04.073Z</time>
      </trkpt>
      <trkpt lat="44.12954" lon="3.22143">
        <ele>461.48</ele>
        <time>2026-04-02T07:20:09.142Z</time>
      </trkpt>
      <trkpt lat="44.12956" lon="3.22146">
        <ele>462.59</ele>
        <time>2026-04-02T07:20:14.422Z</time>
      </trkpt>
      <trkpt lat="44.1296" lon="3.22149">
        <ele>461.2</ele>
        <time>2026-04-02T07:20:19.605Z</time>
      </trkpt>
      <trkpt lat="44.12965" lon="3.22151">
        <ele>460.19</ele>
        <time>2026-04-02T07:20:25.116Z</time>
      </trkpt>
      <trkpt lat="44.12965" lon="3.22156">
        <ele>459.72</ele>
        <time>2026-04-02T07:20:30.627Z</time>
      </trkpt>
      <trkpt lat="44.12964" lon="3.2216">
        <ele>458.95</ele>
        <time>2026-04-02T07:20:35.954Z</time>
      </trkpt>
      <trkpt lat="44.12964" lon="3.2217">
        <ele>459.08</ele>
        <time>2026-04-02T07:20:41.161Z</time>
      </trkpt>
      <trkpt lat="44.12969" lon="3.22174">
        <ele>458.49</ele>
        <time>2026-04-02T07:20:46.631Z</time>
      </trkpt>
      <trkpt lat="44.12971" lon="3.22175">
        <ele>458.55</ele>
        <time>2026-04-02T07:20:51.637Z</time>
      </trkpt>
      <trkpt lat="44.1297" lon="3.22174">
        <ele>457.89</ele>
        <time>2026-04-02T07:20:57.279Z</time>
      </trkpt>
      <trkpt lat="44.12973" lon="3.22175">
        <ele>459.67</ele>
        <time>2026-04-02T07:21:02.628Z</time>
      </trkpt>
      <trkpt lat="44.1298" lon="3.22176">
        <ele>462.76</ele>
        <time>2026-04-02T07:21:07.663Z</time>
      </trkpt>
      <trkpt lat="44.12986" lon="3.22172">
        <ele>462.39</ele>
        <time>2026-04-02T07:21:13.499Z</time>
      </trkpt>
      <trkpt lat="44.12988" lon="3.22173">
        <ele>461.71</ele>
        <time>2026-04-02T07:21:18.658Z</time>
      </trkpt>
      <trkpt lat="44.12992" lon="3.22172">
        <ele>462.67</ele>
        <time>2026-04-02T07:21:23.932Z</time>
      </trkpt>
      <trkpt lat="44.12997" lon="3.22168">
        <ele>464.08</ele>
        <time>2026-04-02T07:21:29.423Z</time>
      </trkpt>
      <trkpt lat="44.12997" lon="3.22165">
        <ele>464.63</ele>
        <time>2026-04-02T07:21:34.654Z</time>
      </trkpt>
      <trkpt lat="44.12996" lon="3.22165">
        <ele>465.82</ele>
        <time>2026-04-02T07:21:40.564Z</time>
      </trkpt>
      <trkpt lat="44.12997" lon="3.22159">
        <ele>466.72</ele>
        <time>2026-04-02T07:21:45.912Z</time>
      </trkpt>
      <trkpt lat="44.12999" lon="3.2215">
        <ele>466.74</ele>
        <time>2026-04-02T07:21:51.235Z</time>
      </trkpt>
      <trkpt lat="44.13003" lon="3.22143">
        <ele>466.99</ele>
        <time>2026-04-02T07:21:56.419Z</time>
      </trkpt>
      <trkpt lat="44.13004" lon="3.22135">
        <ele>468.01</ele>
        <time>2026-04-02T07:22:01.556Z</time>
      </trkpt>
      <trkpt lat="44.13006" lon="3.22128">
        <ele>469.52</ele>
        <time>2026-04-02T07:22:07.139Z</time>
      </trkpt>
      <trkpt lat="44.13007" lon="3.22118">
        <ele>469.82</ele>
        <time>2026-04-02T07:22:12.419Z</time>
      </trkpt>
      <trkpt lat="44.13008" lon="3.2211">
        <ele>469.39</ele>
        <time>2026-04-02T07:22:18.235Z</time>
      </trkpt>
      <trkpt lat="44.13011" lon="3.22103">
        <ele>469.55</ele>
        <time>2026-04-02T07:22:23.553Z</time>
      </trkpt>
      <trkpt lat="44.13014" lon="3.22099">
        <ele>470.47</ele>
        <time>2026-04-02T07:22:28.567Z</time>
      </trkpt>
      <trkpt lat="44.13013" lon="3.22093">
        <ele>470.71</ele>
        <time>2026-04-02T07:22:33.581Z</time>
      </trkpt>
      <trkpt lat="44.13009" lon="3.22088">
        <ele>471.07</ele>
        <time>2026-04-02T07:22:38.883Z</time>
      </trkpt>
      <trkpt lat="44.1301" lon="3.22081">
        <ele>470.91</ele>
        <time>2026-04-02T07:22:44.560Z</time>
      </trkpt>
      <trkpt lat="44.13014" lon="3.22076">
        <ele>471.32</ele>
        <time>2026-04-02T07:22:49.581Z</time>
      </trkpt>
      <trkpt lat="44.13017" lon="3.22073">
        <ele>472.6</ele>
        <time>2026-04-02T07:22:54.847Z</time>
      </trkpt>
      <trkpt lat="44.13022" lon="3.2207">
        <ele>473.27</ele>
        <time>2026-04-02T07:23:00.066Z</time>
      </trkpt>
      <trkpt lat="44.13026" lon="3.22065">
        <ele>472.14</ele>
        <time>2026-04-02T07:23:05.203Z</time>
      </trkpt>
      <trkpt lat="44.13032" lon="3.22062">
        <ele>471.97</ele>
        <time>2026-04-02T07:23:10.604Z</time>
      </trkpt>
      <trkpt lat="44.13035" lon="3.22057">
        <ele>472.55</ele>
        <time>2026-04-02T07:23:16.056Z</time>
      </trkpt>
      <trkpt lat="44.1304" lon="3.22058">
        <ele>473.07</ele>
        <time>2026-04-02T07:23:21.097Z</time>
      </trkpt>
      <trkpt lat="44.13045" lon="3.22054">
        <ele>473.58</ele>
        <time>2026-04-02T07:23:26.635Z</time>
      </trkpt>
      <trkpt lat="44.1305" lon="3.22051">
        <ele>473.59</ele>
        <time>2026-04-02T07:23:32.092Z</time>
      </trkpt>
      <trkpt lat="44.13054" lon="3.22045">
        <ele>473.57</ele>
        <time>2026-04-02T07:23:37.591Z</time>
      </trkpt>
      <trkpt lat="44.13058" lon="3.22038">
        <ele>473.9</ele>
        <time>2026-04-02T07:23:43.565Z</time>
      </trkpt>
      <trkpt lat="44.1306" lon="3.22031">
        <ele>474.17</ele>
        <time>2026-04-02T07:23:49.101Z</time>
      </trkpt>
      <trkpt lat="44.13064" lon="3.22028">
        <ele>474.24</ele>
        <time>2026-04-02T07:23:54.395Z</time>
      </trkpt>
      <trkpt lat="44.13068" lon="3.22026">
        <ele>473.98</ele>
        <time>2026-04-02T07:23:59.564Z</time>
      </trkpt>
      <trkpt lat="44.13074" lon="3.22023">
        <ele>474.07</ele>
        <time>2026-04-02T07:24:04.579Z</time>
      </trkpt>
      <trkpt lat="44.13079" lon="3.22026">
        <ele>473.6</ele>
        <time>2026-04-02T07:24:09.591Z</time>
      </trkpt>
      <trkpt lat="44.13086" lon="3.22033">
        <ele>473.64</ele>
        <time>2026-04-02T07:24:15.100Z</time>
      </trkpt>
      <trkpt lat="44.13091" lon="3.22036">
        <ele>478.36</ele>
        <time>2026-04-02T07:24:20.579Z</time>
      </trkpt>
      <trkpt lat="44.13095" lon="3.22026">
        <ele>478.16</ele>
        <time>2026-04-02T07:24:25.882Z</time>
      </trkpt>
      <trkpt lat="44.13097" lon="3.22018">
        <ele>476.48</ele>
        <time>2026-04-02T07:24:31.566Z</time>
      </trkpt>
      <trkpt lat="44.13101" lon="3.22014">
        <ele>477.18</ele>
        <time>2026-04-02T07:24:37.180Z</time>
      </trkpt>
      <trkpt lat="44.13105" lon="3.22011">
        <ele>480.15</ele>
        <time>2026-04-02T07:24:42.592Z</time>
      </trkpt>
      <trkpt lat="44.13109" lon="3.22011">
        <ele>481.03</ele>
        <time>2026-04-02T07:24:48.139Z</time>
      </trkpt>
      <trkpt lat="44.13112" lon="3.22012">
        <ele>483.13</ele>
        <time>2026-04-02T07:24:53.540Z</time>
      </trkpt>
      <trkpt lat="44.13115" lon="3.22011">
        <ele>484.01</ele>
        <time>2026-04-02T07:24:59.356Z</time>
      </trkpt>
      <trkpt lat="44.1312" lon="3.2201">
        <ele>484.43</ele>
        <time>2026-04-02T07:25:04.526Z</time>
      </trkpt>
      <trkpt lat="44.13125" lon="3.22005">
        <ele>483.45</ele>
        <time>2026-04-02T07:25:09.872Z</time>
      </trkpt>
      <trkpt lat="44.13132" lon="3.22001">
        <ele>483.09</ele>
        <time>2026-04-02T07:25:15.512Z</time>
      </trkpt>
      <trkpt lat="44.13137" lon="3.21996">
        <ele>483.36</ele>
        <time>2026-04-02T07:25:21.233Z</time>
      </trkpt>
      <trkpt lat="44.13139" lon="3.2199">
        <ele>484.6</ele>
        <time>2026-04-02T07:25:26.609Z</time>
      </trkpt>
      <trkpt lat="44.13143" lon="3.2199">
        <ele>485.21</ele>
        <time>2026-04-02T07:25:32.344Z</time>
      </trkpt>
      <trkpt lat="44.13148" lon="3.21989">
        <ele>485.3</ele>
        <time>2026-04-02T07:25:38.051Z</time>
      </trkpt>
      <trkpt lat="44.13152" lon="3.2199">
        <ele>486.54</ele>
        <time>2026-04-02T07:25:43.093Z</time>
      </trkpt>
      <trkpt lat="44.13153" lon="3.21983">
        <ele>486.65</ele>
        <time>2026-04-02T07:25:48.151Z</time>
      </trkpt>
      <trkpt lat="44.13155" lon="3.21975">
        <ele>486.67</ele>
        <time>2026-04-02T07:25:53.603Z</time>
      </trkpt>
      <trkpt lat="44.13157" lon="3.21968">
        <ele>486.56</ele>
        <time>2026-04-02T07:25:59.145Z</time>
      </trkpt>
      <trkpt lat="44.13157" lon="3.21962">
        <ele>485.85</ele>
        <time>2026-04-02T07:26:04.264Z</time>
      </trkpt>
      <trkpt lat="44.13161" lon="3.2196">
        <ele>487.15</ele>
        <time>2026-04-02T07:26:09.533Z</time>
      </trkpt>
      <trkpt lat="44.13165" lon="3.21955">
        <ele>487.42</ele>
        <time>2026-04-02T07:26:15.437Z</time>
      </trkpt>
      <trkpt lat="44.13169" lon="3.21953">
        <ele>487.97</ele>
        <time>2026-04-02T07:26:20.501Z</time>
      </trkpt>
      <trkpt lat="44.13172" lon="3.21948">
        <ele>488.99</ele>
        <time>2026-04-02T07:26:25.620Z</time>
      </trkpt>
      <trkpt lat="44.13176" lon="3.21945">
        <ele>489.41</ele>
        <time>2026-04-02T07:26:30.634Z</time>
      </trkpt>
      <trkpt lat="44.13175" lon="3.21939">
        <ele>488.61</ele>
        <time>2026-04-02T07:26:36.265Z</time>
      </trkpt>
      <trkpt lat="44.13177" lon="3.21934">
        <ele>488.71</ele>
        <time>2026-04-02T07:26:41.620Z</time>
      </trkpt>
      <trkpt lat="44.13183" lon="3.21933">
        <ele>489.54</ele>
        <time>2026-04-02T07:26:46.646Z</time>
      </trkpt>
      <trkpt lat="44.13191" lon="3.21932">
        <ele>491.55</ele>
        <time>2026-04-02T07:26:52.007Z</time>
      </trkpt>
      <trkpt lat="44.13197" lon="3.21931">
        <ele>492.54</ele>
        <time>2026-04-02T07:26:57.513Z</time>
      </trkpt>
      <trkpt lat="44.132" lon="3.21928">
        <ele>491.57</ele>
        <time>2026-04-02T07:27:02.708Z</time>
      </trkpt>
      <trkpt lat="44.13205" lon="3.21925">
        <ele>491.19</ele>
        <time>2026-04-02T07:27:08.547Z</time>
      </trkpt>
      <trkpt lat="44.13209" lon="3.21926">
        <ele>492.11</ele>
        <time>2026-04-02T07:27:13.713Z</time>
      </trkpt>
      <trkpt lat="44.13214" lon="3.21928">
        <ele>493.55</ele>
        <time>2026-04-02T07:27:19.621Z</time>
      </trkpt>
      <trkpt lat="44.1322" lon="3.21931">
        <ele>495.01</ele>
        <time>2026-04-02T07:27:24.736Z</time>
      </trkpt>
      <trkpt lat="44.13226" lon="3.2193">
        <ele>495.45</ele>
        <time>2026-04-02T07:27:30.353Z</time>
      </trkpt>
      <trkpt lat="44.13232" lon="3.2193">
        <ele>493.65</ele>
        <time>2026-04-02T07:27:35.615Z</time>
      </trkpt>
      <trkpt lat="44.13238" lon="3.21929">
        <ele>494.31</ele>
        <time>2026-04-02T07:27:41.251Z</time>
      </trkpt>
      <trkpt lat="44.13243" lon="3.21928">
        <ele>495.11</ele>
        <time>2026-04-02T07:27:46.512Z</time>
      </trkpt>
      <trkpt lat="44.13247" lon="3.21929">
        <ele>495.77</ele>
        <time>2026-04-02T07:27:51.849Z</time>
      </trkpt>
      <trkpt lat="44.13251" lon="3.21926">
        <ele>495.23</ele>
        <time>2026-04-02T07:27:57.268Z</time>
      </trkpt>
      <trkpt lat="44.13256" lon="3.21931">
        <ele>496.61</ele>
        <time>2026-04-02T07:28:02.510Z</time>
      </trkpt>
      <trkpt lat="44.13261" lon="3.2193">
        <ele>496.57</ele>
        <time>2026-04-02T07:28:07.532Z</time>
      </trkpt>
      <trkpt lat="44.13263" lon="3.2193">
        <ele>497.24</ele>
        <time>2026-04-02T07:28:12.544Z</time>
      </trkpt>
      <trkpt lat="44.13264" lon="3.2193">
        <ele>498.35</ele>
        <time>2026-04-02T07:28:20.113Z</time>
      </trkpt>
      <trkpt lat="44.13267" lon="3.21932">
        <ele>498.03</ele>
        <time>2026-04-02T07:28:25.216Z</time>
      </trkpt>
      <trkpt lat="44.1327" lon="3.21932">
        <ele>500.91</ele>
        <time>2026-04-02T07:28:30.256Z</time>
      </trkpt>
      <trkpt lat="44.13277" lon="3.2193">
        <ele>500.13</ele>
        <time>2026-04-02T07:28:35.621Z</time>
      </trkpt>
      <trkpt lat="44.13284" lon="3.2193">
        <ele>500.2</ele>
        <time>2026-04-02T07:28:41.594Z</time>
      </trkpt>
      <trkpt lat="44.13286" lon="3.21929">
        <ele>501.02</ele>
        <time>2026-04-02T07:28:46.607Z</time>
      </trkpt>
      <trkpt lat="44.13289" lon="3.2193">
        <ele>500.16</ele>
        <time>2026-04-02T07:28:52.273Z</time>
      </trkpt>
      <trkpt lat="44.13292" lon="3.21931">
        <ele>502.08</ele>
        <time>2026-04-02T07:28:57.393Z</time>
      </trkpt>
      <trkpt lat="44.13294" lon="3.21931">
        <ele>502.21</ele>
        <time>2026-04-02T07:29:02.606Z</time>
      </trkpt>
      <trkpt lat="44.13295" lon="3.21931">
        <ele>503.45</ele>
        <time>2026-04-02T07:29:11.838Z</time>
      </trkpt>
      <trkpt lat="44.133" lon="3.2193">
        <ele>498.34</ele>
        <time>2026-04-02T07:29:16.975Z</time>
      </trkpt>
      <trkpt lat="44.13305" lon="3.21928">
        <ele>501.26</ele>
        <time>2026-04-02T07:29:22.034Z</time>
      </trkpt>
      <trkpt lat="44.13311" lon="3.21924">
        <ele>499.04</ele>
        <time>2026-04-02T07:29:27.251Z</time>
      </trkpt>
      <trkpt lat="44.13316" lon="3.2192">
        <ele>505.99</ele>
        <time>2026-04-02T07:29:32.580Z</time>
      </trkpt>
      <trkpt lat="44.1332" lon="3.21918">
        <ele>498.55</ele>
        <time>2026-04-02T07:29:37.594Z</time>
      </trkpt>
      <trkpt lat="44.13323" lon="3.21912">
        <ele>500.72</ele>
        <time>2026-04-02T07:29:42.708Z</time>
      </trkpt>
      <trkpt lat="44.13325" lon="3.21905">
        <ele>498.76</ele>
        <time>2026-04-02T07:29:48.512Z</time>
      </trkpt>
      <trkpt lat="44.13326" lon="3.219">
        <ele>497.66</ele>
        <time>2026-04-02T07:29:53.534Z</time>
      </trkpt>
      <trkpt lat="44.13326" lon="3.21897">
        <ele>498.67</ele>
        <time>2026-04-02T07:29:58.616Z</time>
      </trkpt>
      <trkpt lat="44.13329" lon="3.21891">
        <ele>500.14</ele>
        <time>2026-04-02T07:30:04.078Z</time>
      </trkpt>
      <trkpt lat="44.13334" lon="3.21887">
        <ele>501.62</ele>
        <time>2026-04-02T07:30:09.209Z</time>
      </trkpt>
      <trkpt lat="44.13339" lon="3.21884">
        <ele>500.19</ele>
        <time>2026-04-02T07:30:14.527Z</time>
      </trkpt>
      <trkpt lat="44.1334" lon="3.21878">
        <ele>499.42</ele>
        <time>2026-04-02T07:30:19.955Z</time>
      </trkpt>
      <trkpt lat="44.13336" lon="3.21873">
        <ele>499.89</ele>
        <time>2026-04-02T07:30:25.171Z</time>
      </trkpt>
      <trkpt lat="44.13336" lon="3.21867">
        <ele>500.66</ele>
        <time>2026-04-02T07:30:30.353Z</time>
      </trkpt>
      <trkpt lat="44.13339" lon="3.21862">
        <ele>501.26</ele>
        <time>2026-04-02T07:30:35.548Z</time>
      </trkpt>
      <trkpt lat="44.13342" lon="3.21855">
        <ele>502.02</ele>
        <time>2026-04-02T07:30:40.550Z</time>
      </trkpt>
      <trkpt lat="44.13349" lon="3.21854">
        <ele>501.12</ele>
        <time>2026-04-02T07:30:46.001Z</time>
      </trkpt>
      <trkpt lat="44.13354" lon="3.21858">
        <ele>502.96</ele>
        <time>2026-04-02T07:30:51.549Z</time>
      </trkpt>
      <trkpt lat="44.13358" lon="3.21857">
        <ele>504.19</ele>
        <time>2026-04-02T07:30:56.562Z</time>
      </trkpt>
      <trkpt lat="44.13359" lon="3.21856">
        <ele>504.87</ele>
        <time>2026-04-02T07:31:02.535Z</time>
      </trkpt>
      <trkpt lat="44.1336" lon="3.21856">
        <ele>506.6</ele>
        <time>2026-04-02T07:31:11.601Z</time>
      </trkpt>
      <trkpt lat="44.13362" lon="3.21853">
        <ele>507.27</ele>
        <time>2026-04-02T07:31:17.575Z</time>
      </trkpt>
      <trkpt lat="44.13363" lon="3.21848">
        <ele>509.01</ele>
        <time>2026-04-02T07:31:23.293Z</time>
      </trkpt>
      <trkpt lat="44.13365" lon="3.21847">
        <ele>509.91</ele>
        <time>2026-04-02T07:31:28.579Z</time>
      </trkpt>
      <trkpt lat="44.13367" lon="3.21846">
        <ele>512.57</ele>
        <time>2026-04-02T07:31:33.593Z</time>
      </trkpt>
      <trkpt lat="44.13369" lon="3.21844">
        <ele>511.83</ele>
        <time>2026-04-02T07:31:38.606Z</time>
      </trkpt>
      <trkpt lat="44.13372" lon="3.21842">
        <ele>512.71</ele>
        <time>2026-04-02T07:31:43.895Z</time>
      </trkpt>
      <trkpt lat="44.13374" lon="3.21837">
        <ele>514.37</ele>
        <time>2026-04-02T07:31:49.391Z</time>
      </trkpt>
      <trkpt lat="44.13379" lon="3.21832">
        <ele>514.61</ele>
        <time>2026-04-02T07:31:55.072Z</time>
      </trkpt>
      <trkpt lat="44.13382" lon="3.21833">
        <ele>514.77</ele>
        <time>2026-04-02T07:32:00.579Z</time>
      </trkpt>
      <trkpt lat="44.13383" lon="3.21835">
        <ele>513.13</ele>
        <time>2026-04-02T07:32:05.592Z</time>
      </trkpt>
      <trkpt lat="44.13384" lon="3.21835">
        <ele>512.88</ele>
        <time>2026-04-02T07:32:10.605Z</time>
      </trkpt>
      <trkpt lat="44.1339" lon="3.21836">
        <ele>516.04</ele>
        <time>2026-04-02T07:32:15.969Z</time>
      </trkpt>
      <trkpt lat="44.13396" lon="3.2184">
        <ele>516.18</ele>
        <time>2026-04-02T07:32:21.071Z</time>
      </trkpt>
      <trkpt lat="44.134" lon="3.21841">
        <ele>516.55</ele>
        <time>2026-04-02T07:32:26.605Z</time>
      </trkpt>
      <trkpt lat="44.13403" lon="3.2184">
        <ele>519.03</ele>
        <time>2026-04-02T07:32:31.612Z</time>
      </trkpt>
      <trkpt lat="44.13407" lon="3.21836">
        <ele>518.06</ele>
        <time>2026-04-02T07:32:37.116Z</time>
      </trkpt>
      <trkpt lat="44.13412" lon="3.21833">
        <ele>519.32</ele>
        <time>2026-04-02T07:32:42.608Z</time>
      </trkpt>
      <trkpt lat="44.13416" lon="3.21831">
        <ele>519.15</ele>
        <time>2026-04-02T07:32:47.618Z</time>
      </trkpt>
      <trkpt lat="44.13422" lon="3.21827">
        <ele>519.47</ele>
        <time>2026-04-02T07:32:53.171Z</time>
      </trkpt>
      <trkpt lat="44.13427" lon="3.21824">
        <ele>519.37</ele>
        <time>2026-04-02T07:32:58.614Z</time>
      </trkpt>
      <trkpt lat="44.13432" lon="3.21822">
        <ele>518.5</ele>
        <time>2026-04-02T07:33:04.289Z</time>
      </trkpt>
      <trkpt lat="44.13434" lon="3.21814">
        <ele>517.48</ele>
        <time>2026-04-02T07:33:09.600Z</time>
      </trkpt>
      <trkpt lat="44.13438" lon="3.2181">
        <ele>517.29</ele>
        <time>2026-04-02T07:33:15.574Z</time>
      </trkpt>
      <trkpt lat="44.13442" lon="3.21812">
        <ele>518.71</ele>
        <time>2026-04-02T07:33:21.546Z</time>
      </trkpt>
      <trkpt lat="44.13443" lon="3.21816">
        <ele>518.34</ele>
        <time>2026-04-02T07:33:26.560Z</time>
      </trkpt>
      <trkpt lat="44.13442" lon="3.21818">
        <ele>520.14</ele>
        <time>2026-04-02T07:33:31.574Z</time>
      </trkpt>
      <trkpt lat="44.13443" lon="3.21819">
        <ele>519.68</ele>
        <time>2026-04-02T07:33:42.858Z</time>
      </trkpt>
      <trkpt lat="44.13449" lon="3.21822">
        <ele>520.87</ele>
        <time>2026-04-02T07:33:48.343Z</time>
      </trkpt>
      <trkpt lat="44.13454" lon="3.21817">
        <ele>522.67</ele>
        <time>2026-04-02T07:33:53.563Z</time>
      </trkpt>
      <trkpt lat="44.13457" lon="3.21811">
        <ele>523.69</ele>
        <time>2026-04-02T07:33:58.578Z</time>
      </trkpt>
      <trkpt lat="44.13461" lon="3.21806">
        <ele>523.84</ele>
        <time>2026-04-02T07:34:03.799Z</time>
      </trkpt>
      <trkpt lat="44.13465" lon="3.21802">
        <ele>523.52</ele>
        <time>2026-04-02T07:34:09.355Z</time>
      </trkpt>
      <trkpt lat="44.13472" lon="3.218">
        <ele>523.92</ele>
        <time>2026-04-02T07:34:14.577Z</time>
      </trkpt>
      <trkpt lat="44.13478" lon="3.21802">
        <ele>524.79</ele>
        <time>2026-04-02T07:34:19.619Z</time>
      </trkpt>
      <trkpt lat="44.13484" lon="3.21804">
        <ele>526.18</ele>
        <time>2026-04-02T07:34:25.541Z</time>
      </trkpt>
      <trkpt lat="44.1349" lon="3.21805">
        <ele>527.43</ele>
        <time>2026-04-02T07:34:30.603Z</time>
      </trkpt>
      <trkpt lat="44.13498" lon="3.21805">
        <ele>529.25</ele>
        <time>2026-04-02T07:34:36.217Z</time>
      </trkpt>
      <trkpt lat="44.13503" lon="3.21808">
        <ele>529.96</ele>
        <time>2026-04-02T07:34:41.513Z</time>
      </trkpt>
      <trkpt lat="44.13507" lon="3.2181">
        <ele>531.16</ele>
        <time>2026-04-02T07:34:46.586Z</time>
      </trkpt>
      <trkpt lat="44.13509" lon="3.21809">
        <ele>532.1</ele>
        <time>2026-04-02T07:34:52.233Z</time>
      </trkpt>
      <trkpt lat="44.13512" lon="3.21808">
        <ele>533.58</ele>
        <time>2026-04-02T07:34:57.238Z</time>
      </trkpt>
      <trkpt lat="44.13515" lon="3.21806">
        <ele>534.16</ele>
        <time>2026-04-02T07:35:02.479Z</time>
      </trkpt>
      <trkpt lat="44.13517" lon="3.21805">
        <ele>533.88</ele>
        <time>2026-04-02T07:35:08.036Z</time>
      </trkpt>
      <trkpt lat="44.1352" lon="3.21807">
        <ele>534.17</ele>
        <time>2026-04-02T07:35:13.581Z</time>
      </trkpt>
      <trkpt lat="44.13523" lon="3.21806">
        <ele>534.85</ele>
        <time>2026-04-02T07:35:18.604Z</time>
      </trkpt>
      <trkpt lat="44.13525" lon="3.21803">
        <ele>536.18</ele>
        <time>2026-04-02T07:35:24.489Z</time>
      </trkpt>
      <trkpt lat="44.13526" lon="3.21802">
        <ele>535.86</ele>
        <time>2026-04-02T07:35:29.501Z</time>
      </trkpt>
      <trkpt lat="44.13527" lon="3.21801">
        <ele>535.82</ele>
        <time>2026-04-02T07:35:34.732Z</time>
      </trkpt>
      <trkpt lat="44.13532" lon="3.21802">
        <ele>536.64</ele>
        <time>2026-04-02T07:35:40.595Z</time>
      </trkpt>
      <trkpt lat="44.13533" lon="3.21801">
        <ele>535.85</ele>
        <time>2026-04-02T07:35:47.054Z</time>
      </trkpt>
      <trkpt lat="44.13538" lon="3.21795">
        <ele>534.82</ele>
        <time>2026-04-02T07:35:52.332Z</time>
      </trkpt>
      <trkpt lat="44.13543" lon="3.21789">
        <ele>534.74</ele>
        <time>2026-04-02T07:35:57.611Z</time>
      </trkpt>
      <trkpt lat="44.13546" lon="3.21783">
        <ele>536.22</ele>
        <time>2026-04-02T07:36:02.677Z</time>
      </trkpt>
      <trkpt lat="44.1355" lon="3.21781">
        <ele>537.15</ele>
        <time>2026-04-02T07:36:07.692Z</time>
      </trkpt>
      <trkpt lat="44.13553" lon="3.21785">
        <ele>536.98</ele>
        <time>2026-04-02T07:36:13.062Z</time>
      </trkpt>
      <trkpt lat="44.13558" lon="3.21789">
        <ele>535.87</ele>
        <time>2026-04-02T07:36:18.378Z</time>
      </trkpt>
      <trkpt lat="44.13562" lon="3.21792">
        <ele>536.47</ele>
        <time>2026-04-02T07:36:23.602Z</time>
      </trkpt>
      <trkpt lat="44.13568" lon="3.21796">
        <ele>536.66</ele>
        <time>2026-04-02T07:36:29.259Z</time>
      </trkpt>
      <trkpt lat="44.1357" lon="3.21796">
        <ele>536.92</ele>
        <time>2026-04-02T07:36:34.664Z</time>
      </trkpt>
      <trkpt lat="44.13574" lon="3.21797">
        <ele>537.13</ele>
        <time>2026-04-02T07:36:40.203Z</time>
      </trkpt>
      <trkpt lat="44.13577" lon="3.21799">
        <ele>536.22</ele>
        <time>2026-04-02T07:36:45.575Z</time>
      </trkpt>
      <trkpt lat="44.13578" lon="3.21809">
        <ele>536.63</ele>
        <time>2026-04-02T07:36:51.063Z</time>
      </trkpt>
      <trkpt lat="44.13583" lon="3.21811">
        <ele>536.66</ele>
        <time>2026-04-02T07:36:56.562Z</time>
      </trkpt>
      <trkpt lat="44.1359" lon="3.21809">
        <ele>536.63</ele>
        <time>2026-04-02T07:37:02.005Z</time>
      </trkpt>
      <trkpt lat="44.13595" lon="3.21803">
        <ele>537.54</ele>
        <time>2026-04-02T07:37:07.286Z</time>
      </trkpt>
      <trkpt lat="44.13602" lon="3.21803">
        <ele>537.11</ele>
        <time>2026-04-02T07:37:12.571Z</time>
      </trkpt>
      <trkpt lat="44.13609" lon="3.21801">
        <ele>536.42</ele>
        <time>2026-04-02T07:37:18.245Z</time>
      </trkpt>
      <trkpt lat="44.13616" lon="3.21803">
        <ele>538</ele>
        <time>2026-04-02T07:37:24.103Z</time>
      </trkpt>
      <trkpt lat="44.13624" lon="3.21806">
        <ele>539.34</ele>
        <time>2026-04-02T07:37:29.639Z</time>
      </trkpt>
      <trkpt lat="44.13634" lon="3.21808">
        <ele>540.01</ele>
        <time>2026-04-02T07:37:35.365Z</time>
      </trkpt>
      <trkpt lat="44.1364" lon="3.21806">
        <ele>540.96</ele>
        <time>2026-04-02T07:37:40.624Z</time>
      </trkpt>
      <trkpt lat="44.13645" lon="3.21805">
        <ele>542.94</ele>
        <time>2026-04-02T07:37:46.423Z</time>
      </trkpt>
      <trkpt lat="44.13647" lon="3.21807">
        <ele>545.15</ele>
        <time>2026-04-02T07:37:51.648Z</time>
      </trkpt>
      <trkpt lat="44.13651" lon="3.21811">
        <ele>544.38</ele>
        <time>2026-04-02T07:37:57.170Z</time>
      </trkpt>
      <trkpt lat="44.13654" lon="3.21809">
        <ele>543.16</ele>
        <time>2026-04-02T07:38:02.846Z</time>
      </trkpt>
      <trkpt lat="44.13658" lon="3.21811">
        <ele>543.92</ele>
        <time>2026-04-02T07:38:08.579Z</time>
      </trkpt>
      <trkpt lat="44.13663" lon="3.21812">
        <ele>543.69</ele>
        <time>2026-04-02T07:38:14.192Z</time>
      </trkpt>
      <trkpt lat="44.13666" lon="3.21812">
        <ele>544.67</ele>
        <time>2026-04-02T07:38:19.566Z</time>
      </trkpt>
      <trkpt lat="44.13665" lon="3.21812">
        <ele>545.24</ele>
        <time>2026-04-02T07:38:24.580Z</time>
      </trkpt>
      <trkpt lat="44.13666" lon="3.21812">
        <ele>545.89</ele>
        <time>2026-04-02T07:38:32.580Z</time>
      </trkpt>
      <trkpt lat="44.13671" lon="3.21811">
        <ele>545.72</ele>
        <time>2026-04-02T07:38:37.981Z</time>
      </trkpt>
      <trkpt lat="44.13675" lon="3.21813">
        <ele>545.14</ele>
        <time>2026-04-02T07:38:43.577Z</time>
      </trkpt>
      <trkpt lat="44.13677" lon="3.21819">
        <ele>545.66</ele>
        <time>2026-04-02T07:38:48.590Z</time>
      </trkpt>
      <trkpt lat="44.13675" lon="3.21823">
        <ele>546.55</ele>
        <time>2026-04-02T07:38:54.563Z</time>
      </trkpt>
      <trkpt lat="44.13675" lon="3.21825">
        <ele>547.24</ele>
        <time>2026-04-02T07:39:00.904Z</time>
      </trkpt>
      <trkpt lat="44.13676" lon="3.21826">
        <ele>550.65</ele>
        <time>2026-04-02T07:39:06.512Z</time>
      </trkpt>
      <trkpt lat="44.13675" lon="3.2183">
        <ele>551.51</ele>
        <time>2026-04-02T07:39:11.526Z</time>
      </trkpt>
      <trkpt lat="44.1367" lon="3.21836">
        <ele>551.62</ele>
        <time>2026-04-02T07:39:17.086Z</time>
      </trkpt>
      <trkpt lat="44.13667" lon="3.21838">
        <ele>552.68</ele>
        <time>2026-04-02T07:39:22.620Z</time>
      </trkpt>
      <trkpt lat="44.13667" lon="3.21839">
        <ele>553.92</ele>
        <time>2026-04-02T07:39:43.536Z</time>
      </trkpt>
      <trkpt lat="44.13666" lon="3.21839">
        <ele>554.16</ele>
        <time>2026-04-02T07:39:51.536Z</time>
      </trkpt>
      <trkpt lat="44.13666" lon="3.21841">
        <ele>554.14</ele>
        <time>2026-04-02T07:39:56.666Z</time>
      </trkpt>
      <trkpt lat="44.13673" lon="3.21845">
        <ele>556.61</ele>
        <time>2026-04-02T07:40:02.449Z</time>
      </trkpt>
      <trkpt lat="44.13678" lon="3.21844">
        <ele>559.03</ele>
        <time>2026-04-02T07:40:07.827Z</time>
      </trkpt>
      <trkpt lat="44.1368" lon="3.21845">
        <ele>560.26</ele>
        <time>2026-04-02T07:40:13.628Z</time>
      </trkpt>
      <trkpt lat="44.13681" lon="3.21846">
        <ele>561.75</ele>
        <time>2026-04-02T07:40:20.930Z</time>
      </trkpt>
      <trkpt lat="44.13682" lon="3.21849">
        <ele>561.83</ele>
        <time>2026-04-02T07:40:26.643Z</time>
      </trkpt>
      <trkpt lat="44.13688" lon="3.21852">
        <ele>561.79</ele>
        <time>2026-04-02T07:40:32.079Z</time>
      </trkpt>
      <trkpt lat="44.13694" lon="3.21854">
        <ele>562.22</ele>
        <time>2026-04-02T07:40:37.153Z</time>
      </trkpt>
      <trkpt lat="44.13699" lon="3.21852">
        <ele>561.85</ele>
        <time>2026-04-02T07:40:42.398Z</time>
      </trkpt>
      <trkpt lat="44.13702" lon="3.21852">
        <ele>562.58</ele>
        <time>2026-04-02T07:40:47.558Z</time>
      </trkpt>
      <trkpt lat="44.13704" lon="3.21851">
        <ele>564.55</ele>
        <time>2026-04-02T07:40:52.573Z</time>
      </trkpt>
      <trkpt lat="44.13707" lon="3.2185">
        <ele>565.71</ele>
        <time>2026-04-02T07:40:58.360Z</time>
      </trkpt>
      <trkpt lat="44.13706" lon="3.21851">
        <ele>566.25</ele>
        <time>2026-04-02T07:41:04.627Z</time>
      </trkpt>
      <trkpt lat="44.13708" lon="3.21849">
        <ele>567.2</ele>
        <time>2026-04-02T07:41:10.180Z</time>
      </trkpt>
      <trkpt lat="44.13711" lon="3.21844">
        <ele>568.6</ele>
        <time>2026-04-02T07:41:15.507Z</time>
      </trkpt>
      <trkpt lat="44.13716" lon="3.21839">
        <ele>569.59</ele>
        <time>2026-04-02T07:41:21.199Z</time>
      </trkpt>
      <trkpt lat="44.13722" lon="3.21838">
        <ele>570.22</ele>
        <time>2026-04-02T07:41:26.382Z</time>
      </trkpt>
      <trkpt lat="44.13727" lon="3.21834">
        <ele>570.39</ele>
        <time>2026-04-02T07:41:31.600Z</time>
      </trkpt>
      <trkpt lat="44.13733" lon="3.21832">
        <ele>570.68</ele>
        <time>2026-04-02T07:41:36.611Z</time>
      </trkpt>
      <trkpt lat="44.1374" lon="3.21829">
        <ele>572.59</ele>
        <time>2026-04-02T07:41:42.216Z</time>
      </trkpt>
      <trkpt lat="44.13747" lon="3.21829">
        <ele>572.99</ele>
        <time>2026-04-02T07:41:47.459Z</time>
      </trkpt>
      <trkpt lat="44.13754" lon="3.21829">
        <ele>573.71</ele>
        <time>2026-04-02T07:41:52.628Z</time>
      </trkpt>
      <trkpt lat="44.13759" lon="3.21827">
        <ele>575.31</ele>
        <time>2026-04-02T07:41:58.358Z</time>
      </trkpt>
      <trkpt lat="44.13764" lon="3.21823">
        <ele>576.72</ele>
        <time>2026-04-02T07:42:03.615Z</time>
      </trkpt>
      <trkpt lat="44.13768" lon="3.21819">
        <ele>577.38</ele>
        <time>2026-04-02T07:42:08.627Z</time>
      </trkpt>
      <trkpt lat="44.13773" lon="3.21813">
        <ele>577.71</ele>
        <time>2026-04-02T07:42:14.357Z</time>
      </trkpt>
      <trkpt lat="44.13776" lon="3.21816">
        <ele>579.54</ele>
        <time>2026-04-02T07:42:19.624Z</time>
      </trkpt>
      <trkpt lat="44.13775" lon="3.21823">
        <ele>580.24</ele>
        <time>2026-04-02T07:42:25.596Z</time>
      </trkpt>
      <trkpt lat="44.13776" lon="3.21832">
        <ele>580.69</ele>
        <time>2026-04-02T07:42:30.925Z</time>
      </trkpt>
      <trkpt lat="44.13775" lon="3.21842">
        <ele>580.68</ele>
        <time>2026-04-02T07:42:36.090Z</time>
      </trkpt>
      <trkpt lat="44.13775" lon="3.21848">
        <ele>582.02</ele>
        <time>2026-04-02T07:42:41.530Z</time>
      </trkpt>
      <trkpt lat="44.13774" lon="3.2185">
        <ele>583.39</ele>
        <time>2026-04-02T07:42:52.584Z</time>
      </trkpt>
      <trkpt lat="44.13771" lon="3.21857">
        <ele>585.8</ele>
        <time>2026-04-02T07:42:58.047Z</time>
      </trkpt>
      <trkpt lat="44.13768" lon="3.21866">
        <ele>586.87</ele>
        <time>2026-04-02T07:43:03.213Z</time>
      </trkpt>
      <trkpt lat="44.13764" lon="3.21874">
        <ele>587.81</ele>
        <time>2026-04-02T07:43:08.569Z</time>
      </trkpt>
      <trkpt lat="44.13761" lon="3.21878">
        <ele>588.46</ele>
        <time>2026-04-02T07:43:13.598Z</time>
      </trkpt>
      <trkpt lat="44.13757" lon="3.21884">
        <ele>589.01</ele>
        <time>2026-04-02T07:43:18.611Z</time>
      </trkpt>
      <trkpt lat="44.13754" lon="3.2189">
        <ele>591.07</ele>
        <time>2026-04-02T07:43:24.268Z</time>
      </trkpt>
      <trkpt lat="44.1375" lon="3.21893">
        <ele>591.56</ele>
        <time>2026-04-02T07:43:29.290Z</time>
      </trkpt>
      <trkpt lat="44.13746" lon="3.21895">
        <ele>591.03</ele>
        <time>2026-04-02T07:43:34.505Z</time>
      </trkpt>
      <trkpt lat="44.13742" lon="3.21902">
        <ele>592.07</ele>
        <time>2026-04-02T07:43:39.905Z</time>
      </trkpt>
      <trkpt lat="44.13739" lon="3.21906">
        <ele>593.4</ele>
        <time>2026-04-02T07:43:45.167Z</time>
      </trkpt>
      <trkpt lat="44.13742" lon="3.21912">
        <ele>594.61</ele>
        <time>2026-04-02T07:43:50.571Z</time>
      </trkpt>
      <trkpt lat="44.13746" lon="3.21916">
        <ele>595.78</ele>
        <time>2026-04-02T07:43:55.625Z</time>
      </trkpt>
      <trkpt lat="44.13747" lon="3.21916">
        <ele>597.52</ele>
        <time>2026-04-02T07:44:02.287Z</time>
      </trkpt>
      <trkpt lat="44.13749" lon="3.21916">
        <ele>598.58</ele>
        <time>2026-04-02T07:44:07.290Z</time>
      </trkpt>
      <trkpt lat="44.1375" lon="3.21915">
        <ele>599.63</ele>
        <time>2026-04-02T07:44:13.566Z</time>
      </trkpt>
      <trkpt lat="44.13752" lon="3.21914">
        <ele>600.86</ele>
        <time>2026-04-02T07:44:19.210Z</time>
      </trkpt>
      <trkpt lat="44.13754" lon="3.21914">
        <ele>602.61</ele>
        <time>2026-04-02T07:44:25.598Z</time>
      </trkpt>
      <trkpt lat="44.13755" lon="3.21915">
        <ele>602.72</ele>
        <time>2026-04-02T07:44:31.166Z</time>
      </trkpt>
      <trkpt lat="44.13758" lon="3.21919">
        <ele>602.48</ele>
        <time>2026-04-02T07:44:36.487Z</time>
      </trkpt>
      <trkpt lat="44.13761" lon="3.21928">
        <ele>604.02</ele>
        <time>2026-04-02T07:44:42.576Z</time>
      </trkpt>
      <trkpt lat="44.13764" lon="3.21933">
        <ele>605.07</ele>
        <time>2026-04-02T07:44:48.550Z</time>
      </trkpt>
      <trkpt lat="44.13761" lon="3.21939">
        <ele>604.95</ele>
        <time>2026-04-02T07:44:53.590Z</time>
      </trkpt>
      <trkpt lat="44.13758" lon="3.21947">
        <ele>604.56</ele>
        <time>2026-04-02T07:44:59.183Z</time>
      </trkpt>
      <trkpt lat="44.13759" lon="3.21946">
        <ele>606.59</ele>
        <time>2026-04-02T07:45:06.609Z</time>
      </trkpt>
      <trkpt lat="44.13761" lon="3.21943">
        <ele>608.7</ele>
        <time>2026-04-02T07:45:11.616Z</time>
      </trkpt>
      <trkpt lat="44.13764" lon="3.21942">
        <ele>608.62</ele>
        <time>2026-04-02T07:45:16.687Z</time>
      </trkpt>
      <trkpt lat="44.13767" lon="3.21943">
        <ele>610.09</ele>
        <time>2026-04-02T07:45:22.226Z</time>
      </trkpt>
      <trkpt lat="44.13767" lon="3.21948">
        <ele>611.11</ele>
        <time>2026-04-02T07:45:27.618Z</time>
      </trkpt>
      <trkpt lat="44.13765" lon="3.21949">
        <ele>610.93</ele>
        <time>2026-04-02T07:45:32.631Z</time>
      </trkpt>
      <trkpt lat="44.13762" lon="3.21951">
        <ele>611.91</ele>
        <time>2026-04-02T07:45:38.012Z</time>
      </trkpt>
      <trkpt lat="44.13758" lon="3.21956">
        <ele>612.55</ele>
        <time>2026-04-02T07:45:43.507Z</time>
      </trkpt>
      <trkpt lat="44.13756" lon="3.2196">
        <ele>613.49</ele>
        <time>2026-04-02T07:45:48.630Z</time>
      </trkpt>
      <trkpt lat="44.1376" lon="3.21964">
        <ele>615.82</ele>
        <time>2026-04-02T07:45:54.433Z</time>
      </trkpt>
      <trkpt lat="44.13765" lon="3.21965">
        <ele>615.49</ele>
        <time>2026-04-02T07:45:59.586Z</time>
      </trkpt>
      <trkpt lat="44.13767" lon="3.21964">
        <ele>616.12</ele>
        <time>2026-04-02T07:46:05.248Z</time>
      </trkpt>
      <trkpt lat="44.13768" lon="3.21964">
        <ele>617.51</ele>
        <time>2026-04-02T07:46:11.410Z</time>
      </trkpt>
      <trkpt lat="44.13772" lon="3.21964">
        <ele>619.04</ele>
        <time>2026-04-02T07:46:17.223Z</time>
      </trkpt>
      <trkpt lat="44.13774" lon="3.21962">
        <ele>619</ele>
        <time>2026-04-02T07:46:22.281Z</time>
      </trkpt>
      <trkpt lat="44.13777" lon="3.2196">
        <ele>620.96</ele>
        <time>2026-04-02T07:46:27.485Z</time>
      </trkpt>
      <trkpt lat="44.13783" lon="3.21958">
        <ele>621.37</ele>
        <time>2026-04-02T07:46:32.578Z</time>
      </trkpt>
      <trkpt lat="44.13788" lon="3.21956">
        <ele>623.51</ele>
        <time>2026-04-02T07:46:38.552Z</time>
      </trkpt>
      <trkpt lat="44.13793" lon="3.21954">
        <ele>623.83</ele>
        <time>2026-04-02T07:46:43.620Z</time>
      </trkpt>
      <trkpt lat="44.13796" lon="3.21953">
        <ele>624.85</ele>
        <time>2026-04-02T07:46:49.541Z</time>
      </trkpt>
      <trkpt lat="44.138" lon="3.21951">
        <ele>625.73</ele>
        <time>2026-04-02T07:46:54.552Z</time>
      </trkpt>
      <trkpt lat="44.13805" lon="3.21949">
        <ele>627.08</ele>
        <time>2026-04-02T07:46:59.565Z</time>
      </trkpt>
      <trkpt lat="44.13808" lon="3.21951">
        <ele>627.6</ele>
        <time>2026-04-02T07:47:04.577Z</time>
      </trkpt>
      <trkpt lat="44.13811" lon="3.21953">
        <ele>629.03</ele>
        <time>2026-04-02T07:47:09.639Z</time>
      </trkpt>
      <trkpt lat="44.13813" lon="3.21958">
        <ele>629.2</ele>
        <time>2026-04-02T07:47:15.035Z</time>
      </trkpt>
      <trkpt lat="44.13818" lon="3.2196">
        <ele>630.09</ele>
        <time>2026-04-02T07:47:20.199Z</time>
      </trkpt>
      <trkpt lat="44.13823" lon="3.21963">
        <ele>630.65</ele>
        <time>2026-04-02T07:47:25.592Z</time>
      </trkpt>
      <trkpt lat="44.13827" lon="3.21964">
        <ele>632.3</ele>
        <time>2026-04-02T07:47:30.605Z</time>
      </trkpt>
      <trkpt lat="44.13832" lon="3.21966">
        <ele>633.15</ele>
        <time>2026-04-02T07:47:35.618Z</time>
      </trkpt>
      <trkpt lat="44.13836" lon="3.21969">
        <ele>634.39</ele>
        <time>2026-04-02T07:47:41.079Z</time>
      </trkpt>
      <trkpt lat="44.13837" lon="3.21972">
        <ele>635.14</ele>
        <time>2026-04-02T07:47:46.605Z</time>
      </trkpt>
      <trkpt lat="44.13838" lon="3.21972">
        <ele>635.96</ele>
        <time>2026-04-02T07:47:57.594Z</time>
      </trkpt>
      <trkpt lat="44.13842" lon="3.21976">
        <ele>637.73</ele>
        <time>2026-04-02T07:48:03.163Z</time>
      </trkpt>
      <trkpt lat="44.13848" lon="3.21981">
        <ele>638.32</ele>
        <time>2026-04-02T07:48:08.361Z</time>
      </trkpt>
      <trkpt lat="44.13853" lon="3.21984">
        <ele>639.1</ele>
        <time>2026-04-02T07:48:13.620Z</time>
      </trkpt>
      <trkpt lat="44.13857" lon="3.21987">
        <ele>639.53</ele>
        <time>2026-04-02T07:48:19.177Z</time>
      </trkpt>
      <trkpt lat="44.13862" lon="3.21993">
        <ele>640.69</ele>
        <time>2026-04-02T07:48:24.685Z</time>
      </trkpt>
      <trkpt lat="44.13867" lon="3.21997">
        <ele>641.62</ele>
        <time>2026-04-02T07:48:30.137Z</time>
      </trkpt>
      <trkpt lat="44.13871" lon="3.22004">
        <ele>642.38</ele>
        <time>2026-04-02T07:48:35.462Z</time>
      </trkpt>
      <trkpt lat="44.13876" lon="3.22006">
        <ele>643.17</ele>
        <time>2026-04-02T07:48:40.578Z</time>
      </trkpt>
      <trkpt lat="44.13878" lon="3.22008">
        <ele>642.7</ele>
        <time>2026-04-02T07:48:45.590Z</time>
      </trkpt>
      <trkpt lat="44.13877" lon="3.22013">
        <ele>643.9</ele>
        <time>2026-04-02T07:48:51.425Z</time>
      </trkpt>
      <trkpt lat="44.13878" lon="3.22018">
        <ele>645.36</ele>
        <time>2026-04-02T07:48:56.581Z</time>
      </trkpt>
      <trkpt lat="44.13881" lon="3.22025">
        <ele>647.28</ele>
        <time>2026-04-02T07:49:02.581Z</time>
      </trkpt>
      <trkpt lat="44.13885" lon="3.22032">
        <ele>648.6</ele>
        <time>2026-04-02T07:49:08.065Z</time>
      </trkpt>
      <trkpt lat="44.13889" lon="3.22037">
        <ele>649.69</ele>
        <time>2026-04-02T07:49:13.556Z</time>
      </trkpt>
      <trkpt lat="44.13888" lon="3.22039">
        <ele>649.49</ele>
        <time>2026-04-02T07:49:18.569Z</time>
      </trkpt>
      <trkpt lat="44.13888" lon="3.22043">
        <ele>651</ele>
        <time>2026-04-02T07:49:23.582Z</time>
      </trkpt>
      <trkpt lat="44.1389" lon="3.2205">
        <ele>652.79</ele>
        <time>2026-04-02T07:49:28.677Z</time>
      </trkpt>
      <trkpt lat="44.1389" lon="3.22058">
        <ele>653.88</ele>
        <time>2026-04-02T07:49:34.598Z</time>
      </trkpt>
      <trkpt lat="44.13892" lon="3.22064">
        <ele>654.4</ele>
        <time>2026-04-02T07:49:40.144Z</time>
      </trkpt>
      <trkpt lat="44.13893" lon="3.22069">
        <ele>654.21</ele>
        <time>2026-04-02T07:49:45.665Z</time>
      </trkpt>
      <trkpt lat="44.13895" lon="3.22078">
        <ele>656.19</ele>
        <time>2026-04-02T07:49:51.602Z</time>
      </trkpt>
      <trkpt lat="44.13898" lon="3.22084">
        <ele>659.25</ele>
        <time>2026-04-02T07:49:57.000Z</time>
      </trkpt>
      <trkpt lat="44.13901" lon="3.22091">
        <ele>660.12</ele>
        <time>2026-04-02T07:50:02.622Z</time>
      </trkpt>
      <trkpt lat="44.13904" lon="3.22097">
        <ele>659.58</ele>
        <time>2026-04-02T07:50:07.635Z</time>
      </trkpt>
      <trkpt lat="44.13905" lon="3.22103">
        <ele>660.34</ele>
        <time>2026-04-02T07:50:13.344Z</time>
      </trkpt>
      <trkpt lat="44.13906" lon="3.22104">
        <ele>662.3</ele>
        <time>2026-04-02T07:50:19.220Z</time>
      </trkpt>
      <trkpt lat="44.13909" lon="3.22111">
        <ele>663.33</ele>
        <time>2026-04-02T07:50:24.441Z</time>
      </trkpt>
      <trkpt lat="44.13911" lon="3.22117">
        <ele>663.54</ele>
        <time>2026-04-02T07:50:29.608Z</time>
      </trkpt>
      <trkpt lat="44.13913" lon="3.22124">
        <ele>661.87</ele>
        <time>2026-04-02T07:50:35.580Z</time>
      </trkpt>
      <trkpt lat="44.13913" lon="3.2213">
        <ele>663.17</ele>
        <time>2026-04-02T07:50:40.595Z</time>
      </trkpt>
      <trkpt lat="44.13912" lon="3.22134">
        <ele>663.75</ele>
        <time>2026-04-02T07:50:45.608Z</time>
      </trkpt>
      <trkpt lat="44.13912" lon="3.22135">
        <ele>663.88</ele>
        <time>2026-04-02T07:50:52.648Z</time>
      </trkpt>
      <trkpt lat="44.13912" lon="3.22133">
        <ele>663.63</ele>
        <time>2026-04-02T07:52:18.620Z</time>
      </trkpt>
      <trkpt lat="44.13912" lon="3.22132">
        <ele>664.25</ele>
        <time>2026-04-02T07:52:54.673Z</time>
      </trkpt>
      <trkpt lat="44.13913" lon="3.22131">
        <ele>664.21</ele>
        <time>2026-04-02T07:53:19.633Z</time>
      </trkpt>
      <trkpt lat="44.13914" lon="3.22131">
        <ele>663.83</ele>
        <time>2026-04-02T07:53:48.646Z</time>
      </trkpt>
      <trkpt lat="44.13914" lon="3.22133">
        <ele>662.32</ele>
        <time>2026-04-02T07:54:00.593Z</time>
      </trkpt>
      <trkpt lat="44.13913" lon="3.22134">
        <ele>664.01</ele>
        <time>2026-04-02T07:54:06.497Z</time>
      </trkpt>
      <trkpt lat="44.13912" lon="3.22135">
        <ele>663.76</ele>
        <time>2026-04-02T07:54:43.496Z</time>
      </trkpt>
      <trkpt lat="44.13913" lon="3.22135">
        <ele>663.13</ele>
        <time>2026-04-02T07:55:09.498Z</time>
      </trkpt>
      <trkpt lat="44.13916" lon="3.22141">
        <ele>666.28</ele>
        <time>2026-04-02T07:55:14.560Z</time>
      </trkpt>
      <trkpt lat="44.1392" lon="3.22148">
        <ele>667.24</ele>
        <time>2026-04-02T07:55:19.887Z</time>
      </trkpt>
      <trkpt lat="44.13921" lon="3.22156">
        <ele>667.45</ele>
        <time>2026-04-02T07:55:25.326Z</time>
      </trkpt>
      <trkpt lat="44.13919" lon="3.2216">
        <ele>667.96</ele>
        <time>2026-04-02T07:55:31.122Z</time>
      </trkpt>
      <trkpt lat="44.13919" lon="3.22164">
        <ele>668.99</ele>
        <time>2026-04-02T07:55:36.338Z</time>
      </trkpt>
      <trkpt lat="44.13921" lon="3.22171">
        <ele>670.32</ele>
        <time>2026-04-02T07:55:41.616Z</time>
      </trkpt>
      <trkpt lat="44.13923" lon="3.22176">
        <ele>672.19</ele>
        <time>2026-04-02T07:55:47.122Z</time>
      </trkpt>
      <trkpt lat="44.13926" lon="3.22182">
        <ele>673.17</ele>
        <time>2026-04-02T07:55:52.224Z</time>
      </trkpt>
      <trkpt lat="44.13928" lon="3.22188">
        <ele>673.03</ele>
        <time>2026-04-02T07:55:57.582Z</time>
      </trkpt>
      <trkpt lat="44.13931" lon="3.22196">
        <ele>673.33</ele>
        <time>2026-04-02T07:56:03.219Z</time>
      </trkpt>
      <trkpt lat="44.13933" lon="3.22203">
        <ele>674.13</ele>
        <time>2026-04-02T07:56:08.593Z</time>
      </trkpt>
      <trkpt lat="44.13935" lon="3.22209">
        <ele>676.05</ele>
        <time>2026-04-02T07:56:13.861Z</time>
      </trkpt>
      <trkpt lat="44.13937" lon="3.22217">
        <ele>674.65</ele>
        <time>2026-04-02T07:56:19.103Z</time>
      </trkpt>
      <trkpt lat="44.13937" lon="3.22226">
        <ele>675.52</ele>
        <time>2026-04-02T07:56:24.657Z</time>
      </trkpt>
      <trkpt lat="44.13937" lon="3.22233">
        <ele>675.55</ele>
        <time>2026-04-02T07:56:30.524Z</time>
      </trkpt>
      <trkpt lat="44.13939" lon="3.22241">
        <ele>675.74</ele>
        <time>2026-04-02T07:56:36.471Z</time>
      </trkpt>
      <trkpt lat="44.13942" lon="3.2225">
        <ele>676.17</ele>
        <time>2026-04-02T07:56:42.347Z</time>
      </trkpt>
      <trkpt lat="44.13945" lon="3.22255">
        <ele>675.83</ele>
        <time>2026-04-02T07:56:48.090Z</time>
      </trkpt>
      <trkpt lat="44.13943" lon="3.22259">
        <ele>675.08</ele>
        <time>2026-04-02T07:56:53.435Z</time>
      </trkpt>
      <trkpt lat="44.13942" lon="3.2226">
        <ele>677.92</ele>
        <time>2026-04-02T07:57:00.645Z</time>
      </trkpt>
      <trkpt lat="44.13937" lon="3.22266">
        <ele>679.93</ele>
        <time>2026-04-02T07:57:05.849Z</time>
      </trkpt>
      <trkpt lat="44.13935" lon="3.2227">
        <ele>680.78</ele>
        <time>2026-04-02T07:57:11.111Z</time>
      </trkpt>
      <trkpt lat="44.13931" lon="3.22276">
        <ele>680.46</ele>
        <time>2026-04-02T07:57:16.508Z</time>
      </trkpt>
      <trkpt lat="44.13929" lon="3.22281">
        <ele>680.69</ele>
        <time>2026-04-02T07:57:22.069Z</time>
      </trkpt>
      <trkpt lat="44.13926" lon="3.22284">
        <ele>682.31</ele>
        <time>2026-04-02T07:57:27.113Z</time>
      </trkpt>
      <trkpt lat="44.13925" lon="3.22286">
        <ele>684.21</ele>
        <time>2026-04-02T07:57:32.266Z</time>
      </trkpt>
      <trkpt lat="44.13924" lon="3.2229">
        <ele>685.69</ele>
        <time>2026-04-02T07:57:37.624Z</time>
      </trkpt>
      <trkpt lat="44.13922" lon="3.22293">
        <ele>685.99</ele>
        <time>2026-04-02T07:57:43.030Z</time>
      </trkpt>
      <trkpt lat="44.1392" lon="3.22298">
        <ele>686.01</ele>
        <time>2026-04-02T07:57:48.230Z</time>
      </trkpt>
      <trkpt lat="44.13916" lon="3.22302">
        <ele>687.37</ele>
        <time>2026-04-02T07:57:53.288Z</time>
      </trkpt>
      <trkpt lat="44.13914" lon="3.22307">
        <ele>689.72</ele>
        <time>2026-04-02T07:57:58.563Z</time>
      </trkpt>
      <trkpt lat="44.1391" lon="3.22311">
        <ele>691.21</ele>
        <time>2026-04-02T07:58:04.293Z</time>
      </trkpt>
      <trkpt lat="44.13909" lon="3.22315">
        <ele>691.49</ele>
        <time>2026-04-02T07:58:09.472Z</time>
      </trkpt>
      <trkpt lat="44.13907" lon="3.22316">
        <ele>691.2</ele>
        <time>2026-04-02T07:58:14.562Z</time>
      </trkpt>
      <trkpt lat="44.13903" lon="3.22319">
        <ele>691.48</ele>
        <time>2026-04-02T07:58:20.325Z</time>
      </trkpt>
      <trkpt lat="44.13898" lon="3.22322">
        <ele>693.85</ele>
        <time>2026-04-02T07:58:25.527Z</time>
      </trkpt>
      <trkpt lat="44.13894" lon="3.22327">
        <ele>694.4</ele>
        <time>2026-04-02T07:58:30.593Z</time>
      </trkpt>
      <trkpt lat="44.13888" lon="3.22333">
        <ele>693.93</ele>
        <time>2026-04-02T07:58:36.211Z</time>
      </trkpt>
      <trkpt lat="44.13881" lon="3.22332">
        <ele>694.97</ele>
        <time>2026-04-02T07:58:41.828Z</time>
      </trkpt>
      <trkpt lat="44.13877" lon="3.22331">
        <ele>695.05</ele>
        <time>2026-04-02T07:58:47.126Z</time>
      </trkpt>
      <trkpt lat="44.13875" lon="3.22334">
        <ele>696.24</ele>
        <time>2026-04-02T07:58:52.247Z</time>
      </trkpt>
      <trkpt lat="44.13874" lon="3.22335">
        <ele>697.94</ele>
        <time>2026-04-02T07:58:59.090Z</time>
      </trkpt>
      <trkpt lat="44.1387" lon="3.22342">
        <ele>699.3</ele>
        <time>2026-04-02T07:59:04.369Z</time>
      </trkpt>
      <trkpt lat="44.13867" lon="3.22345">
        <ele>699.42</ele>
        <time>2026-04-02T07:59:09.588Z</time>
      </trkpt>
      <trkpt lat="44.13865" lon="3.2235">
        <ele>700.07</ele>
        <time>2026-04-02T07:59:14.614Z</time>
      </trkpt>
      <trkpt lat="44.13864" lon="3.22355">
        <ele>700.63</ele>
        <time>2026-04-02T07:59:19.628Z</time>
      </trkpt>
      <trkpt lat="44.13864" lon="3.22358">
        <ele>703.67</ele>
        <time>2026-04-02T07:59:24.974Z</time>
      </trkpt>
      <trkpt lat="44.13864" lon="3.22359">
        <ele>703.97</ele>
        <time>2026-04-02T07:59:30.012Z</time>
      </trkpt>
      <trkpt lat="44.1386" lon="3.22366">
        <ele>705.4</ele>
        <time>2026-04-02T07:59:35.251Z</time>
      </trkpt>
      <trkpt lat="44.13858" lon="3.22373">
        <ele>707</ele>
        <time>2026-04-02T07:59:40.641Z</time>
      </trkpt>
      <trkpt lat="44.13857" lon="3.22379">
        <ele>707.46</ele>
        <time>2026-04-02T07:59:45.654Z</time>
      </trkpt>
      <trkpt lat="44.13856" lon="3.22382">
        <ele>708.83</ele>
        <time>2026-04-02T07:59:51.425Z</time>
      </trkpt>
      <trkpt lat="44.13855" lon="3.22384">
        <ele>709.28</ele>
        <time>2026-04-02T07:59:56.639Z</time>
      </trkpt>
      <trkpt lat="44.13854" lon="3.22387">
        <ele>708.95</ele>
        <time>2026-04-02T08:00:02.013Z</time>
      </trkpt>
      <trkpt lat="44.13852" lon="3.22393">
        <ele>709.77</ele>
        <time>2026-04-02T08:00:07.372Z</time>
      </trkpt>
      <trkpt lat="44.13848" lon="3.22398">
        <ele>711.15</ele>
        <time>2026-04-02T08:00:12.624Z</time>
      </trkpt>
      <trkpt lat="44.13845" lon="3.22401">
        <ele>714.2</ele>
        <time>2026-04-02T08:00:17.653Z</time>
      </trkpt>
      <trkpt lat="44.13841" lon="3.22404">
        <ele>714.88</ele>
        <time>2026-04-02T08:00:23.626Z</time>
      </trkpt>
      <trkpt lat="44.13839" lon="3.22404">
        <ele>714.6</ele>
        <time>2026-04-02T08:00:29.194Z</time>
      </trkpt>
      <trkpt lat="44.13838" lon="3.22404">
        <ele>715.08</ele>
        <time>2026-04-02T08:00:34.635Z</time>
      </trkpt>
      <trkpt lat="44.13835" lon="3.22404">
        <ele>716.05</ele>
        <time>2026-04-02T08:00:40.692Z</time>
      </trkpt>
      <trkpt lat="44.13833" lon="3.22404">
        <ele>717.17</ele>
        <time>2026-04-02T08:00:46.446Z</time>
      </trkpt>
      <trkpt lat="44.13831" lon="3.22404">
        <ele>718.55</ele>
        <time>2026-04-02T08:00:51.678Z</time>
      </trkpt>
      <trkpt lat="44.13829" lon="3.22403">
        <ele>719.24</ele>
        <time>2026-04-02T08:00:56.700Z</time>
      </trkpt>
      <trkpt lat="44.13827" lon="3.224">
        <ele>721.05</ele>
        <time>2026-04-02T08:01:02.670Z</time>
      </trkpt>
      <trkpt lat="44.13823" lon="3.22396">
        <ele>721.8</ele>
        <time>2026-04-02T08:01:08.373Z</time>
      </trkpt>
      <trkpt lat="44.13821" lon="3.22396">
        <ele>722.09</ele>
        <time>2026-04-02T08:01:13.553Z</time>
      </trkpt>
      <trkpt lat="44.13819" lon="3.22398">
        <ele>725.1</ele>
        <time>2026-04-02T08:01:18.566Z</time>
      </trkpt>
      <trkpt lat="44.13817" lon="3.224">
        <ele>726.16</ele>
        <time>2026-04-02T08:01:23.661Z</time>
      </trkpt>
      <trkpt lat="44.13813" lon="3.22399">
        <ele>726.72</ele>
        <time>2026-04-02T08:01:29.573Z</time>
      </trkpt>
      <trkpt lat="44.13811" lon="3.224">
        <ele>726.31</ele>
        <time>2026-04-02T08:01:35.591Z</time>
      </trkpt>
      <trkpt lat="44.1381" lon="3.224">
        <ele>727.55</ele>
        <time>2026-04-02T08:01:41.547Z</time>
      </trkpt>
      <trkpt lat="44.13809" lon="3.22399">
        <ele>729.81</ele>
        <time>2026-04-02T08:01:46.617Z</time>
      </trkpt>
      <trkpt lat="44.13807" lon="3.224">
        <ele>730.29</ele>
        <time>2026-04-02T08:01:51.992Z</time>
      </trkpt>
      <trkpt lat="44.13805" lon="3.22401">
        <ele>732.43</ele>
        <time>2026-04-02T08:01:57.605Z</time>
      </trkpt>
      <trkpt lat="44.13804" lon="3.22401">
        <ele>732.48</ele>
        <time>2026-04-02T08:02:02.618Z</time>
      </trkpt>
      <trkpt lat="44.13803" lon="3.224">
        <ele>732.47</ele>
        <time>2026-04-02T08:02:12.034Z</time>
      </trkpt>
      <trkpt lat="44.13802" lon="3.22399">
        <ele>736.45</ele>
        <time>2026-04-02T08:02:17.550Z</time>
      </trkpt>
      <trkpt lat="44.138" lon="3.22398">
        <ele>736.22</ele>
        <time>2026-04-02T08:02:22.611Z</time>
      </trkpt>
      <trkpt lat="44.138" lon="3.22397">
        <ele>738.69</ele>
        <time>2026-04-02T08:02:28.576Z</time>
      </trkpt>
      <trkpt lat="44.13799" lon="3.22395">
        <ele>737.44</ele>
        <time>2026-04-02T08:02:36.273Z</time>
      </trkpt>
      <trkpt lat="44.13799" lon="3.22389">
        <ele>738.02</ele>
        <time>2026-04-02T08:02:41.656Z</time>
      </trkpt>
      <trkpt lat="44.13798" lon="3.22385">
        <ele>739.7</ele>
        <time>2026-04-02T08:02:47.535Z</time>
      </trkpt>
      <trkpt lat="44.13798" lon="3.22384">
        <ele>739.68</ele>
        <time>2026-04-02T08:02:52.655Z</time>
      </trkpt>
      <trkpt lat="44.13799" lon="3.22383">
        <ele>740.46</ele>
        <time>2026-04-02T08:02:59.073Z</time>
      </trkpt>
      <trkpt lat="44.13798" lon="3.22379">
        <ele>739.38</ele>
        <time>2026-04-02T08:03:04.193Z</time>
      </trkpt>
      <trkpt lat="44.13798" lon="3.22374">
        <ele>739.66</ele>
        <time>2026-04-02T08:03:09.601Z</time>
      </trkpt>
      <trkpt lat="44.13798" lon="3.22372">
        <ele>739.61</ele>
        <time>2026-04-02T08:03:14.615Z</time>
      </trkpt>
      <trkpt lat="44.13797" lon="3.22371">
        <ele>740.24</ele>
        <time>2026-04-02T08:03:21.548Z</time>
      </trkpt>
      <trkpt lat="44.13797" lon="3.2237">
        <ele>740.77</ele>
        <time>2026-04-02T08:03:29.051Z</time>
      </trkpt>
      <trkpt lat="44.13797" lon="3.22366">
        <ele>741.36</ele>
        <time>2026-04-02T08:03:34.332Z</time>
      </trkpt>
      <trkpt lat="44.13797" lon="3.22362">
        <ele>743.89</ele>
        <time>2026-04-02T08:03:39.664Z</time>
      </trkpt>
      <trkpt lat="44.13796" lon="3.22362">
        <ele>744.8</ele>
        <time>2026-04-02T08:04:01.555Z</time>
      </trkpt>
      <trkpt lat="44.13795" lon="3.22362">
        <ele>744.98</ele>
        <time>2026-04-02T08:04:06.569Z</time>
      </trkpt>
      <trkpt lat="44.13793" lon="3.22362">
        <ele>744.31</ele>
        <time>2026-04-02T08:04:11.582Z</time>
      </trkpt>
      <trkpt lat="44.13792" lon="3.22362">
        <ele>744.32</ele>
        <time>2026-04-02T08:04:27.582Z</time>
      </trkpt>
      <trkpt lat="44.13793" lon="3.22361">
        <ele>744.42</ele>
        <time>2026-04-02T08:04:47.682Z</time>
      </trkpt>
      <trkpt lat="44.13795" lon="3.22355">
        <ele>743.49</ele>
        <time>2026-04-02T08:04:53.123Z</time>
      </trkpt>
      <trkpt lat="44.13795" lon="3.22352">
        <ele>742.14</ele>
        <time>2026-04-02T08:04:58.620Z</time>
      </trkpt>
      <trkpt lat="44.13795" lon="3.22348">
        <ele>742.31</ele>
        <time>2026-04-02T08:05:04.593Z</time>
      </trkpt>
      <trkpt lat="44.13795" lon="3.22344">
        <ele>742.3</ele>
        <time>2026-04-02T08:05:09.608Z</time>
      </trkpt>
      <trkpt lat="44.13794" lon="3.2234">
        <ele>744.59</ele>
        <time>2026-04-02T08:05:14.620Z</time>
      </trkpt>
      <trkpt lat="44.13792" lon="3.2234">
        <ele>746.64</ele>
        <time>2026-04-02T08:05:19.645Z</time>
      </trkpt>
      <trkpt lat="44.1379" lon="3.22341">
        <ele>747.2</ele>
        <time>2026-04-02T08:05:25.009Z</time>
      </trkpt>
      <trkpt lat="44.13789" lon="3.22342">
        <ele>748.11</ele>
        <time>2026-04-02T08:05:30.553Z</time>
      </trkpt>
      <trkpt lat="44.13787" lon="3.22344">
        <ele>750.44</ele>
        <time>2026-04-02T08:05:35.633Z</time>
      </trkpt>
      <trkpt lat="44.13786" lon="3.22346">
        <ele>750.85</ele>
        <time>2026-04-02T08:05:41.607Z</time>
      </trkpt>
      <trkpt lat="44.13785" lon="3.22347">
        <ele>752.35</ele>
        <time>2026-04-02T08:05:47.580Z</time>
      </trkpt>
      <trkpt lat="44.13785" lon="3.22348">
        <ele>752.47</ele>
        <time>2026-04-02T08:05:53.192Z</time>
      </trkpt>
      <trkpt lat="44.1378" lon="3.2235">
        <ele>754.19</ele>
        <time>2026-04-02T08:05:58.374Z</time>
      </trkpt>
      <trkpt lat="44.13777" lon="3.22347">
        <ele>755.44</ele>
        <time>2026-04-02T08:06:03.580Z</time>
      </trkpt>
      <trkpt lat="44.13777" lon="3.22345">
        <ele>755.86</ele>
        <time>2026-04-02T08:06:08.602Z</time>
      </trkpt>
      <trkpt lat="44.13776" lon="3.22344">
        <ele>757.24</ele>
        <time>2026-04-02T08:06:19.591Z</time>
      </trkpt>
      <trkpt lat="44.13775" lon="3.22345">
        <ele>757.92</ele>
        <time>2026-04-02T08:06:25.668Z</time>
      </trkpt>
      <trkpt lat="44.13769" lon="3.22347">
        <ele>758.57</ele>
        <time>2026-04-02T08:06:31.650Z</time>
      </trkpt>
      <trkpt lat="44.13766" lon="3.22347">
        <ele>759.1</ele>
        <time>2026-04-02T08:06:37.058Z</time>
      </trkpt>
      <trkpt lat="44.13765" lon="3.22347">
        <ele>760.36</ele>
        <time>2026-04-02T08:06:42.637Z</time>
      </trkpt>
      <trkpt lat="44.13764" lon="3.22347">
        <ele>761.82</ele>
        <time>2026-04-02T08:06:49.299Z</time>
      </trkpt>
      <trkpt lat="44.13764" lon="3.22348">
        <ele>763.26</ele>
        <time>2026-04-02T08:06:54.498Z</time>
      </trkpt>
      <trkpt lat="44.13762" lon="3.22352">
        <ele>762.75</ele>
        <time>2026-04-02T08:07:00.048Z</time>
      </trkpt>
      <trkpt lat="44.13755" lon="3.22361">
        <ele>761.09</ele>
        <time>2026-04-02T08:07:05.458Z</time>
      </trkpt>
      <trkpt lat="44.13751" lon="3.22368">
        <ele>761.88</ele>
        <time>2026-04-02T08:07:10.583Z</time>
      </trkpt>
      <trkpt lat="44.13749" lon="3.2237">
        <ele>763.36</ele>
        <time>2026-04-02T08:07:15.617Z</time>
      </trkpt>
      <trkpt lat="44.13747" lon="3.22371">
        <ele>764.2</ele>
        <time>2026-04-02T08:07:21.245Z</time>
      </trkpt>
      <trkpt lat="44.13746" lon="3.22372">
        <ele>765.23</ele>
        <time>2026-04-02T08:07:26.336Z</time>
      </trkpt>
      <trkpt lat="44.13746" lon="3.22374">
        <ele>766.13</ele>
        <time>2026-04-02T08:07:32.556Z</time>
      </trkpt>
      <trkpt lat="44.13745" lon="3.22376">
        <ele>765.94</ele>
        <time>2026-04-02T08:07:37.569Z</time>
      </trkpt>
      <trkpt lat="44.13743" lon="3.22377">
        <ele>766.99</ele>
        <time>2026-04-02T08:07:42.582Z</time>
      </trkpt>
      <trkpt lat="44.1374" lon="3.22378">
        <ele>766.93</ele>
        <time>2026-04-02T08:07:48.609Z</time>
      </trkpt>
      <trkpt lat="44.13735" lon="3.22377">
        <ele>766.63</ele>
        <time>2026-04-02T08:07:54.524Z</time>
      </trkpt>
      <trkpt lat="44.13733" lon="3.2238">
        <ele>767.97</ele>
        <time>2026-04-02T08:08:00.129Z</time>
      </trkpt>
      <trkpt lat="44.13731" lon="3.22388">
        <ele>768.11</ele>
        <time>2026-04-02T08:08:05.143Z</time>
      </trkpt>
      <trkpt lat="44.13727" lon="3.22396">
        <ele>770.05</ele>
        <time>2026-04-02T08:08:10.148Z</time>
      </trkpt>
      <trkpt lat="44.13724" lon="3.22402">
        <ele>771.41</ele>
        <time>2026-04-02T08:08:15.588Z</time>
      </trkpt>
      <trkpt lat="44.13722" lon="3.22407">
        <ele>772.18</ele>
        <time>2026-04-02T08:08:21.144Z</time>
      </trkpt>
      <trkpt lat="44.13721" lon="3.2241">
        <ele>773.58</ele>
        <time>2026-04-02T08:08:26.633Z</time>
      </trkpt>
      <trkpt lat="44.1372" lon="3.22412">
        <ele>773.87</ele>
        <time>2026-04-02T08:08:32.310Z</time>
      </trkpt>
      <trkpt lat="44.13721" lon="3.2241">
        <ele>773.66</ele>
        <time>2026-04-02T08:08:37.323Z</time>
      </trkpt>
      <trkpt lat="44.13719" lon="3.22412">
        <ele>775.27</ele>
        <time>2026-04-02T08:08:42.878Z</time>
      </trkpt>
      <trkpt lat="44.13717" lon="3.22414">
        <ele>777.03</ele>
        <time>2026-04-02T08:08:48.579Z</time>
      </trkpt>
      <trkpt lat="44.13713" lon="3.22418">
        <ele>779.95</ele>
        <time>2026-04-02T08:08:53.621Z</time>
      </trkpt>
      <trkpt lat="44.13711" lon="3.22424">
        <ele>780.32</ele>
        <time>2026-04-02T08:08:59.476Z</time>
      </trkpt>
      <trkpt lat="44.13708" lon="3.22427">
        <ele>780.41</ele>
        <time>2026-04-02T08:09:05.159Z</time>
      </trkpt>
      <trkpt lat="44.13707" lon="3.22429">
        <ele>780.73</ele>
        <time>2026-04-02T08:09:10.296Z</time>
      </trkpt>
      <trkpt lat="44.13705" lon="3.22434">
        <ele>782.97</ele>
        <time>2026-04-02T08:09:15.595Z</time>
      </trkpt>
      <trkpt lat="44.13703" lon="3.22439">
        <ele>782.71</ele>
        <time>2026-04-02T08:09:20.609Z</time>
      </trkpt>
      <trkpt lat="44.13701" lon="3.22443">
        <ele>783.67</ele>
        <time>2026-04-02T08:09:25.622Z</time>
      </trkpt>
      <trkpt lat="44.13701" lon="3.22445">
        <ele>784.23</ele>
        <time>2026-04-02T08:09:34.599Z</time>
      </trkpt>
      <trkpt lat="44.13699" lon="3.22449">
        <ele>784.77</ele>
        <time>2026-04-02T08:09:40.260Z</time>
      </trkpt>
      <trkpt lat="44.13697" lon="3.22451">
        <ele>784.94</ele>
        <time>2026-04-02T08:09:45.544Z</time>
      </trkpt>
      <trkpt lat="44.13696" lon="3.22455">
        <ele>787.25</ele>
        <time>2026-04-02T08:09:51.267Z</time>
      </trkpt>
      <trkpt lat="44.13695" lon="3.22456">
        <ele>788.48</ele>
        <time>2026-04-02T08:09:56.561Z</time>
      </trkpt>
      <trkpt lat="44.13694" lon="3.22459">
        <ele>788.04</ele>
        <time>2026-04-02T08:10:02.324Z</time>
      </trkpt>
      <trkpt lat="44.13693" lon="3.22463">
        <ele>789.44</ele>
        <time>2026-04-02T08:10:07.684Z</time>
      </trkpt>
      <trkpt lat="44.13692" lon="3.22469">
        <ele>790.99</ele>
        <time>2026-04-02T08:10:13.649Z</time>
      </trkpt>
      <trkpt lat="44.13691" lon="3.22475">
        <ele>790.95</ele>
        <time>2026-04-02T08:10:19.601Z</time>
      </trkpt>
      <trkpt lat="44.13692" lon="3.22474">
        <ele>791.79</ele>
        <time>2026-04-02T08:10:25.089Z</time>
      </trkpt>
      <trkpt lat="44.13693" lon="3.22475">
        <ele>793.05</ele>
        <time>2026-04-02T08:10:30.643Z</time>
      </trkpt>
      <trkpt lat="44.13698" lon="3.22482">
        <ele>792.98</ele>
        <time>2026-04-02T08:10:36.449Z</time>
      </trkpt>
      <trkpt lat="44.13704" lon="3.22488">
        <ele>793.84</ele>
        <time>2026-04-02T08:10:41.575Z</time>
      </trkpt>
      <trkpt lat="44.13707" lon="3.22492">
        <ele>793.56</ele>
        <time>2026-04-02T08:10:46.588Z</time>
      </trkpt>
      <trkpt lat="44.13713" lon="3.22498">
        <ele>794.07</ele>
        <time>2026-04-02T08:10:51.906Z</time>
      </trkpt>
      <trkpt lat="44.13716" lon="3.22505">
        <ele>793.69</ele>
        <time>2026-04-02T08:10:57.463Z</time>
      </trkpt>
      <trkpt lat="44.13716" lon="3.22516">
        <ele>792.42</ele>
        <time>2026-04-02T08:11:03.527Z</time>
      </trkpt>
      <trkpt lat="44.13713" lon="3.22525">
        <ele>792.02</ele>
        <time>2026-04-02T08:11:08.668Z</time>
      </trkpt>
      <trkpt lat="44.13709" lon="3.22532">
        <ele>792.13</ele>
        <time>2026-04-02T08:11:14.006Z</time>
      </trkpt>
      <trkpt lat="44.13707" lon="3.22538">
        <ele>793.13</ele>
        <time>2026-04-02T08:11:19.463Z</time>
      </trkpt>
      <trkpt lat="44.13705" lon="3.22546">
        <ele>793.83</ele>
        <time>2026-04-02T08:11:25.528Z</time>
      </trkpt>
      <trkpt lat="44.13704" lon="3.22554">
        <ele>793.53</ele>
        <time>2026-04-02T08:11:30.687Z</time>
      </trkpt>
      <trkpt lat="44.13703" lon="3.22561">
        <ele>793.22</ele>
        <time>2026-04-02T08:11:36.266Z</time>
      </trkpt>
      <trkpt lat="44.13702" lon="3.22568">
        <ele>794.94</ele>
        <time>2026-04-02T08:11:41.483Z</time>
      </trkpt>
      <trkpt lat="44.13703" lon="3.2257">
        <ele>794.86</ele>
        <time>2026-04-02T08:11:46.535Z</time>
      </trkpt>
      <trkpt lat="44.13702" lon="3.2257">
        <ele>795.88</ele>
        <time>2026-04-02T08:11:56.562Z</time>
      </trkpt>
      <trkpt lat="44.13702" lon="3.22568">
        <ele>795.63</ele>
        <time>2026-04-02T08:12:07.549Z</time>
      </trkpt>
      <trkpt lat="44.13703" lon="3.2257">
        <ele>795.45</ele>
        <time>2026-04-02T08:12:14.724Z</time>
      </trkpt>
      <trkpt lat="44.13703" lon="3.22582">
        <ele>795.34</ele>
        <time>2026-04-02T08:12:20.053Z</time>
      </trkpt>
      <trkpt lat="44.13701" lon="3.22594">
        <ele>795.73</ele>
        <time>2026-04-02T08:12:25.175Z</time>
      </trkpt>
      <trkpt lat="44.13697" lon="3.22604">
        <ele>794.91</ele>
        <time>2026-04-02T08:12:30.591Z</time>
      </trkpt>
      <trkpt lat="44.13693" lon="3.22611">
        <ele>795.69</ele>
        <time>2026-04-02T08:12:36.587Z</time>
      </trkpt>
      <trkpt lat="44.13691" lon="3.22619">
        <ele>797.01</ele>
        <time>2026-04-02T08:12:42.314Z</time>
      </trkpt>
      <trkpt lat="44.13688" lon="3.22625">
        <ele>797.94</ele>
        <time>2026-04-02T08:12:48.028Z</time>
      </trkpt>
      <trkpt lat="44.13684" lon="3.2263">
        <ele>799.13</ele>
        <time>2026-04-02T08:12:53.030Z</time>
      </trkpt>
      <trkpt lat="44.13685" lon="3.22637">
        <ele>798.91</ele>
        <time>2026-04-02T08:12:58.728Z</time>
      </trkpt>
      <trkpt lat="44.13688" lon="3.22641">
        <ele>798.09</ele>
        <time>2026-04-02T08:13:04.108Z</time>
      </trkpt>
      <trkpt lat="44.13689" lon="3.22649">
        <ele>801</ele>
        <time>2026-04-02T08:13:09.586Z</time>
      </trkpt>
      <trkpt lat="44.1369" lon="3.22654">
        <ele>802.65</ele>
        <time>2026-04-02T08:13:14.647Z</time>
      </trkpt>
      <trkpt lat="44.13691" lon="3.22662">
        <ele>801.74</ele>
        <time>2026-04-02T08:13:20.066Z</time>
      </trkpt>
      <trkpt lat="44.13695" lon="3.22671">
        <ele>801.3</ele>
        <time>2026-04-02T08:13:25.249Z</time>
      </trkpt>
      <trkpt lat="44.13697" lon="3.22682">
        <ele>799.43</ele>
        <time>2026-04-02T08:13:30.885Z</time>
      </trkpt>
      <trkpt lat="44.13699" lon="3.22692">
        <ele>799.46</ele>
        <time>2026-04-02T08:13:36.085Z</time>
      </trkpt>
      <trkpt lat="44.13703" lon="3.22697">
        <ele>799.94</ele>
        <time>2026-04-02T08:13:41.637Z</time>
      </trkpt>
      <trkpt lat="44.13708" lon="3.22703">
        <ele>800.53</ele>
        <time>2026-04-02T08:13:47.109Z</time>
      </trkpt>
      <trkpt lat="44.13709" lon="3.22711">
        <ele>800.48</ele>
        <time>2026-04-02T08:13:52.471Z</time>
      </trkpt>
      <trkpt lat="44.13708" lon="3.22719">
        <ele>799.74</ele>
        <time>2026-04-02T08:13:57.950Z</time>
      </trkpt>
      <trkpt lat="44.13708" lon="3.22728">
        <ele>799.88</ele>
        <time>2026-04-02T08:14:03.611Z</time>
      </trkpt>
      <trkpt lat="44.13707" lon="3.2273">
        <ele>800.84</ele>
        <time>2026-04-02T08:14:08.625Z</time>
      </trkpt>
      <trkpt lat="44.13705" lon="3.22733">
        <ele>802.21</ele>
        <time>2026-04-02T08:14:13.948Z</time>
      </trkpt>
      <trkpt lat="44.13702" lon="3.22738">
        <ele>802.48</ele>
        <time>2026-04-02T08:14:19.006Z</time>
      </trkpt>
      <trkpt lat="44.13704" lon="3.22739">
        <ele>803.32</ele>
        <time>2026-04-02T08:14:24.629Z</time>
      </trkpt>
      <trkpt lat="44.13702" lon="3.22738">
        <ele>802.89</ele>
        <time>2026-04-02T08:14:29.642Z</time>
      </trkpt>
      <trkpt lat="44.13702" lon="3.22745">
        <ele>802.97</ele>
        <time>2026-04-02T08:14:35.125Z</time>
      </trkpt>
      <trkpt lat="44.13701" lon="3.22745">
        <ele>804.59</ele>
        <time>2026-04-02T08:14:42.658Z</time>
      </trkpt>
      <trkpt lat="44.13699" lon="3.22744">
        <ele>805.42</ele>
        <time>2026-04-02T08:14:47.672Z</time>
      </trkpt>
      <trkpt lat="44.13698" lon="3.22743">
        <ele>805.08</ele>
        <time>2026-04-02T08:14:54.606Z</time>
      </trkpt>
      <trkpt lat="44.13699" lon="3.22746">
        <ele>804.16</ele>
        <time>2026-04-02T08:15:00.502Z</time>
      </trkpt>
      <trkpt lat="44.13699" lon="3.22761">
        <ele>804.2</ele>
        <time>2026-04-02T08:15:06.389Z</time>
      </trkpt>
      <trkpt lat="44.13691" lon="3.2277">
        <ele>808.28</ele>
        <time>2026-04-02T08:15:12.184Z</time>
      </trkpt>
      <trkpt lat="44.13693" lon="3.22776">
        <ele>807.79</ele>
        <time>2026-04-02T08:15:17.650Z</time>
      </trkpt>
      <trkpt lat="44.13697" lon="3.22784">
        <ele>806.94</ele>
        <time>2026-04-02T08:15:22.968Z</time>
      </trkpt>
      <trkpt lat="44.13698" lon="3.22794">
        <ele>806.76</ele>
        <time>2026-04-02T08:15:28.008Z</time>
      </trkpt>
      <trkpt lat="44.13702" lon="3.22802">
        <ele>807.87</ele>
        <time>2026-04-02T08:15:33.651Z</time>
      </trkpt>
      <trkpt lat="44.13703" lon="3.22804">
        <ele>807.13</ele>
        <time>2026-04-02T08:15:38.665Z</time>
      </trkpt>
      <trkpt lat="44.13704" lon="3.22807">
        <ele>807.14</ele>
        <time>2026-04-02T08:15:44.166Z</time>
      </trkpt>
      <trkpt lat="44.13708" lon="3.22817">
        <ele>807.08</ele>
        <time>2026-04-02T08:15:49.654Z</time>
      </trkpt>
      <trkpt lat="44.13709" lon="3.22827">
        <ele>808.99</ele>
        <time>2026-04-02T08:15:54.708Z</time>
      </trkpt>
      <trkpt lat="44.13707" lon="3.22831">
        <ele>810.11</ele>
        <time>2026-04-02T08:16:00.146Z</time>
      </trkpt>
      <trkpt lat="44.13711" lon="3.22832">
        <ele>810.32</ele>
        <time>2026-04-02T08:16:05.550Z</time>
      </trkpt>
      <trkpt lat="44.13712" lon="3.22832">
        <ele>812.27</ele>
        <time>2026-04-02T08:16:10.563Z</time>
      </trkpt>
      <trkpt lat="44.13713" lon="3.22833">
        <ele>812.33</ele>
        <time>2026-04-02T08:16:16.903Z</time>
      </trkpt>
      <trkpt lat="44.1372" lon="3.22837">
        <ele>812.42</ele>
        <time>2026-04-02T08:16:22.551Z</time>
      </trkpt>
      <trkpt lat="44.13733" lon="3.22836">
        <ele>815.58</ele>
        <time>2026-04-02T08:16:28.266Z</time>
      </trkpt>
      <trkpt lat="44.13736" lon="3.22844">
        <ele>815.98</ele>
        <time>2026-04-02T08:16:33.607Z</time>
      </trkpt>
      <trkpt lat="44.13737" lon="3.22848">
        <ele>816.54</ele>
        <time>2026-04-02T08:16:39.210Z</time>
      </trkpt>
      <trkpt lat="44.13736" lon="3.22848">
        <ele>817.23</ele>
        <time>2026-04-02T08:16:44.595Z</time>
      </trkpt>
      <trkpt lat="44.13739" lon="3.22848">
        <ele>818.9</ele>
        <time>2026-04-02T08:16:49.609Z</time>
      </trkpt>
      <trkpt lat="44.13739" lon="3.22847">
        <ele>819.51</ele>
        <time>2026-04-02T08:16:57.610Z</time>
      </trkpt>
      <trkpt lat="44.13742" lon="3.22848">
        <ele>820.16</ele>
        <time>2026-04-02T08:17:02.624Z</time>
      </trkpt>
      <trkpt lat="44.13745" lon="3.22851">
        <ele>820.81</ele>
        <time>2026-04-02T08:17:07.638Z</time>
      </trkpt>
      <trkpt lat="44.13747" lon="3.22853">
        <ele>820.49</ele>
        <time>2026-04-02T08:17:12.651Z</time>
      </trkpt>
      <trkpt lat="44.13748" lon="3.22851">
        <ele>813.49</ele>
        <time>2026-04-02T08:17:37.526Z</time>
      </trkpt>
      <trkpt lat="44.13749" lon="3.22851">
        <ele>823.95</ele>
        <time>2026-04-02T08:17:42.628Z</time>
      </trkpt>
      <trkpt lat="44.1375" lon="3.22852">
        <ele>822</ele>
        <time>2026-04-02T08:17:56.603Z</time>
      </trkpt>
      <trkpt lat="44.1375" lon="3.22854">
        <ele>824</ele>
        <time>2026-04-02T08:18:07.591Z</time>
      </trkpt>
      <trkpt lat="44.13749" lon="3.22858">
        <ele>824.74</ele>
        <time>2026-04-02T08:18:12.604Z</time>
      </trkpt>
      <trkpt lat="44.13748" lon="3.22859">
        <ele>824.89</ele>
        <time>2026-04-02T08:18:18.685Z</time>
      </trkpt>
      <trkpt lat="44.13748" lon="3.2286">
        <ele>823.53</ele>
        <time>2026-04-02T08:18:49.172Z</time>
      </trkpt>
      <trkpt lat="44.13746" lon="3.2286">
        <ele>826.46</ele>
        <time>2026-04-02T08:18:54.636Z</time>
      </trkpt>
      <trkpt lat="44.13747" lon="3.22864">
        <ele>826.2</ele>
        <time>2026-04-02T08:18:59.649Z</time>
      </trkpt>
      <trkpt lat="44.13749" lon="3.22865">
        <ele>825.77</ele>
        <time>2026-04-02T08:19:05.624Z</time>
      </trkpt>
      <trkpt lat="44.1375" lon="3.22865">
        <ele>826.11</ele>
        <time>2026-04-02T08:19:12.558Z</time>
      </trkpt>
      <trkpt lat="44.13749" lon="3.22865">
        <ele>826.06</ele>
        <time>2026-04-02T08:19:37.513Z</time>
      </trkpt>
      <trkpt lat="44.13748" lon="3.22865">
        <ele>826.53</ele>
        <time>2026-04-02T08:19:46.695Z</time>
      </trkpt>
      <trkpt lat="44.13748" lon="3.22867">
        <ele>824.94</ele>
        <time>2026-04-02T08:19:56.616Z</time>
      </trkpt>
      <trkpt lat="44.13748" lon="3.22868">
        <ele>825.62</ele>
        <time>2026-04-02T08:20:21.579Z</time>
      </trkpt>
      <trkpt lat="44.13748" lon="3.22869">
        <ele>825.74</ele>
        <time>2026-04-02T08:20:30.647Z</time>
      </trkpt>
      <trkpt lat="44.1375" lon="3.22875">
        <ele>825.05</ele>
        <time>2026-04-02T08:20:35.692Z</time>
      </trkpt>
      <trkpt lat="44.13751" lon="3.22883">
        <ele>824.88</ele>
        <time>2026-04-02T08:20:41.634Z</time>
      </trkpt>
      <trkpt lat="44.13751" lon="3.22881">
        <ele>825.08</ele>
        <time>2026-04-02T08:20:46.964Z</time>
      </trkpt>
      <trkpt lat="44.13754" lon="3.22884">
        <ele>825.05</ele>
        <time>2026-04-02T08:20:52.236Z</time>
      </trkpt>
      <trkpt lat="44.1376" lon="3.22885">
        <ele>825.59</ele>
        <time>2026-04-02T08:20:57.464Z</time>
      </trkpt>
      <trkpt lat="44.1376" lon="3.22888">
        <ele>824.63</ele>
        <time>2026-04-02T08:21:02.521Z</time>
      </trkpt>
      <trkpt lat="44.13762" lon="3.22885">
        <ele>825.05</ele>
        <time>2026-04-02T08:21:07.674Z</time>
      </trkpt>
      <trkpt lat="44.13765" lon="3.22884">
        <ele>825.82</ele>
        <time>2026-04-02T08:21:12.697Z</time>
      </trkpt>
      <trkpt lat="44.13765" lon="3.22883">
        <ele>825.25</ele>
        <time>2026-04-02T08:21:18.151Z</time>
      </trkpt>
      <trkpt lat="44.13766" lon="3.2288">
        <ele>824.62</ele>
        <time>2026-04-02T08:21:23.685Z</time>
      </trkpt>
      <trkpt lat="44.13772" lon="3.22876">
        <ele>824.99</ele>
        <time>2026-04-02T08:21:29.324Z</time>
      </trkpt>
      <trkpt lat="44.13778" lon="3.22875">
        <ele>824.98</ele>
        <time>2026-04-02T08:21:34.672Z</time>
      </trkpt>
      <trkpt lat="44.13783" lon="3.22876">
        <ele>825.23</ele>
        <time>2026-04-02T08:21:40.204Z</time>
      </trkpt>
      <trkpt lat="44.13786" lon="3.22879">
        <ele>825.43</ele>
        <time>2026-04-02T08:21:45.564Z</time>
      </trkpt>
      <trkpt lat="44.1379" lon="3.22882">
        <ele>826</ele>
        <time>2026-04-02T08:21:51.085Z</time>
      </trkpt>
      <trkpt lat="44.13795" lon="3.22881">
        <ele>826.45</ele>
        <time>2026-04-02T08:21:56.348Z</time>
      </trkpt>
      <trkpt lat="44.138" lon="3.22879">
        <ele>826.61</ele>
        <time>2026-04-02T08:22:01.669Z</time>
      </trkpt>
      <trkpt lat="44.13805" lon="3.22878">
        <ele>826.56</ele>
        <time>2026-04-02T08:22:06.683Z</time>
      </trkpt>
      <trkpt lat="44.1381" lon="3.22873">
        <ele>826.21</ele>
        <time>2026-04-02T08:22:11.696Z</time>
      </trkpt>
      <trkpt lat="44.13814" lon="3.22868">
        <ele>825.97</ele>
        <time>2026-04-02T08:22:17.407Z</time>
      </trkpt>
      <trkpt lat="44.1382" lon="3.22866">
        <ele>825.84</ele>
        <time>2026-04-02T08:22:22.684Z</time>
      </trkpt>
      <trkpt lat="44.1382" lon="3.22864">
        <ele>825.95</ele>
        <time>2026-04-02T08:22:29.408Z</time>
      </trkpt>
      <trkpt lat="44.13823" lon="3.22854">
        <ele>826.37</ele>
        <time>2026-04-02T08:22:34.571Z</time>
      </trkpt>
      <trkpt lat="44.13827" lon="3.22846">
        <ele>826.34</ele>
        <time>2026-04-02T08:22:39.645Z</time>
      </trkpt>
      <trkpt lat="44.13828" lon="3.22839">
        <ele>826.53</ele>
        <time>2026-04-02T08:22:44.658Z</time>
      </trkpt>
      <trkpt lat="44.13829" lon="3.22833">
        <ele>825.77</ele>
        <time>2026-04-02T08:22:49.672Z</time>
      </trkpt>
      <trkpt lat="44.13832" lon="3.22828">
        <ele>826.03</ele>
        <time>2026-04-02T08:22:55.028Z</time>
      </trkpt>
      <trkpt lat="44.13835" lon="3.22827">
        <ele>826.96</ele>
        <time>2026-04-02T08:23:00.067Z</time>
      </trkpt>
      <trkpt lat="44.13838" lon="3.22827">
        <ele>825.9</ele>
        <time>2026-04-02T08:23:05.673Z</time>
      </trkpt>
      <trkpt lat="44.13837" lon="3.22825">
        <ele>827.53</ele>
        <time>2026-04-02T08:23:25.244Z</time>
      </trkpt>
      <trkpt lat="44.13842" lon="3.22816">
        <ele>826.82</ele>
        <time>2026-04-02T08:23:30.642Z</time>
      </trkpt>
      <trkpt lat="44.13846" lon="3.2281">
        <ele>826.92</ele>
        <time>2026-04-02T08:23:36.314Z</time>
      </trkpt>
      <trkpt lat="44.13851" lon="3.22808">
        <ele>826.86</ele>
        <time>2026-04-02T08:23:41.548Z</time>
      </trkpt>
      <trkpt lat="44.13857" lon="3.22807">
        <ele>827.02</ele>
        <time>2026-04-02T08:23:46.645Z</time>
      </trkpt>
      <trkpt lat="44.13862" lon="3.2281">
        <ele>827.37</ele>
        <time>2026-04-02T08:23:51.678Z</time>
      </trkpt>
      <trkpt lat="44.13868" lon="3.22811">
        <ele>828.04</ele>
        <time>2026-04-02T08:23:57.307Z</time>
      </trkpt>
      <trkpt lat="44.13871" lon="3.22815">
        <ele>827.9</ele>
        <time>2026-04-02T08:24:02.646Z</time>
      </trkpt>
      <trkpt lat="44.13876" lon="3.22817">
        <ele>830.45</ele>
        <time>2026-04-02T08:24:08.182Z</time>
      </trkpt>
      <trkpt lat="44.13879" lon="3.2281">
        <ele>831.09</ele>
        <time>2026-04-02T08:24:13.319Z</time>
      </trkpt>
      <trkpt lat="44.13882" lon="3.2281">
        <ele>830.48</ele>
        <time>2026-04-02T08:24:18.758Z</time>
      </trkpt>
      <trkpt lat="44.13888" lon="3.22814">
        <ele>831.32</ele>
        <time>2026-04-02T08:24:24.289Z</time>
      </trkpt>
      <trkpt lat="44.13893" lon="3.22814">
        <ele>830.77</ele>
        <time>2026-04-02T08:24:29.645Z</time>
      </trkpt>
      <trkpt lat="44.139" lon="3.22818">
        <ele>830.09</ele>
        <time>2026-04-02T08:24:34.669Z</time>
      </trkpt>
      <trkpt lat="44.13906" lon="3.22823">
        <ele>830.19</ele>
        <time>2026-04-02T08:24:40.085Z</time>
      </trkpt>
      <trkpt lat="44.13911" lon="3.22829">
        <ele>829.43</ele>
        <time>2026-04-02T08:24:45.206Z</time>
      </trkpt>
      <trkpt lat="44.13915" lon="3.22837">
        <ele>829.53</ele>
        <time>2026-04-02T08:24:50.659Z</time>
      </trkpt>
      <trkpt lat="44.13918" lon="3.22843">
        <ele>829.74</ele>
        <time>2026-04-02T08:24:56.632Z</time>
      </trkpt>
      <trkpt lat="44.13917" lon="3.22842">
        <ele>829.28</ele>
        <time>2026-04-02T08:25:07.106Z</time>
      </trkpt>
      <trkpt lat="44.13917" lon="3.22841">
        <ele>830.63</ele>
        <time>2026-04-02T08:25:25.656Z</time>
      </trkpt>
      <trkpt lat="44.13918" lon="3.22843">
        <ele>831.68</ele>
        <time>2026-04-02T08:25:42.107Z</time>
      </trkpt>
      <trkpt lat="44.13927" lon="3.22853">
        <ele>830.98</ele>
        <time>2026-04-02T08:25:47.324Z</time>
      </trkpt>
      <trkpt lat="44.13932" lon="3.22861">
        <ele>830.96</ele>
        <time>2026-04-02T08:25:52.464Z</time>
      </trkpt>
      <trkpt lat="44.13931" lon="3.2287">
        <ele>831.01</ele>
        <time>2026-04-02T08:25:58.116Z</time>
      </trkpt>
      <trkpt lat="44.13932" lon="3.22879">
        <ele>831.2</ele>
        <time>2026-04-02T08:26:03.148Z</time>
      </trkpt>
      <trkpt lat="44.13935" lon="3.22887">
        <ele>831.64</ele>
        <time>2026-04-02T08:26:08.649Z</time>
      </trkpt>
      <trkpt lat="44.13938" lon="3.22888">
        <ele>830.39</ele>
        <time>2026-04-02T08:26:13.664Z</time>
      </trkpt>
      <trkpt lat="44.13941" lon="3.22892">
        <ele>832.47</ele>
        <time>2026-04-02T08:26:19.639Z</time>
      </trkpt>
      <trkpt lat="44.1394" lon="3.22894">
        <ele>831.87</ele>
        <time>2026-04-02T08:26:25.445Z</time>
      </trkpt>
      <trkpt lat="44.13939" lon="3.22894">
        <ele>831.35</ele>
        <time>2026-04-02T08:26:30.628Z</time>
      </trkpt>
      <trkpt lat="44.13938" lon="3.22895">
        <ele>830.91</ele>
        <time>2026-04-02T08:26:35.641Z</time>
      </trkpt>
      <trkpt lat="44.13935" lon="3.22895">
        <ele>831.32</ele>
        <time>2026-04-02T08:26:40.656Z</time>
      </trkpt>
      <trkpt lat="44.13933" lon="3.22895">
        <ele>831.35</ele>
        <time>2026-04-02T08:26:46.631Z</time>
      </trkpt>
      <trkpt lat="44.13932" lon="3.22895">
        <ele>831.21</ele>
        <time>2026-04-02T08:26:52.711Z</time>
      </trkpt>
      <trkpt lat="44.13933" lon="3.22895">
        <ele>831.36</ele>
        <time>2026-04-02T08:26:58.208Z</time>
      </trkpt>
      <trkpt lat="44.1394" lon="3.22896">
        <ele>831.2</ele>
        <time>2026-04-02T08:27:03.528Z</time>
      </trkpt>
      <trkpt lat="44.13944" lon="3.22902">
        <ele>831.12</ele>
        <time>2026-04-02T08:27:08.967Z</time>
      </trkpt>
      <trkpt lat="44.13946" lon="3.22906">
        <ele>830.42</ele>
        <time>2026-04-02T08:27:14.583Z</time>
      </trkpt>
      <trkpt lat="44.13945" lon="3.22907">
        <ele>832.37</ele>
        <time>2026-04-02T08:27:21.129Z</time>
      </trkpt>
      <trkpt lat="44.13945" lon="3.2291">
        <ele>831.17</ele>
        <time>2026-04-02T08:27:26.639Z</time>
      </trkpt>
      <trkpt lat="44.13944" lon="3.22911">
        <ele>831.3</ele>
        <time>2026-04-02T08:27:31.654Z</time>
      </trkpt>
      <trkpt lat="44.13944" lon="3.22912">
        <ele>831.48</ele>
        <time>2026-04-02T08:27:42.307Z</time>
      </trkpt>
      <trkpt lat="44.13945" lon="3.22923">
        <ele>831.16</ele>
        <time>2026-04-02T08:27:47.550Z</time>
      </trkpt>
      <trkpt lat="44.13942" lon="3.22932">
        <ele>831.05</ele>
        <time>2026-04-02T08:27:53.641Z</time>
      </trkpt>
      <trkpt lat="44.13942" lon="3.22938">
        <ele>831.32</ele>
        <time>2026-04-02T08:27:58.654Z</time>
      </trkpt>
      <trkpt lat="44.13944" lon="3.22944">
        <ele>832.95</ele>
        <time>2026-04-02T08:28:04.090Z</time>
      </trkpt>
      <trkpt lat="44.13947" lon="3.2295">
        <ele>832.46</ele>
        <time>2026-04-02T08:28:09.143Z</time>
      </trkpt>
      <trkpt lat="44.13951" lon="3.22956">
        <ele>831.66</ele>
        <time>2026-04-02T08:28:14.560Z</time>
      </trkpt>
      <trkpt lat="44.13955" lon="3.2296">
        <ele>832.15</ele>
        <time>2026-04-02T08:28:19.958Z</time>
      </trkpt>
      <trkpt lat="44.13962" lon="3.22962">
        <ele>832.06</ele>
        <time>2026-04-02T08:28:25.680Z</time>
      </trkpt>
      <trkpt lat="44.1397" lon="3.2296">
        <ele>832.31</ele>
        <time>2026-04-02T08:28:31.339Z</time>
      </trkpt>
      <trkpt lat="44.13976" lon="3.2296">
        <ele>832.2</ele>
        <time>2026-04-02T08:28:37.023Z</time>
      </trkpt>
      <trkpt lat="44.1398" lon="3.22958">
        <ele>831.83</ele>
        <time>2026-04-02T08:28:42.079Z</time>
      </trkpt>
      <trkpt lat="44.13983" lon="3.22958">
        <ele>831.38</ele>
        <time>2026-04-02T08:28:47.632Z</time>
      </trkpt>
      <trkpt lat="44.13983" lon="3.22957">
        <ele>830.72</ele>
        <time>2026-04-02T08:28:53.606Z</time>
      </trkpt>
      <trkpt lat="44.13982" lon="3.22955">
        <ele>830.84</ele>
        <time>2026-04-02T08:28:58.628Z</time>
      </trkpt>
      <trkpt lat="44.13982" lon="3.22954">
        <ele>832.84</ele>
        <time>2026-04-02T08:29:12.360Z</time>
      </trkpt>
      <trkpt lat="44.13979" lon="3.22944">
        <ele>833.09</ele>
        <time>2026-04-02T08:29:17.627Z</time>
      </trkpt>
      <trkpt lat="44.13978" lon="3.22942">
        <ele>833.39</ele>
        <time>2026-04-02T08:29:22.641Z</time>
      </trkpt>
      <trkpt lat="44.13979" lon="3.22941">
        <ele>833.06</ele>
        <time>2026-04-02T08:29:27.655Z</time>
      </trkpt>
      <trkpt lat="44.1398" lon="3.2294">
        <ele>834.48</ele>
        <time>2026-04-02T08:29:37.577Z</time>
      </trkpt>
      <trkpt lat="44.13981" lon="3.22942">
        <ele>833.74</ele>
        <time>2026-04-02T08:30:01.453Z</time>
      </trkpt>
      <trkpt lat="44.13984" lon="3.22954">
        <ele>832.83</ele>
        <time>2026-04-02T08:30:06.474Z</time>
      </trkpt>
      <trkpt lat="44.13991" lon="3.22958">
        <ele>832.85</ele>
        <time>2026-04-02T08:30:11.728Z</time>
      </trkpt>
      <trkpt lat="44.13996" lon="3.22962">
        <ele>832.38</ele>
        <time>2026-04-02T08:30:17.701Z</time>
      </trkpt>
      <trkpt lat="44.13999" lon="3.2297">
        <ele>831.3</ele>
        <time>2026-04-02T08:30:23.271Z</time>
      </trkpt>
      <trkpt lat="44.13996" lon="3.22978">
        <ele>830.43</ele>
        <time>2026-04-02T08:30:28.582Z</time>
      </trkpt>
      <trkpt lat="44.13991" lon="3.22985">
        <ele>829.98</ele>
        <time>2026-04-02T08:30:34.614Z</time>
      </trkpt>
      <trkpt lat="44.13988" lon="3.22994">
        <ele>829.64</ele>
        <time>2026-04-02T08:30:39.677Z</time>
      </trkpt>
      <trkpt lat="44.13983" lon="3.22999">
        <ele>828.47</ele>
        <time>2026-04-02T08:30:44.757Z</time>
      </trkpt>
      <trkpt lat="44.13979" lon="3.23001">
        <ele>828</ele>
        <time>2026-04-02T08:30:49.772Z</time>
      </trkpt>
      <trkpt lat="44.13973" lon="3.23003">
        <ele>827</ele>
        <time>2026-04-02T08:30:55.187Z</time>
      </trkpt>
      <trkpt lat="44.13968" lon="3.23005">
        <ele>826.96</ele>
        <time>2026-04-02T08:31:00.596Z</time>
      </trkpt>
      <trkpt lat="44.13967" lon="3.23004">
        <ele>827.25</ele>
        <time>2026-04-02T08:31:05.610Z</time>
      </trkpt>
      <trkpt lat="44.13967" lon="3.23003">
        <ele>828.78</ele>
        <time>2026-04-02T08:31:14.107Z</time>
      </trkpt>
      <trkpt lat="44.13961" lon="3.23003">
        <ele>827.35</ele>
        <time>2026-04-02T08:31:19.587Z</time>
      </trkpt>
      <trkpt lat="44.13958" lon="3.23003">
        <ele>826.47</ele>
        <time>2026-04-02T08:31:24.601Z</time>
      </trkpt>
      <trkpt lat="44.13958" lon="3.23002">
        <ele>827.22</ele>
        <time>2026-04-02T08:31:30.576Z</time>
      </trkpt>
      <trkpt lat="44.13959" lon="3.23004">
        <ele>829.69</ele>
        <time>2026-04-02T08:31:58.372Z</time>
      </trkpt>
      <trkpt lat="44.13957" lon="3.2301">
        <ele>829.18</ele>
        <time>2026-04-02T08:32:03.649Z</time>
      </trkpt>
      <trkpt lat="44.13958" lon="3.2301">
        <ele>828.64</ele>
        <time>2026-04-02T08:32:08.665Z</time>
      </trkpt>
      <trkpt lat="44.13959" lon="3.2301">
        <ele>826.09</ele>
        <time>2026-04-02T08:32:13.679Z</time>
      </trkpt>
      <trkpt lat="44.1396" lon="3.23012">
        <ele>826.12</ele>
        <time>2026-04-02T08:32:18.693Z</time>
      </trkpt>
      <trkpt lat="44.13959" lon="3.23013">
        <ele>826.83</ele>
        <time>2026-04-02T08:32:25.627Z</time>
      </trkpt>
      <trkpt lat="44.13959" lon="3.23014">
        <ele>826.72</ele>
        <time>2026-04-02T08:32:41.631Z</time>
      </trkpt>
      <trkpt lat="44.13961" lon="3.23015">
        <ele>826.42</ele>
        <time>2026-04-02T08:32:46.645Z</time>
      </trkpt>
      <trkpt lat="44.13961" lon="3.23014">
        <ele>825.85</ele>
        <time>2026-04-02T08:32:54.647Z</time>
      </trkpt>
      <trkpt lat="44.13958" lon="3.23009">
        <ele>827.45</ele>
        <time>2026-04-02T08:32:59.661Z</time>
      </trkpt>
      <trkpt lat="44.13952" lon="3.23007">
        <ele>827.31</ele>
        <time>2026-04-02T08:33:04.675Z</time>
      </trkpt>
      <trkpt lat="44.13948" lon="3.23006">
        <ele>827.32</ele>
        <time>2026-04-02T08:33:09.675Z</time>
      </trkpt>
      <trkpt lat="44.13943" lon="3.23004">
        <ele>827.08</ele>
        <time>2026-04-02T08:33:15.231Z</time>
      </trkpt>
      <trkpt lat="44.13937" lon="3.23001">
        <ele>827.92</ele>
        <time>2026-04-02T08:33:20.677Z</time>
      </trkpt>
      <trkpt lat="44.13933" lon="3.23">
        <ele>828.52</ele>
        <time>2026-04-02T08:33:25.696Z</time>
      </trkpt>
      <trkpt lat="44.13934" lon="3.22999">
        <ele>830.16</ele>
        <time>2026-04-02T08:33:32.629Z</time>
      </trkpt>
      <trkpt lat="44.13933" lon="3.22997">
        <ele>829.28</ele>
        <time>2026-04-02T08:33:38.148Z</time>
      </trkpt>
      <trkpt lat="44.13928" lon="3.22987">
        <ele>827.8</ele>
        <time>2026-04-02T08:33:43.618Z</time>
      </trkpt>
      <trkpt lat="44.13927" lon="3.22986">
        <ele>827.61</ele>
        <time>2026-04-02T08:33:48.633Z</time>
      </trkpt>
      <trkpt lat="44.13926" lon="3.22985">
        <ele>827.53</ele>
        <time>2026-04-02T08:33:54.608Z</time>
      </trkpt>
      <trkpt lat="44.13925" lon="3.22985">
        <ele>828.02</ele>
        <time>2026-04-02T08:34:14.665Z</time>
      </trkpt>
      <trkpt lat="44.13923" lon="3.22982">
        <ele>829.92</ele>
        <time>2026-04-02T08:34:20.639Z</time>
      </trkpt>
      <trkpt lat="44.1392" lon="3.22976">
        <ele>829.18</ele>
        <time>2026-04-02T08:34:25.655Z</time>
      </trkpt>
      <trkpt lat="44.13919" lon="3.22974">
        <ele>829.02</ele>
        <time>2026-04-02T08:34:31.630Z</time>
      </trkpt>
      <trkpt lat="44.13917" lon="3.22971">
        <ele>829.49</ele>
        <time>2026-04-02T08:34:36.643Z</time>
      </trkpt>
      <trkpt lat="44.13919" lon="3.2297">
        <ele>828.72</ele>
        <time>2026-04-02T08:34:41.658Z</time>
      </trkpt>
      <trkpt lat="44.13919" lon="3.22969">
        <ele>828.66</ele>
        <time>2026-04-02T08:34:49.570Z</time>
      </trkpt>
      <trkpt lat="44.13917" lon="3.22961">
        <ele>832.08</ele>
        <time>2026-04-02T08:34:54.680Z</time>
      </trkpt>
      <trkpt lat="44.13916" lon="3.22947">
        <ele>831.9</ele>
        <time>2026-04-02T08:35:00.286Z</time>
      </trkpt>
      <trkpt lat="44.13915" lon="3.22939">
        <ele>831.74</ele>
        <time>2026-04-02T08:35:05.670Z</time>
      </trkpt>
      <trkpt lat="44.13912" lon="3.2293">
        <ele>831.22</ele>
        <time>2026-04-02T08:35:11.284Z</time>
      </trkpt>
      <trkpt lat="44.1391" lon="3.22923">
        <ele>832.74</ele>
        <time>2026-04-02T08:35:16.643Z</time>
      </trkpt>
      <trkpt lat="44.13908" lon="3.22916">
        <ele>832.39</ele>
        <time>2026-04-02T08:35:22.165Z</time>
      </trkpt>
      <trkpt lat="44.13908" lon="3.22908">
        <ele>832.4</ele>
        <time>2026-04-02T08:35:27.675Z</time>
      </trkpt>
      <trkpt lat="44.13911" lon="3.22902">
        <ele>832.82</ele>
        <time>2026-04-02T08:35:33.484Z</time>
      </trkpt>
      <trkpt lat="44.13913" lon="3.22898">
        <ele>832.03</ele>
        <time>2026-04-02T08:35:38.575Z</time>
      </trkpt>
      <trkpt lat="44.13915" lon="3.22896">
        <ele>831.24</ele>
        <time>2026-04-02T08:35:43.651Z</time>
      </trkpt>
      <trkpt lat="44.13916" lon="3.22896">
        <ele>831.55</ele>
        <time>2026-04-02T08:35:49.629Z</time>
      </trkpt>
      <trkpt lat="44.13917" lon="3.22898">
        <ele>832.49</ele>
        <time>2026-04-02T08:35:55.241Z</time>
      </trkpt>
      <trkpt lat="44.13917" lon="3.22903">
        <ele>832.55</ele>
        <time>2026-04-02T08:36:01.578Z</time>
      </trkpt>
      <trkpt lat="44.13916" lon="3.22902">
        <ele>833.28</ele>
        <time>2026-04-02T08:36:06.591Z</time>
      </trkpt>
      <trkpt lat="44.13917" lon="3.22902">
        <ele>831.67</ele>
        <time>2026-04-02T08:36:18.443Z</time>
      </trkpt>
      <trkpt lat="44.13918" lon="3.229">
        <ele>832.43</ele>
        <time>2026-04-02T08:36:23.660Z</time>
      </trkpt>
      <trkpt lat="44.13917" lon="3.22899">
        <ele>832.42</ele>
        <time>2026-04-02T08:36:29.569Z</time>
      </trkpt>
      <trkpt lat="44.13916" lon="3.22899">
        <ele>834.1</ele>
        <time>2026-04-02T08:36:35.659Z</time>
      </trkpt>
      <trkpt lat="44.13914" lon="3.22899">
        <ele>832.77</ele>
        <time>2026-04-02T08:36:46.649Z</time>
      </trkpt>
      <trkpt lat="44.13909" lon="3.229">
        <ele>833.25</ele>
        <time>2026-04-02T08:36:51.662Z</time>
      </trkpt>
      <trkpt lat="44.13907" lon="3.229">
        <ele>834.18</ele>
        <time>2026-04-02T08:36:56.678Z</time>
      </trkpt>
      <trkpt lat="44.13898" lon="3.22899">
        <ele>835.74</ele>
        <time>2026-04-02T08:37:02.390Z</time>
      </trkpt>
      <trkpt lat="44.13892" lon="3.22901">
        <ele>835.4</ele>
        <time>2026-04-02T08:37:07.667Z</time>
      </trkpt>
      <trkpt lat="44.13891" lon="3.22901">
        <ele>835.33</ele>
        <time>2026-04-02T08:37:12.681Z</time>
      </trkpt>
      <trkpt lat="44.13892" lon="3.22901">
        <ele>835.33</ele>
        <time>2026-04-02T08:37:18.588Z</time>
      </trkpt>
      <trkpt lat="44.13891" lon="3.229">
        <ele>835.89</ele>
        <time>2026-04-02T08:37:24.639Z</time>
      </trkpt>
      <trkpt lat="44.13889" lon="3.22899">
        <ele>835.53</ele>
        <time>2026-04-02T08:37:29.653Z</time>
      </trkpt>
      <trkpt lat="44.13888" lon="3.22899">
        <ele>834.35</ele>
        <time>2026-04-02T08:37:35.477Z</time>
      </trkpt>
      <trkpt lat="44.13887" lon="3.229">
        <ele>835.19</ele>
        <time>2026-04-02T08:37:40.676Z</time>
      </trkpt>
      <trkpt lat="44.13887" lon="3.22902">
        <ele>835.27</ele>
        <time>2026-04-02T08:37:45.915Z</time>
      </trkpt>
      <trkpt lat="44.13884" lon="3.22905">
        <ele>835.72</ele>
        <time>2026-04-02T08:37:51.218Z</time>
      </trkpt>
      <trkpt lat="44.13878" lon="3.22908">
        <ele>836.32</ele>
        <time>2026-04-02T08:37:56.698Z</time>
      </trkpt>
      <trkpt lat="44.13874" lon="3.22911">
        <ele>836.26</ele>
        <time>2026-04-02T08:38:01.712Z</time>
      </trkpt>
      <trkpt lat="44.1387" lon="3.22913">
        <ele>835.9</ele>
        <time>2026-04-02T08:38:06.726Z</time>
      </trkpt>
      <trkpt lat="44.13866" lon="3.22918">
        <ele>836.45</ele>
        <time>2026-04-02T08:38:12.599Z</time>
      </trkpt>
      <trkpt lat="44.13862" lon="3.22923">
        <ele>836.9</ele>
        <time>2026-04-02T08:38:17.608Z</time>
      </trkpt>
      <trkpt lat="44.13857" lon="3.22926">
        <ele>838.56</ele>
        <time>2026-04-02T08:38:23.158Z</time>
      </trkpt>
      <trkpt lat="44.13853" lon="3.22927">
        <ele>840.13</ele>
        <time>2026-04-02T08:38:28.595Z</time>
      </trkpt>
      <trkpt lat="44.13851" lon="3.22928">
        <ele>840.29</ele>
        <time>2026-04-02T08:38:33.660Z</time>
      </trkpt>
      <trkpt lat="44.13848" lon="3.22927">
        <ele>843.93</ele>
        <time>2026-04-02T08:38:39.589Z</time>
      </trkpt>
      <trkpt lat="44.1385" lon="3.22925">
        <ele>844.05</ele>
        <time>2026-04-02T08:38:44.603Z</time>
      </trkpt>
      <trkpt lat="44.13849" lon="3.22927">
        <ele>843.7</ele>
        <time>2026-04-02T08:39:01.673Z</time>
      </trkpt>
      <trkpt lat="44.13848" lon="3.22926">
        <ele>844.28</ele>
        <time>2026-04-02T08:39:07.647Z</time>
      </trkpt>
      <trkpt lat="44.13847" lon="3.22926">
        <ele>843.96</ele>
        <time>2026-04-02T08:39:13.622Z</time>
      </trkpt>
      <trkpt lat="44.13846" lon="3.22926">
        <ele>843.9</ele>
        <time>2026-04-02T08:39:19.304Z</time>
      </trkpt>
      <trkpt lat="44.13842" lon="3.22925">
        <ele>844.07</ele>
        <time>2026-04-02T08:39:24.611Z</time>
      </trkpt>
      <trkpt lat="44.1384" lon="3.22923">
        <ele>844.87</ele>
        <time>2026-04-02T08:39:29.630Z</time>
      </trkpt>
      <trkpt lat="44.13833" lon="3.22918">
        <ele>845.02</ele>
        <time>2026-04-02T08:39:34.674Z</time>
      </trkpt>
      <trkpt lat="44.13827" lon="3.22917">
        <ele>843.71</ele>
        <time>2026-04-02T08:39:40.411Z</time>
      </trkpt>
      <trkpt lat="44.13828" lon="3.22915">
        <ele>842.57</ele>
        <time>2026-04-02T08:39:45.633Z</time>
      </trkpt>
      <trkpt lat="44.13828" lon="3.2291">
        <ele>842.24</ele>
        <time>2026-04-02T08:39:51.142Z</time>
      </trkpt>
      <trkpt lat="44.13827" lon="3.22912">
        <ele>841.83</ele>
        <time>2026-04-02T08:39:56.183Z</time>
      </trkpt>
      <trkpt lat="44.13828" lon="3.22914">
        <ele>842.34</ele>
        <time>2026-04-02T08:40:01.693Z</time>
      </trkpt>
      <trkpt lat="44.13827" lon="3.22913">
        <ele>839.84</ele>
        <time>2026-04-02T08:40:07.620Z</time>
      </trkpt>
      <trkpt lat="44.13826" lon="3.22912">
        <ele>837.49</ele>
        <time>2026-04-02T08:40:12.978Z</time>
      </trkpt>
      <trkpt lat="44.13825" lon="3.22914">
        <ele>836.49</ele>
        <time>2026-04-02T08:40:18.254Z</time>
      </trkpt>
      <trkpt lat="44.13824" lon="3.22912">
        <ele>835.99</ele>
        <time>2026-04-02T08:40:23.537Z</time>
      </trkpt>
      <trkpt lat="44.13822" lon="3.22912">
        <ele>836.37</ele>
        <time>2026-04-02T08:40:28.585Z</time>
      </trkpt>
      <trkpt lat="44.13817" lon="3.2291">
        <ele>834.72</ele>
        <time>2026-04-02T08:40:33.650Z</time>
      </trkpt>
      <trkpt lat="44.13813" lon="3.22902">
        <ele>833.81</ele>
        <time>2026-04-02T08:40:38.664Z</time>
      </trkpt>
      <trkpt lat="44.13815" lon="3.22898">
        <ele>832.92</ele>
        <time>2026-04-02T08:40:43.679Z</time>
      </trkpt>
      <trkpt lat="44.13811" lon="3.22898">
        <ele>832.8</ele>
        <time>2026-04-02T08:40:48.693Z</time>
      </trkpt>
      <trkpt lat="44.13803" lon="3.22898">
        <ele>832.56</ele>
        <time>2026-04-02T08:40:53.962Z</time>
      </trkpt>
      <trkpt lat="44.13799" lon="3.22903">
        <ele>832.31</ele>
        <time>2026-04-02T08:40:59.401Z</time>
      </trkpt>
      <trkpt lat="44.13796" lon="3.22907">
        <ele>830.62</ele>
        <time>2026-04-02T08:41:04.476Z</time>
      </trkpt>
      <trkpt lat="44.13793" lon="3.22908">
        <ele>828.4</ele>
        <time>2026-04-02T08:41:09.882Z</time>
      </trkpt>
      <trkpt lat="44.13785" lon="3.22903">
        <ele>827.42</ele>
        <time>2026-04-02T08:41:15.616Z</time>
      </trkpt>
      <trkpt lat="44.13784" lon="3.22894">
        <ele>827.05</ele>
        <time>2026-04-02T08:41:20.696Z</time>
      </trkpt>
      <trkpt lat="44.1378" lon="3.22887">
        <ele>826.38</ele>
        <time>2026-04-02T08:41:25.756Z</time>
      </trkpt>
      <trkpt lat="44.13771" lon="3.22883">
        <ele>826.2</ele>
        <time>2026-04-02T08:41:31.634Z</time>
      </trkpt>
      <trkpt lat="44.13763" lon="3.22887">
        <ele>824.75</ele>
        <time>2026-04-02T08:41:37.217Z</time>
      </trkpt>
      <trkpt lat="44.13757" lon="3.22888">
        <ele>824.29</ele>
        <time>2026-04-02T08:41:42.613Z</time>
      </trkpt>
      <trkpt lat="44.13751" lon="3.22883">
        <ele>822.27</ele>
        <time>2026-04-02T08:41:47.686Z</time>
      </trkpt>
      <trkpt lat="44.13748" lon="3.22884">
        <ele>821.65</ele>
        <time>2026-04-02T08:41:52.700Z</time>
      </trkpt>
      <trkpt lat="44.1375" lon="3.22883">
        <ele>821.48</ele>
        <time>2026-04-02T08:41:57.713Z</time>
      </trkpt>
      <trkpt lat="44.13751" lon="3.22884">
        <ele>821.01</ele>
        <time>2026-04-02T08:42:05.607Z</time>
      </trkpt>
      <trkpt lat="44.13751" lon="3.22885">
        <ele>824.49</ele>
        <time>2026-04-02T08:42:28.668Z</time>
      </trkpt>
      <trkpt lat="44.13752" lon="3.22886">
        <ele>823.11</ele>
        <time>2026-04-02T08:42:34.642Z</time>
      </trkpt>
      <trkpt lat="44.13753" lon="3.22887">
        <ele>822.53</ele>
        <time>2026-04-02T08:42:40.615Z</time>
      </trkpt>
      <trkpt lat="44.13752" lon="3.22886">
        <ele>822.15</ele>
        <time>2026-04-02T08:42:53.476Z</time>
      </trkpt>
      <trkpt lat="44.13743" lon="3.22889">
        <ele>822.28</ele>
        <time>2026-04-02T08:42:59.042Z</time>
      </trkpt>
      <trkpt lat="44.13738" lon="3.22894">
        <ele>821.51</ele>
        <time>2026-04-02T08:43:04.619Z</time>
      </trkpt>
      <trkpt lat="44.13737" lon="3.22901">
        <ele>821.41</ele>
        <time>2026-04-02T08:43:10.700Z</time>
      </trkpt>
      <trkpt lat="44.13737" lon="3.22906">
        <ele>822.47</ele>
        <time>2026-04-02T08:43:16.674Z</time>
      </trkpt>
      <trkpt lat="44.13739" lon="3.22914">
        <ele>823.36</ele>
        <time>2026-04-02T08:43:21.717Z</time>
      </trkpt>
      <trkpt lat="44.1374" lon="3.22917">
        <ele>824.25</ele>
        <time>2026-04-02T08:43:27.559Z</time>
      </trkpt>
      <trkpt lat="44.13739" lon="3.22916">
        <ele>824.37</ele>
        <time>2026-04-02T08:43:33.278Z</time>
      </trkpt>
      <trkpt lat="44.13741" lon="3.22915">
        <ele>822.74</ele>
        <time>2026-04-02T08:43:39.633Z</time>
      </trkpt>
      <trkpt lat="44.13748" lon="3.22923">
        <ele>824.61</ele>
        <time>2026-04-02T08:43:45.296Z</time>
      </trkpt>
      <trkpt lat="44.1375" lon="3.22932">
        <ele>826.62</ele>
        <time>2026-04-02T08:43:50.419Z</time>
      </trkpt>
      <trkpt lat="44.1375" lon="3.22938">
        <ele>828.02</ele>
        <time>2026-04-02T08:43:55.701Z</time>
      </trkpt>
      <trkpt lat="44.13751" lon="3.22937">
        <ele>828.02</ele>
        <time>2026-04-02T08:44:01.596Z</time>
      </trkpt>
      <trkpt lat="44.1375" lon="3.22936">
        <ele>828.31</ele>
        <time>2026-04-02T08:44:07.677Z</time>
      </trkpt>
      <trkpt lat="44.13751" lon="3.22936">
        <ele>831.02</ele>
        <time>2026-04-02T08:44:58.670Z</time>
      </trkpt>
      <trkpt lat="44.1375" lon="3.22937">
        <ele>829.99</ele>
        <time>2026-04-02T08:45:21.715Z</time>
      </trkpt>
      <trkpt lat="44.1375" lon="3.22935">
        <ele>831.87</ele>
        <time>2026-04-02T08:45:33.220Z</time>
      </trkpt>
      <trkpt lat="44.1375" lon="3.22932">
        <ele>831.48</ele>
        <time>2026-04-02T08:45:38.376Z</time>
      </trkpt>
      <trkpt lat="44.1375" lon="3.22928">
        <ele>830.25</ele>
        <time>2026-04-02T08:45:43.706Z</time>
      </trkpt>
      <trkpt lat="44.13749" lon="3.22926">
        <ele>828.42</ele>
        <time>2026-04-02T08:45:49.681Z</time>
      </trkpt>
      <trkpt lat="44.13744" lon="3.22916">
        <ele>827.64</ele>
        <time>2026-04-02T08:45:55.163Z</time>
      </trkpt>
      <trkpt lat="44.13739" lon="3.22912">
        <ele>825.97</ele>
        <time>2026-04-02T08:46:00.576Z</time>
      </trkpt>
      <trkpt lat="44.13734" lon="3.22907">
        <ele>824.32</ele>
        <time>2026-04-02T08:46:05.683Z</time>
      </trkpt>
      <trkpt lat="44.13728" lon="3.22902">
        <ele>822.53</ele>
        <time>2026-04-02T08:46:10.698Z</time>
      </trkpt>
      <trkpt lat="44.13722" lon="3.22901">
        <ele>822.31</ele>
        <time>2026-04-02T08:46:15.939Z</time>
      </trkpt>
      <trkpt lat="44.13716" lon="3.22907">
        <ele>822.39</ele>
        <time>2026-04-02T08:46:21.685Z</time>
      </trkpt>
      <trkpt lat="44.1371" lon="3.22907">
        <ele>822.67</ele>
        <time>2026-04-02T08:46:27.661Z</time>
      </trkpt>
      <trkpt lat="44.13705" lon="3.22909">
        <ele>822.53</ele>
        <time>2026-04-02T08:46:32.675Z</time>
      </trkpt>
      <trkpt lat="44.13701" lon="3.2291">
        <ele>822.3</ele>
        <time>2026-04-02T08:46:37.688Z</time>
      </trkpt>
      <trkpt lat="44.13696" lon="3.22919">
        <ele>823.55</ele>
        <time>2026-04-02T08:46:43.638Z</time>
      </trkpt>
      <trkpt lat="44.13693" lon="3.22924">
        <ele>823.46</ele>
        <time>2026-04-02T08:46:48.778Z</time>
      </trkpt>
      <trkpt lat="44.13687" lon="3.22925">
        <ele>824.11</ele>
        <time>2026-04-02T08:46:54.318Z</time>
      </trkpt>
      <trkpt lat="44.1368" lon="3.22926">
        <ele>824.27</ele>
        <time>2026-04-02T08:46:59.664Z</time>
      </trkpt>
      <trkpt lat="44.13674" lon="3.2293">
        <ele>824.28</ele>
        <time>2026-04-02T08:47:05.243Z</time>
      </trkpt>
      <trkpt lat="44.13669" lon="3.22936">
        <ele>824.25</ele>
        <time>2026-04-02T08:47:10.651Z</time>
      </trkpt>
      <trkpt lat="44.13664" lon="3.22937">
        <ele>824.42</ele>
        <time>2026-04-02T08:47:15.666Z</time>
      </trkpt>
      <trkpt lat="44.13658" lon="3.22937">
        <ele>825.09</ele>
        <time>2026-04-02T08:47:21.740Z</time>
      </trkpt>
      <trkpt lat="44.13652" lon="3.22935">
        <ele>825.36</ele>
        <time>2026-04-02T08:47:27.199Z</time>
      </trkpt>
      <trkpt lat="44.13645" lon="3.22931">
        <ele>825.48</ele>
        <time>2026-04-02T08:47:32.452Z</time>
      </trkpt>
      <trkpt lat="44.13638" lon="3.22929">
        <ele>826.06</ele>
        <time>2026-04-02T08:47:37.735Z</time>
      </trkpt>
      <trkpt lat="44.13632" lon="3.22927">
        <ele>826.21</ele>
        <time>2026-04-02T08:47:43.062Z</time>
      </trkpt>
      <trkpt lat="44.13627" lon="3.22929">
        <ele>827.17</ele>
        <time>2026-04-02T08:47:48.294Z</time>
      </trkpt>
      <trkpt lat="44.13622" lon="3.22935">
        <ele>826.98</ele>
        <time>2026-04-02T08:47:53.539Z</time>
      </trkpt>
      <trkpt lat="44.13617" lon="3.22941">
        <ele>826.86</ele>
        <time>2026-04-02T08:47:58.793Z</time>
      </trkpt>
      <trkpt lat="44.1361" lon="3.22943">
        <ele>826.63</ele>
        <time>2026-04-02T08:48:04.181Z</time>
      </trkpt>
      <trkpt lat="44.13604" lon="3.22942">
        <ele>826.41</ele>
        <time>2026-04-02T08:48:09.435Z</time>
      </trkpt>
      <trkpt lat="44.13599" lon="3.22944">
        <ele>827.02</ele>
        <time>2026-04-02T08:48:14.876Z</time>
      </trkpt>
      <trkpt lat="44.13596" lon="3.22952">
        <ele>828.8</ele>
        <time>2026-04-02T08:48:20.642Z</time>
      </trkpt>
      <trkpt lat="44.13596" lon="3.22958">
        <ele>828.76</ele>
        <time>2026-04-02T08:48:25.654Z</time>
      </trkpt>
      <trkpt lat="44.13597" lon="3.2296">
        <ele>830.47</ele>
        <time>2026-04-02T08:48:34.229Z</time>
      </trkpt>
      <trkpt lat="44.13595" lon="3.22965">
        <ele>831.16</ele>
        <time>2026-04-02T08:48:39.315Z</time>
      </trkpt>
      <trkpt lat="44.13592" lon="3.22975">
        <ele>830.49</ele>
        <time>2026-04-02T08:48:44.329Z</time>
      </trkpt>
      <trkpt lat="44.13589" lon="3.22985">
        <ele>831.32</ele>
        <time>2026-04-02T08:48:49.658Z</time>
      </trkpt>
      <trkpt lat="44.13587" lon="3.22992">
        <ele>832.27</ele>
        <time>2026-04-02T08:48:55.127Z</time>
      </trkpt>
      <trkpt lat="44.13586" lon="3.22999">
        <ele>832.49</ele>
        <time>2026-04-02T08:49:00.645Z</time>
      </trkpt>
      <trkpt lat="44.13585" lon="3.23">
        <ele>833.45</ele>
        <time>2026-04-02T08:49:07.549Z</time>
      </trkpt>
      <trkpt lat="44.13582" lon="3.23004">
        <ele>833.01</ele>
        <time>2026-04-02T08:49:12.602Z</time>
      </trkpt>
      <trkpt lat="44.13578" lon="3.23007">
        <ele>834.48</ele>
        <time>2026-04-02T08:49:17.616Z</time>
      </trkpt>
      <trkpt lat="44.13574" lon="3.23011">
        <ele>835.8</ele>
        <time>2026-04-02T08:49:22.638Z</time>
      </trkpt>
      <trkpt lat="44.13566" lon="3.23015">
        <ele>835.03</ele>
        <time>2026-04-02T08:49:27.932Z</time>
      </trkpt>
      <trkpt lat="44.13558" lon="3.23014">
        <ele>834.46</ele>
        <time>2026-04-02T08:49:33.625Z</time>
      </trkpt>
      <trkpt lat="44.13552" lon="3.23012">
        <ele>835.1</ele>
        <time>2026-04-02T08:49:39.104Z</time>
      </trkpt>
      <trkpt lat="44.13548" lon="3.2301">
        <ele>835.8</ele>
        <time>2026-04-02T08:49:44.492Z</time>
      </trkpt>
      <trkpt lat="44.13546" lon="3.23004">
        <ele>835.33</ele>
        <time>2026-04-02T08:49:49.665Z</time>
      </trkpt>
      <trkpt lat="44.13546" lon="3.22995">
        <ele>833.97</ele>
        <time>2026-04-02T08:49:55.105Z</time>
      </trkpt>
      <trkpt lat="44.13547" lon="3.22988">
        <ele>832.78</ele>
        <time>2026-04-02T08:50:00.406Z</time>
      </trkpt>
      <trkpt lat="44.13546" lon="3.22982">
        <ele>833.48</ele>
        <time>2026-04-02T08:50:05.509Z</time>
      </trkpt>
      <trkpt lat="44.13546" lon="3.22979">
        <ele>834.22</ele>
        <time>2026-04-02T08:50:10.549Z</time>
      </trkpt>
      <trkpt lat="44.13545" lon="3.22973">
        <ele>834.89</ele>
        <time>2026-04-02T08:50:16.468Z</time>
      </trkpt>
      <trkpt lat="44.13544" lon="3.22969">
        <ele>835.1</ele>
        <time>2026-04-02T08:50:21.639Z</time>
      </trkpt>
      <trkpt lat="44.13543" lon="3.22965">
        <ele>834.73</ele>
        <time>2026-04-02T08:50:26.743Z</time>
      </trkpt>
      <trkpt lat="44.13542" lon="3.22957">
        <ele>833.05</ele>
        <time>2026-04-02T08:50:32.513Z</time>
      </trkpt>
      <trkpt lat="44.13542" lon="3.22954">
        <ele>834.04</ele>
        <time>2026-04-02T08:50:37.998Z</time>
      </trkpt>
      <trkpt lat="44.13545" lon="3.22951">
        <ele>835.76</ele>
        <time>2026-04-02T08:50:43.281Z</time>
      </trkpt>
      <trkpt lat="44.13548" lon="3.22946">
        <ele>836.41</ele>
        <time>2026-04-02T08:50:48.338Z</time>
      </trkpt>
      <trkpt lat="44.13551" lon="3.22937">
        <ele>836.85</ele>
        <time>2026-04-02T08:50:53.352Z</time>
      </trkpt>
      <trkpt lat="44.13555" lon="3.22928">
        <ele>836.92</ele>
        <time>2026-04-02T08:50:58.987Z</time>
      </trkpt>
      <trkpt lat="44.13557" lon="3.22922">
        <ele>837.81</ele>
        <time>2026-04-02T08:51:04.547Z</time>
      </trkpt>
      <trkpt lat="44.13557" lon="3.22916">
        <ele>839.11</ele>
        <time>2026-04-02T08:51:09.751Z</time>
      </trkpt>
      <trkpt lat="44.1356" lon="3.22911">
        <ele>840.06</ele>
        <time>2026-04-02T08:51:14.872Z</time>
      </trkpt>
      <trkpt lat="44.13564" lon="3.22905">
        <ele>841.76</ele>
        <time>2026-04-02T08:51:20.629Z</time>
      </trkpt>
      <trkpt lat="44.13566" lon="3.22897">
        <ele>842.5</ele>
        <time>2026-04-02T08:51:25.914Z</time>
      </trkpt>
      <trkpt lat="44.13563" lon="3.22891">
        <ele>842.51</ele>
        <time>2026-04-02T08:51:31.354Z</time>
      </trkpt>
      <trkpt lat="44.13562" lon="3.22886">
        <ele>842.42</ele>
        <time>2026-04-02T08:51:36.386Z</time>
      </trkpt>
      <trkpt lat="44.13563" lon="3.22879">
        <ele>842.52</ele>
        <time>2026-04-02T08:51:41.497Z</time>
      </trkpt>
      <trkpt lat="44.13565" lon="3.2287">
        <ele>843.21</ele>
        <time>2026-04-02T08:51:47.462Z</time>
      </trkpt>
      <trkpt lat="44.13564" lon="3.22861">
        <ele>843.57</ele>
        <time>2026-04-02T08:51:53.240Z</time>
      </trkpt>
      <trkpt lat="44.1356" lon="3.22852">
        <ele>842.63</ele>
        <time>2026-04-02T08:51:58.731Z</time>
      </trkpt>
      <trkpt lat="44.13556" lon="3.22843">
        <ele>842.16</ele>
        <time>2026-04-02T08:52:03.882Z</time>
      </trkpt>
      <trkpt lat="44.1355" lon="3.22837">
        <ele>842.68</ele>
        <time>2026-04-02T08:52:09.624Z</time>
      </trkpt>
      <trkpt lat="44.13546" lon="3.22832">
        <ele>841.64</ele>
        <time>2026-04-02T08:52:14.624Z</time>
      </trkpt>
      <trkpt lat="44.13542" lon="3.22833">
        <ele>841.6</ele>
        <time>2026-04-02T08:52:19.639Z</time>
      </trkpt>
      <trkpt lat="44.13543" lon="3.22832">
        <ele>840.79</ele>
        <time>2026-04-02T08:52:24.678Z</time>
      </trkpt>
      <trkpt lat="44.13544" lon="3.22834">
        <ele>841.43</ele>
        <time>2026-04-02T08:52:38.654Z</time>
      </trkpt>
      <trkpt lat="44.13543" lon="3.22832">
        <ele>840.83</ele>
        <time>2026-04-02T08:52:55.503Z</time>
      </trkpt>
      <trkpt lat="44.13547" lon="3.2282">
        <ele>840.64</ele>
        <time>2026-04-02T08:53:01.027Z</time>
      </trkpt>
      <trkpt lat="44.13546" lon="3.22814">
        <ele>840.28</ele>
        <time>2026-04-02T08:53:06.143Z</time>
      </trkpt>
      <trkpt lat="44.13545" lon="3.22806">
        <ele>839.68</ele>
        <time>2026-04-02T08:53:11.460Z</time>
      </trkpt>
      <trkpt lat="44.13545" lon="3.22798">
        <ele>839.13</ele>
        <time>2026-04-02T08:53:16.600Z</time>
      </trkpt>
      <trkpt lat="44.13542" lon="3.22795">
        <ele>838.25</ele>
        <time>2026-04-02T08:53:21.644Z</time>
      </trkpt>
      <trkpt lat="44.13536" lon="3.22795">
        <ele>840.37</ele>
        <time>2026-04-02T08:53:27.239Z</time>
      </trkpt>
      <trkpt lat="44.1353" lon="3.22795">
        <ele>842.1</ele>
        <time>2026-04-02T08:53:32.261Z</time>
      </trkpt>
      <trkpt lat="44.13527" lon="3.22787">
        <ele>841.94</ele>
        <time>2026-04-02T08:53:37.897Z</time>
      </trkpt>
      <trkpt lat="44.13527" lon="3.22785">
        <ele>841.91</ele>
        <time>2026-04-02T08:53:43.099Z</time>
      </trkpt>
      <trkpt lat="44.13525" lon="3.22781">
        <ele>843.04</ele>
        <time>2026-04-02T08:53:48.633Z</time>
      </trkpt>
      <trkpt lat="44.13524" lon="3.22779">
        <ele>843.01</ele>
        <time>2026-04-02T08:53:54.245Z</time>
      </trkpt>
      <trkpt lat="44.13522" lon="3.22775">
        <ele>844.72</ele>
        <time>2026-04-02T08:53:59.676Z</time>
      </trkpt>
      <trkpt lat="44.1352" lon="3.22769">
        <ele>845.32</ele>
        <time>2026-04-02T08:54:05.321Z</time>
      </trkpt>
      <trkpt lat="44.13517" lon="3.22766">
        <ele>845.81</ele>
        <time>2026-04-02T08:54:10.714Z</time>
      </trkpt>
      <trkpt lat="44.13511" lon="3.22769">
        <ele>846.37</ele>
        <time>2026-04-02T08:54:16.682Z</time>
      </trkpt>
      <trkpt lat="44.13508" lon="3.22772">
        <ele>846.24</ele>
        <time>2026-04-02T08:54:22.460Z</time>
      </trkpt>
      <trkpt lat="44.13503" lon="3.22775">
        <ele>848.04</ele>
        <time>2026-04-02T08:54:27.510Z</time>
      </trkpt>
      <trkpt lat="44.13499" lon="3.22773">
        <ele>848.41</ele>
        <time>2026-04-02T08:54:33.429Z</time>
      </trkpt>
      <trkpt lat="44.13497" lon="3.22772">
        <ele>849.55</ele>
        <time>2026-04-02T08:54:38.671Z</time>
      </trkpt>
      <trkpt lat="44.13495" lon="3.22771">
        <ele>851.31</ele>
        <time>2026-04-02T08:54:44.617Z</time>
      </trkpt>
      <trkpt lat="44.13491" lon="3.22767">
        <ele>850.92</ele>
        <time>2026-04-02T08:54:49.676Z</time>
      </trkpt>
      <trkpt lat="44.13487" lon="3.22761">
        <ele>851.61</ele>
        <time>2026-04-02T08:54:55.378Z</time>
      </trkpt>
      <trkpt lat="44.13483" lon="3.22755">
        <ele>852.13</ele>
        <time>2026-04-02T08:55:00.507Z</time>
      </trkpt>
      <trkpt lat="44.1348" lon="3.22748">
        <ele>851.93</ele>
        <time>2026-04-02T08:55:05.921Z</time>
      </trkpt>
      <trkpt lat="44.1348" lon="3.22741">
        <ele>852.07</ele>
        <time>2026-04-02T08:55:11.424Z</time>
      </trkpt>
      <trkpt lat="44.1348" lon="3.22734">
        <ele>852.35</ele>
        <time>2026-04-02T08:55:16.552Z</time>
      </trkpt>
      <trkpt lat="44.13482" lon="3.22725">
        <ele>852.2</ele>
        <time>2026-04-02T08:55:21.787Z</time>
      </trkpt>
      <trkpt lat="44.13485" lon="3.22718">
        <ele>852.66</ele>
        <time>2026-04-02T08:55:27.069Z</time>
      </trkpt>
      <trkpt lat="44.13485" lon="3.2271">
        <ele>852.95</ele>
        <time>2026-04-02T08:55:32.674Z</time>
      </trkpt>
      <trkpt lat="44.1348" lon="3.22703">
        <ele>852.7</ele>
        <time>2026-04-02T08:55:38.633Z</time>
      </trkpt>
      <trkpt lat="44.13474" lon="3.22696">
        <ele>852.33</ele>
        <time>2026-04-02T08:55:44.625Z</time>
      </trkpt>
      <trkpt lat="44.1347" lon="3.2269">
        <ele>851.34</ele>
        <time>2026-04-02T08:55:49.635Z</time>
      </trkpt>
      <trkpt lat="44.13467" lon="3.22687">
        <ele>851.7</ele>
        <time>2026-04-02T08:55:55.172Z</time>
      </trkpt>
      <trkpt lat="44.13463" lon="3.22686">
        <ele>851.88</ele>
        <time>2026-04-02T08:56:00.622Z</time>
      </trkpt>
      <trkpt lat="44.1346" lon="3.22688">
        <ele>852.43</ele>
        <time>2026-04-02T08:56:05.635Z</time>
      </trkpt>
      <trkpt lat="44.13457" lon="3.22688">
        <ele>853.51</ele>
        <time>2026-04-02T08:56:11.150Z</time>
      </trkpt>
      <trkpt lat="44.13455" lon="3.22682">
        <ele>852.86</ele>
        <time>2026-04-02T08:56:16.493Z</time>
      </trkpt>
      <trkpt lat="44.13454" lon="3.2268">
        <ele>852.01</ele>
        <time>2026-04-02T08:56:21.637Z</time>
      </trkpt>
      <trkpt lat="44.13454" lon="3.2268">
        <ele>852.04</ele>
        <time>2026-04-02T08:56:27.619Z</time>
      </trkpt>
      <trkpt lat="44.13454" lon="3.22682">
        <ele>852.36</ele>
        <time>2026-04-02T08:56:49.702Z</time>
      </trkpt>
      <trkpt lat="44.13447" lon="3.22684">
        <ele>852.27</ele>
        <time>2026-04-02T08:56:55.675Z</time>
      </trkpt>
      <trkpt lat="44.13444" lon="3.22687">
        <ele>852.33</ele>
        <time>2026-04-02T08:57:01.012Z</time>
      </trkpt>
      <trkpt lat="44.13438" lon="3.22685">
        <ele>851.34</ele>
        <time>2026-04-02T08:57:06.373Z</time>
      </trkpt>
      <trkpt lat="44.13432" lon="3.22679">
        <ele>850.73</ele>
        <time>2026-04-02T08:57:12.070Z</time>
      </trkpt>
      <trkpt lat="44.13425" lon="3.22679">
        <ele>850.17</ele>
        <time>2026-04-02T08:57:17.652Z</time>
      </trkpt>
      <trkpt lat="44.13424" lon="3.22675">
        <ele>849.42</ele>
        <time>2026-04-02T08:57:23.301Z</time>
      </trkpt>
      <trkpt lat="44.13425" lon="3.22676">
        <ele>849.38</ele>
        <time>2026-04-02T08:57:28.639Z</time>
      </trkpt>
      <trkpt lat="44.13425" lon="3.22678">
        <ele>849.94</ele>
        <time>2026-04-02T08:57:36.648Z</time>
      </trkpt>
      <trkpt lat="44.13424" lon="3.22679">
        <ele>849.57</ele>
        <time>2026-04-02T08:57:50.359Z</time>
      </trkpt>
      <trkpt lat="44.13417" lon="3.22681">
        <ele>849.64</ele>
        <time>2026-04-02T08:57:55.532Z</time>
      </trkpt>
      <trkpt lat="44.13412" lon="3.22677">
        <ele>851.01</ele>
        <time>2026-04-02T08:58:00.651Z</time>
      </trkpt>
      <trkpt lat="44.13413" lon="3.22678">
        <ele>851.09</ele>
        <time>2026-04-02T08:58:07.691Z</time>
      </trkpt>
      <trkpt lat="44.13414" lon="3.22679">
        <ele>850.75</ele>
        <time>2026-04-02T08:58:13.667Z</time>
      </trkpt>
      <trkpt lat="44.13414" lon="3.2268">
        <ele>850.9</ele>
        <time>2026-04-02T08:58:23.588Z</time>
      </trkpt>
      <trkpt lat="44.13412" lon="3.22681">
        <ele>850.59</ele>
        <time>2026-04-02T08:58:28.611Z</time>
      </trkpt>
      <trkpt lat="44.13404" lon="3.22687">
        <ele>850.61</ele>
        <time>2026-04-02T08:58:34.410Z</time>
      </trkpt>
      <trkpt lat="44.13396" lon="3.22692">
        <ele>851.26</ele>
        <time>2026-04-02T08:58:39.618Z</time>
      </trkpt>
      <trkpt lat="44.13393" lon="3.22695">
        <ele>849.7</ele>
        <time>2026-04-02T08:58:44.631Z</time>
      </trkpt>
      <trkpt lat="44.13392" lon="3.22696">
        <ele>849.96</ele>
        <time>2026-04-02T08:59:23.680Z</time>
      </trkpt>
      <trkpt lat="44.1339" lon="3.22696">
        <ele>849.33</ele>
        <time>2026-04-02T08:59:28.695Z</time>
      </trkpt>
      <trkpt lat="44.13389" lon="3.22695">
        <ele>849.59</ele>
        <time>2026-04-02T08:59:33.710Z</time>
      </trkpt>
      <trkpt lat="44.13388" lon="3.22696">
        <ele>849.71</ele>
        <time>2026-04-02T08:59:40.209Z</time>
      </trkpt>
      <trkpt lat="44.13382" lon="3.22695">
        <ele>849.78</ele>
        <time>2026-04-02T08:59:45.310Z</time>
      </trkpt>
      <trkpt lat="44.13374" lon="3.22695">
        <ele>848.44</ele>
        <time>2026-04-02T08:59:50.525Z</time>
      </trkpt>
      <trkpt lat="44.13367" lon="3.22693">
        <ele>847.29</ele>
        <time>2026-04-02T08:59:55.705Z</time>
      </trkpt>
      <trkpt lat="44.13362" lon="3.22694">
        <ele>846.14</ele>
        <time>2026-04-02T09:00:01.681Z</time>
      </trkpt>
      <trkpt lat="44.13359" lon="3.2269">
        <ele>845.44</ele>
        <time>2026-04-02T09:00:07.186Z</time>
      </trkpt>
      <trkpt lat="44.13353" lon="3.22687">
        <ele>845.22</ele>
        <time>2026-04-02T09:00:12.262Z</time>
      </trkpt>
      <trkpt lat="44.13346" lon="3.22691">
        <ele>844.81</ele>
        <time>2026-04-02T09:00:17.303Z</time>
      </trkpt>
      <trkpt lat="44.13342" lon="3.22692">
        <ele>842.9</ele>
        <time>2026-04-02T09:00:22.716Z</time>
      </trkpt>
      <trkpt lat="44.13336" lon="3.22693">
        <ele>842.19</ele>
        <time>2026-04-02T09:00:28.071Z</time>
      </trkpt>
      <trkpt lat="44.1333" lon="3.22693">
        <ele>841.09</ele>
        <time>2026-04-02T09:00:33.548Z</time>
      </trkpt>
      <trkpt lat="44.13324" lon="3.22694">
        <ele>840.05</ele>
        <time>2026-04-02T09:00:38.719Z</time>
      </trkpt>
      <trkpt lat="44.13318" lon="3.22692">
        <ele>839.07</ele>
        <time>2026-04-02T09:00:44.484Z</time>
      </trkpt>
      <trkpt lat="44.13312" lon="3.22695">
        <ele>838.05</ele>
        <time>2026-04-02T09:00:49.707Z</time>
      </trkpt>
      <trkpt lat="44.13307" lon="3.22694">
        <ele>836.97</ele>
        <time>2026-04-02T09:00:55.088Z</time>
      </trkpt>
      <trkpt lat="44.13301" lon="3.22695">
        <ele>836.08</ele>
        <time>2026-04-02T09:01:00.184Z</time>
      </trkpt>
      <trkpt lat="44.13295" lon="3.22692">
        <ele>835.19</ele>
        <time>2026-04-02T09:01:05.708Z</time>
      </trkpt>
      <trkpt lat="44.13289" lon="3.22693">
        <ele>834.76</ele>
        <time>2026-04-02T09:01:10.709Z</time>
      </trkpt>
      <trkpt lat="44.13283" lon="3.22698">
        <ele>833.96</ele>
        <time>2026-04-02T09:01:16.303Z</time>
      </trkpt>
      <trkpt lat="44.13278" lon="3.22701">
        <ele>833.13</ele>
        <time>2026-04-02T09:01:21.711Z</time>
      </trkpt>
      <trkpt lat="44.13274" lon="3.22699">
        <ele>832.44</ele>
        <time>2026-04-02T09:01:27.190Z</time>
      </trkpt>
      <trkpt lat="44.1327" lon="3.22692">
        <ele>831.59</ele>
        <time>2026-04-02T09:01:32.699Z</time>
      </trkpt>
      <trkpt lat="44.13266" lon="3.22687">
        <ele>831.17</ele>
        <time>2026-04-02T09:01:37.741Z</time>
      </trkpt>
      <trkpt lat="44.13262" lon="3.22686">
        <ele>831.61</ele>
        <time>2026-04-02T09:01:43.255Z</time>
      </trkpt>
      <trkpt lat="44.13256" lon="3.22682">
        <ele>831.28</ele>
        <time>2026-04-02T09:01:48.710Z</time>
      </trkpt>
      <trkpt lat="44.13254" lon="3.22674">
        <ele>830.51</ele>
        <time>2026-04-02T09:01:54.640Z</time>
      </trkpt>
      <trkpt lat="44.13253" lon="3.22672">
        <ele>831.52</ele>
        <time>2026-04-02T09:01:59.698Z</time>
      </trkpt>
      <trkpt lat="44.13254" lon="3.22674">
        <ele>830.92</ele>
        <time>2026-04-02T09:02:05.672Z</time>
      </trkpt>
      <trkpt lat="44.13255" lon="3.22672">
        <ele>830.75</ele>
        <time>2026-04-02T09:02:10.685Z</time>
      </trkpt>
      <trkpt lat="44.13255" lon="3.22669">
        <ele>830.67</ele>
        <time>2026-04-02T09:02:16.155Z</time>
      </trkpt>
      <trkpt lat="44.13256" lon="3.22667">
        <ele>828.74</ele>
        <time>2026-04-02T09:02:21.535Z</time>
      </trkpt>
      <trkpt lat="44.13255" lon="3.22667">
        <ele>829.2</ele>
        <time>2026-04-02T09:02:26.688Z</time>
      </trkpt>
      <trkpt lat="44.13253" lon="3.22665">
        <ele>829</ele>
        <time>2026-04-02T09:02:32.666Z</time>
      </trkpt>
      <trkpt lat="44.13252" lon="3.22664">
        <ele>827.92</ele>
        <time>2026-04-02T09:02:37.679Z</time>
      </trkpt>
      <trkpt lat="44.13251" lon="3.22662">
        <ele>828.61</ele>
        <time>2026-04-02T09:02:48.520Z</time>
      </trkpt>
      <trkpt lat="44.13251" lon="3.2266">
        <ele>828.51</ele>
        <time>2026-04-02T09:02:53.682Z</time>
      </trkpt>
      <trkpt lat="44.13251" lon="3.22659">
        <ele>828.11</ele>
        <time>2026-04-02T09:03:00.395Z</time>
      </trkpt>
      <trkpt lat="44.1325" lon="3.22657">
        <ele>826.93</ele>
        <time>2026-04-02T09:03:05.596Z</time>
      </trkpt>
      <trkpt lat="44.13249" lon="3.2265">
        <ele>825.45</ele>
        <time>2026-04-02T09:03:10.650Z</time>
      </trkpt>
      <trkpt lat="44.13245" lon="3.22648">
        <ele>824.94</ele>
        <time>2026-04-02T09:03:16.097Z</time>
      </trkpt>
      <trkpt lat="44.13245" lon="3.22641">
        <ele>825.08</ele>
        <time>2026-04-02T09:03:21.439Z</time>
      </trkpt>
      <trkpt lat="44.13244" lon="3.22638">
        <ele>824.64</ele>
        <time>2026-04-02T09:03:26.653Z</time>
      </trkpt>
      <trkpt lat="44.13243" lon="3.22639">
        <ele>824.42</ele>
        <time>2026-04-02T09:04:02.647Z</time>
      </trkpt>
      <trkpt lat="44.13242" lon="3.22637">
        <ele>823.35</ele>
        <time>2026-04-02T09:04:13.161Z</time>
      </trkpt>
      <trkpt lat="44.13243" lon="3.22637">
        <ele>823.35</ele>
        <time>2026-04-02T09:04:38.710Z</time>
      </trkpt>
      <trkpt lat="44.13245" lon="3.2263">
        <ele>824.33</ele>
        <time>2026-04-02T09:04:44.685Z</time>
      </trkpt>
      <trkpt lat="44.13248" lon="3.22627">
        <ele>825.31</ele>
        <time>2026-04-02T09:04:49.699Z</time>
      </trkpt>
      <trkpt lat="44.13249" lon="3.22627">
        <ele>823.24</ele>
        <time>2026-04-02T09:05:00.586Z</time>
      </trkpt>
      <trkpt lat="44.13249" lon="3.22624">
        <ele>823.12</ele>
        <time>2026-04-02T09:05:29.664Z</time>
      </trkpt>
      <trkpt lat="44.13254" lon="3.22612">
        <ele>822.64</ele>
        <time>2026-04-02T09:05:35.540Z</time>
      </trkpt>
      <trkpt lat="44.13252" lon="3.22607">
        <ele>822.25</ele>
        <time>2026-04-02T09:05:41.124Z</time>
      </trkpt>
      <trkpt lat="44.13252" lon="3.22605">
        <ele>821.38</ele>
        <time>2026-04-02T09:05:46.676Z</time>
      </trkpt>
      <trkpt lat="44.13253" lon="3.22606">
        <ele>822.24</ele>
        <time>2026-04-02T09:05:51.691Z</time>
      </trkpt>
      <trkpt lat="44.13254" lon="3.22607">
        <ele>822.4</ele>
        <time>2026-04-02T09:05:58.028Z</time>
      </trkpt>
      <trkpt lat="44.13253" lon="3.22606">
        <ele>822.14</ele>
        <time>2026-04-02T09:06:05.668Z</time>
      </trkpt>
      <trkpt lat="44.13252" lon="3.22607">
        <ele>822.09</ele>
        <time>2026-04-02T09:06:11.643Z</time>
      </trkpt>
      <trkpt lat="44.13252" lon="3.22609">
        <ele>822.15</ele>
        <time>2026-04-02T09:07:39.573Z</time>
      </trkpt>
      <trkpt lat="44.13252" lon="3.22617">
        <ele>823.11</ele>
        <time>2026-04-02T09:07:45.028Z</time>
      </trkpt>
      <trkpt lat="44.13252" lon="3.22625">
        <ele>825.66</ele>
        <time>2026-04-02T09:07:50.496Z</time>
      </trkpt>
      <trkpt lat="44.13253" lon="3.22632">
        <ele>825.53</ele>
        <time>2026-04-02T09:07:55.699Z</time>
      </trkpt>
      <trkpt lat="44.13253" lon="3.22635">
        <ele>824.92</ele>
        <time>2026-04-02T09:08:00.716Z</time>
      </trkpt>
      <trkpt lat="44.1325" lon="3.22644">
        <ele>824.71</ele>
        <time>2026-04-02T09:08:05.728Z</time>
      </trkpt>
      <trkpt lat="44.1325" lon="3.22651">
        <ele>824.94</ele>
        <time>2026-04-02T09:08:11.605Z</time>
      </trkpt>
      <trkpt lat="44.1325" lon="3.22652">
        <ele>825.42</ele>
        <time>2026-04-02T09:08:16.629Z</time>
      </trkpt>
      <trkpt lat="44.13249" lon="3.22657">
        <ele>825.51</ele>
        <time>2026-04-02T09:08:22.603Z</time>
      </trkpt>
      <trkpt lat="44.1325" lon="3.22662">
        <ele>825.36</ele>
        <time>2026-04-02T09:08:27.725Z</time>
      </trkpt>
      <trkpt lat="44.1325" lon="3.22664">
        <ele>828.6</ele>
        <time>2026-04-02T09:08:35.620Z</time>
      </trkpt>
      <trkpt lat="44.13248" lon="3.22667">
        <ele>829.06</ele>
        <time>2026-04-02T09:08:41.154Z</time>
      </trkpt>
      <trkpt lat="44.13248" lon="3.22669">
        <ele>830.16</ele>
        <time>2026-04-02T09:08:46.610Z</time>
      </trkpt>
      <trkpt lat="44.13248" lon="3.22671">
        <ele>829.06</ele>
        <time>2026-04-02T09:09:03.690Z</time>
      </trkpt>
      <trkpt lat="44.13247" lon="3.22674">
        <ele>828.4</ele>
        <time>2026-04-02T09:09:09.088Z</time>
      </trkpt>
      <trkpt lat="44.13245" lon="3.22682">
        <ele>828.92</ele>
        <time>2026-04-02T09:09:14.370Z</time>
      </trkpt>
      <trkpt lat="44.13243" lon="3.22683">
        <ele>828.2</ele>
        <time>2026-04-02T09:09:19.591Z</time>
      </trkpt>
      <trkpt lat="44.13242" lon="3.22684">
        <ele>825.38</ele>
        <time>2026-04-02T09:09:31.628Z</time>
      </trkpt>
      <trkpt lat="44.13239" lon="3.22689">
        <ele>825.45</ele>
        <time>2026-04-02T09:09:36.659Z</time>
      </trkpt>
      <trkpt lat="44.13237" lon="3.22692">
        <ele>826.54</ele>
        <time>2026-04-02T09:09:42.740Z</time>
      </trkpt>
      <trkpt lat="44.13236" lon="3.22694">
        <ele>827.71</ele>
        <time>2026-04-02T09:09:48.725Z</time>
      </trkpt>
      <trkpt lat="44.13236" lon="3.22696">
        <ele>826.31</ele>
        <time>2026-04-02T09:09:53.740Z</time>
      </trkpt>
      <trkpt lat="44.13235" lon="3.22695">
        <ele>827.11</ele>
        <time>2026-04-02T09:10:05.690Z</time>
      </trkpt>
      <trkpt lat="44.13234" lon="3.2269">
        <ele>827.76</ele>
        <time>2026-04-02T09:10:10.705Z</time>
      </trkpt>
      <trkpt lat="44.13228" lon="3.22687">
        <ele>827.81</ele>
        <time>2026-04-02T09:10:15.719Z</time>
      </trkpt>
      <trkpt lat="44.13227" lon="3.22689">
        <ele>827.12</ele>
        <time>2026-04-02T09:10:20.734Z</time>
      </trkpt>
      <trkpt lat="44.13225" lon="3.22691">
        <ele>825.84</ele>
        <time>2026-04-02T09:10:25.749Z</time>
      </trkpt>
      <trkpt lat="44.13224" lon="3.22692">
        <ele>824.95</ele>
        <time>2026-04-02T09:10:30.762Z</time>
      </trkpt>
      <trkpt lat="44.13224" lon="3.22694">
        <ele>825.72</ele>
        <time>2026-04-02T09:10:37.698Z</time>
      </trkpt>
      <trkpt lat="44.13225" lon="3.22695">
        <ele>826.28</ele>
        <time>2026-04-02T09:10:42.712Z</time>
      </trkpt>
      <trkpt lat="44.13227" lon="3.22695">
        <ele>826.46</ele>
        <time>2026-04-02T09:10:48.687Z</time>
      </trkpt>
      <trkpt lat="44.13229" lon="3.22696">
        <ele>825.38</ele>
        <time>2026-04-02T09:10:53.730Z</time>
      </trkpt>
      <trkpt lat="44.13231" lon="3.22696">
        <ele>824.36</ele>
        <time>2026-04-02T09:10:59.680Z</time>
      </trkpt>
      <trkpt lat="44.13233" lon="3.22696">
        <ele>826.98</ele>
        <time>2026-04-02T09:11:04.695Z</time>
      </trkpt>
      <trkpt lat="44.13235" lon="3.22695">
        <ele>826.72</ele>
        <time>2026-04-02T09:11:10.670Z</time>
      </trkpt>
      <trkpt lat="44.13236" lon="3.22696">
        <ele>826.15</ele>
        <time>2026-04-02T09:11:15.684Z</time>
      </trkpt>
      <trkpt lat="44.13237" lon="3.22699">
        <ele>827.47</ele>
        <time>2026-04-02T09:11:20.699Z</time>
      </trkpt>
      <trkpt lat="44.13242" lon="3.22705">
        <ele>826.93</ele>
        <time>2026-04-02T09:11:26.157Z</time>
      </trkpt>
      <trkpt lat="44.13251" lon="3.22709">
        <ele>826.96</ele>
        <time>2026-04-02T09:11:31.692Z</time>
      </trkpt>
      <trkpt lat="44.13257" lon="3.22705">
        <ele>826.45</ele>
        <time>2026-04-02T09:11:37.173Z</time>
      </trkpt>
      <trkpt lat="44.13262" lon="3.22707">
        <ele>826.66</ele>
        <time>2026-04-02T09:11:42.287Z</time>
      </trkpt>
      <trkpt lat="44.13262" lon="3.22712">
        <ele>826.28</ele>
        <time>2026-04-02T09:11:47.586Z</time>
      </trkpt>
      <trkpt lat="44.13261" lon="3.2272">
        <ele>826.04</ele>
        <time>2026-04-02T09:11:52.946Z</time>
      </trkpt>
      <trkpt lat="44.13256" lon="3.22727">
        <ele>826.5</ele>
        <time>2026-04-02T09:11:58.344Z</time>
      </trkpt>
      <trkpt lat="44.13251" lon="3.22731">
        <ele>826.66</ele>
        <time>2026-04-02T09:12:03.736Z</time>
      </trkpt>
      <trkpt lat="44.13246" lon="3.22732">
        <ele>826.19</ele>
        <time>2026-04-02T09:12:09.101Z</time>
      </trkpt>
      <trkpt lat="44.13241" lon="3.22732">
        <ele>825.74</ele>
        <time>2026-04-02T09:12:14.365Z</time>
      </trkpt>
      <trkpt lat="44.1324" lon="3.22733">
        <ele>824.3</ele>
        <time>2026-04-02T09:12:19.740Z</time>
      </trkpt>
      <trkpt lat="44.1324" lon="3.22732">
        <ele>823.27</ele>
        <time>2026-04-02T09:12:25.104Z</time>
      </trkpt>
      <trkpt lat="44.1324" lon="3.2273">
        <ele>824.51</ele>
        <time>2026-04-02T09:12:32.449Z</time>
      </trkpt>
      <trkpt lat="44.13238" lon="3.22731">
        <ele>823.54</ele>
        <time>2026-04-02T09:12:37.643Z</time>
      </trkpt>
      <trkpt lat="44.13234" lon="3.22733">
        <ele>823.32</ele>
        <time>2026-04-02T09:12:42.696Z</time>
      </trkpt>
      <trkpt lat="44.13233" lon="3.22733">
        <ele>822.86</ele>
        <time>2026-04-02T09:12:51.658Z</time>
      </trkpt>
      <trkpt lat="44.13232" lon="3.22734">
        <ele>823.02</ele>
        <time>2026-04-02T09:13:11.720Z</time>
      </trkpt>
      <trkpt lat="44.13232" lon="3.22735">
        <ele>822.88</ele>
        <time>2026-04-02T09:13:32.633Z</time>
      </trkpt>
      <trkpt lat="44.13231" lon="3.22734">
        <ele>822.76</ele>
        <time>2026-04-02T09:13:50.665Z</time>
      </trkpt>
      <trkpt lat="44.13231" lon="3.22733">
        <ele>822.51</ele>
        <time>2026-04-02T09:13:57.731Z</time>
      </trkpt>
      <trkpt lat="44.13228" lon="3.22734">
        <ele>823.5</ele>
        <time>2026-04-02T09:14:03.682Z</time>
      </trkpt>
      <trkpt lat="44.13228" lon="3.22735">
        <ele>824.35</ele>
        <time>2026-04-02T09:14:13.605Z</time>
      </trkpt>
      <trkpt lat="44.13227" lon="3.22735">
        <ele>822.75</ele>
        <time>2026-04-02T09:15:17.621Z</time>
      </trkpt>
      <trkpt lat="44.13226" lon="3.22735">
        <ele>824.42</ele>
        <time>2026-04-02T09:15:37.682Z</time>
      </trkpt>
      <trkpt lat="44.13225" lon="3.22733">
        <ele>823.88</ele>
        <time>2026-04-02T09:15:43.194Z</time>
      </trkpt>
      <trkpt lat="44.13224" lon="3.2273">
        <ele>822.25</ele>
        <time>2026-04-02T09:15:48.678Z</time>
      </trkpt>
      <trkpt lat="44.13225" lon="3.22729">
        <ele>823.85</ele>
        <time>2026-04-02T09:15:55.827Z</time>
      </trkpt>
      <trkpt lat="44.13227" lon="3.22723">
        <ele>823.35</ele>
        <time>2026-04-02T09:16:01.698Z</time>
      </trkpt>
      <trkpt lat="44.13229" lon="3.22717">
        <ele>823.46</ele>
        <time>2026-04-02T09:16:07.674Z</time>
      </trkpt>
      <trkpt lat="44.13228" lon="3.22712">
        <ele>826.19</ele>
        <time>2026-04-02T09:16:12.699Z</time>
      </trkpt>
      <trkpt lat="44.13227" lon="3.22708">
        <ele>824.4</ele>
        <time>2026-04-02T09:16:18.693Z</time>
      </trkpt>
      <trkpt lat="44.13227" lon="3.22712">
        <ele>823.98</ele>
        <time>2026-04-02T09:16:23.764Z</time>
      </trkpt>
      <trkpt lat="44.13228" lon="3.22712">
        <ele>823.8</ele>
        <time>2026-04-02T09:16:29.684Z</time>
      </trkpt>
      <trkpt lat="44.1323" lon="3.22713">
        <ele>823.84</ele>
        <time>2026-04-02T09:16:42.703Z</time>
      </trkpt>
      <trkpt lat="44.13236" lon="3.22727">
        <ele>823.3</ele>
        <time>2026-04-02T09:16:48.680Z</time>
      </trkpt>
      <trkpt lat="44.13235" lon="3.2273">
        <ele>824.27</ele>
        <time>2026-04-02T09:16:53.695Z</time>
      </trkpt>
      <trkpt lat="44.13234" lon="3.22732">
        <ele>824.34</ele>
        <time>2026-04-02T09:16:58.711Z</time>
      </trkpt>
      <trkpt lat="44.13234" lon="3.22733">
        <ele>823.84</ele>
        <time>2026-04-02T09:17:03.726Z</time>
      </trkpt>
      <trkpt lat="44.13233" lon="3.22733">
        <ele>824.16</ele>
        <time>2026-04-02T09:17:10.661Z</time>
      </trkpt>
      <trkpt lat="44.13232" lon="3.22734">
        <ele>824.87</ele>
        <time>2026-04-02T09:17:29.656Z</time>
      </trkpt>
      <trkpt lat="44.13232" lon="3.22732">
        <ele>824.03</ele>
        <time>2026-04-02T09:17:52.601Z</time>
      </trkpt>
      <trkpt lat="44.13233" lon="3.22731">
        <ele>824.37</ele>
        <time>2026-04-02T09:17:57.720Z</time>
      </trkpt>
      <trkpt lat="44.13234" lon="3.22731">
        <ele>824.79</ele>
        <time>2026-04-02T09:18:07.540Z</time>
      </trkpt>
      <trkpt lat="44.13235" lon="3.22731">
        <ele>823.58</ele>
        <time>2026-04-02T09:18:21.729Z</time>
      </trkpt>
      <trkpt lat="44.13235" lon="3.2273">
        <ele>823.6</ele>
        <time>2026-04-02T09:18:29.184Z</time>
      </trkpt>
      <trkpt lat="44.13235" lon="3.22731">
        <ele>823.61</ele>
        <time>2026-04-02T09:18:59.716Z</time>
      </trkpt>
      <trkpt lat="44.13234" lon="3.22732">
        <ele>822.9</ele>
        <time>2026-04-02T09:19:14.759Z</time>
      </trkpt>
      <trkpt lat="44.13235" lon="3.22732">
        <ele>824.07</ele>
        <time>2026-04-02T09:20:09.614Z</time>
      </trkpt>
      <trkpt lat="44.13236" lon="3.22731">
        <ele>824</ele>
        <time>2026-04-02T09:20:17.618Z</time>
      </trkpt>
      <trkpt lat="44.13236" lon="3.22732">
        <ele>824.02</ele>
        <time>2026-04-02T09:21:30.790Z</time>
      </trkpt>
      <trkpt lat="44.13235" lon="3.22734">
        <ele>824.45</ele>
        <time>2026-04-02T09:21:36.792Z</time>
      </trkpt>
      <trkpt lat="44.13232" lon="3.22735">
        <ele>824.09</ele>
        <time>2026-04-02T09:21:42.747Z</time>
      </trkpt>
      <trkpt lat="44.13231" lon="3.22735">
        <ele>824.91</ele>
        <time>2026-04-02T09:21:48.769Z</time>
      </trkpt>
      <trkpt lat="44.13232" lon="3.22734">
        <ele>823.6</ele>
        <time>2026-04-02T09:21:59.804Z</time>
      </trkpt>
      <trkpt lat="44.13233" lon="3.22733">
        <ele>824.54</ele>
        <time>2026-04-02T09:22:06.781Z</time>
      </trkpt>
      <trkpt lat="44.13233" lon="3.22731">
        <ele>823.82</ele>
        <time>2026-04-02T09:22:11.795Z</time>
      </trkpt>
      <trkpt lat="44.13234" lon="3.22732">
        <ele>824.01</ele>
        <time>2026-04-02T09:22:18.808Z</time>
      </trkpt>
      <trkpt lat="44.13235" lon="3.22733">
        <ele>822.97</ele>
        <time>2026-04-02T09:22:24.766Z</time>
      </trkpt>
      <trkpt lat="44.13236" lon="3.22732">
        <ele>823.43</ele>
        <time>2026-04-02T09:22:34.783Z</time>
      </trkpt>
      <trkpt lat="44.13236" lon="3.22733">
        <ele>823.26</ele>
        <time>2026-04-02T09:22:47.756Z</time>
      </trkpt>
      <trkpt lat="44.13235" lon="3.22734">
        <ele>823.3</ele>
        <time>2026-04-02T09:22:52.787Z</time>
      </trkpt>
      <trkpt lat="44.13234" lon="3.22734">
        <ele>825</ele>
        <time>2026-04-02T09:22:58.789Z</time>
      </trkpt>
      <trkpt lat="44.13233" lon="3.22734">
        <ele>823.86</ele>
        <time>2026-04-02T09:23:05.761Z</time>
      </trkpt>
      <trkpt lat="44.13232" lon="3.22734">
        <ele>823.66</ele>
        <time>2026-04-02T09:23:20.783Z</time>
      </trkpt>
      <trkpt lat="44.13231" lon="3.22733">
        <ele>821.91</ele>
        <time>2026-04-02T09:23:26.774Z</time>
      </trkpt>
      <trkpt lat="44.13231" lon="3.22734">
        <ele>822.95</ele>
        <time>2026-04-02T09:23:47.791Z</time>
      </trkpt>
      <trkpt lat="44.13232" lon="3.22736">
        <ele>821.54</ele>
        <time>2026-04-02T09:23:53.770Z</time>
      </trkpt>
      <trkpt lat="44.13233" lon="3.22736">
        <ele>824.92</ele>
        <time>2026-04-02T09:24:00.801Z</time>
      </trkpt>
      <trkpt lat="44.13234" lon="3.22735">
        <ele>824.15</ele>
        <time>2026-04-02T09:24:07.795Z</time>
      </trkpt>
      <trkpt lat="44.13235" lon="3.22734">
        <ele>823.64</ele>
        <time>2026-04-02T09:24:13.217Z</time>
      </trkpt>
      <trkpt lat="44.13235" lon="3.22732">
        <ele>823.37</ele>
        <time>2026-04-02T09:24:20.770Z</time>
      </trkpt>
      <trkpt lat="44.13234" lon="3.22731">
        <ele>823.73</ele>
        <time>2026-04-02T09:24:26.801Z</time>
      </trkpt>
      <trkpt lat="44.13234" lon="3.2273">
        <ele>823.05</ele>
        <time>2026-04-02T09:24:32.525Z</time>
      </trkpt>
      <trkpt lat="44.13234" lon="3.2273">
        <ele>821.86</ele>
        <time>2026-04-02T09:24:42.787Z</time>
      </trkpt>
      <trkpt lat="44.13235" lon="3.22729">
        <ele>823.77</ele>
        <time>2026-04-02T09:24:48.618Z</time>
      </trkpt>
      <trkpt lat="44.13236" lon="3.22727">
        <ele>825.86</ele>
        <time>2026-04-02T09:24:56.757Z</time>
      </trkpt>
      <trkpt lat="44.13235" lon="3.22727">
        <ele>825.21</ele>
        <time>2026-04-02T09:25:04.755Z</time>
      </trkpt>
      <trkpt lat="44.13234" lon="3.22727">
        <ele>825.15</ele>
        <time>2026-04-02T09:25:10.780Z</time>
      </trkpt>
      <trkpt lat="44.13233" lon="3.22726">
        <ele>824.88</ele>
        <time>2026-04-02T09:25:16.344Z</time>
      </trkpt>
      <trkpt lat="44.13232" lon="3.22727">
        <ele>827.9</ele>
        <time>2026-04-02T09:25:23.449Z</time>
      </trkpt>
      <trkpt lat="44.13233" lon="3.2273">
        <ele>825.7</ele>
        <time>2026-04-02T09:25:28.723Z</time>
      </trkpt>
      <trkpt lat="44.13234" lon="3.22731">
        <ele>823.98</ele>
        <time>2026-04-02T09:25:33.724Z</time>
      </trkpt>
      <trkpt lat="44.13233" lon="3.22732">
        <ele>825.53</ele>
        <time>2026-04-02T09:25:45.755Z</time>
      </trkpt>
      <trkpt lat="44.13231" lon="3.22735">
        <ele>824.6</ele>
        <time>2026-04-02T09:25:51.771Z</time>
      </trkpt>
      <trkpt lat="44.13233" lon="3.22733">
        <ele>824.18</ele>
        <time>2026-04-02T09:25:57.768Z</time>
      </trkpt>
      <trkpt lat="44.13234" lon="3.22732">
        <ele>824.64</ele>
        <time>2026-04-02T09:26:09.744Z</time>
      </trkpt>
      <trkpt lat="44.13233" lon="3.22733">
        <ele>824.49</ele>
        <time>2026-04-02T09:26:16.768Z</time>
      </trkpt>
      <trkpt lat="44.13234" lon="3.22732">
        <ele>824.75</ele>
        <time>2026-04-02T09:26:23.723Z</time>
      </trkpt>
      <trkpt lat="44.13234" lon="3.22734">
        <ele>824.77</ele>
        <time>2026-04-02T09:26:36.833Z</time>
      </trkpt>
      <trkpt lat="44.13231" lon="3.22734">
        <ele>824.13</ele>
        <time>2026-04-02T09:26:42.723Z</time>
      </trkpt>
      <trkpt lat="44.13232" lon="3.22732">
        <ele>822.72</ele>
        <time>2026-04-02T09:26:47.775Z</time>
      </trkpt>
      <trkpt lat="44.13235" lon="3.22735">
        <ele>824.99</ele>
        <time>2026-04-02T09:26:53.770Z</time>
      </trkpt>
      <trkpt lat="44.13237" lon="3.22742">
        <ele>824.49</ele>
        <time>2026-04-02T09:26:59.765Z</time>
      </trkpt>
      <trkpt lat="44.13237" lon="3.22743">
        <ele>824.91</ele>
        <time>2026-04-02T09:27:04.780Z</time>
      </trkpt>
      <trkpt lat="44.13236" lon="3.22746">
        <ele>824.07</ele>
        <time>2026-04-02T09:27:10.741Z</time>
      </trkpt>
      <trkpt lat="44.13237" lon="3.22746">
        <ele>824.88</ele>
        <time>2026-04-02T09:27:15.761Z</time>
      </trkpt>
      <trkpt lat="44.13238" lon="3.22747">
        <ele>824.17</ele>
        <time>2026-04-02T09:27:31.777Z</time>
      </trkpt>
      <trkpt lat="44.13239" lon="3.22748">
        <ele>824.31</ele>
        <time>2026-04-02T09:27:37.715Z</time>
      </trkpt>
      <trkpt lat="44.13239" lon="3.22749">
        <ele>824.13</ele>
        <time>2026-04-02T09:27:42.744Z</time>
      </trkpt>
      <trkpt lat="44.13239" lon="3.2275">
        <ele>823.63</ele>
        <time>2026-04-02T09:27:51.737Z</time>
      </trkpt>
      <trkpt lat="44.13237" lon="3.22753">
        <ele>824.78</ele>
        <time>2026-04-02T09:27:57.233Z</time>
      </trkpt>
      <trkpt lat="44.13235" lon="3.22757">
        <ele>823.79</ele>
        <time>2026-04-02T09:28:02.740Z</time>
      </trkpt>
      <trkpt lat="44.13233" lon="3.22758">
        <ele>823.05</ele>
        <time>2026-04-02T09:28:07.749Z</time>
      </trkpt>
      <trkpt lat="44.13234" lon="3.22758">
        <ele>823.76</ele>
        <time>2026-04-02T09:28:28.748Z</time>
      </trkpt>
      <trkpt lat="44.13233" lon="3.22756">
        <ele>823.82</ele>
        <time>2026-04-02T09:28:43.748Z</time>
      </trkpt>
      <trkpt lat="44.13232" lon="3.22756">
        <ele>823.22</ele>
        <time>2026-04-02T09:28:51.738Z</time>
      </trkpt>
      <trkpt lat="44.13233" lon="3.22757">
        <ele>822.55</ele>
        <time>2026-04-02T09:29:06.756Z</time>
      </trkpt>
      <trkpt lat="44.13236" lon="3.22759">
        <ele>822.34</ele>
        <time>2026-04-02T09:29:12.739Z</time>
      </trkpt>
      <trkpt lat="44.13235" lon="3.2276">
        <ele>824.73</ele>
        <time>2026-04-02T09:29:25.694Z</time>
      </trkpt>
      <trkpt lat="44.13235" lon="3.22751">
        <ele>823.01</ele>
        <time>2026-04-02T09:29:31.687Z</time>
      </trkpt>
      <trkpt lat="44.13236" lon="3.22742">
        <ele>823.8</ele>
        <time>2026-04-02T09:29:36.739Z</time>
      </trkpt>
      <trkpt lat="44.13243" lon="3.22739">
        <ele>825.51</ele>
        <time>2026-04-02T09:29:41.970Z</time>
      </trkpt>
      <trkpt lat="44.13247" lon="3.22748">
        <ele>827.54</ele>
        <time>2026-04-02T09:29:47.053Z</time>
      </trkpt>
      <trkpt lat="44.13252" lon="3.22759">
        <ele>829.27</ele>
        <time>2026-04-02T09:29:52.819Z</time>
      </trkpt>
      <trkpt lat="44.13256" lon="3.22769">
        <ele>829.09</ele>
        <time>2026-04-02T09:29:58.269Z</time>
      </trkpt>
      <trkpt lat="44.13255" lon="3.22779">
        <ele>826.98</ele>
        <time>2026-04-02T09:30:03.475Z</time>
      </trkpt>
      <trkpt lat="44.13253" lon="3.22787">
        <ele>826.31</ele>
        <time>2026-04-02T09:30:08.490Z</time>
      </trkpt>
      <trkpt lat="44.13252" lon="3.22795">
        <ele>826.26</ele>
        <time>2026-04-02T09:30:13.761Z</time>
      </trkpt>
      <trkpt lat="44.13256" lon="3.22803">
        <ele>826.74</ele>
        <time>2026-04-02T09:30:19.001Z</time>
      </trkpt>
      <trkpt lat="44.13256" lon="3.22813">
        <ele>827.14</ele>
        <time>2026-04-02T09:30:24.097Z</time>
      </trkpt>
      <trkpt lat="44.13261" lon="3.22809">
        <ele>828.72</ele>
        <time>2026-04-02T09:30:29.335Z</time>
      </trkpt>
      <trkpt lat="44.13258" lon="3.22808">
        <ele>829.31</ele>
        <time>2026-04-02T09:30:34.741Z</time>
      </trkpt>
      <trkpt lat="44.13258" lon="3.2281">
        <ele>829.31</ele>
        <time>2026-04-02T09:30:39.765Z</time>
      </trkpt>
      <trkpt lat="44.13258" lon="3.22811">
        <ele>827.97</ele>
        <time>2026-04-02T09:30:45.738Z</time>
      </trkpt>
      <trkpt lat="44.13258" lon="3.22813">
        <ele>828.85</ele>
        <time>2026-04-02T09:30:51.757Z</time>
      </trkpt>
      <trkpt lat="44.13258" lon="3.22812">
        <ele>828.73</ele>
        <time>2026-04-02T09:30:56.760Z</time>
      </trkpt>
      <trkpt lat="44.13265" lon="3.22813">
        <ele>828.96</ele>
        <time>2026-04-02T09:31:01.772Z</time>
      </trkpt>
      <trkpt lat="44.13263" lon="3.22815">
        <ele>830.54</ele>
        <time>2026-04-02T09:31:07.080Z</time>
      </trkpt>
      <trkpt lat="44.13264" lon="3.22815">
        <ele>832.59</ele>
        <time>2026-04-02T09:31:12.644Z</time>
      </trkpt>
      <trkpt lat="44.13263" lon="3.22814">
        <ele>833.04</ele>
        <time>2026-04-02T09:31:37.761Z</time>
      </trkpt>
      <trkpt lat="44.13265" lon="3.22813">
        <ele>833.68</ele>
        <time>2026-04-02T09:31:49.745Z</time>
      </trkpt>
      <trkpt lat="44.13272" lon="3.22813">
        <ele>834.99</ele>
        <time>2026-04-02T09:31:55.440Z</time>
      </trkpt>
      <trkpt lat="44.13278" lon="3.22813">
        <ele>835.86</ele>
        <time>2026-04-02T09:32:00.632Z</time>
      </trkpt>
      <trkpt lat="44.1328" lon="3.2282">
        <ele>838.08</ele>
        <time>2026-04-02T09:32:05.742Z</time>
      </trkpt>
      <trkpt lat="44.13279" lon="3.22825">
        <ele>838.86</ele>
        <time>2026-04-02T09:32:10.755Z</time>
      </trkpt>
      <trkpt lat="44.13272" lon="3.22826">
        <ele>839.83</ele>
        <time>2026-04-02T09:32:16.418Z</time>
      </trkpt>
      <trkpt lat="44.13271" lon="3.22822">
        <ele>840.87</ele>
        <time>2026-04-02T09:32:21.736Z</time>
      </trkpt>
      <trkpt lat="44.13272" lon="3.22822">
        <ele>841.94</ele>
        <time>2026-04-02T09:32:35.634Z</time>
      </trkpt>
      <trkpt lat="44.13273" lon="3.22822">
        <ele>840.5</ele>
        <time>2026-04-02T09:32:41.746Z</time>
      </trkpt>
      <trkpt lat="44.13273" lon="3.22823">
        <ele>840.14</ele>
        <time>2026-04-02T09:32:48.736Z</time>
      </trkpt>
      <trkpt lat="44.13279" lon="3.22831">
        <ele>840.93</ele>
        <time>2026-04-02T09:32:54.615Z</time>
      </trkpt>
      <trkpt lat="44.13285" lon="3.22842">
        <ele>843.1</ele>
        <time>2026-04-02T09:33:00.134Z</time>
      </trkpt>
      <trkpt lat="44.13285" lon="3.22861">
        <ele>843.75</ele>
        <time>2026-04-02T09:33:05.196Z</time>
      </trkpt>
      <trkpt lat="44.13284" lon="3.22882">
        <ele>842.17</ele>
        <time>2026-04-02T09:33:10.768Z</time>
      </trkpt>
      <trkpt lat="44.13289" lon="3.22898">
        <ele>841.86</ele>
        <time>2026-04-02T09:33:16.711Z</time>
      </trkpt>
      <trkpt lat="44.13297" lon="3.22907">
        <ele>841.18</ele>
        <time>2026-04-02T09:33:22.170Z</time>
      </trkpt>
      <trkpt lat="44.13297" lon="3.22917">
        <ele>840.25</ele>
        <time>2026-04-02T09:33:27.236Z</time>
      </trkpt>
      <trkpt lat="44.13295" lon="3.22928">
        <ele>840.13</ele>
        <time>2026-04-02T09:33:32.451Z</time>
      </trkpt>
      <trkpt lat="44.13289" lon="3.22936">
        <ele>840.85</ele>
        <time>2026-04-02T09:33:37.788Z</time>
      </trkpt>
      <trkpt lat="44.13286" lon="3.22942">
        <ele>841.87</ele>
        <time>2026-04-02T09:33:42.793Z</time>
      </trkpt>
      <trkpt lat="44.13283" lon="3.22945">
        <ele>842.31</ele>
        <time>2026-04-02T09:33:48.180Z</time>
      </trkpt>
      <trkpt lat="44.13281" lon="3.22949">
        <ele>841.61</ele>
        <time>2026-04-02T09:33:53.541Z</time>
      </trkpt>
      <trkpt lat="44.1328" lon="3.22951">
        <ele>841.09</ele>
        <time>2026-04-02T09:33:58.745Z</time>
      </trkpt>
      <trkpt lat="44.13279" lon="3.22952">
        <ele>841.09</ele>
        <time>2026-04-02T09:34:21.733Z</time>
      </trkpt>
      <trkpt lat="44.13276" lon="3.22958">
        <ele>840.5</ele>
        <time>2026-04-02T09:34:27.240Z</time>
      </trkpt>
      <trkpt lat="44.13272" lon="3.22961">
        <ele>841.15</ele>
        <time>2026-04-02T09:34:32.755Z</time>
      </trkpt>
      <trkpt lat="44.13274" lon="3.22962">
        <ele>840.56</ele>
        <time>2026-04-02T09:34:38.356Z</time>
      </trkpt>
      <trkpt lat="44.13272" lon="3.22966">
        <ele>839.78</ele>
        <time>2026-04-02T09:34:43.744Z</time>
      </trkpt>
      <trkpt lat="44.13267" lon="3.22974">
        <ele>840.19</ele>
        <time>2026-04-02T09:34:49.107Z</time>
      </trkpt>
      <trkpt lat="44.1326" lon="3.2298">
        <ele>839.37</ele>
        <time>2026-04-02T09:34:54.111Z</time>
      </trkpt>
      <trkpt lat="44.13253" lon="3.22985">
        <ele>839.12</ele>
        <time>2026-04-02T09:34:59.575Z</time>
      </trkpt>
      <trkpt lat="44.13248" lon="3.22992">
        <ele>838.1</ele>
        <time>2026-04-02T09:35:04.592Z</time>
      </trkpt>
      <trkpt lat="44.13243" lon="3.22998">
        <ele>837.78</ele>
        <time>2026-04-02T09:35:10.428Z</time>
      </trkpt>
      <trkpt lat="44.13238" lon="3.23003">
        <ele>837.65</ele>
        <time>2026-04-02T09:35:15.488Z</time>
      </trkpt>
      <trkpt lat="44.13231" lon="3.23008">
        <ele>838.43</ele>
        <time>2026-04-02T09:35:20.834Z</time>
      </trkpt>
      <trkpt lat="44.13226" lon="3.23016">
        <ele>837.35</ele>
        <time>2026-04-02T09:35:26.071Z</time>
      </trkpt>
      <trkpt lat="44.1322" lon="3.23021">
        <ele>836.47</ele>
        <time>2026-04-02T09:35:31.549Z</time>
      </trkpt>
      <trkpt lat="44.13215" lon="3.23027">
        <ele>835.93</ele>
        <time>2026-04-02T09:35:36.767Z</time>
      </trkpt>
      <trkpt lat="44.13213" lon="3.23035">
        <ele>834.85</ele>
        <time>2026-04-02T09:35:42.256Z</time>
      </trkpt>
      <trkpt lat="44.13209" lon="3.2304">
        <ele>833.66</ele>
        <time>2026-04-02T09:35:47.670Z</time>
      </trkpt>
      <trkpt lat="44.13205" lon="3.23049">
        <ele>832.22</ele>
        <time>2026-04-02T09:35:53.449Z</time>
      </trkpt>
      <trkpt lat="44.13206" lon="3.23052">
        <ele>832.59</ele>
        <time>2026-04-02T09:35:59.468Z</time>
      </trkpt>
      <trkpt lat="44.13209" lon="3.23058">
        <ele>833.01</ele>
        <time>2026-04-02T09:36:04.852Z</time>
      </trkpt>
      <trkpt lat="44.13208" lon="3.23068">
        <ele>832.33</ele>
        <time>2026-04-02T09:36:10.253Z</time>
      </trkpt>
      <trkpt lat="44.1321" lon="3.23079">
        <ele>831.38</ele>
        <time>2026-04-02T09:36:15.375Z</time>
      </trkpt>
      <trkpt lat="44.13214" lon="3.23084">
        <ele>831.12</ele>
        <time>2026-04-02T09:36:20.791Z</time>
      </trkpt>
      <trkpt lat="44.13219" lon="3.23091">
        <ele>831.43</ele>
        <time>2026-04-02T09:36:26.274Z</time>
      </trkpt>
      <trkpt lat="44.1322" lon="3.23097">
        <ele>832.82</ele>
        <time>2026-04-02T09:36:31.370Z</time>
      </trkpt>
      <trkpt lat="44.13215" lon="3.23103">
        <ele>834.06</ele>
        <time>2026-04-02T09:36:36.729Z</time>
      </trkpt>
      <trkpt lat="44.13213" lon="3.23112">
        <ele>833.98</ele>
        <time>2026-04-02T09:36:42.552Z</time>
      </trkpt>
      <trkpt lat="44.13209" lon="3.23121">
        <ele>833.49</ele>
        <time>2026-04-02T09:36:47.742Z</time>
      </trkpt>
      <trkpt lat="44.13204" lon="3.23127">
        <ele>832.76</ele>
        <time>2026-04-02T09:36:53.098Z</time>
      </trkpt>
      <trkpt lat="44.13203" lon="3.23133">
        <ele>832.37</ele>
        <time>2026-04-02T09:36:58.319Z</time>
      </trkpt>
      <trkpt lat="44.13203" lon="3.23141">
        <ele>832.27</ele>
        <time>2026-04-02T09:37:03.741Z</time>
      </trkpt>
      <trkpt lat="44.13202" lon="3.23149">
        <ele>832.82</ele>
        <time>2026-04-02T09:37:08.924Z</time>
      </trkpt>
      <trkpt lat="44.13201" lon="3.23154">
        <ele>832.69</ele>
        <time>2026-04-02T09:37:14.400Z</time>
      </trkpt>
      <trkpt lat="44.13199" lon="3.23157">
        <ele>831.79</ele>
        <time>2026-04-02T09:37:19.758Z</time>
      </trkpt>
      <trkpt lat="44.13196" lon="3.23159">
        <ele>831.51</ele>
        <time>2026-04-02T09:37:24.774Z</time>
      </trkpt>
      <trkpt lat="44.13197" lon="3.2316">
        <ele>830.84</ele>
        <time>2026-04-02T09:37:30.642Z</time>
      </trkpt>
      <trkpt lat="44.13198" lon="3.23159">
        <ele>831.68</ele>
        <time>2026-04-02T09:37:35.656Z</time>
      </trkpt>
      <trkpt lat="44.13197" lon="3.2316">
        <ele>831.34</ele>
        <time>2026-04-02T09:37:54.684Z</time>
      </trkpt>
      <trkpt lat="44.13192" lon="3.2317">
        <ele>830.78</ele>
        <time>2026-04-02T09:38:00.176Z</time>
      </trkpt>
      <trkpt lat="44.13188" lon="3.23171">
        <ele>831.2</ele>
        <time>2026-04-02T09:38:05.683Z</time>
      </trkpt>
      <trkpt lat="44.13187" lon="3.2317">
        <ele>831.4</ele>
        <time>2026-04-02T09:38:14.752Z</time>
      </trkpt>
      <trkpt lat="44.13187" lon="3.23171">
        <ele>830.87</ele>
        <time>2026-04-02T09:38:47.725Z</time>
      </trkpt>
      <trkpt lat="44.13185" lon="3.2318">
        <ele>831.46</ele>
        <time>2026-04-02T09:38:53.242Z</time>
      </trkpt>
      <trkpt lat="44.13182" lon="3.23184">
        <ele>831.14</ele>
        <time>2026-04-02T09:38:58.742Z</time>
      </trkpt>
      <trkpt lat="44.13182" lon="3.23183">
        <ele>830.46</ele>
        <time>2026-04-02T09:39:31.741Z</time>
      </trkpt>
      <trkpt lat="44.13183" lon="3.23183">
        <ele>829.15</ele>
        <time>2026-04-02T09:39:40.704Z</time>
      </trkpt>
      <trkpt lat="44.13182" lon="3.23184">
        <ele>828.73</ele>
        <time>2026-04-02T09:39:47.502Z</time>
      </trkpt>
      <trkpt lat="44.1318" lon="3.23191">
        <ele>827.74</ele>
        <time>2026-04-02T09:39:52.761Z</time>
      </trkpt>
      <trkpt lat="44.13181" lon="3.23193">
        <ele>827.35</ele>
        <time>2026-04-02T09:39:57.776Z</time>
      </trkpt>
      <trkpt lat="44.13182" lon="3.23191">
        <ele>826.39</ele>
        <time>2026-04-02T09:40:05.671Z</time>
      </trkpt>
      <trkpt lat="44.13183" lon="3.23191">
        <ele>827.1</ele>
        <time>2026-04-02T09:40:10.794Z</time>
      </trkpt>
      <trkpt lat="44.13184" lon="3.23195">
        <ele>827.62</ele>
        <time>2026-04-02T09:40:16.769Z</time>
      </trkpt>
      <trkpt lat="44.13185" lon="3.23198">
        <ele>827.49</ele>
        <time>2026-04-02T09:40:22.743Z</time>
      </trkpt>
      <trkpt lat="44.13185" lon="3.23196">
        <ele>827.28</ele>
        <time>2026-04-02T09:40:27.757Z</time>
      </trkpt>
      <trkpt lat="44.13185" lon="3.23195">
        <ele>827.52</ele>
        <time>2026-04-02T09:40:38.748Z</time>
      </trkpt>
      <trkpt lat="44.13185" lon="3.23194">
        <ele>827.12</ele>
        <time>2026-04-02T09:40:45.981Z</time>
      </trkpt>
      <trkpt lat="44.13183" lon="3.23192">
        <ele>826.22</ele>
        <time>2026-04-02T09:40:51.765Z</time>
      </trkpt>
      <trkpt lat="44.13179" lon="3.23191">
        <ele>827.32</ele>
        <time>2026-04-02T09:40:56.943Z</time>
      </trkpt>
      <trkpt lat="44.1317" lon="3.23194">
        <ele>827.61</ele>
        <time>2026-04-02T09:41:02.465Z</time>
      </trkpt>
      <trkpt lat="44.13162" lon="3.23198">
        <ele>826.05</ele>
        <time>2026-04-02T09:41:07.968Z</time>
      </trkpt>
      <trkpt lat="44.13156" lon="3.23202">
        <ele>825.31</ele>
        <time>2026-04-02T09:41:13.401Z</time>
      </trkpt>
      <trkpt lat="44.13152" lon="3.23211">
        <ele>824.23</ele>
        <time>2026-04-02T09:41:18.758Z</time>
      </trkpt>
      <trkpt lat="44.13148" lon="3.2322">
        <ele>823.57</ele>
        <time>2026-04-02T09:41:23.784Z</time>
      </trkpt>
      <trkpt lat="44.13146" lon="3.23229">
        <ele>822.85</ele>
        <time>2026-04-02T09:41:29.163Z</time>
      </trkpt>
      <trkpt lat="44.13144" lon="3.23242">
        <ele>821.82</ele>
        <time>2026-04-02T09:41:34.561Z</time>
      </trkpt>
      <trkpt lat="44.13141" lon="3.23254">
        <ele>821.46</ele>
        <time>2026-04-02T09:41:39.613Z</time>
      </trkpt>
      <trkpt lat="44.13137" lon="3.23263">
        <ele>820.5</ele>
        <time>2026-04-02T09:41:44.702Z</time>
      </trkpt>
      <trkpt lat="44.13135" lon="3.2327">
        <ele>819.32</ele>
        <time>2026-04-02T09:41:49.746Z</time>
      </trkpt>
      <trkpt lat="44.13135" lon="3.23278">
        <ele>818.3</ele>
        <time>2026-04-02T09:41:55.433Z</time>
      </trkpt>
      <trkpt lat="44.13129" lon="3.23282">
        <ele>817.12</ele>
        <time>2026-04-02T09:42:00.461Z</time>
      </trkpt>
      <trkpt lat="44.13123" lon="3.2329">
        <ele>816.4</ele>
        <time>2026-04-02T09:42:05.531Z</time>
      </trkpt>
      <trkpt lat="44.13118" lon="3.23298">
        <ele>815</ele>
        <time>2026-04-02T09:42:10.736Z</time>
      </trkpt>
      <trkpt lat="44.13115" lon="3.23303">
        <ele>814.37</ele>
        <time>2026-04-02T09:42:15.750Z</time>
      </trkpt>
      <trkpt lat="44.13111" lon="3.2331">
        <ele>814.6</ele>
        <time>2026-04-02T09:42:20.765Z</time>
      </trkpt>
      <trkpt lat="44.13107" lon="3.23319">
        <ele>814.77</ele>
        <time>2026-04-02T09:42:25.780Z</time>
      </trkpt>
      <trkpt lat="44.13103" lon="3.2333">
        <ele>815.03</ele>
        <time>2026-04-02T09:42:30.909Z</time>
      </trkpt>
      <trkpt lat="44.13098" lon="3.23338">
        <ele>814.73</ele>
        <time>2026-04-02T09:42:35.972Z</time>
      </trkpt>
      <trkpt lat="44.13095" lon="3.23348">
        <ele>814.45</ele>
        <time>2026-04-02T09:42:41.432Z</time>
      </trkpt>
      <trkpt lat="44.13093" lon="3.23356">
        <ele>814.26</ele>
        <time>2026-04-02T09:42:46.773Z</time>
      </trkpt>
      <trkpt lat="44.1309" lon="3.23358">
        <ele>814.08</ele>
        <time>2026-04-02T09:42:52.073Z</time>
      </trkpt>
      <trkpt lat="44.13088" lon="3.23364">
        <ele>814.38</ele>
        <time>2026-04-02T09:42:57.471Z</time>
      </trkpt>
      <trkpt lat="44.13086" lon="3.23373">
        <ele>814.86</ele>
        <time>2026-04-02T09:43:02.695Z</time>
      </trkpt>
      <trkpt lat="44.13082" lon="3.2338">
        <ele>814.03</ele>
        <time>2026-04-02T09:43:07.794Z</time>
      </trkpt>
      <trkpt lat="44.13077" lon="3.23385">
        <ele>813.94</ele>
        <time>2026-04-02T09:43:13.478Z</time>
      </trkpt>
      <trkpt lat="44.13071" lon="3.23389">
        <ele>813.97</ele>
        <time>2026-04-02T09:43:18.952Z</time>
      </trkpt>
      <trkpt lat="44.13065" lon="3.23391">
        <ele>813.79</ele>
        <time>2026-04-02T09:43:24.054Z</time>
      </trkpt>
      <trkpt lat="44.13058" lon="3.23393">
        <ele>813.94</ele>
        <time>2026-04-02T09:43:29.355Z</time>
      </trkpt>
      <trkpt lat="44.13052" lon="3.23391">
        <ele>813.45</ele>
        <time>2026-04-02T09:43:34.777Z</time>
      </trkpt>
      <trkpt lat="44.13046" lon="3.23393">
        <ele>813.17</ele>
        <time>2026-04-02T09:43:39.873Z</time>
      </trkpt>
      <trkpt lat="44.13041" lon="3.23395">
        <ele>813.04</ele>
        <time>2026-04-02T09:43:45.519Z</time>
      </trkpt>
      <trkpt lat="44.13035" lon="3.23394">
        <ele>813.4</ele>
        <time>2026-04-02T09:43:50.717Z</time>
      </trkpt>
      <trkpt lat="44.1303" lon="3.23393">
        <ele>813.78</ele>
        <time>2026-04-02T09:43:55.731Z</time>
      </trkpt>
      <trkpt lat="44.13025" lon="3.23396">
        <ele>812.82</ele>
        <time>2026-04-02T09:44:00.746Z</time>
      </trkpt>
      <trkpt lat="44.13019" lon="3.234">
        <ele>811.97</ele>
        <time>2026-04-02T09:44:06.715Z</time>
      </trkpt>
      <trkpt lat="44.13012" lon="3.23403">
        <ele>811.83</ele>
        <time>2026-04-02T09:44:11.998Z</time>
      </trkpt>
      <trkpt lat="44.13006" lon="3.23405">
        <ele>812.15</ele>
        <time>2026-04-02T09:44:17.424Z</time>
      </trkpt>
      <trkpt lat="44.13001" lon="3.23409">
        <ele>812.34</ele>
        <time>2026-04-02T09:44:22.537Z</time>
      </trkpt>
      <trkpt lat="44.12995" lon="3.2341">
        <ele>811.89</ele>
        <time>2026-04-02T09:44:27.739Z</time>
      </trkpt>
      <trkpt lat="44.12991" lon="3.23415">
        <ele>811.31</ele>
        <time>2026-04-02T09:44:33.420Z</time>
      </trkpt>
      <trkpt lat="44.12986" lon="3.23422">
        <ele>811.17</ele>
        <time>2026-04-02T09:44:39.081Z</time>
      </trkpt>
      <trkpt lat="44.12982" lon="3.23429">
        <ele>810.98</ele>
        <time>2026-04-02T09:44:44.621Z</time>
      </trkpt>
      <trkpt lat="44.12977" lon="3.23437">
        <ele>810.65</ele>
        <time>2026-04-02T09:44:50.223Z</time>
      </trkpt>
      <trkpt lat="44.12973" lon="3.23444">
        <ele>810.45</ele>
        <time>2026-04-02T09:44:55.681Z</time>
      </trkpt>
      <trkpt lat="44.12968" lon="3.2345">
        <ele>809.96</ele>
        <time>2026-04-02T09:45:01.175Z</time>
      </trkpt>
      <trkpt lat="44.12962" lon="3.23455">
        <ele>809.48</ele>
        <time>2026-04-02T09:45:06.619Z</time>
      </trkpt>
      <trkpt lat="44.12956" lon="3.23463">
        <ele>809.13</ele>
        <time>2026-04-02T09:45:11.804Z</time>
      </trkpt>
      <trkpt lat="44.1295" lon="3.23468">
        <ele>808.51</ele>
        <time>2026-04-02T09:45:17.357Z</time>
      </trkpt>
      <trkpt lat="44.12945" lon="3.23474">
        <ele>808.28</ele>
        <time>2026-04-02T09:45:22.687Z</time>
      </trkpt>
      <trkpt lat="44.12941" lon="3.23481">
        <ele>807.71</ele>
        <time>2026-04-02T09:45:27.702Z</time>
      </trkpt>
      <trkpt lat="44.12935" lon="3.23486">
        <ele>806.71</ele>
        <time>2026-04-02T09:45:32.716Z</time>
      </trkpt>
      <trkpt lat="44.12929" lon="3.2349">
        <ele>806.04</ele>
        <time>2026-04-02T09:45:38.519Z</time>
      </trkpt>
      <trkpt lat="44.12924" lon="3.23497">
        <ele>805.67</ele>
        <time>2026-04-02T09:45:43.707Z</time>
      </trkpt>
      <trkpt lat="44.12919" lon="3.235">
        <ele>805.44</ele>
        <time>2026-04-02T09:45:49.516Z</time>
      </trkpt>
      <trkpt lat="44.12915" lon="3.23508">
        <ele>804.98</ele>
        <time>2026-04-02T09:45:55.136Z</time>
      </trkpt>
      <trkpt lat="44.12908" lon="3.23509">
        <ele>804.67</ele>
        <time>2026-04-02T09:46:00.657Z</time>
      </trkpt>
      <trkpt lat="44.12899" lon="3.23511">
        <ele>803.84</ele>
        <time>2026-04-02T09:46:06.117Z</time>
      </trkpt>
      <trkpt lat="44.12899" lon="3.23507">
        <ele>803.69</ele>
        <time>2026-04-02T09:46:11.661Z</time>
      </trkpt>
      <trkpt lat="44.129" lon="3.23509">
        <ele>805.02</ele>
        <time>2026-04-02T09:46:16.675Z</time>
      </trkpt>
      <trkpt lat="44.12901" lon="3.23509">
        <ele>803.87</ele>
        <time>2026-04-02T09:46:23.726Z</time>
      </trkpt>
      <trkpt lat="44.129" lon="3.2351">
        <ele>803.91</ele>
        <time>2026-04-02T09:46:28.741Z</time>
      </trkpt>
      <trkpt lat="44.12889" lon="3.23516">
        <ele>803.77</ele>
        <time>2026-04-02T09:46:34.220Z</time>
      </trkpt>
      <trkpt lat="44.12881" lon="3.23523">
        <ele>802.73</ele>
        <time>2026-04-02T09:46:39.222Z</time>
      </trkpt>
      <trkpt lat="44.12873" lon="3.23523">
        <ele>802.6</ele>
        <time>2026-04-02T09:46:44.752Z</time>
      </trkpt>
      <trkpt lat="44.12866" lon="3.23522">
        <ele>801.87</ele>
        <time>2026-04-02T09:46:50.635Z</time>
      </trkpt>
      <trkpt lat="44.12861" lon="3.23522">
        <ele>801.61</ele>
        <time>2026-04-02T09:46:55.755Z</time>
      </trkpt>
      <trkpt lat="44.12857" lon="3.23524">
        <ele>803.14</ele>
        <time>2026-04-02T09:47:01.731Z</time>
      </trkpt>
      <trkpt lat="44.12854" lon="3.23527">
        <ele>802.49</ele>
        <time>2026-04-02T09:47:06.745Z</time>
      </trkpt>
      <trkpt lat="44.12848" lon="3.23535">
        <ele>800.57</ele>
        <time>2026-04-02T09:47:11.943Z</time>
      </trkpt>
      <trkpt lat="44.12842" lon="3.23541">
        <ele>800.16</ele>
        <time>2026-04-02T09:47:17.108Z</time>
      </trkpt>
      <trkpt lat="44.12836" lon="3.23544">
        <ele>799.97</ele>
        <time>2026-04-02T09:47:22.506Z</time>
      </trkpt>
      <trkpt lat="44.12833" lon="3.23553">
        <ele>798.54</ele>
        <time>2026-04-02T09:47:27.797Z</time>
      </trkpt>
      <trkpt lat="44.12827" lon="3.23558">
        <ele>797.04</ele>
        <time>2026-04-02T09:47:32.847Z</time>
      </trkpt>
      <trkpt lat="44.12824" lon="3.23566">
        <ele>796.73</ele>
        <time>2026-04-02T09:47:38.228Z</time>
      </trkpt>
      <trkpt lat="44.12819" lon="3.23571">
        <ele>796.73</ele>
        <time>2026-04-02T09:47:43.590Z</time>
      </trkpt>
      <trkpt lat="44.12812" lon="3.23578">
        <ele>796.07</ele>
        <time>2026-04-02T09:47:48.950Z</time>
      </trkpt>
      <trkpt lat="44.12806" lon="3.23582">
        <ele>794.85</ele>
        <time>2026-04-02T09:47:54.332Z</time>
      </trkpt>
      <trkpt lat="44.12799" lon="3.23585">
        <ele>793.45</ele>
        <time>2026-04-02T09:47:59.630Z</time>
      </trkpt>
      <trkpt lat="44.12793" lon="3.2359">
        <ele>792.6</ele>
        <time>2026-04-02T09:48:04.951Z</time>
      </trkpt>
      <trkpt lat="44.12787" lon="3.23592">
        <ele>791.55</ele>
        <time>2026-04-02T09:48:10.052Z</time>
      </trkpt>
      <trkpt lat="44.12783" lon="3.23593">
        <ele>790.6</ele>
        <time>2026-04-02T09:48:15.677Z</time>
      </trkpt>
      <trkpt lat="44.12779" lon="3.23594">
        <ele>789.26</ele>
        <time>2026-04-02T09:48:20.928Z</time>
      </trkpt>
      <trkpt lat="44.12775" lon="3.23594">
        <ele>787.67</ele>
        <time>2026-04-02T09:48:26.362Z</time>
      </trkpt>
      <trkpt lat="44.12772" lon="3.23595">
        <ele>786.35</ele>
        <time>2026-04-02T09:48:31.366Z</time>
      </trkpt>
      <trkpt lat="44.1277" lon="3.23598">
        <ele>785.67</ele>
        <time>2026-04-02T09:48:36.685Z</time>
      </trkpt>
      <trkpt lat="44.12767" lon="3.23597">
        <ele>784.23</ele>
        <time>2026-04-02T09:48:42.241Z</time>
      </trkpt>
      <trkpt lat="44.12765" lon="3.236">
        <ele>783.62</ele>
        <time>2026-04-02T09:48:47.681Z</time>
      </trkpt>
      <trkpt lat="44.12762" lon="3.23605">
        <ele>782.04</ele>
        <time>2026-04-02T09:48:52.927Z</time>
      </trkpt>
      <trkpt lat="44.12759" lon="3.23606">
        <ele>780.13</ele>
        <time>2026-04-02T09:48:58.326Z</time>
      </trkpt>
      <trkpt lat="44.12758" lon="3.23605">
        <ele>780.17</ele>
        <time>2026-04-02T09:49:03.420Z</time>
      </trkpt>
      <trkpt lat="44.12756" lon="3.23606">
        <ele>778.73</ele>
        <time>2026-04-02T09:49:08.715Z</time>
      </trkpt>
      <trkpt lat="44.12756" lon="3.2361">
        <ele>778</ele>
        <time>2026-04-02T09:49:13.927Z</time>
      </trkpt>
      <trkpt lat="44.12753" lon="3.23613">
        <ele>777.11</ele>
        <time>2026-04-02T09:49:19.495Z</time>
      </trkpt>
      <trkpt lat="44.1275" lon="3.23615">
        <ele>774.56</ele>
        <time>2026-04-02T09:49:24.573Z</time>
      </trkpt>
      <trkpt lat="44.12749" lon="3.23616">
        <ele>773.44</ele>
        <time>2026-04-02T09:49:37.191Z</time>
      </trkpt>
      <trkpt lat="44.12745" lon="3.23618">
        <ele>772.38</ele>
        <time>2026-04-02T09:49:42.381Z</time>
      </trkpt>
      <trkpt lat="44.12741" lon="3.23621">
        <ele>771</ele>
        <time>2026-04-02T09:49:47.686Z</time>
      </trkpt>
      <trkpt lat="44.12739" lon="3.23628">
        <ele>769.12</ele>
        <time>2026-04-02T09:49:53.461Z</time>
      </trkpt>
      <trkpt lat="44.12739" lon="3.23626">
        <ele>768.39</ele>
        <time>2026-04-02T09:49:58.741Z</time>
      </trkpt>
      <trkpt lat="44.12739" lon="3.23625">
        <ele>767.36</ele>
        <time>2026-04-02T09:50:04.060Z</time>
      </trkpt>
      <trkpt lat="44.12738" lon="3.23624">
        <ele>765.52</ele>
        <time>2026-04-02T09:50:13.121Z</time>
      </trkpt>
      <trkpt lat="44.12735" lon="3.23626">
        <ele>764.77</ele>
        <time>2026-04-02T09:50:18.322Z</time>
      </trkpt>
      <trkpt lat="44.12731" lon="3.23628">
        <ele>762.02</ele>
        <time>2026-04-02T09:50:23.760Z</time>
      </trkpt>
      <trkpt lat="44.12729" lon="3.23628">
        <ele>761.78</ele>
        <time>2026-04-02T09:50:28.777Z</time>
      </trkpt>
      <trkpt lat="44.12723" lon="3.2363">
        <ele>760.32</ele>
        <time>2026-04-02T09:50:34.759Z</time>
      </trkpt>
      <trkpt lat="44.12717" lon="3.23634">
        <ele>759.28</ele>
        <time>2026-04-02T09:50:40.207Z</time>
      </trkpt>
      <trkpt lat="44.12713" lon="3.23637">
        <ele>758.92</ele>
        <time>2026-04-02T09:50:45.680Z</time>
      </trkpt>
      <trkpt lat="44.12701" lon="3.23641">
        <ele>758.98</ele>
        <time>2026-04-02T09:50:51.461Z</time>
      </trkpt>
      <trkpt lat="44.12695" lon="3.23644">
        <ele>758.9</ele>
        <time>2026-04-02T09:50:56.716Z</time>
      </trkpt>
      <trkpt lat="44.12689" lon="3.23649">
        <ele>758.7</ele>
        <time>2026-04-02T09:51:02.380Z</time>
      </trkpt>
      <trkpt lat="44.12681" lon="3.23653">
        <ele>758.06</ele>
        <time>2026-04-02T09:51:08.382Z</time>
      </trkpt>
      <trkpt lat="44.12672" lon="3.23656">
        <ele>757.54</ele>
        <time>2026-04-02T09:51:13.540Z</time>
      </trkpt>
      <trkpt lat="44.12664" lon="3.23657">
        <ele>756.35</ele>
        <time>2026-04-02T09:51:18.596Z</time>
      </trkpt>
      <trkpt lat="44.12659" lon="3.23663">
        <ele>754.62</ele>
        <time>2026-04-02T09:51:23.658Z</time>
      </trkpt>
      <trkpt lat="44.12656" lon="3.23667">
        <ele>753.56</ele>
        <time>2026-04-02T09:51:28.747Z</time>
      </trkpt>
      <trkpt lat="44.12654" lon="3.2367">
        <ele>752.41</ele>
        <time>2026-04-02T09:51:33.763Z</time>
      </trkpt>
      <trkpt lat="44.12651" lon="3.23672">
        <ele>751.81</ele>
        <time>2026-04-02T09:51:39.101Z</time>
      </trkpt>
      <trkpt lat="44.1265" lon="3.23672">
        <ele>750.3</ele>
        <time>2026-04-02T09:51:49.767Z</time>
      </trkpt>
      <trkpt lat="44.12643" lon="3.23678">
        <ele>750.62</ele>
        <time>2026-04-02T09:51:54.997Z</time>
      </trkpt>
      <trkpt lat="44.12638" lon="3.23677">
        <ele>749.98</ele>
        <time>2026-04-02T09:52:00.238Z</time>
      </trkpt>
      <trkpt lat="44.12634" lon="3.23678">
        <ele>748.96</ele>
        <time>2026-04-02T09:52:05.243Z</time>
      </trkpt>
      <trkpt lat="44.12629" lon="3.23683">
        <ele>748.07</ele>
        <time>2026-04-02T09:52:10.787Z</time>
      </trkpt>
      <trkpt lat="44.12628" lon="3.23684">
        <ele>746.53</ele>
        <time>2026-04-02T09:52:18.602Z</time>
      </trkpt>
      <trkpt lat="44.12625" lon="3.23685">
        <ele>745.97</ele>
        <time>2026-04-02T09:52:23.804Z</time>
      </trkpt>
      <trkpt lat="44.12622" lon="3.23687">
        <ele>744.87</ele>
        <time>2026-04-02T09:52:28.955Z</time>
      </trkpt>
      <trkpt lat="44.12618" lon="3.23691">
        <ele>743.96</ele>
        <time>2026-04-02T09:52:34.219Z</time>
      </trkpt>
      <trkpt lat="44.12617" lon="3.23691">
        <ele>742.74</ele>
        <time>2026-04-02T09:52:39.702Z</time>
      </trkpt>
      <trkpt lat="44.12618" lon="3.23691">
        <ele>742.81</ele>
        <time>2026-04-02T09:52:45.364Z</time>
      </trkpt>
      <trkpt lat="44.12618" lon="3.23689">
        <ele>741.26</ele>
        <time>2026-04-02T09:52:50.739Z</time>
      </trkpt>
      <trkpt lat="44.12618" lon="3.23678">
        <ele>740.44</ele>
        <time>2026-04-02T09:52:56.439Z</time>
      </trkpt>
      <trkpt lat="44.12621" lon="3.23673">
        <ele>739.14</ele>
        <time>2026-04-02T09:53:01.681Z</time>
      </trkpt>
      <trkpt lat="44.12622" lon="3.23673">
        <ele>738.75</ele>
        <time>2026-04-02T09:53:07.775Z</time>
      </trkpt>
      <trkpt lat="44.12617" lon="3.23673">
        <ele>737.49</ele>
        <time>2026-04-02T09:53:12.778Z</time>
      </trkpt>
      <trkpt lat="44.12614" lon="3.23672">
        <ele>735.92</ele>
        <time>2026-04-02T09:53:18.533Z</time>
      </trkpt>
      <trkpt lat="44.12611" lon="3.23672">
        <ele>735.01</ele>
        <time>2026-04-02T09:53:23.620Z</time>
      </trkpt>
      <trkpt lat="44.12607" lon="3.23671">
        <ele>734.3</ele>
        <time>2026-04-02T09:53:28.740Z</time>
      </trkpt>
      <trkpt lat="44.12603" lon="3.23671">
        <ele>733.47</ele>
        <time>2026-04-02T09:53:34.762Z</time>
      </trkpt>
      <trkpt lat="44.126" lon="3.23674">
        <ele>732.11</ele>
        <time>2026-04-02T09:53:39.804Z</time>
      </trkpt>
      <trkpt lat="44.12596" lon="3.23678">
        <ele>731.58</ele>
        <time>2026-04-02T09:53:44.807Z</time>
      </trkpt>
      <trkpt lat="44.12592" lon="3.23684">
        <ele>731.07</ele>
        <time>2026-04-02T09:53:49.966Z</time>
      </trkpt>
      <trkpt lat="44.12588" lon="3.23687">
        <ele>729.69</ele>
        <time>2026-04-02T09:53:55.489Z</time>
      </trkpt>
      <trkpt lat="44.12588" lon="3.23692">
        <ele>728.48</ele>
        <time>2026-04-02T09:54:00.741Z</time>
      </trkpt>
      <trkpt lat="44.12587" lon="3.23691">
        <ele>727.79</ele>
        <time>2026-04-02T09:54:05.746Z</time>
      </trkpt>
      <trkpt lat="44.12584" lon="3.23695">
        <ele>727.76</ele>
        <time>2026-04-02T09:54:11.798Z</time>
      </trkpt>
      <trkpt lat="44.1258" lon="3.23704">
        <ele>726.44</ele>
        <time>2026-04-02T09:54:16.985Z</time>
      </trkpt>
      <trkpt lat="44.12579" lon="3.23708">
        <ele>726.13</ele>
        <time>2026-04-02T09:54:22.428Z</time>
      </trkpt>
      <trkpt lat="44.12576" lon="3.23711">
        <ele>724.08</ele>
        <time>2026-04-02T09:54:27.696Z</time>
      </trkpt>
      <trkpt lat="44.12575" lon="3.23718">
        <ele>724</ele>
        <time>2026-04-02T09:54:32.710Z</time>
      </trkpt>
      <trkpt lat="44.12572" lon="3.23722">
        <ele>723.75</ele>
        <time>2026-04-02T09:54:38.712Z</time>
      </trkpt>
      <trkpt lat="44.1257" lon="3.23722">
        <ele>722.86</ele>
        <time>2026-04-02T09:54:43.724Z</time>
      </trkpt>
      <trkpt lat="44.12571" lon="3.23724">
        <ele>721.15</ele>
        <time>2026-04-02T09:54:49.211Z</time>
      </trkpt>
      <trkpt lat="44.12569" lon="3.23728">
        <ele>720.44</ele>
        <time>2026-04-02T09:54:54.691Z</time>
      </trkpt>
      <trkpt lat="44.12568" lon="3.23731">
        <ele>720.1</ele>
        <time>2026-04-02T09:54:59.705Z</time>
      </trkpt>
      <trkpt lat="44.12567" lon="3.23735">
        <ele>719.25</ele>
        <time>2026-04-02T09:55:05.787Z</time>
      </trkpt>
      <trkpt lat="44.12567" lon="3.23733">
        <ele>717.64</ele>
        <time>2026-04-02T09:55:12.721Z</time>
      </trkpt>
      <trkpt lat="44.12565" lon="3.23734">
        <ele>716.78</ele>
        <time>2026-04-02T09:55:18.204Z</time>
      </trkpt>
      <trkpt lat="44.12561" lon="3.23742">
        <ele>716.73</ele>
        <time>2026-04-02T09:55:23.325Z</time>
      </trkpt>
      <trkpt lat="44.12558" lon="3.23746">
        <ele>715.51</ele>
        <time>2026-04-02T09:55:28.562Z</time>
      </trkpt>
      <trkpt lat="44.12559" lon="3.23754">
        <ele>714.55</ele>
        <time>2026-04-02T09:55:33.780Z</time>
      </trkpt>
      <trkpt lat="44.1256" lon="3.23763">
        <ele>714.35</ele>
        <time>2026-04-02T09:55:39.303Z</time>
      </trkpt>
      <trkpt lat="44.12559" lon="3.2377">
        <ele>714.03</ele>
        <time>2026-04-02T09:55:44.808Z</time>
      </trkpt>
      <trkpt lat="44.12556" lon="3.23773">
        <ele>713.38</ele>
        <time>2026-04-02T09:55:50.781Z</time>
      </trkpt>
      <trkpt lat="44.12555" lon="3.23772">
        <ele>712.61</ele>
        <time>2026-04-02T09:55:56.366Z</time>
      </trkpt>
      <trkpt lat="44.12552" lon="3.23777">
        <ele>711.56</ele>
        <time>2026-04-02T09:56:01.696Z</time>
      </trkpt>
      <trkpt lat="44.1255" lon="3.23787">
        <ele>710.96</ele>
        <time>2026-04-02T09:56:06.810Z</time>
      </trkpt>
      <trkpt lat="44.12548" lon="3.23795">
        <ele>709.44</ele>
        <time>2026-04-02T09:56:12.478Z</time>
      </trkpt>
      <trkpt lat="44.12549" lon="3.238">
        <ele>709.78</ele>
        <time>2026-04-02T09:56:17.679Z</time>
      </trkpt>
      <trkpt lat="44.12549" lon="3.23799">
        <ele>708.24</ele>
        <time>2026-04-02T09:56:23.685Z</time>
      </trkpt>
      <trkpt lat="44.12543" lon="3.23803">
        <ele>706.61</ele>
        <time>2026-04-02T09:56:29.459Z</time>
      </trkpt>
      <trkpt lat="44.1254" lon="3.23812">
        <ele>705.6</ele>
        <time>2026-04-02T09:56:35.178Z</time>
      </trkpt>
      <trkpt lat="44.12536" lon="3.23818">
        <ele>704.49</ele>
        <time>2026-04-02T09:56:40.653Z</time>
      </trkpt>
      <trkpt lat="44.1253" lon="3.23822">
        <ele>703.36</ele>
        <time>2026-04-02T09:56:46.139Z</time>
      </trkpt>
      <trkpt lat="44.12528" lon="3.23827">
        <ele>703.02</ele>
        <time>2026-04-02T09:56:51.745Z</time>
      </trkpt>
      <trkpt lat="44.12528" lon="3.2383">
        <ele>701.77</ele>
        <time>2026-04-02T09:56:57.210Z</time>
      </trkpt>
      <trkpt lat="44.12525" lon="3.2383">
        <ele>701.95</ele>
        <time>2026-04-02T09:57:02.745Z</time>
      </trkpt>
      <trkpt lat="44.12522" lon="3.23831">
        <ele>698.9</ele>
        <time>2026-04-02T09:57:07.760Z</time>
      </trkpt>
      <trkpt lat="44.12522" lon="3.2384">
        <ele>699.37</ele>
        <time>2026-04-02T09:57:13.736Z</time>
      </trkpt>
      <trkpt lat="44.1252" lon="3.23843">
        <ele>700.8</ele>
        <time>2026-04-02T09:57:18.751Z</time>
      </trkpt>
      <trkpt lat="44.12521" lon="3.23842">
        <ele>700.17</ele>
        <time>2026-04-02T09:57:48.737Z</time>
      </trkpt>
      <trkpt lat="44.12522" lon="3.23841">
        <ele>701.17</ele>
        <time>2026-04-02T09:57:59.727Z</time>
      </trkpt>
      <trkpt lat="44.12523" lon="3.23842">
        <ele>699.8</ele>
        <time>2026-04-02T09:58:12.513Z</time>
      </trkpt>
      <trkpt lat="44.12521" lon="3.23848">
        <ele>700.98</ele>
        <time>2026-04-02T09:58:17.763Z</time>
      </trkpt>
      <trkpt lat="44.12515" lon="3.23855">
        <ele>700.51</ele>
        <time>2026-04-02T09:58:23.217Z</time>
      </trkpt>
      <trkpt lat="44.1251" lon="3.23861">
        <ele>699.79</ele>
        <time>2026-04-02T09:58:28.747Z</time>
      </trkpt>
      <trkpt lat="44.12508" lon="3.23869">
        <ele>698.84</ele>
        <time>2026-04-02T09:58:34.654Z</time>
      </trkpt>
      <trkpt lat="44.12507" lon="3.23874">
        <ele>696.74</ele>
        <time>2026-04-02T09:58:39.746Z</time>
      </trkpt>
      <trkpt lat="44.12506" lon="3.23882">
        <ele>695.92</ele>
        <time>2026-04-02T09:58:44.762Z</time>
      </trkpt>
      <trkpt lat="44.12505" lon="3.2389">
        <ele>694.76</ele>
        <time>2026-04-02T09:58:49.777Z</time>
      </trkpt>
      <trkpt lat="44.12502" lon="3.23897">
        <ele>693.93</ele>
        <time>2026-04-02T09:58:55.214Z</time>
      </trkpt>
      <trkpt lat="44.12502" lon="3.23903">
        <ele>693.52</ele>
        <time>2026-04-02T09:59:00.292Z</time>
      </trkpt>
      <trkpt lat="44.12498" lon="3.23909">
        <ele>692.02</ele>
        <time>2026-04-02T09:59:05.784Z</time>
      </trkpt>
      <trkpt lat="44.12499" lon="3.23917">
        <ele>690.51</ele>
        <time>2026-04-02T09:59:11.759Z</time>
      </trkpt>
      <trkpt lat="44.125" lon="3.23925">
        <ele>689.7</ele>
        <time>2026-04-02T09:59:17.773Z</time>
      </trkpt>
      <trkpt lat="44.12502" lon="3.2393">
        <ele>689.42</ele>
        <time>2026-04-02T09:59:23.233Z</time>
      </trkpt>
      <trkpt lat="44.12506" lon="3.2393">
        <ele>688.66</ele>
        <time>2026-04-02T09:59:28.772Z</time>
      </trkpt>
      <trkpt lat="44.12508" lon="3.23932">
        <ele>687.72</ele>
        <time>2026-04-02T09:59:34.314Z</time>
      </trkpt>
      <trkpt lat="44.12512" lon="3.23935">
        <ele>686.82</ele>
        <time>2026-04-02T09:59:39.613Z</time>
      </trkpt>
      <trkpt lat="44.12517" lon="3.23939">
        <ele>686.42</ele>
        <time>2026-04-02T09:59:44.753Z</time>
      </trkpt>
      <trkpt lat="44.12518" lon="3.2394">
        <ele>685.9</ele>
        <time>2026-04-02T09:59:50.836Z</time>
      </trkpt>
      <trkpt lat="44.12518" lon="3.23939">
        <ele>685.41</ele>
        <time>2026-04-02T10:00:03.724Z</time>
      </trkpt>
      <trkpt lat="44.12519" lon="3.23938">
        <ele>684.25</ele>
        <time>2026-04-02T10:00:11.737Z</time>
      </trkpt>
      <trkpt lat="44.12519" lon="3.23936">
        <ele>684.79</ele>
        <time>2026-04-02T10:00:23.687Z</time>
      </trkpt>
      <trkpt lat="44.1252" lon="3.23935">
        <ele>685.49</ele>
        <time>2026-04-02T10:00:28.704Z</time>
      </trkpt>
      <trkpt lat="44.12523" lon="3.23933">
        <ele>685.57</ele>
        <time>2026-04-02T10:00:34.028Z</time>
      </trkpt>
      <trkpt lat="44.12527" lon="3.23933">
        <ele>684.99</ele>
        <time>2026-04-02T10:00:39.034Z</time>
      </trkpt>
      <trkpt lat="44.12532" lon="3.23931">
        <ele>685.92</ele>
        <time>2026-04-02T10:00:44.630Z</time>
      </trkpt>
      <trkpt lat="44.1254" lon="3.23931">
        <ele>687.18</ele>
        <time>2026-04-02T10:00:50.053Z</time>
      </trkpt>
      <trkpt lat="44.12547" lon="3.23927">
        <ele>689.41</ele>
        <time>2026-04-02T10:00:55.702Z</time>
      </trkpt>
      <trkpt lat="44.12548" lon="3.23927">
        <ele>689.04</ele>
        <time>2026-04-02T10:01:05.669Z</time>
      </trkpt>
      <trkpt lat="44.12556" lon="3.23921">
        <ele>690.92</ele>
        <time>2026-04-02T10:01:11.573Z</time>
      </trkpt>
      <trkpt lat="44.12565" lon="3.23921">
        <ele>690.51</ele>
        <time>2026-04-02T10:01:17.332Z</time>
      </trkpt>
      <trkpt lat="44.12573" lon="3.23925">
        <ele>690.82</ele>
        <time>2026-04-02T10:01:22.686Z</time>
      </trkpt>
      <trkpt lat="44.12577" lon="3.23928">
        <ele>689.98</ele>
        <time>2026-04-02T10:01:27.718Z</time>
      </trkpt>
      <trkpt lat="44.12581" lon="3.23933">
        <ele>688.55</ele>
        <time>2026-04-02T10:01:32.819Z</time>
      </trkpt>
      <trkpt lat="44.12586" lon="3.23936">
        <ele>687.61</ele>
        <time>2026-04-02T10:01:37.926Z</time>
      </trkpt>
      <trkpt lat="44.12591" lon="3.23938">
        <ele>687.2</ele>
        <time>2026-04-02T10:01:43.248Z</time>
      </trkpt>
      <trkpt lat="44.12595" lon="3.2394">
        <ele>687.46</ele>
        <time>2026-04-02T10:01:48.551Z</time>
      </trkpt>
      <trkpt lat="44.12602" lon="3.23939">
        <ele>686.69</ele>
        <time>2026-04-02T10:01:53.635Z</time>
      </trkpt>
      <trkpt lat="44.12609" lon="3.23936">
        <ele>686.65</ele>
        <time>2026-04-02T10:01:59.049Z</time>
      </trkpt>
      <trkpt lat="44.12616" lon="3.23927">
        <ele>684.68</ele>
        <time>2026-04-02T10:02:04.829Z</time>
      </trkpt>
      <trkpt lat="44.12623" lon="3.2392">
        <ele>683.26</ele>
        <time>2026-04-02T10:02:10.469Z</time>
      </trkpt>
      <trkpt lat="44.12626" lon="3.2391">
        <ele>682.79</ele>
        <time>2026-04-02T10:02:15.737Z</time>
      </trkpt>
      <trkpt lat="44.12634" lon="3.23903">
        <ele>682.62</ele>
        <time>2026-04-02T10:02:21.630Z</time>
      </trkpt>
      <trkpt lat="44.12641" lon="3.239">
        <ele>682.46</ele>
        <time>2026-04-02T10:02:26.753Z</time>
      </trkpt>
      <trkpt lat="44.12648" lon="3.23903">
        <ele>680.63</ele>
        <time>2026-04-02T10:02:32.289Z</time>
      </trkpt>
      <trkpt lat="44.12647" lon="3.23907">
        <ele>678.5</ele>
        <time>2026-04-02T10:02:37.719Z</time>
      </trkpt>
      <trkpt lat="44.12647" lon="3.2391">
        <ele>678.18</ele>
        <time>2026-04-02T10:02:43.272Z</time>
      </trkpt>
      <trkpt lat="44.12647" lon="3.23911">
        <ele>679.05</ele>
        <time>2026-04-02T10:02:48.490Z</time>
      </trkpt>
      <trkpt lat="44.12649" lon="3.23918">
        <ele>678.54</ele>
        <time>2026-04-02T10:02:53.724Z</time>
      </trkpt>
      <trkpt lat="44.1265" lon="3.23925">
        <ele>678.24</ele>
        <time>2026-04-02T10:02:58.748Z</time>
      </trkpt>
      <trkpt lat="44.1265" lon="3.2393">
        <ele>676.66</ele>
        <time>2026-04-02T10:03:03.762Z</time>
      </trkpt>
      <trkpt lat="44.1265" lon="3.23933">
        <ele>676.53</ele>
        <time>2026-04-02T10:03:08.779Z</time>
      </trkpt>
      <trkpt lat="44.12649" lon="3.23937">
        <ele>677.97</ele>
        <time>2026-04-02T10:03:13.968Z</time>
      </trkpt>
      <trkpt lat="44.12649" lon="3.23945">
        <ele>677.23</ele>
        <time>2026-04-02T10:03:19.672Z</time>
      </trkpt>
      <trkpt lat="44.1265" lon="3.23954">
        <ele>676.31</ele>
        <time>2026-04-02T10:03:24.686Z</time>
      </trkpt>
      <trkpt lat="44.12653" lon="3.23954">
        <ele>674.65</ele>
        <time>2026-04-02T10:03:29.703Z</time>
      </trkpt>
      <trkpt lat="44.12655" lon="3.23956">
        <ele>676.03</ele>
        <time>2026-04-02T10:03:35.107Z</time>
      </trkpt>
      <trkpt lat="44.12662" lon="3.23958">
        <ele>675.74</ele>
        <time>2026-04-02T10:03:40.487Z</time>
      </trkpt>
      <trkpt lat="44.12669" lon="3.2396">
        <ele>675.57</ele>
        <time>2026-04-02T10:03:45.626Z</time>
      </trkpt>
      <trkpt lat="44.12675" lon="3.23961">
        <ele>674.84</ele>
        <time>2026-04-02T10:03:50.650Z</time>
      </trkpt>
      <trkpt lat="44.12679" lon="3.2396">
        <ele>673.81</ele>
        <time>2026-04-02T10:03:55.692Z</time>
      </trkpt>
      <trkpt lat="44.12685" lon="3.23964">
        <ele>671.27</ele>
        <time>2026-04-02T10:04:01.615Z</time>
      </trkpt>
      <trkpt lat="44.12688" lon="3.23968">
        <ele>670.53</ele>
        <time>2026-04-02T10:04:06.982Z</time>
      </trkpt>
      <trkpt lat="44.1269" lon="3.23971">
        <ele>669.87</ele>
        <time>2026-04-02T10:04:12.312Z</time>
      </trkpt>
      <trkpt lat="44.12692" lon="3.23974">
        <ele>669.09</ele>
        <time>2026-04-02T10:04:17.674Z</time>
      </trkpt>
      <trkpt lat="44.12694" lon="3.23977">
        <ele>667.61</ele>
        <time>2026-04-02T10:04:22.749Z</time>
      </trkpt>
      <trkpt lat="44.12697" lon="3.23979">
        <ele>666.31</ele>
        <time>2026-04-02T10:04:28.274Z</time>
      </trkpt>
      <trkpt lat="44.12701" lon="3.2398">
        <ele>665.43</ele>
        <time>2026-04-02T10:04:33.740Z</time>
      </trkpt>
      <trkpt lat="44.12706" lon="3.23982">
        <ele>663.38</ele>
        <time>2026-04-02T10:04:39.715Z</time>
      </trkpt>
      <trkpt lat="44.12709" lon="3.23989">
        <ele>662.65</ele>
        <time>2026-04-02T10:04:44.731Z</time>
      </trkpt>
      <trkpt lat="44.12712" lon="3.23991">
        <ele>661.02</ele>
        <time>2026-04-02T10:04:49.746Z</time>
      </trkpt>
      <trkpt lat="44.12715" lon="3.23996">
        <ele>660.32</ele>
        <time>2026-04-02T10:04:54.761Z</time>
      </trkpt>
      <trkpt lat="44.12719" lon="3.24001">
        <ele>658.82</ele>
        <time>2026-04-02T10:05:00.536Z</time>
      </trkpt>
      <trkpt lat="44.12721" lon="3.24008">
        <ele>657.99</ele>
        <time>2026-04-02T10:05:05.579Z</time>
      </trkpt>
      <trkpt lat="44.1272" lon="3.24015">
        <ele>657.56</ele>
        <time>2026-04-02T10:05:11.171Z</time>
      </trkpt>
      <trkpt lat="44.12718" lon="3.24023">
        <ele>657.52</ele>
        <time>2026-04-02T10:05:16.274Z</time>
      </trkpt>
      <trkpt lat="44.12716" lon="3.24031">
        <ele>656.68</ele>
        <time>2026-04-02T10:05:21.655Z</time>
      </trkpt>
      <trkpt lat="44.12715" lon="3.24042">
        <ele>655.81</ele>
        <time>2026-04-02T10:05:26.772Z</time>
      </trkpt>
      <trkpt lat="44.12715" lon="3.24052">
        <ele>656.01</ele>
        <time>2026-04-02T10:05:31.772Z</time>
      </trkpt>
      <trkpt lat="44.12715" lon="3.24061">
        <ele>654.74</ele>
        <time>2026-04-02T10:05:37.361Z</time>
      </trkpt>
      <trkpt lat="44.12715" lon="3.24068">
        <ele>654.66</ele>
        <time>2026-04-02T10:05:42.778Z</time>
      </trkpt>
      <trkpt lat="44.12713" lon="3.24077">
        <ele>653.76</ele>
        <time>2026-04-02T10:05:48.677Z</time>
      </trkpt>
      <trkpt lat="44.12713" lon="3.24086">
        <ele>652.61</ele>
        <time>2026-04-02T10:05:54.253Z</time>
      </trkpt>
      <trkpt lat="44.12712" lon="3.24092">
        <ele>651.43</ele>
        <time>2026-04-02T10:05:59.294Z</time>
      </trkpt>
      <trkpt lat="44.1271" lon="3.24097">
        <ele>650.08</ele>
        <time>2026-04-02T10:06:04.753Z</time>
      </trkpt>
      <trkpt lat="44.12711" lon="3.24101">
        <ele>650.32</ele>
        <time>2026-04-02T10:06:09.773Z</time>
      </trkpt>
      <trkpt lat="44.12712" lon="3.24105">
        <ele>650.46</ele>
        <time>2026-04-02T10:06:14.788Z</time>
      </trkpt>
      <trkpt lat="44.12713" lon="3.24109">
        <ele>649.83</ele>
        <time>2026-04-02T10:06:20.215Z</time>
      </trkpt>
      <trkpt lat="44.12716" lon="3.24111">
        <ele>649.43</ele>
        <time>2026-04-02T10:06:25.497Z</time>
      </trkpt>
      <trkpt lat="44.1272" lon="3.24113">
        <ele>647.46</ele>
        <time>2026-04-02T10:06:30.542Z</time>
      </trkpt>
      <trkpt lat="44.12725" lon="3.24117">
        <ele>646.09</ele>
        <time>2026-04-02T10:06:35.818Z</time>
      </trkpt>
      <trkpt lat="44.12728" lon="3.24123">
        <ele>645.52</ele>
        <time>2026-04-02T10:06:41.123Z</time>
      </trkpt>
      <trkpt lat="44.12731" lon="3.24127">
        <ele>644.58</ele>
        <time>2026-04-02T10:06:46.234Z</time>
      </trkpt>
      <trkpt lat="44.12735" lon="3.24132">
        <ele>643.39</ele>
        <time>2026-04-02T10:06:51.818Z</time>
      </trkpt>
      <trkpt lat="44.12739" lon="3.24137">
        <ele>643.07</ele>
        <time>2026-04-02T10:06:57.799Z</time>
      </trkpt>
      <trkpt lat="44.12738" lon="3.24136">
        <ele>643.15</ele>
        <time>2026-04-02T10:07:03.672Z</time>
      </trkpt>
      <trkpt lat="44.12739" lon="3.24137">
        <ele>644.94</ele>
        <time>2026-04-02T10:07:23.860Z</time>
      </trkpt>
      <trkpt lat="44.12738" lon="3.24138">
        <ele>644.29</ele>
        <time>2026-04-02T10:07:33.768Z</time>
      </trkpt>
      <trkpt lat="44.12739" lon="3.24136">
        <ele>643.3</ele>
        <time>2026-04-02T10:07:39.101Z</time>
      </trkpt>
      <trkpt lat="44.12742" lon="3.24132">
        <ele>641.51</ele>
        <time>2026-04-02T10:07:44.761Z</time>
      </trkpt>
      <trkpt lat="44.12743" lon="3.2413">
        <ele>640.37</ele>
        <time>2026-04-02T10:07:50.036Z</time>
      </trkpt>
      <trkpt lat="44.12744" lon="3.24128">
        <ele>639.7</ele>
        <time>2026-04-02T10:07:55.683Z</time>
      </trkpt>
      <trkpt lat="44.12747" lon="3.24131">
        <ele>638.99</ele>
        <time>2026-04-02T10:08:00.767Z</time>
      </trkpt>
      <trkpt lat="44.12748" lon="3.24134">
        <ele>637.03</ele>
        <time>2026-04-02T10:08:06.418Z</time>
      </trkpt>
      <trkpt lat="44.1275" lon="3.24136">
        <ele>636.39</ele>
        <time>2026-04-02T10:08:11.665Z</time>
      </trkpt>
      <trkpt lat="44.12754" lon="3.24137">
        <ele>635.13</ele>
        <time>2026-04-02T10:08:17.101Z</time>
      </trkpt>
      <trkpt lat="44.12758" lon="3.24138">
        <ele>633.75</ele>
        <time>2026-04-02T10:08:22.102Z</time>
      </trkpt>
      <trkpt lat="44.12761" lon="3.24139">
        <ele>632.79</ele>
        <time>2026-04-02T10:08:27.225Z</time>
      </trkpt>
      <trkpt lat="44.12764" lon="3.24137">
        <ele>632.26</ele>
        <time>2026-04-02T10:08:32.523Z</time>
      </trkpt>
      <trkpt lat="44.12764" lon="3.24136">
        <ele>632.69</ele>
        <time>2026-04-02T10:08:41.737Z</time>
      </trkpt>
      <trkpt lat="44.12765" lon="3.24136">
        <ele>633.15</ele>
        <time>2026-04-02T10:08:50.698Z</time>
      </trkpt>
      <trkpt lat="44.12771" lon="3.24134">
        <ele>632.25</ele>
        <time>2026-04-02T10:08:56.158Z</time>
      </trkpt>
      <trkpt lat="44.12778" lon="3.2413">
        <ele>631.94</ele>
        <time>2026-04-02T10:09:01.539Z</time>
      </trkpt>
      <trkpt lat="44.12783" lon="3.24126">
        <ele>631.41</ele>
        <time>2026-04-02T10:09:06.539Z</time>
      </trkpt>
      <trkpt lat="44.12788" lon="3.24124">
        <ele>629.31</ele>
        <time>2026-04-02T10:09:11.613Z</time>
      </trkpt>
      <trkpt lat="44.12793" lon="3.24122">
        <ele>628.81</ele>
        <time>2026-04-02T10:09:16.759Z</time>
      </trkpt>
      <trkpt lat="44.12792" lon="3.24123">
        <ele>628.33</ele>
        <time>2026-04-02T10:09:23.801Z</time>
      </trkpt>
      <trkpt lat="44.12793" lon="3.24123">
        <ele>626.6</ele>
        <time>2026-04-02T10:09:38.741Z</time>
      </trkpt>
      <trkpt lat="44.12794" lon="3.24123">
        <ele>625.72</ele>
        <time>2026-04-02T10:09:43.756Z</time>
      </trkpt>
      <trkpt lat="44.12795" lon="3.24123">
        <ele>625.53</ele>
        <time>2026-04-02T10:09:49.621Z</time>
      </trkpt>
      <trkpt lat="44.12799" lon="3.24123">
        <ele>625.49</ele>
        <time>2026-04-02T10:09:55.019Z</time>
      </trkpt>
      <trkpt lat="44.12804" lon="3.24122">
        <ele>625.79</ele>
        <time>2026-04-02T10:10:00.299Z</time>
      </trkpt>
      <trkpt lat="44.12811" lon="3.2412">
        <ele>625.88</ele>
        <time>2026-04-02T10:10:05.745Z</time>
      </trkpt>
      <trkpt lat="44.12819" lon="3.24113">
        <ele>626.34</ele>
        <time>2026-04-02T10:10:11.741Z</time>
      </trkpt>
      <trkpt lat="44.12825" lon="3.24113">
        <ele>627.13</ele>
        <time>2026-04-02T10:10:17.284Z</time>
      </trkpt>
      <trkpt lat="44.12833" lon="3.2411">
        <ele>627.33</ele>
        <time>2026-04-02T10:10:22.943Z</time>
      </trkpt>
      <trkpt lat="44.12839" lon="3.24106">
        <ele>630.39</ele>
        <time>2026-04-02T10:10:28.220Z</time>
      </trkpt>
      <trkpt lat="44.12845" lon="3.24104">
        <ele>630.25</ele>
        <time>2026-04-02T10:10:33.800Z</time>
      </trkpt>
      <trkpt lat="44.12851" lon="3.24099">
        <ele>629.34</ele>
        <time>2026-04-02T10:10:38.815Z</time>
      </trkpt>
      <trkpt lat="44.12856" lon="3.24096">
        <ele>628.82</ele>
        <time>2026-04-02T10:10:44.790Z</time>
      </trkpt>
      <trkpt lat="44.12863" lon="3.24093">
        <ele>628.51</ele>
        <time>2026-04-02T10:10:49.804Z</time>
      </trkpt>
      <trkpt lat="44.12869" lon="3.24091">
        <ele>628.77</ele>
        <time>2026-04-02T10:10:55.244Z</time>
      </trkpt>
      <trkpt lat="44.12874" lon="3.24089">
        <ele>628.69</ele>
        <time>2026-04-02T10:11:00.795Z</time>
      </trkpt>
      <trkpt lat="44.12874" lon="3.2409">
        <ele>628.85</ele>
        <time>2026-04-02T10:11:06.779Z</time>
      </trkpt>
      <trkpt lat="44.12873" lon="3.24091">
        <ele>628.55</ele>
        <time>2026-04-02T10:11:11.794Z</time>
      </trkpt>
      <trkpt lat="44.12874" lon="3.24088">
        <ele>629.3</ele>
        <time>2026-04-02T10:11:20.766Z</time>
      </trkpt>
      <trkpt lat="44.12886" lon="3.2408">
        <ele>631.82</ele>
        <time>2026-04-02T10:11:25.781Z</time>
      </trkpt>
      <trkpt lat="44.12899" lon="3.24071">
        <ele>631.21</ele>
        <time>2026-04-02T10:11:31.282Z</time>
      </trkpt>
      <trkpt lat="44.12908" lon="3.24061">
        <ele>631.82</ele>
        <time>2026-04-02T10:11:36.360Z</time>
      </trkpt>
      <trkpt lat="44.12914" lon="3.24061">
        <ele>632.01</ele>
        <time>2026-04-02T10:11:41.387Z</time>
      </trkpt>
      <trkpt lat="44.12917" lon="3.24069">
        <ele>632.21</ele>
        <time>2026-04-02T10:11:46.802Z</time>
      </trkpt>
      <trkpt lat="44.12918" lon="3.24077">
        <ele>633.24</ele>
        <time>2026-04-02T10:11:51.817Z</time>
      </trkpt>
      <trkpt lat="44.12921" lon="3.24085">
        <ele>633.74</ele>
        <time>2026-04-02T10:11:56.967Z</time>
      </trkpt>
      <trkpt lat="44.12924" lon="3.2409">
        <ele>634.03</ele>
        <time>2026-04-02T10:12:02.630Z</time>
      </trkpt>
      <trkpt lat="44.1293" lon="3.24093">
        <ele>634.44</ele>
        <time>2026-04-02T10:12:08.219Z</time>
      </trkpt>
      <trkpt lat="44.12936" lon="3.24094">
        <ele>634.6</ele>
        <time>2026-04-02T10:12:13.226Z</time>
      </trkpt>
      <trkpt lat="44.12941" lon="3.24099">
        <ele>634.39</ele>
        <time>2026-04-02T10:12:18.400Z</time>
      </trkpt>
      <trkpt lat="44.12945" lon="3.24107">
        <ele>634.29</ele>
        <time>2026-04-02T10:12:23.729Z</time>
      </trkpt>
      <trkpt lat="44.12946" lon="3.24111">
        <ele>632.79</ele>
        <time>2026-04-02T10:12:28.744Z</time>
      </trkpt>
      <trkpt lat="44.12942" lon="3.24115">
        <ele>632.71</ele>
        <time>2026-04-02T10:12:33.759Z</time>
      </trkpt>
      <trkpt lat="44.12934" lon="3.24117">
        <ele>632.44</ele>
        <time>2026-04-02T10:12:39.526Z</time>
      </trkpt>
      <trkpt lat="44.12927" lon="3.24119">
        <ele>631.76</ele>
        <time>2026-04-02T10:12:44.750Z</time>
      </trkpt>
      <trkpt lat="44.12923" lon="3.24125">
        <ele>631.6</ele>
        <time>2026-04-02T10:12:50.204Z</time>
      </trkpt>
      <trkpt lat="44.12924" lon="3.24131">
        <ele>631.97</ele>
        <time>2026-04-02T10:12:55.740Z</time>
      </trkpt>
      <trkpt lat="44.12924" lon="3.24139">
        <ele>633.48</ele>
        <time>2026-04-02T10:13:00.754Z</time>
      </trkpt>
      <trkpt lat="44.12922" lon="3.24147">
        <ele>633.96</ele>
        <time>2026-04-02T10:13:05.860Z</time>
      </trkpt>
      <trkpt lat="44.12921" lon="3.24155">
        <ele>633.95</ele>
        <time>2026-04-02T10:13:11.024Z</time>
      </trkpt>
      <trkpt lat="44.1292" lon="3.24166">
        <ele>634.47</ele>
        <time>2026-04-02T10:13:16.558Z</time>
      </trkpt>
      <trkpt lat="44.12919" lon="3.24174">
        <ele>634.82</ele>
        <time>2026-04-02T10:13:21.801Z</time>
      </trkpt>
      <trkpt lat="44.12919" lon="3.24182">
        <ele>634.14</ele>
        <time>2026-04-02T10:13:26.815Z</time>
      </trkpt>
      <trkpt lat="44.12917" lon="3.24188">
        <ele>634.57</ele>
        <time>2026-04-02T10:13:32.199Z</time>
      </trkpt>
      <trkpt lat="44.12915" lon="3.24197">
        <ele>634.2</ele>
        <time>2026-04-02T10:13:37.806Z</time>
      </trkpt>
      <trkpt lat="44.12913" lon="3.24206">
        <ele>634.29</ele>
        <time>2026-04-02T10:13:42.821Z</time>
      </trkpt>
      <trkpt lat="44.12912" lon="3.24216">
        <ele>634.83</ele>
        <time>2026-04-02T10:13:48.240Z</time>
      </trkpt>
      <trkpt lat="44.12909" lon="3.24226">
        <ele>635.12</ele>
        <time>2026-04-02T10:13:53.361Z</time>
      </trkpt>
      <trkpt lat="44.12908" lon="3.24234">
        <ele>634.91</ele>
        <time>2026-04-02T10:13:58.723Z</time>
      </trkpt>
      <trkpt lat="44.12908" lon="3.24245">
        <ele>634.71</ele>
        <time>2026-04-02T10:14:04.066Z</time>
      </trkpt>
      <trkpt lat="44.12906" lon="3.24254">
        <ele>634.46</ele>
        <time>2026-04-02T10:14:09.224Z</time>
      </trkpt>
      <trkpt lat="44.12907" lon="3.24262">
        <ele>635.01</ele>
        <time>2026-04-02T10:14:14.830Z</time>
      </trkpt>
      <trkpt lat="44.12906" lon="3.24269">
        <ele>634.21</ele>
        <time>2026-04-02T10:14:20.699Z</time>
      </trkpt>
      <trkpt lat="44.12907" lon="3.24267">
        <ele>634.04</ele>
        <time>2026-04-02T10:14:26.679Z</time>
      </trkpt>
      <trkpt lat="44.12911" lon="3.24279">
        <ele>635.09</ele>
        <time>2026-04-02T10:14:31.693Z</time>
      </trkpt>
      <trkpt lat="44.12913" lon="3.24291">
        <ele>636.16</ele>
        <time>2026-04-02T10:14:36.709Z</time>
      </trkpt>
      <trkpt lat="44.12914" lon="3.24297">
        <ele>636.29</ele>
        <time>2026-04-02T10:14:41.724Z</time>
      </trkpt>
      <trkpt lat="44.12915" lon="3.24295">
        <ele>636.33</ele>
        <time>2026-04-02T10:14:46.762Z</time>
      </trkpt>
      <trkpt lat="44.12919" lon="3.24303">
        <ele>638.79</ele>
        <time>2026-04-02T10:14:51.777Z</time>
      </trkpt>
      <trkpt lat="44.12926" lon="3.24314">
        <ele>639.87</ele>
        <time>2026-04-02T10:14:57.746Z</time>
      </trkpt>
      <trkpt lat="44.12931" lon="3.2432">
        <ele>639.03</ele>
        <time>2026-04-02T10:15:03.413Z</time>
      </trkpt>
      <trkpt lat="44.12937" lon="3.24327">
        <ele>639.9</ele>
        <time>2026-04-02T10:15:08.428Z</time>
      </trkpt>
      <trkpt lat="44.12942" lon="3.24332">
        <ele>639.9</ele>
        <time>2026-04-02T10:15:13.453Z</time>
      </trkpt>
      <trkpt lat="44.12948" lon="3.24338">
        <ele>640.6</ele>
        <time>2026-04-02T10:15:18.774Z</time>
      </trkpt>
      <trkpt lat="44.12953" lon="3.24344">
        <ele>641.1</ele>
        <time>2026-04-02T10:15:24.408Z</time>
      </trkpt>
      <trkpt lat="44.12957" lon="3.24352">
        <ele>642.85</ele>
        <time>2026-04-02T10:15:29.751Z</time>
      </trkpt>
      <trkpt lat="44.1296" lon="3.24359">
        <ele>643.81</ele>
        <time>2026-04-02T10:15:34.780Z</time>
      </trkpt>
      <trkpt lat="44.12965" lon="3.24365">
        <ele>644.01</ele>
        <time>2026-04-02T10:15:39.795Z</time>
      </trkpt>
      <trkpt lat="44.12971" lon="3.2437">
        <ele>644.57</ele>
        <time>2026-04-02T10:15:45.687Z</time>
      </trkpt>
      <trkpt lat="44.12979" lon="3.24372">
        <ele>646.07</ele>
        <time>2026-04-02T10:15:51.670Z</time>
      </trkpt>
      <trkpt lat="44.12989" lon="3.24374">
        <ele>646.84</ele>
        <time>2026-04-02T10:15:57.773Z</time>
      </trkpt>
      <trkpt lat="44.12992" lon="3.24375">
        <ele>647</ele>
        <time>2026-04-02T10:16:03.813Z</time>
      </trkpt>
      <trkpt lat="44.1299" lon="3.24374">
        <ele>646.23</ele>
        <time>2026-04-02T10:16:09.682Z</time>
      </trkpt>
      <trkpt lat="44.12991" lon="3.24373">
        <ele>645.99</ele>
        <time>2026-04-02T10:16:18.629Z</time>
      </trkpt>
      <trkpt lat="44.12998" lon="3.24369">
        <ele>646.28</ele>
        <time>2026-04-02T10:16:23.766Z</time>
      </trkpt>
      <trkpt lat="44.13" lon="3.24372">
        <ele>647.98</ele>
        <time>2026-04-02T10:16:28.783Z</time>
      </trkpt>
      <trkpt lat="44.13" lon="3.2437">
        <ele>647.73</ele>
        <time>2026-04-02T10:16:33.798Z</time>
      </trkpt>
      <trkpt lat="44.12999" lon="3.2437">
        <ele>647</ele>
        <time>2026-04-02T10:16:39.774Z</time>
      </trkpt>
      <trkpt lat="44.13" lon="3.24371">
        <ele>646.78</ele>
        <time>2026-04-02T10:16:45.750Z</time>
      </trkpt>
      <trkpt lat="44.13008" lon="3.24375">
        <ele>647.01</ele>
        <time>2026-04-02T10:16:51.524Z</time>
      </trkpt>
      <trkpt lat="44.13009" lon="3.24383">
        <ele>647.8</ele>
        <time>2026-04-02T10:16:56.566Z</time>
      </trkpt>
      <trkpt lat="44.13003" lon="3.24391">
        <ele>648.86</ele>
        <time>2026-04-02T10:17:02.569Z</time>
      </trkpt>
      <trkpt lat="44.12996" lon="3.24399">
        <ele>649.21</ele>
        <time>2026-04-02T10:17:08.695Z</time>
      </trkpt>
      <trkpt lat="44.12997" lon="3.24401">
        <ele>650.45</ele>
        <time>2026-04-02T10:17:13.711Z</time>
      </trkpt>
      <trkpt lat="44.12998" lon="3.24402">
        <ele>650.25</ele>
        <time>2026-04-02T10:17:18.727Z</time>
      </trkpt>
      <trkpt lat="44.12995" lon="3.24405">
        <ele>652.15</ele>
        <time>2026-04-02T10:17:23.743Z</time>
      </trkpt>
      <trkpt lat="44.12994" lon="3.24407">
        <ele>651.86</ele>
        <time>2026-04-02T10:17:29.718Z</time>
      </trkpt>
      <trkpt lat="44.1299" lon="3.24411">
        <ele>651.23</ele>
        <time>2026-04-02T10:17:34.735Z</time>
      </trkpt>
      <trkpt lat="44.1299" lon="3.24412">
        <ele>651.52</ele>
        <time>2026-04-02T10:17:39.751Z</time>
      </trkpt>
      <trkpt lat="44.12989" lon="3.24413">
        <ele>651.55</ele>
        <time>2026-04-02T10:17:44.794Z</time>
      </trkpt>
      <trkpt lat="44.12977" lon="3.24425">
        <ele>652.28</ele>
        <time>2026-04-02T10:17:50.483Z</time>
      </trkpt>
      <trkpt lat="44.12961" lon="3.24429">
        <ele>653.74</ele>
        <time>2026-04-02T10:17:55.779Z</time>
      </trkpt>
      <trkpt lat="44.12947" lon="3.24443">
        <ele>655.14</ele>
        <time>2026-04-02T10:18:01.360Z</time>
      </trkpt>
      <trkpt lat="44.12939" lon="3.24458">
        <ele>655.52</ele>
        <time>2026-04-02T10:18:06.703Z</time>
      </trkpt>
      <trkpt lat="44.12936" lon="3.24467">
        <ele>656.48</ele>
        <time>2026-04-02T10:18:11.794Z</time>
      </trkpt>
      <trkpt lat="44.12932" lon="3.24471">
        <ele>656.77</ele>
        <time>2026-04-02T10:18:17.197Z</time>
      </trkpt>
      <trkpt lat="44.1293" lon="3.24475">
        <ele>656.17</ele>
        <time>2026-04-02T10:18:22.658Z</time>
      </trkpt>
      <trkpt lat="44.12925" lon="3.24474">
        <ele>657.27</ele>
        <time>2026-04-02T10:18:27.803Z</time>
      </trkpt>
      <trkpt lat="44.12923" lon="3.24473">
        <ele>656.87</ele>
        <time>2026-04-02T10:18:32.819Z</time>
      </trkpt>
      <trkpt lat="44.12924" lon="3.24472">
        <ele>656.47</ele>
        <time>2026-04-02T10:18:38.697Z</time>
      </trkpt>
      <trkpt lat="44.12924" lon="3.24471">
        <ele>657.57</ele>
        <time>2026-04-02T10:18:43.729Z</time>
      </trkpt>
      <trkpt lat="44.12924" lon="3.24472">
        <ele>657.03</ele>
        <time>2026-04-02T10:18:52.695Z</time>
      </trkpt>
      <trkpt lat="44.12923" lon="3.24472">
        <ele>656.52</ele>
        <time>2026-04-02T10:18:57.710Z</time>
      </trkpt>
      <trkpt lat="44.12922" lon="3.24472">
        <ele>656.54</ele>
        <time>2026-04-02T10:19:05.714Z</time>
      </trkpt>
      <trkpt lat="44.12921" lon="3.24472">
        <ele>656.01</ele>
        <time>2026-04-02T10:19:30.793Z</time>
      </trkpt>
      <trkpt lat="44.1292" lon="3.24471">
        <ele>657.38</ele>
        <time>2026-04-02T10:19:44.633Z</time>
      </trkpt>
      <trkpt lat="44.1292" lon="3.2447">
        <ele>657.4</ele>
        <time>2026-04-02T10:19:54.803Z</time>
      </trkpt>
      <trkpt lat="44.12921" lon="3.2447">
        <ele>656.78</ele>
        <time>2026-04-02T10:20:12.733Z</time>
      </trkpt>
      <trkpt lat="44.12921" lon="3.24471">
        <ele>657.03</ele>
        <time>2026-04-02T10:20:24.650Z</time>
      </trkpt>
      <trkpt lat="44.12921" lon="3.2447">
        <ele>656.72</ele>
        <time>2026-04-02T10:21:37.785Z</time>
      </trkpt>
      <trkpt lat="44.1292" lon="3.2447">
        <ele>657.49</ele>
        <time>2026-04-02T10:22:16.735Z</time>
      </trkpt>
      <trkpt lat="44.12919" lon="3.24471">
        <ele>657.18</ele>
        <time>2026-04-02T10:22:36.796Z</time>
      </trkpt>
      <trkpt lat="44.12912" lon="3.24474">
        <ele>658.08</ele>
        <time>2026-04-02T10:22:41.851Z</time>
      </trkpt>
      <trkpt lat="44.12906" lon="3.24473">
        <ele>657.06</ele>
        <time>2026-04-02T10:22:47.789Z</time>
      </trkpt>
      <trkpt lat="44.12898" lon="3.24471">
        <ele>657.02</ele>
        <time>2026-04-02T10:22:52.814Z</time>
      </trkpt>
      <trkpt lat="44.12893" lon="3.24476">
        <ele>656.52</ele>
        <time>2026-04-02T10:22:58.780Z</time>
      </trkpt>
      <trkpt lat="44.12891" lon="3.24482">
        <ele>656.7</ele>
        <time>2026-04-02T10:23:04.755Z</time>
      </trkpt>
      <trkpt lat="44.12891" lon="3.24481">
        <ele>657.33</ele>
        <time>2026-04-02T10:23:09.767Z</time>
      </trkpt>
      <trkpt lat="44.1289" lon="3.2448">
        <ele>657.65</ele>
        <time>2026-04-02T10:23:14.783Z</time>
      </trkpt>
      <trkpt lat="44.12888" lon="3.2448">
        <ele>656.75</ele>
        <time>2026-04-02T10:23:22.786Z</time>
      </trkpt>
      <trkpt lat="44.12885" lon="3.24485">
        <ele>656.37</ele>
        <time>2026-04-02T10:23:28.413Z</time>
      </trkpt>
      <trkpt lat="44.12877" lon="3.24484">
        <ele>657.02</ele>
        <time>2026-04-02T10:23:33.778Z</time>
      </trkpt>
      <trkpt lat="44.1287" lon="3.24485">
        <ele>658.16</ele>
        <time>2026-04-02T10:23:38.794Z</time>
      </trkpt>
      <trkpt lat="44.12869" lon="3.24489">
        <ele>659.75</ele>
        <time>2026-04-02T10:23:44.770Z</time>
      </trkpt>
      <trkpt lat="44.12868" lon="3.2449">
        <ele>659.63</ele>
        <time>2026-04-02T10:23:54.450Z</time>
      </trkpt>
      <trkpt lat="44.12861" lon="3.24497">
        <ele>657.24</ele>
        <time>2026-04-02T10:23:59.709Z</time>
      </trkpt>
      <trkpt lat="44.12856" lon="3.24498">
        <ele>658.78</ele>
        <time>2026-04-02T10:24:04.725Z</time>
      </trkpt>
      <trkpt lat="44.12854" lon="3.24502">
        <ele>658.3</ele>
        <time>2026-04-02T10:24:10.808Z</time>
      </trkpt>
      <trkpt lat="44.12851" lon="3.24504">
        <ele>658.17</ele>
        <time>2026-04-02T10:24:16.786Z</time>
      </trkpt>
      <trkpt lat="44.12852" lon="3.24505">
        <ele>656.98</ele>
        <time>2026-04-02T10:24:23.723Z</time>
      </trkpt>
      <trkpt lat="44.12851" lon="3.24505">
        <ele>659.04</ele>
        <time>2026-04-02T10:24:37.622Z</time>
      </trkpt>
      <trkpt lat="44.12848" lon="3.24515">
        <ele>658.18</ele>
        <time>2026-04-02T10:24:43.081Z</time>
      </trkpt>
      <trkpt lat="44.12844" lon="3.24526">
        <ele>657.57</ele>
        <time>2026-04-02T10:24:48.447Z</time>
      </trkpt>
      <trkpt lat="44.12841" lon="3.24533">
        <ele>657.37</ele>
        <time>2026-04-02T10:24:53.822Z</time>
      </trkpt>
      <trkpt lat="44.12842" lon="3.24536">
        <ele>657.22</ele>
        <time>2026-04-02T10:24:59.705Z</time>
      </trkpt>
      <trkpt lat="44.12841" lon="3.24533">
        <ele>658.1</ele>
        <time>2026-04-02T10:25:05.770Z</time>
      </trkpt>
      <trkpt lat="44.12839" lon="3.24532">
        <ele>657.86</ele>
        <time>2026-04-02T10:25:10.786Z</time>
      </trkpt>
      <trkpt lat="44.1284" lon="3.24532">
        <ele>655.75</ele>
        <time>2026-04-02T10:25:22.739Z</time>
      </trkpt>
      <trkpt lat="44.12839" lon="3.2454">
        <ele>655.65</ele>
        <time>2026-04-02T10:25:27.754Z</time>
      </trkpt>
      <trkpt lat="44.12838" lon="3.24546">
        <ele>656.48</ele>
        <time>2026-04-02T10:25:33.731Z</time>
      </trkpt>
      <trkpt lat="44.12835" lon="3.24551">
        <ele>656.42</ele>
        <time>2026-04-02T10:25:38.747Z</time>
      </trkpt>
      <trkpt lat="44.12832" lon="3.24551">
        <ele>656.67</ele>
        <time>2026-04-02T10:25:43.762Z</time>
      </trkpt>
      <trkpt lat="44.12832" lon="3.24558">
        <ele>655.98</ele>
        <time>2026-04-02T10:25:49.163Z</time>
      </trkpt>
      <trkpt lat="44.12832" lon="3.24568">
        <ele>655.3</ele>
        <time>2026-04-02T10:25:54.756Z</time>
      </trkpt>
      <trkpt lat="44.12832" lon="3.24577">
        <ele>656.48</ele>
        <time>2026-04-02T10:25:59.771Z</time>
      </trkpt>
      <trkpt lat="44.1283" lon="3.24586">
        <ele>656.18</ele>
        <time>2026-04-02T10:26:04.788Z</time>
      </trkpt>
      <trkpt lat="44.12831" lon="3.24597">
        <ele>655.6</ele>
        <time>2026-04-02T10:26:10.308Z</time>
      </trkpt>
      <trkpt lat="44.12831" lon="3.24605">
        <ele>655.49</ele>
        <time>2026-04-02T10:26:15.681Z</time>
      </trkpt>
      <trkpt lat="44.12832" lon="3.24613">
        <ele>657.09</ele>
        <time>2026-04-02T10:26:20.695Z</time>
      </trkpt>
      <trkpt lat="44.12832" lon="3.24622">
        <ele>657.2</ele>
        <time>2026-04-02T10:26:26.203Z</time>
      </trkpt>
      <trkpt lat="44.12832" lon="3.2463">
        <ele>656.43</ele>
        <time>2026-04-02T10:26:31.688Z</time>
      </trkpt>
      <trkpt lat="44.12832" lon="3.24638">
        <ele>656.78</ele>
        <time>2026-04-02T10:26:36.811Z</time>
      </trkpt>
      <trkpt lat="44.12834" lon="3.24649">
        <ele>656.79</ele>
        <time>2026-04-02T10:26:42.738Z</time>
      </trkpt>
      <trkpt lat="44.12834" lon="3.24662">
        <ele>657.45</ele>
        <time>2026-04-02T10:26:48.360Z</time>
      </trkpt>
      <trkpt lat="44.12841" lon="3.24672">
        <ele>656.58</ele>
        <time>2026-04-02T10:26:54.397Z</time>
      </trkpt>
      <trkpt lat="44.12846" lon="3.24681">
        <ele>656.19</ele>
        <time>2026-04-02T10:26:59.778Z</time>
      </trkpt>
      <trkpt lat="44.12851" lon="3.24688">
        <ele>655.04</ele>
        <time>2026-04-02T10:27:05.364Z</time>
      </trkpt>
      <trkpt lat="44.12858" lon="3.24691">
        <ele>655.37</ele>
        <time>2026-04-02T10:27:10.638Z</time>
      </trkpt>
      <trkpt lat="44.12863" lon="3.24696">
        <ele>655.57</ele>
        <time>2026-04-02T10:27:15.660Z</time>
      </trkpt>
      <trkpt lat="44.12869" lon="3.24702">
        <ele>654.93</ele>
        <time>2026-04-02T10:27:21.448Z</time>
      </trkpt>
      <trkpt lat="44.12876" lon="3.24706">
        <ele>654.24</ele>
        <time>2026-04-02T10:27:26.556Z</time>
      </trkpt>
      <trkpt lat="44.12884" lon="3.24713">
        <ele>653.72</ele>
        <time>2026-04-02T10:27:31.597Z</time>
      </trkpt>
      <trkpt lat="44.12887" lon="3.24724">
        <ele>653.55</ele>
        <time>2026-04-02T10:27:36.721Z</time>
      </trkpt>
      <trkpt lat="44.12884" lon="3.24735">
        <ele>653.33</ele>
        <time>2026-04-02T10:27:41.804Z</time>
      </trkpt>
      <trkpt lat="44.12879" lon="3.24744">
        <ele>652.45</ele>
        <time>2026-04-02T10:27:47.145Z</time>
      </trkpt>
      <trkpt lat="44.12873" lon="3.24748">
        <ele>652.87</ele>
        <time>2026-04-02T10:27:52.400Z</time>
      </trkpt>
      <trkpt lat="44.12868" lon="3.24756">
        <ele>654.37</ele>
        <time>2026-04-02T10:27:57.762Z</time>
      </trkpt>
      <trkpt lat="44.12863" lon="3.24767">
        <ele>654.94</ele>
        <time>2026-04-02T10:28:03.788Z</time>
      </trkpt>
      <trkpt lat="44.12863" lon="3.24778">
        <ele>656.01</ele>
        <time>2026-04-02T10:28:09.660Z</time>
      </trkpt>
      <trkpt lat="44.1286" lon="3.24784">
        <ele>655.81</ele>
        <time>2026-04-02T10:28:14.701Z</time>
      </trkpt>
      <trkpt lat="44.12853" lon="3.2479">
        <ele>654.12</ele>
        <time>2026-04-02T10:28:19.780Z</time>
      </trkpt>
      <trkpt lat="44.12845" lon="3.24795">
        <ele>655.28</ele>
        <time>2026-04-02T10:28:25.265Z</time>
      </trkpt>
      <trkpt lat="44.12837" lon="3.248">
        <ele>654.97</ele>
        <time>2026-04-02T10:28:30.786Z</time>
      </trkpt>
      <trkpt lat="44.12831" lon="3.24803">
        <ele>656.36</ele>
        <time>2026-04-02T10:28:36.180Z</time>
      </trkpt>
      <trkpt lat="44.12824" lon="3.24806">
        <ele>659.63</ele>
        <time>2026-04-02T10:28:41.719Z</time>
      </trkpt>
      <trkpt lat="44.12819" lon="3.24808">
        <ele>658.85</ele>
        <time>2026-04-02T10:28:46.819Z</time>
      </trkpt>
      <trkpt lat="44.12812" lon="3.24809">
        <ele>659.47</ele>
        <time>2026-04-02T10:28:52.996Z</time>
      </trkpt>
      <trkpt lat="44.12805" lon="3.24809">
        <ele>661.42</ele>
        <time>2026-04-02T10:28:58.644Z</time>
      </trkpt>
      <trkpt lat="44.128" lon="3.24808">
        <ele>660.5</ele>
        <time>2026-04-02T10:29:03.761Z</time>
      </trkpt>
      <trkpt lat="44.12801" lon="3.24809">
        <ele>659.69</ele>
        <time>2026-04-02T10:29:08.778Z</time>
      </trkpt>
      <trkpt lat="44.12802" lon="3.2481">
        <ele>659.04</ele>
        <time>2026-04-02T10:29:21.796Z</time>
      </trkpt>
      <trkpt lat="44.12802" lon="3.24811">
        <ele>659.52</ele>
        <time>2026-04-02T10:29:32.685Z</time>
      </trkpt>
      <trkpt lat="44.12796" lon="3.24814">
        <ele>658.48</ele>
        <time>2026-04-02T10:29:37.804Z</time>
      </trkpt>
      <trkpt lat="44.12786" lon="3.24815">
        <ele>657.72</ele>
        <time>2026-04-02T10:29:43.625Z</time>
      </trkpt>
      <trkpt lat="44.12777" lon="3.24815">
        <ele>660.82</ele>
        <time>2026-04-02T10:29:49.555Z</time>
      </trkpt>
      <trkpt lat="44.1277" lon="3.24813">
        <ele>661.66</ele>
        <time>2026-04-02T10:29:54.772Z</time>
      </trkpt>
      <trkpt lat="44.1277" lon="3.24814">
        <ele>663.27</ele>
        <time>2026-04-02T10:30:04.697Z</time>
      </trkpt>
      <trkpt lat="44.12769" lon="3.24813">
        <ele>660.68</ele>
        <time>2026-04-02T10:30:29.775Z</time>
      </trkpt>
      <trkpt lat="44.12762" lon="3.2481">
        <ele>660.8</ele>
        <time>2026-04-02T10:30:35.078Z</time>
      </trkpt>
      <trkpt lat="44.12757" lon="3.24806">
        <ele>659.43</ele>
        <time>2026-04-02T10:30:40.422Z</time>
      </trkpt>
      <trkpt lat="44.12751" lon="3.24802">
        <ele>658.75</ele>
        <time>2026-04-02T10:30:45.782Z</time>
      </trkpt>
      <trkpt lat="44.12744" lon="3.24801">
        <ele>660.62</ele>
        <time>2026-04-02T10:30:51.440Z</time>
      </trkpt>
      <trkpt lat="44.12736" lon="3.24802">
        <ele>659.85</ele>
        <time>2026-04-02T10:30:56.774Z</time>
      </trkpt>
      <trkpt lat="44.12729" lon="3.24799">
        <ele>656.94</ele>
        <time>2026-04-02T10:31:02.540Z</time>
      </trkpt>
      <trkpt lat="44.12724" lon="3.24793">
        <ele>655.63</ele>
        <time>2026-04-02T10:31:07.956Z</time>
      </trkpt>
      <trkpt lat="44.12722" lon="3.24786">
        <ele>656.23</ele>
        <time>2026-04-02T10:31:13.602Z</time>
      </trkpt>
      <trkpt lat="44.12717" lon="3.2478">
        <ele>654.11</ele>
        <time>2026-04-02T10:31:19.437Z</time>
      </trkpt>
      <trkpt lat="44.12711" lon="3.24776">
        <ele>653.5</ele>
        <time>2026-04-02T10:31:24.544Z</time>
      </trkpt>
      <trkpt lat="44.12706" lon="3.24771">
        <ele>654.49</ele>
        <time>2026-04-02T10:31:29.750Z</time>
      </trkpt>
      <trkpt lat="44.12701" lon="3.24768">
        <ele>653.9</ele>
        <time>2026-04-02T10:31:34.838Z</time>
      </trkpt>
      <trkpt lat="44.12694" lon="3.24762">
        <ele>651.7</ele>
        <time>2026-04-02T10:31:40.841Z</time>
      </trkpt>
      <trkpt lat="44.12689" lon="3.24755">
        <ele>650.67</ele>
        <time>2026-04-02T10:31:46.259Z</time>
      </trkpt>
      <trkpt lat="44.12685" lon="3.24751">
        <ele>649.97</ele>
        <time>2026-04-02T10:31:51.674Z</time>
      </trkpt>
      <trkpt lat="44.12679" lon="3.24747">
        <ele>649.65</ele>
        <time>2026-04-02T10:31:56.748Z</time>
      </trkpt>
      <trkpt lat="44.12671" lon="3.24744">
        <ele>649.26</ele>
        <time>2026-04-02T10:32:02.434Z</time>
      </trkpt>
      <trkpt lat="44.12666" lon="3.24739">
        <ele>648.4</ele>
        <time>2026-04-02T10:32:07.752Z</time>
      </trkpt>
      <trkpt lat="44.12662" lon="3.24735">
        <ele>647.19</ele>
        <time>2026-04-02T10:32:12.753Z</time>
      </trkpt>
      <trkpt lat="44.12655" lon="3.24732">
        <ele>646.54</ele>
        <time>2026-04-02T10:32:17.770Z</time>
      </trkpt>
      <trkpt lat="44.12652" lon="3.24724">
        <ele>646.06</ele>
        <time>2026-04-02T10:32:22.785Z</time>
      </trkpt>
      <trkpt lat="44.12647" lon="3.24715">
        <ele>645.26</ele>
        <time>2026-04-02T10:32:28.773Z</time>
      </trkpt>
      <trkpt lat="44.12644" lon="3.24708">
        <ele>643.2</ele>
        <time>2026-04-02T10:32:33.775Z</time>
      </trkpt>
      <trkpt lat="44.12639" lon="3.24699">
        <ele>641.76</ele>
        <time>2026-04-02T10:32:39.757Z</time>
      </trkpt>
      <trkpt lat="44.12633" lon="3.24691">
        <ele>640.53</ele>
        <time>2026-04-02T10:32:45.055Z</time>
      </trkpt>
      <trkpt lat="44.12628" lon="3.24682">
        <ele>640.73</ele>
        <time>2026-04-02T10:32:50.470Z</time>
      </trkpt>
      <trkpt lat="44.12624" lon="3.24675">
        <ele>640.5</ele>
        <time>2026-04-02T10:32:55.831Z</time>
      </trkpt>
      <trkpt lat="44.12617" lon="3.24669">
        <ele>639.94</ele>
        <time>2026-04-02T10:33:01.531Z</time>
      </trkpt>
      <trkpt lat="44.12613" lon="3.24661">
        <ele>638.95</ele>
        <time>2026-04-02T10:33:06.656Z</time>
      </trkpt>
      <trkpt lat="44.12608" lon="3.24654">
        <ele>638.33</ele>
        <time>2026-04-02T10:33:12.082Z</time>
      </trkpt>
      <trkpt lat="44.12604" lon="3.24647">
        <ele>638.01</ele>
        <time>2026-04-02T10:33:17.414Z</time>
      </trkpt>
      <trkpt lat="44.12598" lon="3.2464">
        <ele>638.24</ele>
        <time>2026-04-02T10:33:22.792Z</time>
      </trkpt>
      <trkpt lat="44.12592" lon="3.24633">
        <ele>638.06</ele>
        <time>2026-04-02T10:33:28.556Z</time>
      </trkpt>
      <trkpt lat="44.12588" lon="3.24628">
        <ele>637.1</ele>
        <time>2026-04-02T10:33:33.579Z</time>
      </trkpt>
      <trkpt lat="44.12581" lon="3.24622">
        <ele>635.89</ele>
        <time>2026-04-02T10:33:39.055Z</time>
      </trkpt>
      <trkpt lat="44.12576" lon="3.24616">
        <ele>635.71</ele>
        <time>2026-04-02T10:33:44.579Z</time>
      </trkpt>
      <trkpt lat="44.12569" lon="3.24609">
        <ele>635.49</ele>
        <time>2026-04-02T10:33:50.018Z</time>
      </trkpt>
      <trkpt lat="44.12564" lon="3.24602">
        <ele>635.04</ele>
        <time>2026-04-02T10:33:55.675Z</time>
      </trkpt>
      <trkpt lat="44.1256" lon="3.24598">
        <ele>634.41</ele>
        <time>2026-04-02T10:34:00.733Z</time>
      </trkpt>
      <trkpt lat="44.12556" lon="3.24598">
        <ele>634.66</ele>
        <time>2026-04-02T10:34:05.755Z</time>
      </trkpt>
      <trkpt lat="44.1255" lon="3.24592">
        <ele>634.81</ele>
        <time>2026-04-02T10:34:11.730Z</time>
      </trkpt>
      <trkpt lat="44.12543" lon="3.2459">
        <ele>633.95</ele>
        <time>2026-04-02T10:34:17.221Z</time>
      </trkpt>
      <trkpt lat="44.12538" lon="3.24592">
        <ele>633.34</ele>
        <time>2026-04-02T10:34:22.827Z</time>
      </trkpt>
      <trkpt lat="44.12538" lon="3.24593">
        <ele>633.97</ele>
        <time>2026-04-02T10:34:29.613Z</time>
      </trkpt>
      <trkpt lat="44.12538" lon="3.24594">
        <ele>634.23</ele>
        <time>2026-04-02T10:34:50.840Z</time>
      </trkpt>
      <trkpt lat="44.12538" lon="3.24595">
        <ele>634.32</ele>
        <time>2026-04-02T10:34:56.757Z</time>
      </trkpt>
      <trkpt lat="44.12537" lon="3.24596">
        <ele>635.23</ele>
        <time>2026-04-02T10:35:04.867Z</time>
      </trkpt>
      <trkpt lat="44.12536" lon="3.24597">
        <ele>634.72</ele>
        <time>2026-04-02T10:35:10.736Z</time>
      </trkpt>
      <trkpt lat="44.12535" lon="3.24597">
        <ele>633.87</ele>
        <time>2026-04-02T10:35:18.738Z</time>
      </trkpt>
      <trkpt lat="44.12534" lon="3.24597">
        <ele>632.8</ele>
        <time>2026-04-02T10:35:30.795Z</time>
      </trkpt>
      <trkpt lat="44.12533" lon="3.24598">
        <ele>632.69</ele>
        <time>2026-04-02T10:35:39.320Z</time>
      </trkpt>
      <trkpt lat="44.12526" lon="3.24607">
        <ele>634.24</ele>
        <time>2026-04-02T10:35:44.377Z</time>
      </trkpt>
      <trkpt lat="44.12519" lon="3.24615">
        <ele>635</ele>
        <time>2026-04-02T10:35:49.788Z</time>
      </trkpt>
      <trkpt lat="44.12512" lon="3.24623">
        <ele>635.09</ele>
        <time>2026-04-02T10:35:54.803Z</time>
      </trkpt>
      <trkpt lat="44.12507" lon="3.24628">
        <ele>635.01</ele>
        <time>2026-04-02T10:35:59.818Z</time>
      </trkpt>
      <trkpt lat="44.12507" lon="3.24635">
        <ele>635.18</ele>
        <time>2026-04-02T10:36:05.374Z</time>
      </trkpt>
      <trkpt lat="44.12508" lon="3.2464">
        <ele>637.89</ele>
        <time>2026-04-02T10:36:10.816Z</time>
      </trkpt>
      <trkpt lat="44.12509" lon="3.24642">
        <ele>639.15</ele>
        <time>2026-04-02T10:36:16.565Z</time>
      </trkpt>
      <trkpt lat="44.12511" lon="3.24645">
        <ele>640.6</ele>
        <time>2026-04-02T10:36:22.770Z</time>
      </trkpt>
      <trkpt lat="44.12508" lon="3.24649">
        <ele>642.53</ele>
        <time>2026-04-02T10:36:27.988Z</time>
      </trkpt>
      <trkpt lat="44.12506" lon="3.24655">
        <ele>642.62</ele>
        <time>2026-04-02T10:36:33.756Z</time>
      </trkpt>
      <trkpt lat="44.12505" lon="3.24662">
        <ele>643.42</ele>
        <time>2026-04-02T10:36:38.811Z</time>
      </trkpt>
      <trkpt lat="44.12505" lon="3.24671">
        <ele>645.18</ele>
        <time>2026-04-02T10:36:44.745Z</time>
      </trkpt>
      <trkpt lat="44.12504" lon="3.24675">
        <ele>645.5</ele>
        <time>2026-04-02T10:36:50.130Z</time>
      </trkpt>
      <trkpt lat="44.12501" lon="3.24681">
        <ele>645.78</ele>
        <time>2026-04-02T10:36:55.410Z</time>
      </trkpt>
      <trkpt lat="44.12496" lon="3.24687">
        <ele>645.73</ele>
        <time>2026-04-02T10:37:00.857Z</time>
      </trkpt>
      <trkpt lat="44.12491" lon="3.24693">
        <ele>645.53</ele>
        <time>2026-04-02T10:37:06.330Z</time>
      </trkpt>
      <trkpt lat="44.12489" lon="3.24701">
        <ele>645.37</ele>
        <time>2026-04-02T10:37:11.559Z</time>
      </trkpt>
      <trkpt lat="44.12487" lon="3.2471">
        <ele>645.36</ele>
        <time>2026-04-02T10:37:17.035Z</time>
      </trkpt>
      <trkpt lat="44.12486" lon="3.24719">
        <ele>645.76</ele>
        <time>2026-04-02T10:37:22.812Z</time>
      </trkpt>
      <trkpt lat="44.12486" lon="3.24727">
        <ele>646.87</ele>
        <time>2026-04-02T10:37:28.247Z</time>
      </trkpt>
      <trkpt lat="44.12485" lon="3.24733">
        <ele>647.87</ele>
        <time>2026-04-02T10:37:33.271Z</time>
      </trkpt>
      <trkpt lat="44.12485" lon="3.2474">
        <ele>649.7</ele>
        <time>2026-04-02T10:37:38.431Z</time>
      </trkpt>
      <trkpt lat="44.12484" lon="3.24748">
        <ele>650.34</ele>
        <time>2026-04-02T10:37:43.750Z</time>
      </trkpt>
      <trkpt lat="44.1248" lon="3.24753">
        <ele>650.66</ele>
        <time>2026-04-02T10:37:49.104Z</time>
      </trkpt>
      <trkpt lat="44.12477" lon="3.24757">
        <ele>651.47</ele>
        <time>2026-04-02T10:37:54.127Z</time>
      </trkpt>
      <trkpt lat="44.12473" lon="3.24761">
        <ele>651.46</ele>
        <time>2026-04-02T10:37:59.510Z</time>
      </trkpt>
      <trkpt lat="44.12469" lon="3.24763">
        <ele>652.73</ele>
        <time>2026-04-02T10:38:04.770Z</time>
      </trkpt>
      <trkpt lat="44.12465" lon="3.24768">
        <ele>653.89</ele>
        <time>2026-04-02T10:38:09.785Z</time>
      </trkpt>
      <trkpt lat="44.1246" lon="3.24773">
        <ele>653.63</ele>
        <time>2026-04-02T10:38:15.055Z</time>
      </trkpt>
      <trkpt lat="44.12454" lon="3.24779">
        <ele>653.64</ele>
        <time>2026-04-02T10:38:20.591Z</time>
      </trkpt>
      <trkpt lat="44.12447" lon="3.24783">
        <ele>653.17</ele>
        <time>2026-04-02T10:38:25.790Z</time>
      </trkpt>
      <trkpt lat="44.12442" lon="3.24786">
        <ele>651.93</ele>
        <time>2026-04-02T10:38:30.967Z</time>
      </trkpt>
      <trkpt lat="44.12436" lon="3.24786">
        <ele>650.5</ele>
        <time>2026-04-02T10:38:36.779Z</time>
      </trkpt>
      <trkpt lat="44.1243" lon="3.24786">
        <ele>649.88</ele>
        <time>2026-04-02T10:38:41.795Z</time>
      </trkpt>
      <trkpt lat="44.12423" lon="3.24788">
        <ele>647.73</ele>
        <time>2026-04-02T10:38:47.506Z</time>
      </trkpt>
      <trkpt lat="44.12415" lon="3.24789">
        <ele>646.2</ele>
        <time>2026-04-02T10:38:52.860Z</time>
      </trkpt>
      <trkpt lat="44.12407" lon="3.24792">
        <ele>644.68</ele>
        <time>2026-04-02T10:38:58.193Z</time>
      </trkpt>
      <trkpt lat="44.12401" lon="3.24794">
        <ele>643.68</ele>
        <time>2026-04-02T10:39:03.608Z</time>
      </trkpt>
      <trkpt lat="44.12396" lon="3.248">
        <ele>642.88</ele>
        <time>2026-04-02T10:39:08.791Z</time>
      </trkpt>
      <trkpt lat="44.1239" lon="3.24802">
        <ele>641.71</ele>
        <time>2026-04-02T10:39:14.764Z</time>
      </trkpt>
      <trkpt lat="44.12386" lon="3.24803">
        <ele>640.94</ele>
        <time>2026-04-02T10:39:20.740Z</time>
      </trkpt>
      <trkpt lat="44.12388" lon="3.24801">
        <ele>639.58</ele>
        <time>2026-04-02T10:39:25.755Z</time>
      </trkpt>
      <trkpt lat="44.12386" lon="3.24802">
        <ele>639.35</ele>
        <time>2026-04-02T10:39:35.576Z</time>
      </trkpt>
      <trkpt lat="44.12376" lon="3.24805">
        <ele>639.27</ele>
        <time>2026-04-02T10:39:40.652Z</time>
      </trkpt>
      <trkpt lat="44.12367" lon="3.24808">
        <ele>637.1</ele>
        <time>2026-04-02T10:39:46.147Z</time>
      </trkpt>
      <trkpt lat="44.12363" lon="3.24813">
        <ele>635.99</ele>
        <time>2026-04-02T10:39:51.652Z</time>
      </trkpt>
      <trkpt lat="44.12356" lon="3.24815">
        <ele>635.22</ele>
        <time>2026-04-02T10:39:56.805Z</time>
      </trkpt>
      <trkpt lat="44.12349" lon="3.24818">
        <ele>634.62</ele>
        <time>2026-04-02T10:40:02.774Z</time>
      </trkpt>
      <trkpt lat="44.12342" lon="3.24822">
        <ele>633.29</ele>
        <time>2026-04-02T10:40:08.529Z</time>
      </trkpt>
      <trkpt lat="44.12339" lon="3.24828">
        <ele>632.06</ele>
        <time>2026-04-02T10:40:14.529Z</time>
      </trkpt>
      <trkpt lat="44.12334" lon="3.24833">
        <ele>631.56</ele>
        <time>2026-04-02T10:40:19.745Z</time>
      </trkpt>
      <trkpt lat="44.12331" lon="3.24839">
        <ele>631.24</ele>
        <time>2026-04-02T10:40:24.851Z</time>
      </trkpt>
      <trkpt lat="44.12326" lon="3.24845">
        <ele>631.14</ele>
        <time>2026-04-02T10:40:30.535Z</time>
      </trkpt>
      <trkpt lat="44.1232" lon="3.24849">
        <ele>630.32</ele>
        <time>2026-04-02T10:40:35.749Z</time>
      </trkpt>
      <trkpt lat="44.12316" lon="3.24853">
        <ele>629.43</ele>
        <time>2026-04-02T10:40:41.112Z</time>
      </trkpt>
      <trkpt lat="44.12312" lon="3.24858">
        <ele>627.97</ele>
        <time>2026-04-02T10:40:46.740Z</time>
      </trkpt>
      <trkpt lat="44.12307" lon="3.24864">
        <ele>626.36</ele>
        <time>2026-04-02T10:40:52.087Z</time>
      </trkpt>
      <trkpt lat="44.12302" lon="3.24867">
        <ele>625.21</ele>
        <time>2026-04-02T10:40:57.730Z</time>
      </trkpt>
      <trkpt lat="44.12298" lon="3.24873">
        <ele>623.91</ele>
        <time>2026-04-02T10:41:03.371Z</time>
      </trkpt>
      <trkpt lat="44.12296" lon="3.24883">
        <ele>623.21</ele>
        <time>2026-04-02T10:41:08.720Z</time>
      </trkpt>
      <trkpt lat="44.12295" lon="3.24889">
        <ele>623.43</ele>
        <time>2026-04-02T10:41:13.792Z</time>
      </trkpt>
      <trkpt lat="44.12292" lon="3.24893">
        <ele>624.91</ele>
        <time>2026-04-02T10:41:19.187Z</time>
      </trkpt>
      <trkpt lat="44.12287" lon="3.249">
        <ele>625.03</ele>
        <time>2026-04-02T10:41:24.629Z</time>
      </trkpt>
      <trkpt lat="44.12282" lon="3.24907">
        <ele>624.07</ele>
        <time>2026-04-02T10:41:29.767Z</time>
      </trkpt>
      <trkpt lat="44.12278" lon="3.24915">
        <ele>624.13</ele>
        <time>2026-04-02T10:41:35.672Z</time>
      </trkpt>
      <trkpt lat="44.12273" lon="3.24921">
        <ele>623.91</ele>
        <time>2026-04-02T10:41:40.837Z</time>
      </trkpt>
      <trkpt lat="44.12268" lon="3.24927">
        <ele>623.58</ele>
        <time>2026-04-02T10:41:46.664Z</time>
      </trkpt>
      <trkpt lat="44.12266" lon="3.24935">
        <ele>622.52</ele>
        <time>2026-04-02T10:41:51.719Z</time>
      </trkpt>
      <trkpt lat="44.12263" lon="3.24941">
        <ele>622.51</ele>
        <time>2026-04-02T10:41:57.508Z</time>
      </trkpt>
      <trkpt lat="44.12258" lon="3.2495">
        <ele>622.42</ele>
        <time>2026-04-02T10:42:02.817Z</time>
      </trkpt>
      <trkpt lat="44.12255" lon="3.24957">
        <ele>621.7</ele>
        <time>2026-04-02T10:42:07.842Z</time>
      </trkpt>
      <trkpt lat="44.12249" lon="3.24963">
        <ele>621.66</ele>
        <time>2026-04-02T10:42:12.846Z</time>
      </trkpt>
      <trkpt lat="44.12245" lon="3.24969">
        <ele>620.97</ele>
        <time>2026-04-02T10:42:18.426Z</time>
      </trkpt>
      <trkpt lat="44.12239" lon="3.24975">
        <ele>621.53</ele>
        <time>2026-04-02T10:42:23.620Z</time>
      </trkpt>
      <trkpt lat="44.12233" lon="3.2498">
        <ele>622.16</ele>
        <time>2026-04-02T10:42:28.784Z</time>
      </trkpt>
      <trkpt lat="44.12229" lon="3.24988">
        <ele>621.49</ele>
        <time>2026-04-02T10:42:34.566Z</time>
      </trkpt>
      <trkpt lat="44.12226" lon="3.24994">
        <ele>621</ele>
        <time>2026-04-02T10:42:39.842Z</time>
      </trkpt>
      <trkpt lat="44.12223" lon="3.25">
        <ele>621.16</ele>
        <time>2026-04-02T10:42:45.065Z</time>
      </trkpt>
      <trkpt lat="44.12218" lon="3.25005">
        <ele>621.03</ele>
        <time>2026-04-02T10:42:50.206Z</time>
      </trkpt>
      <trkpt lat="44.12214" lon="3.25011">
        <ele>621.05</ele>
        <time>2026-04-02T10:42:55.567Z</time>
      </trkpt>
      <trkpt lat="44.12209" lon="3.25016">
        <ele>621.5</ele>
        <time>2026-04-02T10:43:01.507Z</time>
      </trkpt>
      <trkpt lat="44.12204" lon="3.2502">
        <ele>621.14</ele>
        <time>2026-04-02T10:43:06.730Z</time>
      </trkpt>
      <trkpt lat="44.12199" lon="3.25026">
        <ele>620.81</ele>
        <time>2026-04-02T10:43:12.220Z</time>
      </trkpt>
      <trkpt lat="44.12195" lon="3.25032">
        <ele>619.74</ele>
        <time>2026-04-02T10:43:17.379Z</time>
      </trkpt>
      <trkpt lat="44.1219" lon="3.25036">
        <ele>619.7</ele>
        <time>2026-04-02T10:43:22.847Z</time>
      </trkpt>
      <trkpt lat="44.12185" lon="3.25041">
        <ele>620.03</ele>
        <time>2026-04-02T10:43:28.066Z</time>
      </trkpt>
      <trkpt lat="44.12181" lon="3.25046">
        <ele>620.99</ele>
        <time>2026-04-02T10:43:33.481Z</time>
      </trkpt>
      <trkpt lat="44.12176" lon="3.25052">
        <ele>620.38</ele>
        <time>2026-04-02T10:43:38.763Z</time>
      </trkpt>
      <trkpt lat="44.12171" lon="3.25057">
        <ele>620.23</ele>
        <time>2026-04-02T10:43:44.222Z</time>
      </trkpt>
      <trkpt lat="44.12165" lon="3.25061">
        <ele>619.97</ele>
        <time>2026-04-02T10:43:49.699Z</time>
      </trkpt>
      <trkpt lat="44.12158" lon="3.25065">
        <ele>620.76</ele>
        <time>2026-04-02T10:43:54.802Z</time>
      </trkpt>
      <trkpt lat="44.12153" lon="3.25069">
        <ele>620.91</ele>
        <time>2026-04-02T10:43:59.867Z</time>
      </trkpt>
      <trkpt lat="44.12147" lon="3.25072">
        <ele>620.73</ele>
        <time>2026-04-02T10:44:05.162Z</time>
      </trkpt>
      <trkpt lat="44.12141" lon="3.25075">
        <ele>620.76</ele>
        <time>2026-04-02T10:44:10.220Z</time>
      </trkpt>
      <trkpt lat="44.12136" lon="3.2508">
        <ele>620.76</ele>
        <time>2026-04-02T10:44:15.326Z</time>
      </trkpt>
      <trkpt lat="44.12131" lon="3.25083">
        <ele>620.48</ele>
        <time>2026-04-02T10:44:20.420Z</time>
      </trkpt>
      <trkpt lat="44.12124" lon="3.25087">
        <ele>620.66</ele>
        <time>2026-04-02T10:44:25.524Z</time>
      </trkpt>
      <trkpt lat="44.12118" lon="3.25091">
        <ele>621.48</ele>
        <time>2026-04-02T10:44:30.679Z</time>
      </trkpt>
      <trkpt lat="44.12112" lon="3.25092">
        <ele>621.82</ele>
        <time>2026-04-02T10:44:35.707Z</time>
      </trkpt>
      <trkpt lat="44.12106" lon="3.25092">
        <ele>620.91</ele>
        <time>2026-04-02T10:44:40.827Z</time>
      </trkpt>
      <trkpt lat="44.121" lon="3.25092">
        <ele>620.3</ele>
        <time>2026-04-02T10:44:45.855Z</time>
      </trkpt>
      <trkpt lat="44.12092" lon="3.25095">
        <ele>619.04</ele>
        <time>2026-04-02T10:44:51.723Z</time>
      </trkpt>
      <trkpt lat="44.12085" lon="3.25098">
        <ele>618.58</ele>
        <time>2026-04-02T10:44:57.445Z</time>
      </trkpt>
      <trkpt lat="44.12079" lon="3.25097">
        <ele>618.23</ele>
        <time>2026-04-02T10:45:02.820Z</time>
      </trkpt>
      <trkpt lat="44.12076" lon="3.25101">
        <ele>616.8</ele>
        <time>2026-04-02T10:45:08.061Z</time>
      </trkpt>
      <trkpt lat="44.1207" lon="3.25105">
        <ele>616.56</ele>
        <time>2026-04-02T10:45:13.165Z</time>
      </trkpt>
      <trkpt lat="44.12063" lon="3.25107">
        <ele>615.05</ele>
        <time>2026-04-02T10:45:18.802Z</time>
      </trkpt>
      <trkpt lat="44.12056" lon="3.2511">
        <ele>613.8</ele>
        <time>2026-04-02T10:45:23.840Z</time>
      </trkpt>
      <trkpt lat="44.12052" lon="3.25117">
        <ele>613.75</ele>
        <time>2026-04-02T10:45:29.206Z</time>
      </trkpt>
      <trkpt lat="44.12049" lon="3.25126">
        <ele>613.65</ele>
        <time>2026-04-02T10:45:34.542Z</time>
      </trkpt>
      <trkpt lat="44.12046" lon="3.25132">
        <ele>612.94</ele>
        <time>2026-04-02T10:45:39.963Z</time>
      </trkpt>
      <trkpt lat="44.12043" lon="3.2514">
        <ele>612.52</ele>
        <time>2026-04-02T10:45:45.821Z</time>
      </trkpt>
      <trkpt lat="44.12042" lon="3.25144">
        <ele>611.57</ele>
        <time>2026-04-02T10:45:50.836Z</time>
      </trkpt>
      <trkpt lat="44.1204" lon="3.25144">
        <ele>611.78</ele>
        <time>2026-04-02T10:45:57.563Z</time>
      </trkpt>
      <trkpt lat="44.12038" lon="3.25147">
        <ele>611.8</ele>
        <time>2026-04-02T10:46:02.785Z</time>
      </trkpt>
      <trkpt lat="44.12036" lon="3.25149">
        <ele>611.54</ele>
        <time>2026-04-02T10:46:07.826Z</time>
      </trkpt>
      <trkpt lat="44.12033" lon="3.25155">
        <ele>612.3</ele>
        <time>2026-04-02T10:46:12.838Z</time>
      </trkpt>
      <trkpt lat="44.1203" lon="3.25164">
        <ele>612.41</ele>
        <time>2026-04-02T10:46:18.220Z</time>
      </trkpt>
      <trkpt lat="44.12027" lon="3.25174">
        <ele>612.11</ele>
        <time>2026-04-02T10:46:24.874Z</time>
      </trkpt>
      <trkpt lat="44.12028" lon="3.25174">
        <ele>612.17</ele>
        <time>2026-04-02T10:46:30.142Z</time>
      </trkpt>
      <trkpt lat="44.12031" lon="3.2517">
        <ele>612.23</ele>
        <time>2026-04-02T10:46:35.756Z</time>
      </trkpt>
      <trkpt lat="44.12029" lon="3.25165">
        <ele>612.91</ele>
        <time>2026-04-02T10:46:41.338Z</time>
      </trkpt>
      <trkpt lat="44.12031" lon="3.25163">
        <ele>612.61</ele>
        <time>2026-04-02T10:46:46.747Z</time>
      </trkpt>
      <trkpt lat="44.12031" lon="3.25161">
        <ele>612.46</ele>
        <time>2026-04-02T10:46:52.075Z</time>
      </trkpt>
      <trkpt lat="44.12031" lon="3.25162">
        <ele>613.43</ele>
        <time>2026-04-02T10:47:05.750Z</time>
      </trkpt>
      <trkpt lat="44.12031" lon="3.25164">
        <ele>614.1</ele>
        <time>2026-04-02T10:47:10.764Z</time>
      </trkpt>
      <trkpt lat="44.12031" lon="3.25165">
        <ele>613.06</ele>
        <time>2026-04-02T10:47:17.706Z</time>
      </trkpt>
      <trkpt lat="44.1203" lon="3.25165">
        <ele>611.76</ele>
        <time>2026-04-02T10:47:23.784Z</time>
      </trkpt>
      <trkpt lat="44.1203" lon="3.25157">
        <ele>612.43</ele>
        <time>2026-04-02T10:47:29.218Z</time>
      </trkpt>
      <trkpt lat="44.12037" lon="3.2515">
        <ele>613.59</ele>
        <time>2026-04-02T10:47:34.775Z</time>
      </trkpt>
      <trkpt lat="44.12043" lon="3.25146">
        <ele>614.33</ele>
        <time>2026-04-02T10:47:39.790Z</time>
      </trkpt>
      <trkpt lat="44.12042" lon="3.25146">
        <ele>614.39</ele>
        <time>2026-04-02T10:47:51.742Z</time>
      </trkpt>
      <trkpt lat="44.12042" lon="3.25144">
        <ele>613.96</ele>
        <time>2026-04-02T10:47:57.674Z</time>
      </trkpt>
      <trkpt lat="44.12046" lon="3.25134">
        <ele>614.23</ele>
        <time>2026-04-02T10:48:02.733Z</time>
      </trkpt>
      <trkpt lat="44.1205" lon="3.25133">
        <ele>615.25</ele>
        <time>2026-04-02T10:48:07.749Z</time>
      </trkpt>
      <trkpt lat="44.12049" lon="3.25134">
        <ele>615.56</ele>
        <time>2026-04-02T10:48:12.765Z</time>
      </trkpt>
      <trkpt lat="44.12049" lon="3.25135">
        <ele>616.64</ele>
        <time>2026-04-02T10:48:32.634Z</time>
      </trkpt>
      <trkpt lat="44.12051" lon="3.25143">
        <ele>617.25</ele>
        <time>2026-04-02T10:48:38.561Z</time>
      </trkpt>
      <trkpt lat="44.12048" lon="3.25142">
        <ele>618.41</ele>
        <time>2026-04-02T10:48:43.645Z</time>
      </trkpt>
      <trkpt lat="44.12047" lon="3.25143">
        <ele>619.51</ele>
        <time>2026-04-02T10:48:48.724Z</time>
      </trkpt>
      <trkpt lat="44.12047" lon="3.25143">
        <ele>617.71</ele>
        <time>2026-04-02T10:48:57.795Z</time>
      </trkpt>
      <trkpt lat="44.12048" lon="3.25144">
        <ele>618.92</ele>
        <time>2026-04-02T10:49:05.159Z</time>
      </trkpt>
      <trkpt lat="44.1205" lon="3.25143">
        <ele>618.99</ele>
        <time>2026-04-02T10:49:10.319Z</time>
      </trkpt>
      <trkpt lat="44.12048" lon="3.25143">
        <ele>619.06</ele>
        <time>2026-04-02T10:49:15.521Z</time>
      </trkpt>
      <trkpt lat="44.12047" lon="3.25142">
        <ele>617.78</ele>
        <time>2026-04-02T10:49:20.744Z</time>
      </trkpt>
      <trkpt lat="44.12047" lon="3.2514">
        <ele>617.22</ele>
        <time>2026-04-02T10:49:26.828Z</time>
      </trkpt>
      <trkpt lat="44.12048" lon="3.2514">
        <ele>617</ele>
        <time>2026-04-02T10:49:33.764Z</time>
      </trkpt>
      <trkpt lat="44.12051" lon="3.25143">
        <ele>616.35</ele>
        <time>2026-04-02T10:49:38.859Z</time>
      </trkpt>
      <trkpt lat="44.12053" lon="3.25146">
        <ele>619.6</ele>
        <time>2026-04-02T10:49:43.903Z</time>
      </trkpt>
      <trkpt lat="44.12054" lon="3.25144">
        <ele>619.35</ele>
        <time>2026-04-02T10:49:49.773Z</time>
      </trkpt>
      <trkpt lat="44.1206" lon="3.25149">
        <ele>618.28</ele>
        <time>2026-04-02T10:49:54.787Z</time>
      </trkpt>
      <trkpt lat="44.12061" lon="3.25152">
        <ele>617.23</ele>
        <time>2026-04-02T10:49:59.860Z</time>
      </trkpt>
      <trkpt lat="44.1206" lon="3.25153">
        <ele>617.72</ele>
        <time>2026-04-02T10:50:04.926Z</time>
      </trkpt>
      <trkpt lat="44.12058" lon="3.25153">
        <ele>617.33</ele>
        <time>2026-04-02T10:50:10.796Z</time>
      </trkpt>
      <trkpt lat="44.12055" lon="3.25145">
        <ele>617.94</ele>
        <time>2026-04-02T10:50:16.708Z</time>
      </trkpt>
      <trkpt lat="44.12055" lon="3.25144">
        <ele>618.03</ele>
        <time>2026-04-02T10:50:33.709Z</time>
      </trkpt>
      <trkpt lat="44.12054" lon="3.25143">
        <ele>618.76</ele>
        <time>2026-04-02T10:50:57.710Z</time>
      </trkpt>
      <trkpt lat="44.12055" lon="3.25142">
        <ele>619.28</ele>
        <time>2026-04-02T10:51:02.710Z</time>
      </trkpt>
      <trkpt lat="44.12056" lon="3.25141">
        <ele>619.87</ele>
        <time>2026-04-02T10:51:07.710Z</time>
      </trkpt>
      <trkpt lat="44.12058" lon="3.25142">
        <ele>619.73</ele>
        <time>2026-04-02T10:51:12.710Z</time>
      </trkpt>
      <trkpt lat="44.12057" lon="3.25144">
        <ele>617.98</ele>
        <time>2026-04-02T10:51:17.710Z</time>
      </trkpt>
      <trkpt lat="44.12056" lon="3.25145">
        <ele>618.5</ele>
        <time>2026-04-02T10:51:29.711Z</time>
      </trkpt>
      <trkpt lat="44.12056" lon="3.25146">
        <ele>617.84</ele>
        <time>2026-04-02T10:51:34.711Z</time>
      </trkpt>
      <trkpt lat="44.12052" lon="3.25143">
        <ele>618.89</ele>
        <time>2026-04-02T10:51:40.711Z</time>
      </trkpt>
      <trkpt lat="44.12053" lon="3.25141">
        <ele>618.67</ele>
        <time>2026-04-02T10:51:46.712Z</time>
      </trkpt>
      <trkpt lat="44.12053" lon="3.25143">
        <ele>618.4</ele>
        <time>2026-04-02T10:51:52.711Z</time>
      </trkpt>
      <trkpt lat="44.12055" lon="3.25144">
        <ele>618.56</ele>
        <time>2026-04-02T10:51:57.712Z</time>
      </trkpt>
      <trkpt lat="44.12055" lon="3.25146">
        <ele>617.31</ele>
        <time>2026-04-02T10:52:03.712Z</time>
      </trkpt>
      <trkpt lat="44.12054" lon="3.25146">
        <ele>617.72</ele>
        <time>2026-04-02T10:52:12.712Z</time>
      </trkpt>
      <trkpt lat="44.12054" lon="3.25147">
        <ele>617.46</ele>
        <time>2026-04-02T10:52:20.712Z</time>
      </trkpt>
      <trkpt lat="44.12053" lon="3.25148">
        <ele>616.99</ele>
        <time>2026-04-02T10:52:46.712Z</time>
      </trkpt>
      <trkpt lat="44.12052" lon="3.25147">
        <ele>618.37</ele>
        <time>2026-04-02T10:52:51.712Z</time>
      </trkpt>
      <trkpt lat="44.12052" lon="3.25145">
        <ele>619.13</ele>
        <time>2026-04-02T10:52:56.712Z</time>
      </trkpt>
      <trkpt lat="44.12052" lon="3.25144">
        <ele>618.34</ele>
        <time>2026-04-02T10:53:05.713Z</time>
      </trkpt>
      <trkpt lat="44.12053" lon="3.25145">
        <ele>618.42</ele>
        <time>2026-04-02T10:53:26.712Z</time>
      </trkpt>
      <trkpt lat="44.12054" lon="3.25146">
        <ele>618.9</ele>
        <time>2026-04-02T10:53:31.713Z</time>
      </trkpt>
      <trkpt lat="44.12055" lon="3.25145">
        <ele>618.36</ele>
        <time>2026-04-02T10:53:36.716Z</time>
      </trkpt>
      <trkpt lat="44.12055" lon="3.25143">
        <ele>618.72</ele>
        <time>2026-04-02T10:53:42.713Z</time>
      </trkpt>
      <trkpt lat="44.12055" lon="3.25144">
        <ele>619.27</ele>
        <time>2026-04-02T10:54:11.714Z</time>
      </trkpt>
      <trkpt lat="44.12055" lon="3.25147">
        <ele>618.69</ele>
        <time>2026-04-02T10:54:16.714Z</time>
      </trkpt>
      <trkpt lat="44.12054" lon="3.25145">
        <ele>618.36</ele>
        <time>2026-04-02T10:54:45.715Z</time>
      </trkpt>
      <trkpt lat="44.12054" lon="3.25147">
        <ele>618.93</ele>
        <time>2026-04-02T10:55:00.715Z</time>
      </trkpt>
      <trkpt lat="44.12054" lon="3.25149">
        <ele>618.98</ele>
        <time>2026-04-02T10:55:05.715Z</time>
      </trkpt>
      <trkpt lat="44.12053" lon="3.25149">
        <ele>618.43</ele>
        <time>2026-04-02T10:55:14.715Z</time>
      </trkpt>
      <trkpt lat="44.12053" lon="3.25151">
        <ele>618.73</ele>
        <time>2026-04-02T10:55:19.715Z</time>
      </trkpt>
      <trkpt lat="44.12052" lon="3.2515">
        <ele>619.1</ele>
        <time>2026-04-02T10:55:44.716Z</time>
      </trkpt>
      <trkpt lat="44.12053" lon="3.25151">
        <ele>619.04</ele>
        <time>2026-04-02T10:56:18.717Z</time>
      </trkpt>
      <trkpt lat="44.12053" lon="3.25153">
        <ele>618.67</ele>
        <time>2026-04-02T10:56:23.717Z</time>
      </trkpt>
      <trkpt lat="44.12053" lon="3.25155">
        <ele>618.82</ele>
        <time>2026-04-02T10:56:28.717Z</time>
      </trkpt>
      <trkpt lat="44.12052" lon="3.25156">
        <ele>619.07</ele>
        <time>2026-04-02T10:56:33.717Z</time>
      </trkpt>
      <trkpt lat="44.12054" lon="3.25157">
        <ele>618.87</ele>
        <time>2026-04-02T10:56:39.716Z</time>
      </trkpt>
      <trkpt lat="44.12055" lon="3.25156">
        <ele>619.05</ele>
        <time>2026-04-02T10:56:49.717Z</time>
      </trkpt>
      <trkpt lat="44.12056" lon="3.25154">
        <ele>618.22</ele>
        <time>2026-04-02T10:56:55.718Z</time>
      </trkpt>
      <trkpt lat="44.12056" lon="3.25153">
        <ele>619.11</ele>
        <time>2026-04-02T10:57:01.719Z</time>
      </trkpt>
      <trkpt lat="44.12055" lon="3.25156">
        <ele>619.54</ele>
        <time>2026-04-02T10:57:07.718Z</time>
      </trkpt>
      <trkpt lat="44.12056" lon="3.25158">
        <ele>619.19</ele>
        <time>2026-04-02T10:57:17.718Z</time>
      </trkpt>
      <trkpt lat="44.12055" lon="3.25156">
        <ele>618.23</ele>
        <time>2026-04-02T10:57:25.720Z</time>
      </trkpt>
      <trkpt lat="44.12054" lon="3.25154">
        <ele>618.82</ele>
        <time>2026-04-02T10:57:31.718Z</time>
      </trkpt>
      <trkpt lat="44.12053" lon="3.25151">
        <ele>618.53</ele>
        <time>2026-04-02T10:57:37.718Z</time>
      </trkpt>
      <trkpt lat="44.12053" lon="3.25151">
        <ele>617.7</ele>
        <time>2026-04-02T10:57:46.719Z</time>
      </trkpt>
      <trkpt lat="44.12052" lon="3.25153">
        <ele>618.49</ele>
        <time>2026-04-02T10:57:55.718Z</time>
      </trkpt>
      <trkpt lat="44.12051" lon="3.25155">
        <ele>619.02</ele>
        <time>2026-04-02T10:58:00.719Z</time>
      </trkpt>
      <trkpt lat="44.12051" lon="3.25156">
        <ele>617.19</ele>
        <time>2026-04-02T10:58:05.719Z</time>
      </trkpt>
      <trkpt lat="44.1205" lon="3.25155">
        <ele>617.28</ele>
        <time>2026-04-02T10:58:10.719Z</time>
      </trkpt>
      <trkpt lat="44.12051" lon="3.25156">
        <ele>617.87</ele>
        <time>2026-04-02T10:58:17.719Z</time>
      </trkpt>
      <trkpt lat="44.12052" lon="3.25157">
        <ele>617.59</ele>
        <time>2026-04-02T10:58:25.719Z</time>
      </trkpt>
      <trkpt lat="44.12052" lon="3.25155">
        <ele>617.5</ele>
        <time>2026-04-02T10:58:32.719Z</time>
      </trkpt>
      <trkpt lat="44.12052" lon="3.25154">
        <ele>618.67</ele>
        <time>2026-04-02T10:58:38.720Z</time>
      </trkpt>
      <trkpt lat="44.12053" lon="3.25152">
        <ele>618.88</ele>
        <time>2026-04-02T10:58:45.719Z</time>
      </trkpt>
      <trkpt lat="44.12053" lon="3.25154">
        <ele>617.66</ele>
        <time>2026-04-02T10:59:02.720Z</time>
      </trkpt>
      <trkpt lat="44.12053" lon="3.25155">
        <ele>618.84</ele>
        <time>2026-04-02T10:59:11.720Z</time>
      </trkpt>
      <trkpt lat="44.12053" lon="3.25154">
        <ele>618.59</ele>
        <time>2026-04-02T10:59:18.720Z</time>
      </trkpt>
      <trkpt lat="44.12054" lon="3.25152">
        <ele>618.37</ele>
        <time>2026-04-02T10:59:37.721Z</time>
      </trkpt>
      <trkpt lat="44.12053" lon="3.2515">
        <ele>619.12</ele>
        <time>2026-04-02T10:59:45.721Z</time>
      </trkpt>
      <trkpt lat="44.12053" lon="3.25149">
        <ele>618.81</ele>
        <time>2026-04-02T10:59:50.721Z</time>
      </trkpt>
      <trkpt lat="44.12053" lon="3.25146">
        <ele>617.84</ele>
        <time>2026-04-02T10:59:55.721Z</time>
      </trkpt>
      <trkpt lat="44.12053" lon="3.25148">
        <ele>619.3</ele>
        <time>2026-04-02T11:00:15.722Z</time>
      </trkpt>
      <trkpt lat="44.12052" lon="3.25149">
        <ele>617.45</ele>
        <time>2026-04-02T11:00:31.722Z</time>
      </trkpt>
      <trkpt lat="44.12052" lon="3.25152">
        <ele>617.9</ele>
        <time>2026-04-02T11:00:37.722Z</time>
      </trkpt>
      <trkpt lat="44.12053" lon="3.25153">
        <ele>618.53</ele>
        <time>2026-04-02T11:00:50.722Z</time>
      </trkpt>
      <trkpt lat="44.12053" lon="3.25154">
        <ele>618.34</ele>
        <time>2026-04-02T11:00:55.722Z</time>
      </trkpt>
      <trkpt lat="44.12055" lon="3.25154">
        <ele>617.75</ele>
        <time>2026-04-02T11:01:01.724Z</time>
      </trkpt>
      <trkpt lat="44.12055" lon="3.25152">
        <ele>619</ele>
        <time>2026-04-02T11:01:08.722Z</time>
      </trkpt>
      <trkpt lat="44.12055" lon="3.25151">
        <ele>618.88</ele>
        <time>2026-04-02T11:01:41.723Z</time>
      </trkpt>
      <trkpt lat="44.12054" lon="3.2515">
        <ele>618.81</ele>
        <time>2026-04-02T11:01:59.723Z</time>
      </trkpt>
      <trkpt lat="44.12054" lon="3.25148">
        <ele>619.54</ele>
        <time>2026-04-02T11:02:05.724Z</time>
      </trkpt>
      <trkpt lat="44.12054" lon="3.25147">
        <ele>617.45</ele>
        <time>2026-04-02T11:02:12.724Z</time>
      </trkpt>
      <trkpt lat="44.12055" lon="3.25146">
        <ele>618.4</ele>
        <time>2026-04-02T11:02:18.724Z</time>
      </trkpt>
      <trkpt lat="44.12054" lon="3.25148">
        <ele>619.42</ele>
        <time>2026-04-02T11:02:23.724Z</time>
      </trkpt>
      <trkpt lat="44.12053" lon="3.25149">
        <ele>618.81</ele>
        <time>2026-04-02T11:02:32.724Z</time>
      </trkpt>
      <trkpt lat="44.12053" lon="3.2515">
        <ele>618.65</ele>
        <time>2026-04-02T11:02:37.724Z</time>
      </trkpt>
      <trkpt lat="44.12052" lon="3.2515">
        <ele>618.58</ele>
        <time>2026-04-02T11:02:46.724Z</time>
      </trkpt>
      <trkpt lat="44.12051" lon="3.25149">
        <ele>618.43</ele>
        <time>2026-04-02T11:02:52.725Z</time>
      </trkpt>
      <trkpt lat="44.12048" lon="3.25147">
        <ele>618.17</ele>
        <time>2026-04-02T11:02:57.725Z</time>
      </trkpt>
      <trkpt lat="44.12047" lon="3.25146">
        <ele>618.34</ele>
        <time>2026-04-02T11:03:03.725Z</time>
      </trkpt>
      <trkpt lat="44.12046" lon="3.25145">
        <ele>619.03</ele>
        <time>2026-04-02T11:03:08.725Z</time>
      </trkpt>
      <trkpt lat="44.12045" lon="3.25144">
        <ele>618.32</ele>
        <time>2026-04-02T11:03:21.725Z</time>
      </trkpt>
      <trkpt lat="44.12045" lon="3.25143">
        <ele>617.04</ele>
        <time>2026-04-02T11:03:35.725Z</time>
      </trkpt>
      <trkpt lat="44.12047" lon="3.25143">
        <ele>618.09</ele>
        <time>2026-04-02T11:03:40.725Z</time>
      </trkpt>
      <trkpt lat="44.12046" lon="3.25148">
        <ele>618.52</ele>
        <time>2026-04-02T11:03:45.725Z</time>
      </trkpt>
      <trkpt lat="44.12044" lon="3.25147">
        <ele>618.69</ele>
        <time>2026-04-02T11:03:50.725Z</time>
      </trkpt>
      <trkpt lat="44.12043" lon="3.25146">
        <ele>618.88</ele>
        <time>2026-04-02T11:03:55.726Z</time>
      </trkpt>
      <trkpt lat="44.1204" lon="3.25145">
        <ele>618.78</ele>
        <time>2026-04-02T11:04:00.726Z</time>
      </trkpt>
      <trkpt lat="44.12039" lon="3.25143">
        <ele>617.66</ele>
        <time>2026-04-02T11:04:08.726Z</time>
      </trkpt>
      <trkpt lat="44.12036" lon="3.25147">
        <ele>618.11</ele>
        <time>2026-04-02T11:04:18.726Z</time>
      </trkpt>
      <trkpt lat="44.12035" lon="3.25148">
        <ele>617.93</ele>
        <time>2026-04-02T11:04:23.728Z</time>
      </trkpt>
      <trkpt lat="44.12035" lon="3.2515">
        <ele>618.68</ele>
        <time>2026-04-02T11:04:29.725Z</time>
      </trkpt>
      <trkpt lat="44.12034" lon="3.2515">
        <ele>618.6</ele>
        <time>2026-04-02T11:04:43.727Z</time>
      </trkpt>
      <trkpt lat="44.12033" lon="3.25148">
        <ele>618.9</ele>
        <time>2026-04-02T11:04:49.726Z</time>
      </trkpt>
      <trkpt lat="44.12032" lon="3.25151">
        <ele>618.75</ele>
        <time>2026-04-02T11:04:54.727Z</time>
      </trkpt>
      <trkpt lat="44.12031" lon="3.25153">
        <ele>619.18</ele>
        <time>2026-04-02T11:04:59.727Z</time>
      </trkpt>
      <trkpt lat="44.12031" lon="3.25154">
        <ele>618.83</ele>
        <time>2026-04-02T11:05:24.728Z</time>
      </trkpt>
      <trkpt lat="44.1203" lon="3.25156">
        <ele>619.95</ele>
        <time>2026-04-02T11:05:41.728Z</time>
      </trkpt>
      <trkpt lat="44.12031" lon="3.25156">
        <ele>618.95</ele>
        <time>2026-04-02T11:05:47.728Z</time>
      </trkpt>
      <trkpt lat="44.12032" lon="3.25158">
        <ele>617.99</ele>
        <time>2026-04-02T11:05:52.728Z</time>
      </trkpt>
      <trkpt lat="44.12032" lon="3.25156">
        <ele>618.44</ele>
        <time>2026-04-02T11:06:03.728Z</time>
      </trkpt>
      <trkpt lat="44.12032" lon="3.25154">
        <ele>618.18</ele>
        <time>2026-04-02T11:06:14.728Z</time>
      </trkpt>
      <trkpt lat="44.12033" lon="3.25154">
        <ele>616.62</ele>
        <time>2026-04-02T11:06:25.729Z</time>
      </trkpt>
      <trkpt lat="44.12034" lon="3.25155">
        <ele>616.97</ele>
        <time>2026-04-02T11:06:31.729Z</time>
      </trkpt>
      <trkpt lat="44.12034" lon="3.25159">
        <ele>618.83</ele>
        <time>2026-04-02T11:06:37.729Z</time>
      </trkpt>
      <trkpt lat="44.12034" lon="3.25161">
        <ele>618.93</ele>
        <time>2026-04-02T11:06:43.729Z</time>
      </trkpt>
      <trkpt lat="44.12035" lon="3.25159">
        <ele>618.04</ele>
        <time>2026-04-02T11:06:49.729Z</time>
      </trkpt>
      <trkpt lat="44.12036" lon="3.2515">
        <ele>621.45</ele>
        <time>2026-04-02T11:06:54.729Z</time>
      </trkpt>
      <trkpt lat="44.12036" lon="3.25146">
        <ele>619.19</ele>
        <time>2026-04-02T11:06:59.730Z</time>
      </trkpt>
      <trkpt lat="44.12037" lon="3.25145">
        <ele>619.04</ele>
        <time>2026-04-02T11:07:08.730Z</time>
      </trkpt>
      <trkpt lat="44.12038" lon="3.2514">
        <ele>619.07</ele>
        <time>2026-04-02T11:07:14.730Z</time>
      </trkpt>
      <trkpt lat="44.12038" lon="3.25137">
        <ele>619.32</ele>
        <time>2026-04-02T11:07:19.730Z</time>
      </trkpt>
      <trkpt lat="44.12038" lon="3.25133">
        <ele>618.91</ele>
        <time>2026-04-02T11:07:24.730Z</time>
      </trkpt>
      <trkpt lat="44.12037" lon="3.25131">
        <ele>618.71</ele>
        <time>2026-04-02T11:07:30.729Z</time>
      </trkpt>
      <trkpt lat="44.12041" lon="3.25134">
        <ele>619.19</ele>
        <time>2026-04-02T11:07:35.729Z</time>
      </trkpt>
      <trkpt lat="44.12038" lon="3.25136">
        <ele>619.4</ele>
        <time>2026-04-02T11:07:40.729Z</time>
      </trkpt>
      <trkpt lat="44.12038" lon="3.25138">
        <ele>618.6</ele>
        <time>2026-04-02T11:07:45.730Z</time>
      </trkpt>
      <trkpt lat="44.1204" lon="3.25137">
        <ele>619.5</ele>
        <time>2026-04-02T11:07:50.730Z</time>
      </trkpt>
      <trkpt lat="44.1204" lon="3.25135">
        <ele>618.34</ele>
        <time>2026-04-02T11:08:07.731Z</time>
      </trkpt>
      <trkpt lat="44.1204" lon="3.25138">
        <ele>618.84</ele>
        <time>2026-04-02T11:08:13.731Z</time>
      </trkpt>
      <trkpt lat="44.1204" lon="3.25137">
        <ele>618.27</ele>
        <time>2026-04-02T11:08:19.731Z</time>
      </trkpt>
      <trkpt lat="44.1204" lon="3.25135">
        <ele>618.26</ele>
        <time>2026-04-02T11:08:24.731Z</time>
      </trkpt>
      <trkpt lat="44.12039" lon="3.25133">
        <ele>618.56</ele>
        <time>2026-04-02T11:08:29.732Z</time>
      </trkpt>
      <trkpt lat="44.12043" lon="3.25132">
        <ele>618.83</ele>
        <time>2026-04-02T11:08:35.730Z</time>
      </trkpt>
      <trkpt lat="44.12042" lon="3.25133">
        <ele>618.15</ele>
        <time>2026-04-02T11:08:40.776Z</time>
      </trkpt>
      <trkpt lat="44.12042" lon="3.25132">
        <ele>618.15</ele>
        <time>2026-04-02T11:08:51.767Z</time>
      </trkpt>
      <trkpt lat="44.12042" lon="3.25131">
        <ele>618.1</ele>
        <time>2026-04-02T11:08:59.096Z</time>
      </trkpt>
      <trkpt lat="44.12043" lon="3.2513">
        <ele>617.3</ele>
        <time>2026-04-02T11:09:05.861Z</time>
      </trkpt>
      <trkpt lat="44.12043" lon="3.25129">
        <ele>617.47</ele>
        <time>2026-04-02T11:09:15.785Z</time>
      </trkpt>
      <trkpt lat="44.12041" lon="3.25126">
        <ele>617.35</ele>
        <time>2026-04-02T11:09:20.851Z</time>
      </trkpt>
      <trkpt lat="44.12039" lon="3.25126">
        <ele>617.13</ele>
        <time>2026-04-02T11:09:26.777Z</time>
      </trkpt>
      <trkpt lat="44.12038" lon="3.25126">
        <ele>617.14</ele>
        <time>2026-04-02T11:09:31.793Z</time>
      </trkpt>
      <trkpt lat="44.12038" lon="3.25124">
        <ele>616.5</ele>
        <time>2026-04-02T11:09:36.808Z</time>
      </trkpt>
      <trkpt lat="44.12039" lon="3.25124">
        <ele>616.32</ele>
        <time>2026-04-02T11:09:41.824Z</time>
      </trkpt>
      <trkpt lat="44.12042" lon="3.25125">
        <ele>616.06</ele>
        <time>2026-04-02T11:09:47.800Z</time>
      </trkpt>
      <trkpt lat="44.12044" lon="3.25125">
        <ele>616.65</ele>
        <time>2026-04-02T11:09:52.816Z</time>
      </trkpt>
      <trkpt lat="44.12044" lon="3.25123">
        <ele>615.89</ele>
        <time>2026-04-02T11:09:58.514Z</time>
      </trkpt>
      <trkpt lat="44.12043" lon="3.25128">
        <ele>616.26</ele>
        <time>2026-04-02T11:10:03.809Z</time>
      </trkpt>
      <trkpt lat="44.12045" lon="3.2513">
        <ele>615.6</ele>
        <time>2026-04-02T11:10:08.825Z</time>
      </trkpt>
      <trkpt lat="44.12043" lon="3.25129">
        <ele>615.32</ele>
        <time>2026-04-02T11:10:13.841Z</time>
      </trkpt>
      <trkpt lat="44.12044" lon="3.2513">
        <ele>615.79</ele>
        <time>2026-04-02T11:10:27.696Z</time>
      </trkpt>
      <trkpt lat="44.12045" lon="3.25131">
        <ele>615.13</ele>
        <time>2026-04-02T11:10:32.839Z</time>
      </trkpt>
      <trkpt lat="44.12046" lon="3.2513">
        <ele>616.38</ele>
        <time>2026-04-02T11:11:03.412Z</time>
      </trkpt>
      <trkpt lat="44.12052" lon="3.25134">
        <ele>616.22</ele>
        <time>2026-04-02T11:11:08.806Z</time>
      </trkpt>
      <trkpt lat="44.12049" lon="3.25133">
        <ele>616.99</ele>
        <time>2026-04-02T11:11:13.823Z</time>
      </trkpt>
      <trkpt lat="44.1205" lon="3.25134">
        <ele>617.06</ele>
        <time>2026-04-02T11:11:25.883Z</time>
      </trkpt>
      <trkpt lat="44.12051" lon="3.25135">
        <ele>617.76</ele>
        <time>2026-04-02T11:11:31.860Z</time>
      </trkpt>
      <trkpt lat="44.12052" lon="3.25135">
        <ele>618.26</ele>
        <time>2026-04-02T11:11:37.837Z</time>
      </trkpt>
      <trkpt lat="44.12056" lon="3.25134">
        <ele>618.57</ele>
        <time>2026-04-02T11:11:42.853Z</time>
      </trkpt>
      <trkpt lat="44.12064" lon="3.25137">
        <ele>618.16</ele>
        <time>2026-04-02T11:11:48.829Z</time>
      </trkpt>
      <trkpt lat="44.12075" lon="3.2513">
        <ele>618.33</ele>
        <time>2026-04-02T11:11:54.268Z</time>
      </trkpt>
      <trkpt lat="44.12079" lon="3.25124">
        <ele>620.04</ele>
        <time>2026-04-02T11:11:59.821Z</time>
      </trkpt>
      <trkpt lat="44.12078" lon="3.25125">
        <ele>620.12</ele>
        <time>2026-04-02T11:12:05.905Z</time>
      </trkpt>
      <trkpt lat="44.1208" lon="3.25118">
        <ele>617.46</ele>
        <time>2026-04-02T11:12:12.841Z</time>
      </trkpt>
      <trkpt lat="44.12084" lon="3.25112">
        <ele>618.48</ele>
        <time>2026-04-02T11:12:17.857Z</time>
      </trkpt>
      <trkpt lat="44.12088" lon="3.25109">
        <ele>617.24</ele>
        <time>2026-04-02T11:12:23.833Z</time>
      </trkpt>
      <trkpt lat="44.12088" lon="3.25105">
        <ele>616.74</ele>
        <time>2026-04-02T11:12:28.849Z</time>
      </trkpt>
      <trkpt lat="44.12089" lon="3.25105">
        <ele>616.75</ele>
        <time>2026-04-02T11:12:35.892Z</time>
      </trkpt>
      <trkpt lat="44.1209" lon="3.25105">
        <ele>617.15</ele>
        <time>2026-04-02T11:12:40.908Z</time>
      </trkpt>
      <trkpt lat="44.12093" lon="3.25103">
        <ele>616.29</ele>
        <time>2026-04-02T11:12:46.884Z</time>
      </trkpt>
      <trkpt lat="44.12095" lon="3.25104">
        <ele>616.61</ele>
        <time>2026-04-02T11:12:51.900Z</time>
      </trkpt>
      <trkpt lat="44.12098" lon="3.25105">
        <ele>615.91</ele>
        <time>2026-04-02T11:12:57.876Z</time>
      </trkpt>
      <trkpt lat="44.12101" lon="3.25106">
        <ele>618.2</ele>
        <time>2026-04-02T11:13:02.892Z</time>
      </trkpt>
      <trkpt lat="44.12104" lon="3.25107">
        <ele>618</ele>
        <time>2026-04-02T11:13:08.868Z</time>
      </trkpt>
      <trkpt lat="44.12105" lon="3.25106">
        <ele>616.57</ele>
        <time>2026-04-02T11:13:13.884Z</time>
      </trkpt>
      <trkpt lat="44.12107" lon="3.25104">
        <ele>616.1</ele>
        <time>2026-04-02T11:13:18.899Z</time>
      </trkpt>
      <trkpt lat="44.1211" lon="3.25105">
        <ele>615.01</ele>
        <time>2026-04-02T11:13:23.915Z</time>
      </trkpt>
      <trkpt lat="44.12109" lon="3.25108">
        <ele>615.19</ele>
        <time>2026-04-02T11:13:28.930Z</time>
      </trkpt>
      <trkpt lat="44.12102" lon="3.25117">
        <ele>615.73</ele>
        <time>2026-04-02T11:13:34.467Z</time>
      </trkpt>
      <trkpt lat="44.12088" lon="3.25123">
        <ele>617.86</ele>
        <time>2026-04-02T11:13:39.922Z</time>
      </trkpt>
      <trkpt lat="44.12076" lon="3.25127">
        <ele>617.71</ele>
        <time>2026-04-02T11:13:44.938Z</time>
      </trkpt>
      <trkpt lat="44.12071" lon="3.25128">
        <ele>615.85</ele>
        <time>2026-04-02T11:13:50.914Z</time>
      </trkpt>
      <trkpt lat="44.12067" lon="3.25132">
        <ele>616.43</ele>
        <time>2026-04-02T11:13:55.930Z</time>
      </trkpt>
      <trkpt lat="44.12065" lon="3.25132">
        <ele>616.89</ele>
        <time>2026-04-02T11:14:01.906Z</time>
      </trkpt>
      <trkpt lat="44.12064" lon="3.25133">
        <ele>617.17</ele>
        <time>2026-04-02T11:14:06.921Z</time>
      </trkpt>
      <trkpt lat="44.12064" lon="3.25134">
        <ele>616.11</ele>
        <time>2026-04-02T11:14:14.925Z</time>
      </trkpt>
      <trkpt lat="44.12064" lon="3.25135">
        <ele>616.01</ele>
        <time>2026-04-02T11:14:25.809Z</time>
      </trkpt>
      <trkpt lat="44.12065" lon="3.25136">
        <ele>615.96</ele>
        <time>2026-04-02T11:14:32.853Z</time>
      </trkpt>
      <trkpt lat="44.12067" lon="3.25136">
        <ele>615.46</ele>
        <time>2026-04-02T11:14:37.869Z</time>
      </trkpt>
      <trkpt lat="44.12068" lon="3.25135">
        <ele>615.46</ele>
        <time>2026-04-02T11:14:42.884Z</time>
      </trkpt>
      <trkpt lat="44.12071" lon="3.25135">
        <ele>615.08</ele>
        <time>2026-04-02T11:14:48.860Z</time>
      </trkpt>
      <trkpt lat="44.1207" lon="3.25136">
        <ele>614.23</ele>
        <time>2026-04-02T11:14:56.864Z</time>
      </trkpt>
      <trkpt lat="44.12068" lon="3.25136">
        <ele>614.26</ele>
        <time>2026-04-02T11:15:01.879Z</time>
      </trkpt>
      <trkpt lat="44.12065" lon="3.25137">
        <ele>615.47</ele>
        <time>2026-04-02T11:15:07.855Z</time>
      </trkpt>
      <trkpt lat="44.12064" lon="3.25138">
        <ele>615.9</ele>
        <time>2026-04-02T11:15:13.831Z</time>
      </trkpt>
      <trkpt lat="44.12063" lon="3.25138">
        <ele>615.88</ele>
        <time>2026-04-02T11:15:21.835Z</time>
      </trkpt>
      <trkpt lat="44.12063" lon="3.25136">
        <ele>614.58</ele>
        <time>2026-04-02T11:15:26.850Z</time>
      </trkpt>
      <trkpt lat="44.12062" lon="3.25135">
        <ele>615.7</ele>
        <time>2026-04-02T11:15:31.866Z</time>
      </trkpt>
      <trkpt lat="44.12061" lon="3.25136">
        <ele>615.82</ele>
        <time>2026-04-02T11:15:39.869Z</time>
      </trkpt>
      <trkpt lat="44.12062" lon="3.25135">
        <ele>616.15</ele>
        <time>2026-04-02T11:15:48.834Z</time>
      </trkpt>
      <trkpt lat="44.12061" lon="3.25136">
        <ele>616.06</ele>
        <time>2026-04-02T11:15:58.865Z</time>
      </trkpt>
      <trkpt lat="44.12061" lon="3.25135">
        <ele>616.56</ele>
        <time>2026-04-02T11:16:29.812Z</time>
      </trkpt>
      <trkpt lat="44.12061" lon="3.25136">
        <ele>617.76</ele>
        <time>2026-04-02T11:16:41.799Z</time>
      </trkpt>
      <trkpt lat="44.1205" lon="3.25129">
        <ele>616.8</ele>
        <time>2026-04-02T11:16:47.123Z</time>
      </trkpt>
      <trkpt lat="44.12047" lon="3.25137">
        <ele>616.06</ele>
        <time>2026-04-02T11:16:53.107Z</time>
      </trkpt>
      <trkpt lat="44.12049" lon="3.25139">
        <ele>614.87</ele>
        <time>2026-04-02T11:16:59.122Z</time>
      </trkpt>
      <trkpt lat="44.1205" lon="3.2514">
        <ele>616.61</ele>
        <time>2026-04-02T11:17:05.115Z</time>
      </trkpt>
      <trkpt lat="44.12047" lon="3.25142">
        <ele>618.22</ele>
        <time>2026-04-02T11:17:11.123Z</time>
      </trkpt>
      <trkpt lat="44.12046" lon="3.25145">
        <ele>619</ele>
        <time>2026-04-02T11:17:17.116Z</time>
      </trkpt>
      <trkpt lat="44.12049" lon="3.25146">
        <ele>617.55</ele>
        <time>2026-04-02T11:17:23.156Z</time>
      </trkpt>
      <trkpt lat="44.12051" lon="3.25144">
        <ele>617.79</ele>
        <time>2026-04-02T11:17:29.105Z</time>
      </trkpt>
      <trkpt lat="44.12053" lon="3.25144">
        <ele>617.79</ele>
        <time>2026-04-02T11:17:34.124Z</time>
      </trkpt>
      <trkpt lat="44.12056" lon="3.25143">
        <ele>618.77</ele>
        <time>2026-04-02T11:17:39.167Z</time>
      </trkpt>
      <trkpt lat="44.12055" lon="3.2514">
        <ele>618.86</ele>
        <time>2026-04-02T11:17:44.184Z</time>
      </trkpt>
      <trkpt lat="44.12054" lon="3.25136">
        <ele>617.49</ele>
        <time>2026-04-02T11:17:49.188Z</time>
      </trkpt>
      <trkpt lat="44.12054" lon="3.25138">
        <ele>618.28</ele>
        <time>2026-04-02T11:18:00.137Z</time>
      </trkpt>
      <trkpt lat="44.12054" lon="3.2514">
        <ele>618.45</ele>
        <time>2026-04-02T11:18:06.147Z</time>
      </trkpt>
      <trkpt lat="44.12054" lon="3.25141">
        <ele>618.3</ele>
        <time>2026-04-02T11:18:12.127Z</time>
      </trkpt>
      <trkpt lat="44.12053" lon="3.2514">
        <ele>617.58</ele>
        <time>2026-04-02T11:18:18.135Z</time>
      </trkpt>
      <trkpt lat="44.12052" lon="3.25139">
        <ele>620.18</ele>
        <time>2026-04-02T11:18:24.146Z</time>
      </trkpt>
      <trkpt lat="44.12052" lon="3.25139">
        <ele>619.35</ele>
        <time>2026-04-02T11:18:32.173Z</time>
      </trkpt>
      <trkpt lat="44.12053" lon="3.25137">
        <ele>619.29</ele>
        <time>2026-04-02T11:18:38.086Z</time>
      </trkpt>
      <trkpt lat="44.12054" lon="3.25136">
        <ele>618.05</ele>
        <time>2026-04-02T11:18:45.130Z</time>
      </trkpt>
      <trkpt lat="44.12053" lon="3.25135">
        <ele>617.31</ele>
        <time>2026-04-02T11:18:52.117Z</time>
      </trkpt>
      <trkpt lat="44.12053" lon="3.25133">
        <ele>616.07</ele>
        <time>2026-04-02T11:19:07.435Z</time>
      </trkpt>
      <trkpt lat="44.12049" lon="3.25133">
        <ele>615.8</ele>
        <time>2026-04-02T11:19:13.122Z</time>
      </trkpt>
      <trkpt lat="44.12045" lon="3.25139">
        <ele>614.93</ele>
        <time>2026-04-02T11:19:18.131Z</time>
      </trkpt>
      <trkpt lat="44.12041" lon="3.25145">
        <ele>614.72</ele>
        <time>2026-04-02T11:19:23.368Z</time>
      </trkpt>
      <trkpt lat="44.12038" lon="3.25151">
        <ele>613.88</ele>
        <time>2026-04-02T11:19:28.766Z</time>
      </trkpt>
      <trkpt lat="44.12034" lon="3.25156">
        <ele>614.22</ele>
        <time>2026-04-02T11:19:34.174Z</time>
      </trkpt>
      <trkpt lat="44.1203" lon="3.25161">
        <ele>614.5</ele>
        <time>2026-04-02T11:19:39.668Z</time>
      </trkpt>
      <trkpt lat="44.12026" lon="3.25164">
        <ele>613.2</ele>
        <time>2026-04-02T11:19:45.111Z</time>
      </trkpt>
      <trkpt lat="44.12022" lon="3.25166">
        <ele>612.69</ele>
        <time>2026-04-02T11:19:50.132Z</time>
      </trkpt>
      <trkpt lat="44.1202" lon="3.25161">
        <ele>612.19</ele>
        <time>2026-04-02T11:19:55.165Z</time>
      </trkpt>
      <trkpt lat="44.12024" lon="3.25157">
        <ele>611.27</ele>
        <time>2026-04-02T11:20:01.025Z</time>
      </trkpt>
      <trkpt lat="44.12028" lon="3.25148">
        <ele>610.25</ele>
        <time>2026-04-02T11:20:06.869Z</time>
      </trkpt>
      <trkpt lat="44.12031" lon="3.25143">
        <ele>609.86</ele>
        <time>2026-04-02T11:20:12.006Z</time>
      </trkpt>
      <trkpt lat="44.12034" lon="3.25132">
        <ele>609.06</ele>
        <time>2026-04-02T11:20:17.441Z</time>
      </trkpt>
      <trkpt lat="44.12035" lon="3.25123">
        <ele>608.35</ele>
        <time>2026-04-02T11:20:22.646Z</time>
      </trkpt>
      <trkpt lat="44.12035" lon="3.25114">
        <ele>606.36</ele>
        <time>2026-04-02T11:20:28.024Z</time>
      </trkpt>
      <trkpt lat="44.12036" lon="3.25105">
        <ele>603.85</ele>
        <time>2026-04-02T11:20:33.122Z</time>
      </trkpt>
      <trkpt lat="44.12041" lon="3.25098">
        <ele>604.27</ele>
        <time>2026-04-02T11:20:38.129Z</time>
      </trkpt>
      <trkpt lat="44.12043" lon="3.25091">
        <ele>603.57</ele>
        <time>2026-04-02T11:20:43.368Z</time>
      </trkpt>
      <trkpt lat="44.12045" lon="3.25082">
        <ele>602.06</ele>
        <time>2026-04-02T11:20:48.588Z</time>
      </trkpt>
      <trkpt lat="44.12048" lon="3.25074">
        <ele>602.01</ele>
        <time>2026-04-02T11:20:54.083Z</time>
      </trkpt>
      <trkpt lat="44.1205" lon="3.25068">
        <ele>602.37</ele>
        <time>2026-04-02T11:20:59.100Z</time>
      </trkpt>
      <trkpt lat="44.1205" lon="3.2506">
        <ele>603.78</ele>
        <time>2026-04-02T11:21:04.126Z</time>
      </trkpt>
      <trkpt lat="44.12055" lon="3.25054">
        <ele>602.76</ele>
        <time>2026-04-02T11:21:09.523Z</time>
      </trkpt>
      <trkpt lat="44.12059" lon="3.25048">
        <ele>599.62</ele>
        <time>2026-04-02T11:21:15.048Z</time>
      </trkpt>
      <trkpt lat="44.12061" lon="3.2504">
        <ele>597.81</ele>
        <time>2026-04-02T11:21:20.124Z</time>
      </trkpt>
      <trkpt lat="44.12054" lon="3.25042">
        <ele>600.78</ele>
        <time>2026-04-02T11:21:25.124Z</time>
      </trkpt>
      <trkpt lat="44.12048" lon="3.2505">
        <ele>600.12</ele>
        <time>2026-04-02T11:21:30.405Z</time>
      </trkpt>
      <trkpt lat="44.12045" lon="3.25062">
        <ele>595.65</ele>
        <time>2026-04-02T11:21:36.128Z</time>
      </trkpt>
      <trkpt lat="44.12042" lon="3.25073">
        <ele>595.95</ele>
        <time>2026-04-02T11:21:41.684Z</time>
      </trkpt>
      <trkpt lat="44.12039" lon="3.25081">
        <ele>595.62</ele>
        <time>2026-04-02T11:21:46.907Z</time>
      </trkpt>
      <trkpt lat="44.12033" lon="3.25089">
        <ele>593.24</ele>
        <time>2026-04-02T11:21:52.650Z</time>
      </trkpt>
      <trkpt lat="44.12028" lon="3.25098">
        <ele>592.45</ele>
        <time>2026-04-02T11:21:58.141Z</time>
      </trkpt>
      <trkpt lat="44.12022" lon="3.25107">
        <ele>595.24</ele>
        <time>2026-04-02T11:22:04.005Z</time>
      </trkpt>
      <trkpt lat="44.12017" lon="3.25115">
        <ele>597.24</ele>
        <time>2026-04-02T11:22:09.229Z</time>
      </trkpt>
      <trkpt lat="44.12011" lon="3.25123">
        <ele>596.28</ele>
        <time>2026-04-02T11:22:15.158Z</time>
      </trkpt>
      <trkpt lat="44.12005" lon="3.25127">
        <ele>596.74</ele>
        <time>2026-04-02T11:22:20.198Z</time>
      </trkpt>
      <trkpt lat="44.11999" lon="3.25127">
        <ele>596.64</ele>
        <time>2026-04-02T11:22:25.851Z</time>
      </trkpt>
      <trkpt lat="44.11996" lon="3.25126">
        <ele>596.52</ele>
        <time>2026-04-02T11:22:31.168Z</time>
      </trkpt>
      <trkpt lat="44.1199" lon="3.25126">
        <ele>596.97</ele>
        <time>2026-04-02T11:22:36.228Z</time>
      </trkpt>
      <trkpt lat="44.11984" lon="3.25124">
        <ele>597.23</ele>
        <time>2026-04-02T11:22:41.981Z</time>
      </trkpt>
      <trkpt lat="44.11978" lon="3.25122">
        <ele>597.96</ele>
        <time>2026-04-02T11:22:47.161Z</time>
      </trkpt>
      <trkpt lat="44.11971" lon="3.2512">
        <ele>597.64</ele>
        <time>2026-04-02T11:22:53.025Z</time>
      </trkpt>
      <trkpt lat="44.11966" lon="3.25117">
        <ele>598.59</ele>
        <time>2026-04-02T11:22:58.146Z</time>
      </trkpt>
      <trkpt lat="44.11962" lon="3.25117">
        <ele>599.27</ele>
        <time>2026-04-02T11:23:03.759Z</time>
      </trkpt>
      <trkpt lat="44.11954" lon="3.25115">
        <ele>601.83</ele>
        <time>2026-04-02T11:23:09.155Z</time>
      </trkpt>
      <trkpt lat="44.11944" lon="3.25111">
        <ele>601.62</ele>
        <time>2026-04-02T11:23:14.641Z</time>
      </trkpt>
      <trkpt lat="44.11934" lon="3.25108">
        <ele>601.24</ele>
        <time>2026-04-02T11:23:20.173Z</time>
      </trkpt>
      <trkpt lat="44.11926" lon="3.25106">
        <ele>601.41</ele>
        <time>2026-04-02T11:23:25.801Z</time>
      </trkpt>
      <trkpt lat="44.11921" lon="3.25105">
        <ele>600.95</ele>
        <time>2026-04-02T11:23:31.149Z</time>
      </trkpt>
      <trkpt lat="44.11916" lon="3.25103">
        <ele>602.94</ele>
        <time>2026-04-02T11:23:36.477Z</time>
      </trkpt>
      <trkpt lat="44.1191" lon="3.25103">
        <ele>606.08</ele>
        <time>2026-04-02T11:23:41.879Z</time>
      </trkpt>
      <trkpt lat="44.11903" lon="3.25104">
        <ele>606.09</ele>
        <time>2026-04-02T11:23:47.408Z</time>
      </trkpt>
      <trkpt lat="44.11896" lon="3.25103">
        <ele>605.37</ele>
        <time>2026-04-02T11:23:52.649Z</time>
      </trkpt>
      <trkpt lat="44.1189" lon="3.25101">
        <ele>606.01</ele>
        <time>2026-04-02T11:23:57.690Z</time>
      </trkpt>
      <trkpt lat="44.11883" lon="3.25105">
        <ele>606.42</ele>
        <time>2026-04-02T11:24:03.054Z</time>
      </trkpt>
      <trkpt lat="44.11878" lon="3.25108">
        <ele>607.26</ele>
        <time>2026-04-02T11:24:08.176Z</time>
      </trkpt>
      <trkpt lat="44.11871" lon="3.25111">
        <ele>607.63</ele>
        <time>2026-04-02T11:24:13.849Z</time>
      </trkpt>
      <trkpt lat="44.11865" lon="3.25117">
        <ele>608.42</ele>
        <time>2026-04-02T11:24:19.007Z</time>
      </trkpt>
      <trkpt lat="44.1186" lon="3.25124">
        <ele>608.82</ele>
        <time>2026-04-02T11:24:24.511Z</time>
      </trkpt>
      <trkpt lat="44.11854" lon="3.2513">
        <ele>608.64</ele>
        <time>2026-04-02T11:24:30.035Z</time>
      </trkpt>
      <trkpt lat="44.11848" lon="3.25134">
        <ele>608.76</ele>
        <time>2026-04-02T11:24:35.191Z</time>
      </trkpt>
      <trkpt lat="44.11843" lon="3.25138">
        <ele>609.25</ele>
        <time>2026-04-02T11:24:40.494Z</time>
      </trkpt>
      <trkpt lat="44.11838" lon="3.25143">
        <ele>609.83</ele>
        <time>2026-04-02T11:24:45.694Z</time>
      </trkpt>
      <trkpt lat="44.11833" lon="3.25149">
        <ele>609.73</ele>
        <time>2026-04-02T11:24:51.169Z</time>
      </trkpt>
      <trkpt lat="44.11827" lon="3.25153">
        <ele>610.28</ele>
        <time>2026-04-02T11:24:56.696Z</time>
      </trkpt>
      <trkpt lat="44.11822" lon="3.25158">
        <ele>610.23</ele>
        <time>2026-04-02T11:25:01.834Z</time>
      </trkpt>
      <trkpt lat="44.11817" lon="3.25163">
        <ele>611.45</ele>
        <time>2026-04-02T11:25:06.912Z</time>
      </trkpt>
      <trkpt lat="44.11813" lon="3.25169">
        <ele>612.59</ele>
        <time>2026-04-02T11:25:12.190Z</time>
      </trkpt>
      <trkpt lat="44.11808" lon="3.25175">
        <ele>612.55</ele>
        <time>2026-04-02T11:25:17.213Z</time>
      </trkpt>
      <trkpt lat="44.11804" lon="3.25182">
        <ele>613.12</ele>
        <time>2026-04-02T11:25:22.893Z</time>
      </trkpt>
      <trkpt lat="44.118" lon="3.25189">
        <ele>614.06</ele>
        <time>2026-04-02T11:25:28.171Z</time>
      </trkpt>
      <trkpt lat="44.11798" lon="3.25196">
        <ele>613.68</ele>
        <time>2026-04-02T11:25:33.188Z</time>
      </trkpt>
      <trkpt lat="44.11794" lon="3.25205">
        <ele>615.28</ele>
        <time>2026-04-02T11:25:39.170Z</time>
      </trkpt>
      <trkpt lat="44.1179" lon="3.25212">
        <ele>615.11</ele>
        <time>2026-04-02T11:25:44.389Z</time>
      </trkpt>
      <trkpt lat="44.11785" lon="3.2522">
        <ele>615.54</ele>
        <time>2026-04-02T11:25:50.087Z</time>
      </trkpt>
      <trkpt lat="44.1178" lon="3.25225">
        <ele>616.36</ele>
        <time>2026-04-02T11:25:55.173Z</time>
      </trkpt>
      <trkpt lat="44.11774" lon="3.2523">
        <ele>615.78</ele>
        <time>2026-04-02T11:26:00.831Z</time>
      </trkpt>
      <trkpt lat="44.11769" lon="3.25236">
        <ele>616.87</ele>
        <time>2026-04-02T11:26:06.031Z</time>
      </trkpt>
      <trkpt lat="44.11766" lon="3.25244">
        <ele>617.85</ele>
        <time>2026-04-02T11:26:11.205Z</time>
      </trkpt>
      <trkpt lat="44.11763" lon="3.25253">
        <ele>618.73</ele>
        <time>2026-04-02T11:26:16.429Z</time>
      </trkpt>
      <trkpt lat="44.1176" lon="3.2526">
        <ele>619.23</ele>
        <time>2026-04-02T11:26:21.491Z</time>
      </trkpt>
      <trkpt lat="44.11757" lon="3.25267">
        <ele>619.75</ele>
        <time>2026-04-02T11:26:26.689Z</time>
      </trkpt>
      <trkpt lat="44.11754" lon="3.25275">
        <ele>618.77</ele>
        <time>2026-04-02T11:26:31.848Z</time>
      </trkpt>
      <trkpt lat="44.11751" lon="3.25283">
        <ele>620.15</ele>
        <time>2026-04-02T11:26:36.952Z</time>
      </trkpt>
      <trkpt lat="44.11748" lon="3.25289">
        <ele>620.65</ele>
        <time>2026-04-02T11:26:42.250Z</time>
      </trkpt>
      <trkpt lat="44.11745" lon="3.25298">
        <ele>620.12</ele>
        <time>2026-04-02T11:26:48.015Z</time>
      </trkpt>
      <trkpt lat="44.11743" lon="3.25307">
        <ele>620.93</ele>
        <time>2026-04-02T11:26:53.652Z</time>
      </trkpt>
      <trkpt lat="44.11736" lon="3.2531">
        <ele>620.23</ele>
        <time>2026-04-02T11:26:59.065Z</time>
      </trkpt>
      <trkpt lat="44.11732" lon="3.25316">
        <ele>622.02</ele>
        <time>2026-04-02T11:27:04.169Z</time>
      </trkpt>
      <trkpt lat="44.1173" lon="3.25323">
        <ele>622.38</ele>
        <time>2026-04-02T11:27:09.170Z</time>
      </trkpt>
      <trkpt lat="44.11727" lon="3.2533">
        <ele>622.92</ele>
        <time>2026-04-02T11:27:14.451Z</time>
      </trkpt>
      <trkpt lat="44.11722" lon="3.25335">
        <ele>623.44</ele>
        <time>2026-04-02T11:27:19.709Z</time>
      </trkpt>
      <trkpt lat="44.11719" lon="3.25342">
        <ele>623.46</ele>
        <time>2026-04-02T11:27:25.163Z</time>
      </trkpt>
      <trkpt lat="44.11716" lon="3.2535">
        <ele>624.03</ele>
        <time>2026-04-02T11:27:30.352Z</time>
      </trkpt>
      <trkpt lat="44.11713" lon="3.25357">
        <ele>624.1</ele>
        <time>2026-04-02T11:27:35.732Z</time>
      </trkpt>
      <trkpt lat="44.1171" lon="3.25364">
        <ele>625.04</ele>
        <time>2026-04-02T11:27:40.934Z</time>
      </trkpt>
      <trkpt lat="44.11708" lon="3.25372">
        <ele>625.01</ele>
        <time>2026-04-02T11:27:46.206Z</time>
      </trkpt>
      <trkpt lat="44.11708" lon="3.25379">
        <ele>625.59</ele>
        <time>2026-04-02T11:27:51.748Z</time>
      </trkpt>
      <trkpt lat="44.11709" lon="3.25388">
        <ele>624.85</ele>
        <time>2026-04-02T11:27:57.153Z</time>
      </trkpt>
      <trkpt lat="44.11709" lon="3.25396">
        <ele>625.49</ele>
        <time>2026-04-02T11:28:02.214Z</time>
      </trkpt>
      <trkpt lat="44.11711" lon="3.25405">
        <ele>626.2</ele>
        <time>2026-04-02T11:28:07.692Z</time>
      </trkpt>
      <trkpt lat="44.11715" lon="3.25415">
        <ele>625.63</ele>
        <time>2026-04-02T11:28:12.929Z</time>
      </trkpt>
      <trkpt lat="44.11719" lon="3.25416">
        <ele>626.21</ele>
        <time>2026-04-02T11:28:18.138Z</time>
      </trkpt>
      <trkpt lat="44.11717" lon="3.25416">
        <ele>626.61</ele>
        <time>2026-04-02T11:28:23.155Z</time>
      </trkpt>
      <trkpt lat="44.11716" lon="3.25417">
        <ele>626.62</ele>
        <time>2026-04-02T11:28:33.168Z</time>
      </trkpt>
      <trkpt lat="44.11715" lon="3.25419">
        <ele>628.65</ele>
        <time>2026-04-02T11:28:39.150Z</time>
      </trkpt>
      <trkpt lat="44.11714" lon="3.25419">
        <ele>626.6</ele>
        <time>2026-04-02T11:28:53.235Z</time>
      </trkpt>
      <trkpt lat="44.11714" lon="3.2542">
        <ele>626.23</ele>
        <time>2026-04-02T11:28:59.151Z</time>
      </trkpt>
      <trkpt lat="44.11713" lon="3.25422">
        <ele>626.03</ele>
        <time>2026-04-02T11:29:05.189Z</time>
      </trkpt>
      <trkpt lat="44.11713" lon="3.2542">
        <ele>624.94</ele>
        <time>2026-04-02T11:29:10.209Z</time>
      </trkpt>
      <trkpt lat="44.11712" lon="3.25423">
        <ele>624.73</ele>
        <time>2026-04-02T11:29:16.181Z</time>
      </trkpt>
      <trkpt lat="44.11709" lon="3.2543">
        <ele>623.09</ele>
        <time>2026-04-02T11:29:21.375Z</time>
      </trkpt>
      <trkpt lat="44.11705" lon="3.25436">
        <ele>622.69</ele>
        <time>2026-04-02T11:29:26.996Z</time>
      </trkpt>
      <trkpt lat="44.117" lon="3.25442">
        <ele>622.35</ele>
        <time>2026-04-02T11:29:33.052Z</time>
      </trkpt>
      <trkpt lat="44.11696" lon="3.25447">
        <ele>621.47</ele>
        <time>2026-04-02T11:29:38.170Z</time>
      </trkpt>
      <trkpt lat="44.11694" lon="3.25454">
        <ele>620.5</ele>
        <time>2026-04-02T11:29:43.251Z</time>
      </trkpt>
      <trkpt lat="44.11691" lon="3.25461">
        <ele>620.22</ele>
        <time>2026-04-02T11:29:48.807Z</time>
      </trkpt>
      <trkpt lat="44.11688" lon="3.25467">
        <ele>619.75</ele>
        <time>2026-04-02T11:29:54.151Z</time>
      </trkpt>
      <trkpt lat="44.11685" lon="3.25473">
        <ele>619.05</ele>
        <time>2026-04-02T11:29:59.184Z</time>
      </trkpt>
      <trkpt lat="44.11682" lon="3.25482">
        <ele>618.27</ele>
        <time>2026-04-02T11:30:04.948Z</time>
      </trkpt>
      <trkpt lat="44.11677" lon="3.25486">
        <ele>617.47</ele>
        <time>2026-04-02T11:30:10.072Z</time>
      </trkpt>
      <trkpt lat="44.11678" lon="3.25495">
        <ele>617.92</ele>
        <time>2026-04-02T11:30:15.875Z</time>
      </trkpt>
      <trkpt lat="44.11677" lon="3.25501">
        <ele>618.16</ele>
        <time>2026-04-02T11:30:21.033Z</time>
      </trkpt>
      <trkpt lat="44.11673" lon="3.25505">
        <ele>617.74</ele>
        <time>2026-04-02T11:30:26.184Z</time>
      </trkpt>
      <trkpt lat="44.11669" lon="3.25511">
        <ele>617.43</ele>
        <time>2026-04-02T11:30:31.773Z</time>
      </trkpt>
      <trkpt lat="44.11667" lon="3.25518">
        <ele>616.35</ele>
        <time>2026-04-02T11:30:37.178Z</time>
      </trkpt>
      <trkpt lat="44.11665" lon="3.25525">
        <ele>615.38</ele>
        <time>2026-04-02T11:30:42.185Z</time>
      </trkpt>
      <trkpt lat="44.1166" lon="3.25532">
        <ele>615.45</ele>
        <time>2026-04-02T11:30:48.130Z</time>
      </trkpt>
      <trkpt lat="44.1166" lon="3.25542">
        <ele>615.38</ele>
        <time>2026-04-02T11:30:53.183Z</time>
      </trkpt>
      <trkpt lat="44.1166" lon="3.25551">
        <ele>615.03</ele>
        <time>2026-04-02T11:30:58.834Z</time>
      </trkpt>
      <trkpt lat="44.1166" lon="3.25559">
        <ele>613.97</ele>
        <time>2026-04-02T11:31:04.136Z</time>
      </trkpt>
      <trkpt lat="44.11661" lon="3.25569">
        <ele>612.69</ele>
        <time>2026-04-02T11:31:09.887Z</time>
      </trkpt>
      <trkpt lat="44.11664" lon="3.25576">
        <ele>613.02</ele>
        <time>2026-04-02T11:31:14.991Z</time>
      </trkpt>
      <trkpt lat="44.11666" lon="3.25585">
        <ele>612.27</ele>
        <time>2026-04-02T11:31:20.189Z</time>
      </trkpt>
      <trkpt lat="44.11667" lon="3.25596">
        <ele>610.81</ele>
        <time>2026-04-02T11:31:26.151Z</time>
      </trkpt>
      <trkpt lat="44.11668" lon="3.25603">
        <ele>610.06</ele>
        <time>2026-04-02T11:31:32.012Z</time>
      </trkpt>
      <trkpt lat="44.11668" lon="3.25611">
        <ele>608.61</ele>
        <time>2026-04-02T11:31:37.186Z</time>
      </trkpt>
      <trkpt lat="44.11668" lon="3.25612">
        <ele>608.43</ele>
        <time>2026-04-02T11:31:42.869Z</time>
      </trkpt>
      <trkpt lat="44.11668" lon="3.25617">
        <ele>607.37</ele>
        <time>2026-04-02T11:31:48.129Z</time>
      </trkpt>
      <trkpt lat="44.1167" lon="3.25626">
        <ele>606.94</ele>
        <time>2026-04-02T11:31:53.993Z</time>
      </trkpt>
      <trkpt lat="44.11671" lon="3.25635">
        <ele>606.38</ele>
        <time>2026-04-02T11:32:00.014Z</time>
      </trkpt>
      <trkpt lat="44.1167" lon="3.25644">
        <ele>604.94</ele>
        <time>2026-04-02T11:32:05.632Z</time>
      </trkpt>
      <trkpt lat="44.1167" lon="3.25653">
        <ele>604.41</ele>
        <time>2026-04-02T11:32:11.128Z</time>
      </trkpt>
      <trkpt lat="44.11671" lon="3.25664">
        <ele>603.69</ele>
        <time>2026-04-02T11:32:16.855Z</time>
      </trkpt>
      <trkpt lat="44.11672" lon="3.25673">
        <ele>602.49</ele>
        <time>2026-04-02T11:32:22.412Z</time>
      </trkpt>
      <trkpt lat="44.1167" lon="3.25681">
        <ele>602.37</ele>
        <time>2026-04-02T11:32:27.713Z</time>
      </trkpt>
      <trkpt lat="44.11665" lon="3.25686">
        <ele>601.84</ele>
        <time>2026-04-02T11:32:33.159Z</time>
      </trkpt>
      <trkpt lat="44.11662" lon="3.25694">
        <ele>602.6</ele>
        <time>2026-04-02T11:32:38.711Z</time>
      </trkpt>
      <trkpt lat="44.11659" lon="3.25704">
        <ele>603.04</ele>
        <time>2026-04-02T11:32:44.048Z</time>
      </trkpt>
      <trkpt lat="44.11658" lon="3.25711">
        <ele>603.41</ele>
        <time>2026-04-02T11:32:49.149Z</time>
      </trkpt>
      <trkpt lat="44.11657" lon="3.25718">
        <ele>603.87</ele>
        <time>2026-04-02T11:32:55.126Z</time>
      </trkpt>
      <trkpt lat="44.11655" lon="3.25725">
        <ele>605.34</ele>
        <time>2026-04-02T11:33:00.569Z</time>
      </trkpt>
      <trkpt lat="44.11654" lon="3.25732">
        <ele>605.14</ele>
        <time>2026-04-02T11:33:05.752Z</time>
      </trkpt>
      <trkpt lat="44.11651" lon="3.25738">
        <ele>605.42</ele>
        <time>2026-04-02T11:33:11.147Z</time>
      </trkpt>
      <trkpt lat="44.11648" lon="3.25746">
        <ele>605.07</ele>
        <time>2026-04-02T11:33:16.628Z</time>
      </trkpt>
      <trkpt lat="44.11648" lon="3.25756">
        <ele>604.74</ele>
        <time>2026-04-02T11:33:21.810Z</time>
      </trkpt>
      <trkpt lat="44.11646" lon="3.25764">
        <ele>606.78</ele>
        <time>2026-04-02T11:33:27.153Z</time>
      </trkpt>
      <trkpt lat="44.11644" lon="3.25773">
        <ele>606.79</ele>
        <time>2026-04-02T11:33:32.608Z</time>
      </trkpt>
      <trkpt lat="44.11644" lon="3.25781">
        <ele>607.18</ele>
        <time>2026-04-02T11:33:38.016Z</time>
      </trkpt>
      <trkpt lat="44.11644" lon="3.25791">
        <ele>606.15</ele>
        <time>2026-04-02T11:33:43.525Z</time>
      </trkpt>
      <trkpt lat="44.11644" lon="3.258">
        <ele>607.05</ele>
        <time>2026-04-02T11:33:48.614Z</time>
      </trkpt>
      <trkpt lat="44.11643" lon="3.2581">
        <ele>606.84</ele>
        <time>2026-04-02T11:33:53.672Z</time>
      </trkpt>
      <trkpt lat="44.11643" lon="3.25818">
        <ele>606.9</ele>
        <time>2026-04-02T11:33:59.194Z</time>
      </trkpt>
      <trkpt lat="44.11644" lon="3.25827">
        <ele>606.85</ele>
        <time>2026-04-02T11:34:04.672Z</time>
      </trkpt>
      <trkpt lat="44.11644" lon="3.25836">
        <ele>607.92</ele>
        <time>2026-04-02T11:34:10.009Z</time>
      </trkpt>
      <trkpt lat="44.11641" lon="3.25844">
        <ele>606.69</ele>
        <time>2026-04-02T11:34:15.170Z</time>
      </trkpt>
      <trkpt lat="44.11636" lon="3.25849">
        <ele>607.11</ele>
        <time>2026-04-02T11:34:21.146Z</time>
      </trkpt>
      <trkpt lat="44.11629" lon="3.25854">
        <ele>606.44</ele>
        <time>2026-04-02T11:34:26.627Z</time>
      </trkpt>
      <trkpt lat="44.11625" lon="3.25862">
        <ele>606.15</ele>
        <time>2026-04-02T11:34:31.990Z</time>
      </trkpt>
      <trkpt lat="44.1162" lon="3.25869">
        <ele>604.76</ele>
        <time>2026-04-02T11:34:37.152Z</time>
      </trkpt>
      <trkpt lat="44.11615" lon="3.25876">
        <ele>603.26</ele>
        <time>2026-04-02T11:34:42.972Z</time>
      </trkpt>
      <trkpt lat="44.11609" lon="3.2588">
        <ele>602.96</ele>
        <time>2026-04-02T11:34:48.142Z</time>
      </trkpt>
      <trkpt lat="44.11605" lon="3.25886">
        <ele>602.92</ele>
        <time>2026-04-02T11:34:53.874Z</time>
      </trkpt>
      <trkpt lat="44.11603" lon="3.25897">
        <ele>602.45</ele>
        <time>2026-04-02T11:34:59.133Z</time>
      </trkpt>
      <trkpt lat="44.11601" lon="3.25904">
        <ele>602.31</ele>
        <time>2026-04-02T11:35:04.152Z</time>
      </trkpt>
      <trkpt lat="44.11597" lon="3.2591">
        <ele>601.03</ele>
        <time>2026-04-02T11:35:09.164Z</time>
      </trkpt>
      <trkpt lat="44.11596" lon="3.25919">
        <ele>601</ele>
        <time>2026-04-02T11:35:15.139Z</time>
      </trkpt>
      <trkpt lat="44.11596" lon="3.2593">
        <ele>601.35</ele>
        <time>2026-04-02T11:35:20.390Z</time>
      </trkpt>
      <trkpt lat="44.11597" lon="3.25939">
        <ele>601.64</ele>
        <time>2026-04-02T11:35:25.530Z</time>
      </trkpt>
      <trkpt lat="44.11596" lon="3.25948">
        <ele>601.65</ele>
        <time>2026-04-02T11:35:31.191Z</time>
      </trkpt>
      <trkpt lat="44.11596" lon="3.25958">
        <ele>600.46</ele>
        <time>2026-04-02T11:35:36.947Z</time>
      </trkpt>
      <trkpt lat="44.11594" lon="3.25968">
        <ele>601.01</ele>
        <time>2026-04-02T11:35:42.512Z</time>
      </trkpt>
      <trkpt lat="44.116" lon="3.25974">
        <ele>601.52</ele>
        <time>2026-04-02T11:35:47.928Z</time>
      </trkpt>
      <trkpt lat="44.11603" lon="3.25977">
        <ele>602.76</ele>
        <time>2026-04-02T11:35:52.954Z</time>
      </trkpt>
      <trkpt lat="44.11608" lon="3.25978">
        <ele>604.4</ele>
        <time>2026-04-02T11:35:58.554Z</time>
      </trkpt>
      <trkpt lat="44.11611" lon="3.25981">
        <ele>606.23</ele>
        <time>2026-04-02T11:36:03.614Z</time>
      </trkpt>
      <trkpt lat="44.11613" lon="3.25986">
        <ele>607.68</ele>
        <time>2026-04-02T11:36:08.807Z</time>
      </trkpt>
      <trkpt lat="44.11616" lon="3.25992">
        <ele>608.59</ele>
        <time>2026-04-02T11:36:13.831Z</time>
      </trkpt>
      <trkpt lat="44.1162" lon="3.25996">
        <ele>608.51</ele>
        <time>2026-04-02T11:36:18.872Z</time>
      </trkpt>
      <trkpt lat="44.11625" lon="3.26001">
        <ele>609.52</ele>
        <time>2026-04-02T11:36:24.071Z</time>
      </trkpt>
      <trkpt lat="44.11625" lon="3.26003">
        <ele>610.26</ele>
        <time>2026-04-02T11:36:29.411Z</time>
      </trkpt>
      <trkpt lat="44.11627" lon="3.26007">
        <ele>609.07</ele>
        <time>2026-04-02T11:36:34.852Z</time>
      </trkpt>
      <trkpt lat="44.11624" lon="3.26006">
        <ele>608.41</ele>
        <time>2026-04-02T11:36:40.077Z</time>
      </trkpt>
      <trkpt lat="44.11625" lon="3.26007">
        <ele>607.57</ele>
        <time>2026-04-02T11:36:46.508Z</time>
      </trkpt>
      <trkpt lat="44.11626" lon="3.26017">
        <ele>606.47</ele>
        <time>2026-04-02T11:36:51.695Z</time>
      </trkpt>
      <trkpt lat="44.11619" lon="3.26021">
        <ele>605.13</ele>
        <time>2026-04-02T11:36:57.126Z</time>
      </trkpt>
      <trkpt lat="44.11612" lon="3.26026">
        <ele>603.6</ele>
        <time>2026-04-02T11:37:02.165Z</time>
      </trkpt>
      <trkpt lat="44.11606" lon="3.26033">
        <ele>602.45</ele>
        <time>2026-04-02T11:37:08.141Z</time>
      </trkpt>
      <trkpt lat="44.11601" lon="3.26036">
        <ele>600.86</ele>
        <time>2026-04-02T11:37:13.889Z</time>
      </trkpt>
      <trkpt lat="44.11595" lon="3.26039">
        <ele>599.99</ele>
        <time>2026-04-02T11:37:19.140Z</time>
      </trkpt>
      <trkpt lat="44.11587" lon="3.26038">
        <ele>599.37</ele>
        <time>2026-04-02T11:37:25.121Z</time>
      </trkpt>
      <trkpt lat="44.1158" lon="3.26039">
        <ele>599.25</ele>
        <time>2026-04-02T11:37:30.998Z</time>
      </trkpt>
      <trkpt lat="44.11573" lon="3.2604">
        <ele>599.54</ele>
        <time>2026-04-02T11:37:36.022Z</time>
      </trkpt>
      <trkpt lat="44.11567" lon="3.26042">
        <ele>599.15</ele>
        <time>2026-04-02T11:37:41.122Z</time>
      </trkpt>
      <trkpt lat="44.11561" lon="3.26044">
        <ele>599.69</ele>
        <time>2026-04-02T11:37:46.815Z</time>
      </trkpt>
      <trkpt lat="44.11554" lon="3.26046">
        <ele>598.4</ele>
        <time>2026-04-02T11:37:52.516Z</time>
      </trkpt>
      <trkpt lat="44.11547" lon="3.26048">
        <ele>597.82</ele>
        <time>2026-04-02T11:37:58.180Z</time>
      </trkpt>
      <trkpt lat="44.1154" lon="3.26049">
        <ele>596.83</ele>
        <time>2026-04-02T11:38:03.961Z</time>
      </trkpt>
      <trkpt lat="44.11536" lon="3.26057">
        <ele>596.51</ele>
        <time>2026-04-02T11:38:09.484Z</time>
      </trkpt>
      <trkpt lat="44.11533" lon="3.26065">
        <ele>595.44</ele>
        <time>2026-04-02T11:38:15.042Z</time>
      </trkpt>
      <trkpt lat="44.11528" lon="3.26072">
        <ele>593.35</ele>
        <time>2026-04-02T11:38:20.177Z</time>
      </trkpt>
      <trkpt lat="44.11521" lon="3.26073">
        <ele>592.07</ele>
        <time>2026-04-02T11:38:25.899Z</time>
      </trkpt>
      <trkpt lat="44.11515" lon="3.26079">
        <ele>590.46</ele>
        <time>2026-04-02T11:38:31.167Z</time>
      </trkpt>
      <trkpt lat="44.1151" lon="3.26087">
        <ele>589.79</ele>
        <time>2026-04-02T11:38:36.720Z</time>
      </trkpt>
      <trkpt lat="44.11505" lon="3.2609">
        <ele>588.31</ele>
        <time>2026-04-02T11:38:42.157Z</time>
      </trkpt>
      <trkpt lat="44.11499" lon="3.26091">
        <ele>586.46</ele>
        <time>2026-04-02T11:38:47.173Z</time>
      </trkpt>
      <trkpt lat="44.11499" lon="3.26102">
        <ele>584.53</ele>
        <time>2026-04-02T11:38:53.118Z</time>
      </trkpt>
      <trkpt lat="44.11494" lon="3.26108">
        <ele>583.13</ele>
        <time>2026-04-02T11:38:58.164Z</time>
      </trkpt>
      <trkpt lat="44.11489" lon="3.26114">
        <ele>582.46</ele>
        <time>2026-04-02T11:39:04.133Z</time>
      </trkpt>
      <trkpt lat="44.11485" lon="3.26121">
        <ele>581.97</ele>
        <time>2026-04-02T11:39:09.155Z</time>
      </trkpt>
      <trkpt lat="44.11479" lon="3.26126">
        <ele>581.49</ele>
        <time>2026-04-02T11:39:14.540Z</time>
      </trkpt>
      <trkpt lat="44.11473" lon="3.2613">
        <ele>581.23</ele>
        <time>2026-04-02T11:39:19.723Z</time>
      </trkpt>
      <trkpt lat="44.11467" lon="3.26132">
        <ele>580.8</ele>
        <time>2026-04-02T11:39:24.818Z</time>
      </trkpt>
      <trkpt lat="44.11462" lon="3.26137">
        <ele>579.73</ele>
        <time>2026-04-02T11:39:30.135Z</time>
      </trkpt>
      <trkpt lat="44.11456" lon="3.26139">
        <ele>579.96</ele>
        <time>2026-04-02T11:39:35.504Z</time>
      </trkpt>
      <trkpt lat="44.11451" lon="3.26144">
        <ele>579.95</ele>
        <time>2026-04-02T11:39:40.957Z</time>
      </trkpt>
      <trkpt lat="44.11447" lon="3.26148">
        <ele>580.5</ele>
        <time>2026-04-02T11:39:46.303Z</time>
      </trkpt>
      <trkpt lat="44.11441" lon="3.2615">
        <ele>581.52</ele>
        <time>2026-04-02T11:39:51.592Z</time>
      </trkpt>
      <trkpt lat="44.11435" lon="3.26149">
        <ele>580.16</ele>
        <time>2026-04-02T11:39:57.176Z</time>
      </trkpt>
      <trkpt lat="44.1143" lon="3.26146">
        <ele>579.88</ele>
        <time>2026-04-02T11:40:02.488Z</time>
      </trkpt>
      <trkpt lat="44.11424" lon="3.26145">
        <ele>580.33</ele>
        <time>2026-04-02T11:40:07.552Z</time>
      </trkpt>
      <trkpt lat="44.11418" lon="3.26142">
        <ele>580.67</ele>
        <time>2026-04-02T11:40:12.969Z</time>
      </trkpt>
      <trkpt lat="44.11412" lon="3.26142">
        <ele>580.8</ele>
        <time>2026-04-02T11:40:18.670Z</time>
      </trkpt>
      <trkpt lat="44.11406" lon="3.2614">
        <ele>581.67</ele>
        <time>2026-04-02T11:40:23.691Z</time>
      </trkpt>
      <trkpt lat="44.11401" lon="3.2614">
        <ele>580.2</ele>
        <time>2026-04-02T11:40:28.850Z</time>
      </trkpt>
      <trkpt lat="44.11395" lon="3.26139">
        <ele>579.48</ele>
        <time>2026-04-02T11:40:34.550Z</time>
      </trkpt>
      <trkpt lat="44.1139" lon="3.26137">
        <ele>578.22</ele>
        <time>2026-04-02T11:40:40.195Z</time>
      </trkpt>
      <trkpt lat="44.11384" lon="3.26131">
        <ele>576.86</ele>
        <time>2026-04-02T11:40:45.198Z</time>
      </trkpt>
      <trkpt lat="44.11379" lon="3.26126">
        <ele>576.8</ele>
        <time>2026-04-02T11:40:50.352Z</time>
      </trkpt>
      <trkpt lat="44.11374" lon="3.26123">
        <ele>576.52</ele>
        <time>2026-04-02T11:40:55.430Z</time>
      </trkpt>
      <trkpt lat="44.11369" lon="3.26122">
        <ele>576.21</ele>
        <time>2026-04-02T11:41:01.129Z</time>
      </trkpt>
      <trkpt lat="44.11366" lon="3.26118">
        <ele>577.48</ele>
        <time>2026-04-02T11:41:06.170Z</time>
      </trkpt>
      <trkpt lat="44.11362" lon="3.26118">
        <ele>576.75</ele>
        <time>2026-04-02T11:41:11.446Z</time>
      </trkpt>
      <trkpt lat="44.11356" lon="3.2612">
        <ele>577.08</ele>
        <time>2026-04-02T11:41:16.930Z</time>
      </trkpt>
      <trkpt lat="44.1135" lon="3.26122">
        <ele>577.02</ele>
        <time>2026-04-02T11:41:22.569Z</time>
      </trkpt>
      <trkpt lat="44.11345" lon="3.26123">
        <ele>577.68</ele>
        <time>2026-04-02T11:41:27.645Z</time>
      </trkpt>
      <trkpt lat="44.1134" lon="3.26125">
        <ele>578.22</ele>
        <time>2026-04-02T11:41:32.769Z</time>
      </trkpt>
      <trkpt lat="44.11333" lon="3.26126">
        <ele>577.91</ele>
        <time>2026-04-02T11:41:38.126Z</time>
      </trkpt>
      <trkpt lat="44.11326" lon="3.2613">
        <ele>576.97</ele>
        <time>2026-04-02T11:41:44.184Z</time>
      </trkpt>
      <trkpt lat="44.11321" lon="3.26136">
        <ele>577.08</ele>
        <time>2026-04-02T11:41:49.788Z</time>
      </trkpt>
      <trkpt lat="44.11315" lon="3.26142">
        <ele>577.3</ele>
        <time>2026-04-02T11:41:55.132Z</time>
      </trkpt>
      <trkpt lat="44.11308" lon="3.26141">
        <ele>577</ele>
        <time>2026-04-02T11:42:00.796Z</time>
      </trkpt>
      <trkpt lat="44.11301" lon="3.2614">
        <ele>576.52</ele>
        <time>2026-04-02T11:42:06.035Z</time>
      </trkpt>
      <trkpt lat="44.11295" lon="3.26144">
        <ele>575.65</ele>
        <time>2026-04-02T11:42:11.040Z</time>
      </trkpt>
      <trkpt lat="44.1129" lon="3.26147">
        <ele>576.17</ele>
        <time>2026-04-02T11:42:16.123Z</time>
      </trkpt>
      <trkpt lat="44.11283" lon="3.26148">
        <ele>575.72</ele>
        <time>2026-04-02T11:42:22.098Z</time>
      </trkpt>
      <trkpt lat="44.1128" lon="3.26157">
        <ele>576.27</ele>
        <time>2026-04-02T11:42:27.936Z</time>
      </trkpt>
      <trkpt lat="44.11274" lon="3.26157">
        <ele>576.12</ele>
        <time>2026-04-02T11:42:33.342Z</time>
      </trkpt>
      <trkpt lat="44.11266" lon="3.26159">
        <ele>575.17</ele>
        <time>2026-04-02T11:42:38.918Z</time>
      </trkpt>
      <trkpt lat="44.1126" lon="3.26161">
        <ele>575.21</ele>
        <time>2026-04-02T11:42:44.080Z</time>
      </trkpt>
      <trkpt lat="44.11253" lon="3.2616">
        <ele>575.26</ele>
        <time>2026-04-02T11:42:49.883Z</time>
      </trkpt>
      <trkpt lat="44.11245" lon="3.26161">
        <ele>576.34</ele>
        <time>2026-04-02T11:42:55.177Z</time>
      </trkpt>
      <trkpt lat="44.11239" lon="3.26158">
        <ele>576.19</ele>
        <time>2026-04-02T11:43:00.401Z</time>
      </trkpt>
      <trkpt lat="44.11233" lon="3.26157">
        <ele>576</ele>
        <time>2026-04-02T11:43:05.816Z</time>
      </trkpt>
      <trkpt lat="44.11227" lon="3.26154">
        <ele>574.97</ele>
        <time>2026-04-02T11:43:11.478Z</time>
      </trkpt>
      <trkpt lat="44.1122" lon="3.2615">
        <ele>574.74</ele>
        <time>2026-04-02T11:43:16.481Z</time>
      </trkpt>
      <trkpt lat="44.11217" lon="3.26146">
        <ele>575.68</ele>
        <time>2026-04-02T11:43:22.174Z</time>
      </trkpt>
      <trkpt lat="44.11218" lon="3.2615">
        <ele>575.75</ele>
        <time>2026-04-02T11:43:28.047Z</time>
      </trkpt>
      <trkpt lat="44.11219" lon="3.2615">
        <ele>575.59</ele>
        <time>2026-04-02T11:43:35.090Z</time>
      </trkpt>
      <trkpt lat="44.11219" lon="3.26149">
        <ele>575.38</ele>
        <time>2026-04-02T11:43:44.942Z</time>
      </trkpt>
      <trkpt lat="44.1122" lon="3.2615">
        <ele>574.89</ele>
        <time>2026-04-02T11:43:52.168Z</time>
      </trkpt>
      <trkpt lat="44.1122" lon="3.26151">
        <ele>575.15</ele>
        <time>2026-04-02T11:44:01.803Z</time>
      </trkpt>
      <trkpt lat="44.11214" lon="3.26156">
        <ele>575.38</ele>
        <time>2026-04-02T11:44:07.108Z</time>
      </trkpt>
      <trkpt lat="44.11207" lon="3.26158">
        <ele>575.78</ele>
        <time>2026-04-02T11:44:12.123Z</time>
      </trkpt>
      <trkpt lat="44.11208" lon="3.26158">
        <ele>574.36</ele>
        <time>2026-04-02T11:44:20.126Z</time>
      </trkpt>
      <trkpt lat="44.11205" lon="3.26159">
        <ele>574.65</ele>
        <time>2026-04-02T11:44:25.688Z</time>
      </trkpt>
      <trkpt lat="44.11199" lon="3.26159">
        <ele>575.44</ele>
        <time>2026-04-02T11:44:30.908Z</time>
      </trkpt>
      <trkpt lat="44.11192" lon="3.26161">
        <ele>573.81</ele>
        <time>2026-04-02T11:44:36.132Z</time>
      </trkpt>
      <trkpt lat="44.11186" lon="3.26159">
        <ele>574.12</ele>
        <time>2026-04-02T11:44:41.364Z</time>
      </trkpt>
      <trkpt lat="44.1118" lon="3.26162">
        <ele>575.76</ele>
        <time>2026-04-02T11:44:46.469Z</time>
      </trkpt>
      <trkpt lat="44.11174" lon="3.26165">
        <ele>579.31</ele>
        <time>2026-04-02T11:44:52.138Z</time>
      </trkpt>
      <trkpt lat="44.11168" lon="3.26169">
        <ele>578.85</ele>
        <time>2026-04-02T11:44:57.921Z</time>
      </trkpt>
      <trkpt lat="44.11162" lon="3.26177">
        <ele>577.74</ele>
        <time>2026-04-02T11:45:03.235Z</time>
      </trkpt>
      <trkpt lat="44.11159" lon="3.26184">
        <ele>577.75</ele>
        <time>2026-04-02T11:45:09.107Z</time>
      </trkpt>
      <trkpt lat="44.11156" lon="3.26193">
        <ele>577.47</ele>
        <time>2026-04-02T11:45:14.620Z</time>
      </trkpt>
      <trkpt lat="44.11154" lon="3.262">
        <ele>578.19</ele>
        <time>2026-04-02T11:45:20.161Z</time>
      </trkpt>
      <trkpt lat="44.11151" lon="3.26206">
        <ele>580.47</ele>
        <time>2026-04-02T11:45:25.922Z</time>
      </trkpt>
      <trkpt lat="44.11149" lon="3.26214">
        <ele>581.72</ele>
        <time>2026-04-02T11:45:31.428Z</time>
      </trkpt>
      <trkpt lat="44.11145" lon="3.26221">
        <ele>581.18</ele>
        <time>2026-04-02T11:45:36.630Z</time>
      </trkpt>
      <trkpt lat="44.11145" lon="3.26228">
        <ele>580.64</ele>
        <time>2026-04-02T11:45:42.085Z</time>
      </trkpt>
      <trkpt lat="44.11141" lon="3.26236">
        <ele>579.73</ele>
        <time>2026-04-02T11:45:47.100Z</time>
      </trkpt>
      <trkpt lat="44.11138" lon="3.26239">
        <ele>579.74</ele>
        <time>2026-04-02T11:45:52.115Z</time>
      </trkpt>
      <trkpt lat="44.11137" lon="3.26243">
        <ele>581.6</ele>
        <time>2026-04-02T11:45:57.130Z</time>
      </trkpt>
      <trkpt lat="44.1113" lon="3.26255">
        <ele>582.56</ele>
        <time>2026-04-02T11:46:03.136Z</time>
      </trkpt>
      <trkpt lat="44.11129" lon="3.2626">
        <ele>580.55</ele>
        <time>2026-04-02T11:46:08.693Z</time>
      </trkpt>
      <trkpt lat="44.11127" lon="3.26266">
        <ele>579.8</ele>
        <time>2026-04-02T11:46:14.063Z</time>
      </trkpt>
      <trkpt lat="44.11124" lon="3.26273">
        <ele>579.75</ele>
        <time>2026-04-02T11:46:19.490Z</time>
      </trkpt>
      <trkpt lat="44.11121" lon="3.2628">
        <ele>579.73</ele>
        <time>2026-04-02T11:46:24.994Z</time>
      </trkpt>
      <trkpt lat="44.11119" lon="3.26288">
        <ele>579.21</ele>
        <time>2026-04-02T11:46:30.595Z</time>
      </trkpt>
      <trkpt lat="44.11116" lon="3.26295">
        <ele>578.28</ele>
        <time>2026-04-02T11:46:36.080Z</time>
      </trkpt>
      <trkpt lat="44.11114" lon="3.26302">
        <ele>578.23</ele>
        <time>2026-04-02T11:46:41.533Z</time>
      </trkpt>
      <trkpt lat="44.11111" lon="3.26309">
        <ele>579</ele>
        <time>2026-04-02T11:46:47.177Z</time>
      </trkpt>
      <trkpt lat="44.11108" lon="3.26315">
        <ele>579.46</ele>
        <time>2026-04-02T11:46:52.339Z</time>
      </trkpt>
      <trkpt lat="44.11106" lon="3.26323">
        <ele>580.08</ele>
        <time>2026-04-02T11:46:57.559Z</time>
      </trkpt>
      <trkpt lat="44.11099" lon="3.26326">
        <ele>579.19</ele>
        <time>2026-04-02T11:47:03.197Z</time>
      </trkpt>
      <trkpt lat="44.11091" lon="3.26328">
        <ele>578.31</ele>
        <time>2026-04-02T11:47:08.833Z</time>
      </trkpt>
      <trkpt lat="44.11087" lon="3.26337">
        <ele>578.58</ele>
        <time>2026-04-02T11:47:14.292Z</time>
      </trkpt>
      <trkpt lat="44.11088" lon="3.26346">
        <ele>580.72</ele>
        <time>2026-04-02T11:47:19.478Z</time>
      </trkpt>
      <trkpt lat="44.11089" lon="3.26354">
        <ele>581.42</ele>
        <time>2026-04-02T11:47:24.794Z</time>
      </trkpt>
      <trkpt lat="44.11089" lon="3.2636">
        <ele>581.32</ele>
        <time>2026-04-02T11:47:29.838Z</time>
      </trkpt>
      <trkpt lat="44.11085" lon="3.26363">
        <ele>582.34</ele>
        <time>2026-04-02T11:47:35.075Z</time>
      </trkpt>
      <trkpt lat="44.1108" lon="3.26365">
        <ele>582.73</ele>
        <time>2026-04-02T11:47:40.114Z</time>
      </trkpt>
      <trkpt lat="44.11076" lon="3.26367">
        <ele>583.55</ele>
        <time>2026-04-02T11:47:45.118Z</time>
      </trkpt>
      <trkpt lat="44.11071" lon="3.26369">
        <ele>582.73</ele>
        <time>2026-04-02T11:47:50.653Z</time>
      </trkpt>
      <trkpt lat="44.11064" lon="3.2637">
        <ele>582.15</ele>
        <time>2026-04-02T11:47:56.015Z</time>
      </trkpt>
      <trkpt lat="44.11059" lon="3.2637">
        <ele>581.82</ele>
        <time>2026-04-02T11:48:01.056Z</time>
      </trkpt>
      <trkpt lat="44.11054" lon="3.26374">
        <ele>584.17</ele>
        <time>2026-04-02T11:48:06.139Z</time>
      </trkpt>
      <trkpt lat="44.1105" lon="3.26379">
        <ele>585.12</ele>
        <time>2026-04-02T11:48:11.355Z</time>
      </trkpt>
      <trkpt lat="44.11049" lon="3.26387">
        <ele>585.95</ele>
        <time>2026-04-02T11:48:16.733Z</time>
      </trkpt>
      <trkpt lat="44.11045" lon="3.26391">
        <ele>587.34</ele>
        <time>2026-04-02T11:48:22.185Z</time>
      </trkpt>
      <trkpt lat="44.11041" lon="3.26396">
        <ele>587.67</ele>
        <time>2026-04-02T11:48:27.690Z</time>
      </trkpt>
      <trkpt lat="44.11038" lon="3.264">
        <ele>589.65</ele>
        <time>2026-04-02T11:48:33.136Z</time>
      </trkpt>
      <trkpt lat="44.11034" lon="3.26403">
        <ele>591.64</ele>
        <time>2026-04-02T11:48:38.173Z</time>
      </trkpt>
      <trkpt lat="44.11031" lon="3.26409">
        <ele>592.83</ele>
        <time>2026-04-02T11:48:43.729Z</time>
      </trkpt>
      <trkpt lat="44.11026" lon="3.2641">
        <ele>590.92</ele>
        <time>2026-04-02T11:48:49.150Z</time>
      </trkpt>
      <trkpt lat="44.11017" lon="3.26413">
        <ele>589.45</ele>
        <time>2026-04-02T11:48:55.126Z</time>
      </trkpt>
      <trkpt lat="44.1101" lon="3.26414">
        <ele>589.9</ele>
        <time>2026-04-02T11:49:01.102Z</time>
      </trkpt>
      <trkpt lat="44.11004" lon="3.26416">
        <ele>589.81</ele>
        <time>2026-04-02T11:49:06.117Z</time>
      </trkpt>
      <trkpt lat="44.10999" lon="3.26423">
        <ele>589.52</ele>
        <time>2026-04-02T11:49:11.133Z</time>
      </trkpt>
      <trkpt lat="44.10993" lon="3.26426">
        <ele>589.56</ele>
        <time>2026-04-02T11:49:16.168Z</time>
      </trkpt>
      <trkpt lat="44.1099" lon="3.26433">
        <ele>591.51</ele>
        <time>2026-04-02T11:49:21.710Z</time>
      </trkpt>
      <trkpt lat="44.10986" lon="3.26438">
        <ele>590.3</ele>
        <time>2026-04-02T11:49:27.029Z</time>
      </trkpt>
      <trkpt lat="44.10982" lon="3.26441">
        <ele>590.26</ele>
        <time>2026-04-02T11:49:33.049Z</time>
      </trkpt>
      <trkpt lat="44.10977" lon="3.26448">
        <ele>590.41</ele>
        <time>2026-04-02T11:49:38.131Z</time>
      </trkpt>
      <trkpt lat="44.10972" lon="3.26452">
        <ele>589.91</ele>
        <time>2026-04-02T11:49:43.349Z</time>
      </trkpt>
      <trkpt lat="44.10963" lon="3.26453">
        <ele>589.7</ele>
        <time>2026-04-02T11:49:48.646Z</time>
      </trkpt>
      <trkpt lat="44.10958" lon="3.26455">
        <ele>588.22</ele>
        <time>2026-04-02T11:49:54.174Z</time>
      </trkpt>
      <trkpt lat="44.10952" lon="3.2646">
        <ele>587.94</ele>
        <time>2026-04-02T11:49:59.311Z</time>
      </trkpt>
      <trkpt lat="44.10945" lon="3.26463">
        <ele>586.91</ele>
        <time>2026-04-02T11:50:04.627Z</time>
      </trkpt>
      <trkpt lat="44.1094" lon="3.26463">
        <ele>588.14</ele>
        <time>2026-04-02T11:50:09.650Z</time>
      </trkpt>
      <trkpt lat="44.10935" lon="3.26465">
        <ele>590.14</ele>
        <time>2026-04-02T11:50:15.159Z</time>
      </trkpt>
      <trkpt lat="44.1093" lon="3.26472">
        <ele>590.12</ele>
        <time>2026-04-02T11:50:21.005Z</time>
      </trkpt>
      <trkpt lat="44.10925" lon="3.26476">
        <ele>589.69</ele>
        <time>2026-04-02T11:50:26.092Z</time>
      </trkpt>
      <trkpt lat="44.10921" lon="3.26481">
        <ele>588.41</ele>
        <time>2026-04-02T11:50:31.165Z</time>
      </trkpt>
      <trkpt lat="44.10918" lon="3.2649">
        <ele>588.85</ele>
        <time>2026-04-02T11:50:36.564Z</time>
      </trkpt>
      <trkpt lat="44.10915" lon="3.26494">
        <ele>588.15</ele>
        <time>2026-04-02T11:50:41.573Z</time>
      </trkpt>
      <trkpt lat="44.10913" lon="3.26499">
        <ele>587.04</ele>
        <time>2026-04-02T11:50:46.670Z</time>
      </trkpt>
      <trkpt lat="44.1091" lon="3.265">
        <ele>586.18</ele>
        <time>2026-04-02T11:50:51.888Z</time>
      </trkpt>
      <trkpt lat="44.10907" lon="3.26499">
        <ele>584.83</ele>
        <time>2026-04-02T11:50:57.094Z</time>
      </trkpt>
      <trkpt lat="44.10908" lon="3.26499">
        <ele>583.5</ele>
        <time>2026-04-02T11:51:02.118Z</time>
      </trkpt>
      <trkpt lat="44.10907" lon="3.265">
        <ele>584.06</ele>
        <time>2026-04-02T11:51:13.109Z</time>
      </trkpt>
      <trkpt lat="44.10907" lon="3.26501">
        <ele>584</ele>
        <time>2026-04-02T11:51:18.125Z</time>
      </trkpt>
      <trkpt lat="44.10906" lon="3.26502">
        <ele>584.64</ele>
        <time>2026-04-02T11:51:27.003Z</time>
      </trkpt>
      <trkpt lat="44.10905" lon="3.26503">
        <ele>583.64</ele>
        <time>2026-04-02T11:51:33.065Z</time>
      </trkpt>
      <trkpt lat="44.10903" lon="3.2651">
        <ele>582.35</ele>
        <time>2026-04-02T11:51:38.402Z</time>
      </trkpt>
      <trkpt lat="44.10901" lon="3.26514">
        <ele>582.21</ele>
        <time>2026-04-02T11:51:44.057Z</time>
      </trkpt>
      <trkpt lat="44.10901" lon="3.26513">
        <ele>581.59</ele>
        <time>2026-04-02T11:51:49.072Z</time>
      </trkpt>
      <trkpt lat="44.10902" lon="3.26513">
        <ele>581.86</ele>
        <time>2026-04-02T11:51:55.504Z</time>
      </trkpt>
      <trkpt lat="44.109" lon="3.26518">
        <ele>581.63</ele>
        <time>2026-04-02T11:52:00.662Z</time>
      </trkpt>
      <trkpt lat="44.10899" lon="3.26527">
        <ele>580.33</ele>
        <time>2026-04-02T11:52:06.148Z</time>
      </trkpt>
      <trkpt lat="44.10899" lon="3.26525">
        <ele>581.97</ele>
        <time>2026-04-02T11:52:12.065Z</time>
      </trkpt>
      <trkpt lat="44.10899" lon="3.26524">
        <ele>581.41</ele>
        <time>2026-04-02T11:52:17.168Z</time>
      </trkpt>
      <trkpt lat="44.109" lon="3.26522">
        <ele>581.09</ele>
        <time>2026-04-02T11:52:22.860Z</time>
      </trkpt>
      <trkpt lat="44.10901" lon="3.2652">
        <ele>580.23</ele>
        <time>2026-04-02T11:52:28.080Z</time>
      </trkpt>
      <trkpt lat="44.10901" lon="3.26519">
        <ele>579.76</ele>
        <time>2026-04-02T11:52:33.149Z</time>
      </trkpt>
      <trkpt lat="44.109" lon="3.26519">
        <ele>580.39</ele>
        <time>2026-04-02T11:52:40.888Z</time>
      </trkpt>
      <trkpt lat="44.10893" lon="3.26522">
        <ele>578.2</ele>
        <time>2026-04-02T11:52:46.268Z</time>
      </trkpt>
      <trkpt lat="44.10887" lon="3.26522">
        <ele>577.3</ele>
        <time>2026-04-02T11:52:52.146Z</time>
      </trkpt>
      <trkpt lat="44.10882" lon="3.26515">
        <ele>577.32</ele>
        <time>2026-04-02T11:52:57.146Z</time>
      </trkpt>
      <trkpt lat="44.10878" lon="3.26519">
        <ele>576.05</ele>
        <time>2026-04-02T11:53:02.268Z</time>
      </trkpt>
      <trkpt lat="44.10872" lon="3.2652">
        <ele>575.44</ele>
        <time>2026-04-02T11:53:07.783Z</time>
      </trkpt>
      <trkpt lat="44.10866" lon="3.26521">
        <ele>575.33</ele>
        <time>2026-04-02T11:53:13.021Z</time>
      </trkpt>
      <trkpt lat="44.10862" lon="3.26525">
        <ele>574.14</ele>
        <time>2026-04-02T11:53:18.304Z</time>
      </trkpt>
      <trkpt lat="44.10858" lon="3.26528">
        <ele>572.71</ele>
        <time>2026-04-02T11:53:24.075Z</time>
      </trkpt>
      <trkpt lat="44.10853" lon="3.26536">
        <ele>572.73</ele>
        <time>2026-04-02T11:53:30.052Z</time>
      </trkpt>
      <trkpt lat="44.1085" lon="3.2654">
        <ele>573.21</ele>
        <time>2026-04-02T11:53:35.068Z</time>
      </trkpt>
      <trkpt lat="44.10848" lon="3.26546">
        <ele>573.6</ele>
        <time>2026-04-02T11:53:40.084Z</time>
      </trkpt>
      <trkpt lat="44.10847" lon="3.26545">
        <ele>572.65</ele>
        <time>2026-04-02T11:53:48.088Z</time>
      </trkpt>
      <trkpt lat="44.10846" lon="3.26545">
        <ele>573.76</ele>
        <time>2026-04-02T11:54:01.289Z</time>
      </trkpt>
      <trkpt lat="44.10838" lon="3.2655">
        <ele>574.39</ele>
        <time>2026-04-02T11:54:06.963Z</time>
      </trkpt>
      <trkpt lat="44.10831" lon="3.26553">
        <ele>573.78</ele>
        <time>2026-04-02T11:54:12.284Z</time>
      </trkpt>
      <trkpt lat="44.10828" lon="3.26547">
        <ele>575.41</ele>
        <time>2026-04-02T11:54:18.079Z</time>
      </trkpt>
      <trkpt lat="44.10828" lon="3.26544">
        <ele>575.56</ele>
        <time>2026-04-02T11:54:23.095Z</time>
      </trkpt>
      <trkpt lat="44.10828" lon="3.26543">
        <ele>575.44</ele>
        <time>2026-04-02T11:54:28.218Z</time>
      </trkpt>
      <trkpt lat="44.10828" lon="3.26541">
        <ele>576.13</ele>
        <time>2026-04-02T11:54:34.088Z</time>
      </trkpt>
      <trkpt lat="44.10828" lon="3.2654">
        <ele>576.86</ele>
        <time>2026-04-02T11:54:39.135Z</time>
      </trkpt>
      <trkpt lat="44.10827" lon="3.26539">
        <ele>576.78</ele>
        <time>2026-04-02T11:54:44.464Z</time>
      </trkpt>
      <trkpt lat="44.10828" lon="3.26539">
        <ele>577.05</ele>
        <time>2026-04-02T11:55:16.062Z</time>
      </trkpt>
      <trkpt lat="44.10827" lon="3.26538">
        <ele>577.84</ele>
        <time>2026-04-02T11:55:27.162Z</time>
      </trkpt>
      <trkpt lat="44.10826" lon="3.26534">
        <ele>577.04</ele>
        <time>2026-04-02T11:55:33.139Z</time>
      </trkpt>
      <trkpt lat="44.10825" lon="3.26533">
        <ele>576.15</ele>
        <time>2026-04-02T11:55:38.155Z</time>
      </trkpt>
      <trkpt lat="44.10825" lon="3.26531">
        <ele>577.34</ele>
        <time>2026-04-02T11:55:47.120Z</time>
      </trkpt>
      <trkpt lat="44.10825" lon="3.2653">
        <ele>576.87</ele>
        <time>2026-04-02T11:55:52.136Z</time>
      </trkpt>
      <trkpt lat="44.10824" lon="3.26528">
        <ele>577.88</ele>
        <time>2026-04-02T11:56:15.728Z</time>
      </trkpt>
      <trkpt lat="44.10826" lon="3.26523">
        <ele>575.95</ele>
        <time>2026-04-02T11:56:21.166Z</time>
      </trkpt>
      <trkpt lat="44.10826" lon="3.26522">
        <ele>575.88</ele>
        <time>2026-04-02T11:56:26.182Z</time>
      </trkpt>
      <trkpt lat="44.10826" lon="3.26519">
        <ele>576.3</ele>
        <time>2026-04-02T11:56:32.159Z</time>
      </trkpt>
      <trkpt lat="44.10826" lon="3.26518">
        <ele>575.18</ele>
        <time>2026-04-02T11:56:39.109Z</time>
      </trkpt>
      <trkpt lat="44.10825" lon="3.26517">
        <ele>574.89</ele>
        <time>2026-04-02T11:56:47.805Z</time>
      </trkpt>
      <trkpt lat="44.10821" lon="3.26514">
        <ele>574.68</ele>
        <time>2026-04-02T11:56:53.090Z</time>
      </trkpt>
      <trkpt lat="44.10821" lon="3.26516">
        <ele>575.17</ele>
        <time>2026-04-02T11:56:58.106Z</time>
      </trkpt>
      <trkpt lat="44.10821" lon="3.26518">
        <ele>574.73</ele>
        <time>2026-04-02T11:57:04.081Z</time>
      </trkpt>
      <trkpt lat="44.10821" lon="3.26519">
        <ele>573.73</ele>
        <time>2026-04-02T11:57:13.154Z</time>
      </trkpt>
      <trkpt lat="44.10826" lon="3.26521">
        <ele>573.81</ele>
        <time>2026-04-02T11:57:19.186Z</time>
      </trkpt>
      <trkpt lat="44.10826" lon="3.26523">
        <ele>574.83</ele>
        <time>2026-04-02T11:57:25.107Z</time>
      </trkpt>
      <trkpt lat="44.10825" lon="3.26522">
        <ele>573.16</ele>
        <time>2026-04-02T11:57:34.762Z</time>
      </trkpt>
      <trkpt lat="44.10817" lon="3.26515">
        <ele>573.28</ele>
        <time>2026-04-02T11:57:40.080Z</time>
      </trkpt>
      <trkpt lat="44.10813" lon="3.26513">
        <ele>574.32</ele>
        <time>2026-04-02T11:57:46.130Z</time>
      </trkpt>
      <trkpt lat="44.10811" lon="3.26514">
        <ele>572.15</ele>
        <time>2026-04-02T11:57:51.144Z</time>
      </trkpt>
      <trkpt lat="44.10805" lon="3.26512">
        <ele>572.56</ele>
        <time>2026-04-02T11:57:56.163Z</time>
      </trkpt>
      <trkpt lat="44.10804" lon="3.26511">
        <ele>571.69</ele>
        <time>2026-04-02T11:58:02.140Z</time>
      </trkpt>
      <trkpt lat="44.10805" lon="3.2651">
        <ele>571.03</ele>
        <time>2026-04-02T11:58:08.116Z</time>
      </trkpt>
      <trkpt lat="44.10805" lon="3.26509">
        <ele>573.41</ele>
        <time>2026-04-02T11:58:29.164Z</time>
      </trkpt>
      <trkpt lat="44.10805" lon="3.26508">
        <ele>573.22</ele>
        <time>2026-04-02T11:58:36.078Z</time>
      </trkpt>
      <trkpt lat="44.10805" lon="3.26507">
        <ele>572.53</ele>
        <time>2026-04-02T11:58:49.098Z</time>
      </trkpt>
      <trkpt lat="44.10804" lon="3.26506">
        <ele>573.85</ele>
        <time>2026-04-02T11:59:05.106Z</time>
      </trkpt>
      <trkpt lat="44.10804" lon="3.26507">
        <ele>571.94</ele>
        <time>2026-04-02T11:59:19.087Z</time>
      </trkpt>
      <trkpt lat="44.10802" lon="3.26508">
        <ele>571.14</ele>
        <time>2026-04-02T11:59:24.103Z</time>
      </trkpt>
      <trkpt lat="44.10801" lon="3.26507">
        <ele>570.48</ele>
        <time>2026-04-02T11:59:32.107Z</time>
      </trkpt>
      <trkpt lat="44.10799" lon="3.26506">
        <ele>571.43</ele>
        <time>2026-04-02T11:59:37.123Z</time>
      </trkpt>
      <trkpt lat="44.10799" lon="3.26505">
        <ele>570.67</ele>
        <time>2026-04-02T11:59:50.143Z</time>
      </trkpt>
      <trkpt lat="44.10798" lon="3.26504">
        <ele>572.89</ele>
        <time>2026-04-02T12:00:02.004Z</time>
      </trkpt>
      <trkpt lat="44.10797" lon="3.26503">
        <ele>571.8</ele>
        <time>2026-04-02T12:00:08.073Z</time>
      </trkpt>
      <trkpt lat="44.10795" lon="3.26501">
        <ele>571.22</ele>
        <time>2026-04-02T12:00:13.089Z</time>
      </trkpt>
      <trkpt lat="44.10795" lon="3.265">
        <ele>571.38</ele>
        <time>2026-04-02T12:00:19.065Z</time>
      </trkpt>
      <trkpt lat="44.10794" lon="3.26498">
        <ele>571.25</ele>
        <time>2026-04-02T12:00:24.081Z</time>
      </trkpt>
      <trkpt lat="44.10793" lon="3.26497">
        <ele>570.96</ele>
        <time>2026-04-02T12:00:47.134Z</time>
      </trkpt>
      <trkpt lat="44.10789" lon="3.26495">
        <ele>569.82</ele>
        <time>2026-04-02T12:00:53.111Z</time>
      </trkpt>
      <trkpt lat="44.10785" lon="3.26493">
        <ele>569.5</ele>
        <time>2026-04-02T12:00:58.127Z</time>
      </trkpt>
      <trkpt lat="44.10783" lon="3.2649">
        <ele>571.72</ele>
        <time>2026-04-02T12:01:03.143Z</time>
      </trkpt>
      <trkpt lat="44.10784" lon="3.26493">
        <ele>572.73</ele>
        <time>2026-04-02T12:01:08.159Z</time>
      </trkpt>
      <trkpt lat="44.10784" lon="3.26495">
        <ele>572.7</ele>
        <time>2026-04-02T12:01:14.136Z</time>
      </trkpt>
      <trkpt lat="44.10785" lon="3.26496">
        <ele>572.27</ele>
        <time>2026-04-02T12:01:26.303Z</time>
      </trkpt>
      <trkpt lat="44.10781" lon="3.26495">
        <ele>572.63</ele>
        <time>2026-04-02T12:01:51.087Z</time>
      </trkpt>
      <trkpt lat="44.10771" lon="3.26492">
        <ele>571.54</ele>
        <time>2026-04-02T12:01:56.966Z</time>
      </trkpt>
      <trkpt lat="44.10765" lon="3.26491">
        <ele>571.54</ele>
        <time>2026-04-02T12:02:02.163Z</time>
      </trkpt>
      <trkpt lat="44.10761" lon="3.26487">
        <ele>570.8</ele>
        <time>2026-04-02T12:02:07.169Z</time>
      </trkpt>
      <trkpt lat="44.10759" lon="3.2648">
        <ele>567.57</ele>
        <time>2026-04-02T12:02:12.389Z</time>
      </trkpt>
      <trkpt lat="44.10756" lon="3.26475">
        <ele>566.33</ele>
        <time>2026-04-02T12:02:17.502Z</time>
      </trkpt>
      <trkpt lat="44.10754" lon="3.26474">
        <ele>565.83</ele>
        <time>2026-04-02T12:02:23.081Z</time>
      </trkpt>
      <trkpt lat="44.10754" lon="3.26476">
        <ele>564.2</ele>
        <time>2026-04-02T12:02:28.097Z</time>
      </trkpt>
      <trkpt lat="44.10753" lon="3.26476">
        <ele>563.66</ele>
        <time>2026-04-02T12:02:38.130Z</time>
      </trkpt>
      <trkpt lat="44.10752" lon="3.26475">
        <ele>566.14</ele>
        <time>2026-04-02T12:02:43.146Z</time>
      </trkpt>
      <trkpt lat="44.10751" lon="3.26474">
        <ele>566.52</ele>
        <time>2026-04-02T12:02:48.162Z</time>
      </trkpt>
      <trkpt lat="44.10745" lon="3.26472">
        <ele>565.78</ele>
        <time>2026-04-02T12:02:54.138Z</time>
      </trkpt>
      <trkpt lat="44.10743" lon="3.26473">
        <ele>563.45</ele>
        <time>2026-04-02T12:02:59.154Z</time>
      </trkpt>
      <trkpt lat="44.10744" lon="3.26472">
        <ele>563.41</ele>
        <time>2026-04-02T12:03:04.170Z</time>
      </trkpt>
      <trkpt lat="44.10743" lon="3.26471">
        <ele>566.33</ele>
        <time>2026-04-02T12:03:14.917Z</time>
      </trkpt>
      <trkpt lat="44.10741" lon="3.26467">
        <ele>564.79</ele>
        <time>2026-04-02T12:03:20.081Z</time>
      </trkpt>
      <trkpt lat="44.1074" lon="3.26467">
        <ele>564.61</ele>
        <time>2026-04-02T12:03:25.097Z</time>
      </trkpt>
      <trkpt lat="44.10732" lon="3.2647">
        <ele>563.46</ele>
        <time>2026-04-02T12:03:30.420Z</time>
      </trkpt>
      <trkpt lat="44.10725" lon="3.26473">
        <ele>561.71</ele>
        <time>2026-04-02T12:03:35.819Z</time>
      </trkpt>
      <trkpt lat="44.10722" lon="3.26478">
        <ele>562.62</ele>
        <time>2026-04-02T12:03:40.976Z</time>
      </trkpt>
      <trkpt lat="44.10723" lon="3.26485">
        <ele>564.16</ele>
        <time>2026-04-02T12:03:46.181Z</time>
      </trkpt>
      <trkpt lat="44.10725" lon="3.26491">
        <ele>564.08</ele>
        <time>2026-04-02T12:03:51.556Z</time>
      </trkpt>
      <trkpt lat="44.10723" lon="3.26485">
        <ele>563.15</ele>
        <time>2026-04-02T12:03:57.083Z</time>
      </trkpt>
      <trkpt lat="44.10724" lon="3.26486">
        <ele>562.22</ele>
        <time>2026-04-02T12:04:02.128Z</time>
      </trkpt>
      <trkpt lat="44.10724" lon="3.26484">
        <ele>562.92</ele>
        <time>2026-04-02T12:04:08.109Z</time>
      </trkpt>
      <trkpt lat="44.10722" lon="3.2648">
        <ele>563.66</ele>
        <time>2026-04-02T12:04:13.124Z</time>
      </trkpt>
      <trkpt lat="44.10721" lon="3.26479">
        <ele>563.37</ele>
        <time>2026-04-02T12:04:20.168Z</time>
      </trkpt>
      <trkpt lat="44.1072" lon="3.2648">
        <ele>564</ele>
        <time>2026-04-02T12:04:29.727Z</time>
      </trkpt>
      <trkpt lat="44.10711" lon="3.26485">
        <ele>562.52</ele>
        <time>2026-04-02T12:04:35.053Z</time>
      </trkpt>
      <trkpt lat="44.10707" lon="3.26489">
        <ele>561.95</ele>
        <time>2026-04-02T12:04:40.193Z</time>
      </trkpt>
      <trkpt lat="44.10703" lon="3.26491">
        <ele>561.21</ele>
        <time>2026-04-02T12:04:45.896Z</time>
      </trkpt>
      <trkpt lat="44.107" lon="3.26496">
        <ele>559.83</ele>
        <time>2026-04-02T12:04:51.129Z</time>
      </trkpt>
      <trkpt lat="44.107" lon="3.26503">
        <ele>559.54</ele>
        <time>2026-04-02T12:04:56.145Z</time>
      </trkpt>
      <trkpt lat="44.10699" lon="3.2651">
        <ele>559.09</ele>
        <time>2026-04-02T12:05:01.749Z</time>
      </trkpt>
      <trkpt lat="44.10695" lon="3.26515">
        <ele>558.6</ele>
        <time>2026-04-02T12:05:07.136Z</time>
      </trkpt>
      <trkpt lat="44.10693" lon="3.26518">
        <ele>559.62</ele>
        <time>2026-04-02T12:05:12.571Z</time>
      </trkpt>
      <trkpt lat="44.10688" lon="3.26523">
        <ele>559.87</ele>
        <time>2026-04-02T12:05:18.114Z</time>
      </trkpt>
      <trkpt lat="44.10686" lon="3.2653">
        <ele>561.11</ele>
        <time>2026-04-02T12:05:24.076Z</time>
      </trkpt>
      <trkpt lat="44.10688" lon="3.26529">
        <ele>561.35</ele>
        <time>2026-04-02T12:05:29.119Z</time>
      </trkpt>
      <trkpt lat="44.10686" lon="3.26529">
        <ele>561.23</ele>
        <time>2026-04-02T12:05:34.143Z</time>
      </trkpt>
      <trkpt lat="44.10688" lon="3.26528">
        <ele>561.52</ele>
        <time>2026-04-02T12:05:51.130Z</time>
      </trkpt>
      <trkpt lat="44.10689" lon="3.26526">
        <ele>561.9</ele>
        <time>2026-04-02T12:05:56.135Z</time>
      </trkpt>
      <trkpt lat="44.1069" lon="3.26522">
        <ele>562.76</ele>
        <time>2026-04-02T12:06:01.150Z</time>
      </trkpt>
      <trkpt lat="44.1069" lon="3.26521">
        <ele>562.08</ele>
        <time>2026-04-02T12:06:06.166Z</time>
      </trkpt>
      <trkpt lat="44.1069" lon="3.26523">
        <ele>561.84</ele>
        <time>2026-04-02T12:06:13.632Z</time>
      </trkpt>
      <trkpt lat="44.10691" lon="3.26524">
        <ele>560.59</ele>
        <time>2026-04-02T12:06:19.185Z</time>
      </trkpt>
      <trkpt lat="44.10693" lon="3.26528">
        <ele>559.99</ele>
        <time>2026-04-02T12:06:24.604Z</time>
      </trkpt>
      <trkpt lat="44.10696" lon="3.26525">
        <ele>560.32</ele>
        <time>2026-04-02T12:06:29.646Z</time>
      </trkpt>
      <trkpt lat="44.10699" lon="3.26515">
        <ele>558.8</ele>
        <time>2026-04-02T12:06:34.927Z</time>
      </trkpt>
      <trkpt lat="44.107" lon="3.26505">
        <ele>558.47</ele>
        <time>2026-04-02T12:06:41.012Z</time>
      </trkpt>
      <trkpt lat="44.107" lon="3.26497">
        <ele>556.58</ele>
        <time>2026-04-02T12:06:46.183Z</time>
      </trkpt>
      <trkpt lat="44.10698" lon="3.2649">
        <ele>554.98</ele>
        <time>2026-04-02T12:06:51.198Z</time>
      </trkpt>
      <trkpt lat="44.10699" lon="3.26484">
        <ele>553.76</ele>
        <time>2026-04-02T12:06:56.572Z</time>
      </trkpt>
      <trkpt lat="44.10703" lon="3.26476">
        <ele>553.58</ele>
        <time>2026-04-02T12:07:01.872Z</time>
      </trkpt>
      <trkpt lat="44.10708" lon="3.26469">
        <ele>553.99</ele>
        <time>2026-04-02T12:07:07.608Z</time>
      </trkpt>
      <trkpt lat="44.10713" lon="3.26463">
        <ele>553.69</ele>
        <time>2026-04-02T12:07:13.181Z</time>
      </trkpt>
      <trkpt lat="44.10718" lon="3.26459">
        <ele>552.76</ele>
        <time>2026-04-02T12:07:18.196Z</time>
      </trkpt>
      <trkpt lat="44.10724" lon="3.26459">
        <ele>552.03</ele>
        <time>2026-04-02T12:07:23.211Z</time>
      </trkpt>
      <trkpt lat="44.10727" lon="3.26459">
        <ele>550.67</ele>
        <time>2026-04-02T12:07:29.080Z</time>
      </trkpt>
      <trkpt lat="44.10727" lon="3.26458">
        <ele>551.6</ele>
        <time>2026-04-02T12:07:34.113Z</time>
      </trkpt>
      <trkpt lat="44.10728" lon="3.26456">
        <ele>553.98</ele>
        <time>2026-04-02T12:07:43.389Z</time>
      </trkpt>
      <trkpt lat="44.10729" lon="3.2645">
        <ele>553.19</ele>
        <time>2026-04-02T12:07:49.058Z</time>
      </trkpt>
      <trkpt lat="44.10734" lon="3.26446">
        <ele>552.89</ele>
        <time>2026-04-02T12:07:54.791Z</time>
      </trkpt>
      <trkpt lat="44.10741" lon="3.26443">
        <ele>552.88</ele>
        <time>2026-04-02T12:08:00.150Z</time>
      </trkpt>
      <trkpt lat="44.10741" lon="3.26441">
        <ele>551.74</ele>
        <time>2026-04-02T12:08:07.086Z</time>
      </trkpt>
      <trkpt lat="44.1074" lon="3.26438">
        <ele>551.97</ele>
        <time>2026-04-02T12:08:12.102Z</time>
      </trkpt>
      <trkpt lat="44.10739" lon="3.26442">
        <ele>555.09</ele>
        <time>2026-04-02T12:08:17.555Z</time>
      </trkpt>
      <trkpt lat="44.10735" lon="3.26445">
        <ele>552.39</ele>
        <time>2026-04-02T12:08:23.191Z</time>
      </trkpt>
      <trkpt lat="44.10731" lon="3.26442">
        <ele>551.4</ele>
        <time>2026-04-02T12:08:28.538Z</time>
      </trkpt>
      <trkpt lat="44.10728" lon="3.26439">
        <ele>548.8</ele>
        <time>2026-04-02T12:08:34.083Z</time>
      </trkpt>
      <trkpt lat="44.10726" lon="3.26435">
        <ele>547.47</ele>
        <time>2026-04-02T12:08:39.296Z</time>
      </trkpt>
      <trkpt lat="44.10726" lon="3.26425">
        <ele>546.54</ele>
        <time>2026-04-02T12:08:45.074Z</time>
      </trkpt>
      <trkpt lat="44.10727" lon="3.26429">
        <ele>546.01</ele>
        <time>2026-04-02T12:08:50.173Z</time>
      </trkpt>
      <trkpt lat="44.10732" lon="3.26438">
        <ele>548.03</ele>
        <time>2026-04-02T12:08:55.497Z</time>
      </trkpt>
      <trkpt lat="44.10738" lon="3.26441">
        <ele>549.59</ele>
        <time>2026-04-02T12:09:01.187Z</time>
      </trkpt>
      <trkpt lat="44.10739" lon="3.26449">
        <ele>549.87</ele>
        <time>2026-04-02T12:09:06.935Z</time>
      </trkpt>
      <trkpt lat="44.10736" lon="3.26452">
        <ele>551.9</ele>
        <time>2026-04-02T12:09:12.177Z</time>
      </trkpt>
      <trkpt lat="44.10729" lon="3.26458">
        <ele>554.01</ele>
        <time>2026-04-02T12:09:18.033Z</time>
      </trkpt>
      <trkpt lat="44.10729" lon="3.26466">
        <ele>554.57</ele>
        <time>2026-04-02T12:09:23.358Z</time>
      </trkpt>
      <trkpt lat="44.10735" lon="3.26466">
        <ele>554.02</ele>
        <time>2026-04-02T12:09:29.144Z</time>
      </trkpt>
      <trkpt lat="44.10743" lon="3.26465">
        <ele>553.75</ele>
        <time>2026-04-02T12:09:34.152Z</time>
      </trkpt>
      <trkpt lat="44.10752" lon="3.26468">
        <ele>556.65</ele>
        <time>2026-04-02T12:09:40.136Z</time>
      </trkpt>
      <trkpt lat="44.10759" lon="3.26468">
        <ele>560.31</ele>
        <time>2026-04-02T12:09:45.713Z</time>
      </trkpt>
      <trkpt lat="44.10763" lon="3.26469">
        <ele>560.77</ele>
        <time>2026-04-02T12:09:50.851Z</time>
      </trkpt>
      <trkpt lat="44.10768" lon="3.2647">
        <ele>560.46</ele>
        <time>2026-04-02T12:09:56.148Z</time>
      </trkpt>
      <trkpt lat="44.10767" lon="3.2647">
        <ele>559.36</ele>
        <time>2026-04-02T12:10:01.611Z</time>
      </trkpt>
      <trkpt lat="44.10772" lon="3.26469">
        <ele>560.43</ele>
        <time>2026-04-02T12:10:07.139Z</time>
      </trkpt>
      <trkpt lat="44.10777" lon="3.26473">
        <ele>562.81</ele>
        <time>2026-04-02T12:10:12.154Z</time>
      </trkpt>
      <trkpt lat="44.10777" lon="3.26474">
        <ele>564.57</ele>
        <time>2026-04-02T12:10:19.512Z</time>
      </trkpt>
      <trkpt lat="44.10778" lon="3.26476">
        <ele>563.47</ele>
        <time>2026-04-02T12:10:25.173Z</time>
      </trkpt>
      <trkpt lat="44.1078" lon="3.26475">
        <ele>560.98</ele>
        <time>2026-04-02T12:10:31.149Z</time>
      </trkpt>
      <trkpt lat="44.10781" lon="3.26475">
        <ele>561.04</ele>
        <time>2026-04-02T12:10:36.164Z</time>
      </trkpt>
      <trkpt lat="44.10782" lon="3.26475">
        <ele>563.72</ele>
        <time>2026-04-02T12:10:49.097Z</time>
      </trkpt>
      <trkpt lat="44.10787" lon="3.26476">
        <ele>562.75</ele>
        <time>2026-04-02T12:10:54.199Z</time>
      </trkpt>
      <trkpt lat="44.10795" lon="3.26482">
        <ele>559.74</ele>
        <time>2026-04-02T12:11:00.174Z</time>
      </trkpt>
      <trkpt lat="44.10803" lon="3.26482">
        <ele>560.48</ele>
        <time>2026-04-02T12:11:06.168Z</time>
      </trkpt>
      <trkpt lat="44.10807" lon="3.26481">
        <ele>562.28</ele>
        <time>2026-04-02T12:11:11.872Z</time>
      </trkpt>
      <trkpt lat="44.1081" lon="3.2648">
        <ele>563.16</ele>
        <time>2026-04-02T12:11:17.143Z</time>
      </trkpt>
      <trkpt lat="44.10812" lon="3.26484">
        <ele>561.91</ele>
        <time>2026-04-02T12:11:22.159Z</time>
      </trkpt>
      <trkpt lat="44.10812" lon="3.26484">
        <ele>563.15</ele>
        <time>2026-04-02T12:11:41.155Z</time>
      </trkpt>
      <trkpt lat="44.10812" lon="3.26483">
        <ele>562.43</ele>
        <time>2026-04-02T12:11:55.788Z</time>
      </trkpt>
      <trkpt lat="44.10812" lon="3.26481">
        <ele>561.12</ele>
        <time>2026-04-02T12:12:01.119Z</time>
      </trkpt>
      <trkpt lat="44.10813" lon="3.26481">
        <ele>565.17</ele>
        <time>2026-04-02T12:12:11.629Z</time>
      </trkpt>
      <trkpt lat="44.1082" lon="3.26486">
        <ele>566.36</ele>
        <time>2026-04-02T12:12:17.153Z</time>
      </trkpt>
      <trkpt lat="44.10821" lon="3.26488">
        <ele>564.89</ele>
        <time>2026-04-02T12:12:22.169Z</time>
      </trkpt>
      <trkpt lat="44.10821" lon="3.26487">
        <ele>563.68</ele>
        <time>2026-04-02T12:12:28.140Z</time>
      </trkpt>
      <trkpt lat="44.10822" lon="3.26487">
        <ele>563.91</ele>
        <time>2026-04-02T12:12:40.092Z</time>
      </trkpt>
      <trkpt lat="44.10822" lon="3.26488">
        <ele>564.62</ele>
        <time>2026-04-02T12:12:48.707Z</time>
      </trkpt>
      <trkpt lat="44.10819" lon="3.26476">
        <ele>565.51</ele>
        <time>2026-04-02T12:12:54.183Z</time>
      </trkpt>
      <trkpt lat="44.10818" lon="3.26468">
        <ele>564.81</ele>
        <time>2026-04-02T12:12:59.198Z</time>
      </trkpt>
      <trkpt lat="44.10825" lon="3.26463">
        <ele>562.13</ele>
        <time>2026-04-02T12:13:04.636Z</time>
      </trkpt>
      <trkpt lat="44.10829" lon="3.26461">
        <ele>561.07</ele>
        <time>2026-04-02T12:13:10.051Z</time>
      </trkpt>
      <trkpt lat="44.10832" lon="3.2646">
        <ele>560.76</ele>
        <time>2026-04-02T12:13:15.206Z</time>
      </trkpt>
      <trkpt lat="44.10838" lon="3.26457">
        <ele>558.32</ele>
        <time>2026-04-02T12:13:20.857Z</time>
      </trkpt>
      <trkpt lat="44.10841" lon="3.26453">
        <ele>556.82</ele>
        <time>2026-04-02T12:13:26.334Z</time>
      </trkpt>
      <trkpt lat="44.10844" lon="3.26449">
        <ele>554.9</ele>
        <time>2026-04-02T12:13:31.936Z</time>
      </trkpt>
      <trkpt lat="44.10848" lon="3.26443">
        <ele>553.03</ele>
        <time>2026-04-02T12:13:37.210Z</time>
      </trkpt>
      <trkpt lat="44.10849" lon="3.26433">
        <ele>553.18</ele>
        <time>2026-04-02T12:13:42.750Z</time>
      </trkpt>
      <trkpt lat="44.1085" lon="3.26426">
        <ele>548.98</ele>
        <time>2026-04-02T12:13:48.179Z</time>
      </trkpt>
      <trkpt lat="44.10852" lon="3.26423">
        <ele>547.84</ele>
        <time>2026-04-02T12:13:53.189Z</time>
      </trkpt>
      <trkpt lat="44.10852" lon="3.26415">
        <ele>547.33</ele>
        <time>2026-04-02T12:13:58.550Z</time>
      </trkpt>
      <trkpt lat="44.10853" lon="3.26409">
        <ele>545.8</ele>
        <time>2026-04-02T12:14:03.832Z</time>
      </trkpt>
      <trkpt lat="44.10857" lon="3.26404">
        <ele>545.24</ele>
        <time>2026-04-02T12:14:09.201Z</time>
      </trkpt>
      <trkpt lat="44.10859" lon="3.26398">
        <ele>544.48</ele>
        <time>2026-04-02T12:14:14.353Z</time>
      </trkpt>
      <trkpt lat="44.10856" lon="3.26396">
        <ele>545.12</ele>
        <time>2026-04-02T12:14:19.990Z</time>
      </trkpt>
      <trkpt lat="44.10855" lon="3.26396">
        <ele>543.07</ele>
        <time>2026-04-02T12:14:25.014Z</time>
      </trkpt>
      <trkpt lat="44.10856" lon="3.26393">
        <ele>542.29</ele>
        <time>2026-04-02T12:14:30.056Z</time>
      </trkpt>
      <trkpt lat="44.10864" lon="3.26388">
        <ele>539.49</ele>
        <time>2026-04-02T12:14:35.595Z</time>
      </trkpt>
      <trkpt lat="44.10869" lon="3.26383">
        <ele>540.17</ele>
        <time>2026-04-02T12:14:40.949Z</time>
      </trkpt>
      <trkpt lat="44.10871" lon="3.26377">
        <ele>537.6</ele>
        <time>2026-04-02T12:14:45.956Z</time>
      </trkpt>
      <trkpt lat="44.10871" lon="3.26371">
        <ele>536.63</ele>
        <time>2026-04-02T12:14:51.271Z</time>
      </trkpt>
      <trkpt lat="44.10871" lon="3.26365">
        <ele>535.84</ele>
        <time>2026-04-02T12:14:56.894Z</time>
      </trkpt>
      <trkpt lat="44.10873" lon="3.26359">
        <ele>534.34</ele>
        <time>2026-04-02T12:15:02.126Z</time>
      </trkpt>
      <trkpt lat="44.10874" lon="3.26353">
        <ele>534.47</ele>
        <time>2026-04-02T12:15:07.571Z</time>
      </trkpt>
      <trkpt lat="44.10874" lon="3.26347">
        <ele>531.63</ele>
        <time>2026-04-02T12:15:12.810Z</time>
      </trkpt>
      <trkpt lat="44.10874" lon="3.26342">
        <ele>531.5</ele>
        <time>2026-04-02T12:15:18.135Z</time>
      </trkpt>
      <trkpt lat="44.10877" lon="3.26337">
        <ele>529.39</ele>
        <time>2026-04-02T12:15:24.287Z</time>
      </trkpt>
      <trkpt lat="44.10881" lon="3.26333">
        <ele>528.91</ele>
        <time>2026-04-02T12:15:29.992Z</time>
      </trkpt>
      <trkpt lat="44.10885" lon="3.26327">
        <ele>527.83</ele>
        <time>2026-04-02T12:15:35.189Z</time>
      </trkpt>
      <trkpt lat="44.1089" lon="3.26323">
        <ele>526.82</ele>
        <time>2026-04-02T12:15:40.219Z</time>
      </trkpt>
      <trkpt lat="44.10897" lon="3.26317">
        <ele>526.45</ele>
        <time>2026-04-02T12:15:46.213Z</time>
      </trkpt>
      <trkpt lat="44.109" lon="3.26309">
        <ele>525.47</ele>
        <time>2026-04-02T12:15:51.773Z</time>
      </trkpt>
      <trkpt lat="44.10902" lon="3.26305">
        <ele>523.82</ele>
        <time>2026-04-02T12:15:57.136Z</time>
      </trkpt>
      <trkpt lat="44.10902" lon="3.26302">
        <ele>523.02</ele>
        <time>2026-04-02T12:16:02.391Z</time>
      </trkpt>
      <trkpt lat="44.10901" lon="3.26299">
        <ele>522.54</ele>
        <time>2026-04-02T12:16:07.850Z</time>
      </trkpt>
      <trkpt lat="44.109" lon="3.26299">
        <ele>520.98</ele>
        <time>2026-04-02T12:16:13.190Z</time>
      </trkpt>
      <trkpt lat="44.10899" lon="3.26298">
        <ele>520.33</ele>
        <time>2026-04-02T12:16:18.493Z</time>
      </trkpt>
      <trkpt lat="44.10895" lon="3.26293">
        <ele>518.41</ele>
        <time>2026-04-02T12:16:24.050Z</time>
      </trkpt>
      <trkpt lat="44.10889" lon="3.26287">
        <ele>517.54</ele>
        <time>2026-04-02T12:16:29.287Z</time>
      </trkpt>
      <trkpt lat="44.10885" lon="3.26282">
        <ele>516.07</ele>
        <time>2026-04-02T12:16:34.730Z</time>
      </trkpt>
      <trkpt lat="44.10879" lon="3.2628">
        <ele>514.35</ele>
        <time>2026-04-02T12:16:40.186Z</time>
      </trkpt>
      <trkpt lat="44.10873" lon="3.26278">
        <ele>512.94</ele>
        <time>2026-04-02T12:16:45.201Z</time>
      </trkpt>
      <trkpt lat="44.10869" lon="3.26281">
        <ele>511.9</ele>
        <time>2026-04-02T12:16:50.486Z</time>
      </trkpt>
      <trkpt lat="44.10863" lon="3.26283">
        <ele>509.98</ele>
        <time>2026-04-02T12:16:55.991Z</time>
      </trkpt>
      <trkpt lat="44.10857" lon="3.26282">
        <ele>509.78</ele>
        <time>2026-04-02T12:17:01.067Z</time>
      </trkpt>
      <trkpt lat="44.1085" lon="3.26279">
        <ele>508.06</ele>
        <time>2026-04-02T12:17:06.114Z</time>
      </trkpt>
      <trkpt lat="44.10845" lon="3.26282">
        <ele>505.78</ele>
        <time>2026-04-02T12:17:11.507Z</time>
      </trkpt>
      <trkpt lat="44.10841" lon="3.26283">
        <ele>504.57</ele>
        <time>2026-04-02T12:17:17.126Z</time>
      </trkpt>
      <trkpt lat="44.10841" lon="3.26276">
        <ele>503.26</ele>
        <time>2026-04-02T12:17:22.729Z</time>
      </trkpt>
      <trkpt lat="44.10843" lon="3.26274">
        <ele>502.55</ele>
        <time>2026-04-02T12:17:28.201Z</time>
      </trkpt>
      <trkpt lat="44.10848" lon="3.26271">
        <ele>501.65</ele>
        <time>2026-04-02T12:17:33.692Z</time>
      </trkpt>
      <trkpt lat="44.10851" lon="3.26264">
        <ele>500.62</ele>
        <time>2026-04-02T12:17:38.724Z</time>
      </trkpt>
      <trkpt lat="44.1085" lon="3.26256">
        <ele>500.37</ele>
        <time>2026-04-02T12:17:43.749Z</time>
      </trkpt>
      <trkpt lat="44.10849" lon="3.26247">
        <ele>499.65</ele>
        <time>2026-04-02T12:17:49.084Z</time>
      </trkpt>
      <trkpt lat="44.1085" lon="3.26242">
        <ele>497.54</ele>
        <time>2026-04-02T12:17:54.292Z</time>
      </trkpt>
      <trkpt lat="44.10849" lon="3.26235">
        <ele>496.9</ele>
        <time>2026-04-02T12:17:59.557Z</time>
      </trkpt>
      <trkpt lat="44.10851" lon="3.26228">
        <ele>495.93</ele>
        <time>2026-04-02T12:18:04.715Z</time>
      </trkpt>
      <trkpt lat="44.10854" lon="3.26221">
        <ele>494.4</ele>
        <time>2026-04-02T12:18:09.936Z</time>
      </trkpt>
      <trkpt lat="44.10856" lon="3.26213">
        <ele>493.12</ele>
        <time>2026-04-02T12:18:14.995Z</time>
      </trkpt>
      <trkpt lat="44.10856" lon="3.26206">
        <ele>491.51</ele>
        <time>2026-04-02T12:18:20.201Z</time>
      </trkpt>
      <trkpt lat="44.10854" lon="3.262">
        <ele>490.18</ele>
        <time>2026-04-02T12:18:25.592Z</time>
      </trkpt>
      <trkpt lat="44.10854" lon="3.26193">
        <ele>488.25</ele>
        <time>2026-04-02T12:18:30.778Z</time>
      </trkpt>
      <trkpt lat="44.10857" lon="3.26189">
        <ele>486.32</ele>
        <time>2026-04-02T12:18:36.414Z</time>
      </trkpt>
      <trkpt lat="44.10856" lon="3.26186">
        <ele>486.12</ele>
        <time>2026-04-02T12:18:41.572Z</time>
      </trkpt>
      <trkpt lat="44.10854" lon="3.26183">
        <ele>484.71</ele>
        <time>2026-04-02T12:18:47.098Z</time>
      </trkpt>
      <trkpt lat="44.10855" lon="3.26177">
        <ele>483.82</ele>
        <time>2026-04-02T12:18:52.853Z</time>
      </trkpt>
      <trkpt lat="44.10848" lon="3.26168">
        <ele>481.23</ele>
        <time>2026-04-02T12:18:58.135Z</time>
      </trkpt>
      <trkpt lat="44.10842" lon="3.2616">
        <ele>479.38</ele>
        <time>2026-04-02T12:19:03.631Z</time>
      </trkpt>
      <trkpt lat="44.10842" lon="3.26154">
        <ele>479.5</ele>
        <time>2026-04-02T12:19:08.708Z</time>
      </trkpt>
      <trkpt lat="44.10845" lon="3.2615">
        <ele>478.96</ele>
        <time>2026-04-02T12:19:14.095Z</time>
      </trkpt>
      <trkpt lat="44.10845" lon="3.26152">
        <ele>478.04</ele>
        <time>2026-04-02T12:19:20.178Z</time>
      </trkpt>
      <trkpt lat="44.10846" lon="3.26151">
        <ele>476.27</ele>
        <time>2026-04-02T12:19:26.769Z</time>
      </trkpt>
      <trkpt lat="44.10845" lon="3.26142">
        <ele>474.51</ele>
        <time>2026-04-02T12:19:31.972Z</time>
      </trkpt>
      <trkpt lat="44.10843" lon="3.26138">
        <ele>472.66</ele>
        <time>2026-04-02T12:19:37.145Z</time>
      </trkpt>
      <trkpt lat="44.10843" lon="3.2613">
        <ele>471.93</ele>
        <time>2026-04-02T12:19:42.179Z</time>
      </trkpt>
      <trkpt lat="44.10845" lon="3.2613">
        <ele>472.79</ele>
        <time>2026-04-02T12:19:48.154Z</time>
      </trkpt>
      <trkpt lat="44.10846" lon="3.26129">
        <ele>471.64</ele>
        <time>2026-04-02T12:19:53.676Z</time>
      </trkpt>
      <trkpt lat="44.10841" lon="3.26118">
        <ele>469.91</ele>
        <time>2026-04-02T12:19:59.147Z</time>
      </trkpt>
      <trkpt lat="44.10838" lon="3.26111">
        <ele>466.52</ele>
        <time>2026-04-02T12:20:04.195Z</time>
      </trkpt>
      <trkpt lat="44.10837" lon="3.26104">
        <ele>466.05</ele>
        <time>2026-04-02T12:20:10.029Z</time>
      </trkpt>
      <trkpt lat="44.10837" lon="3.26099">
        <ele>465.54</ele>
        <time>2026-04-02T12:20:15.159Z</time>
      </trkpt>
      <trkpt lat="44.10839" lon="3.26094">
        <ele>464.84</ele>
        <time>2026-04-02T12:20:20.287Z</time>
      </trkpt>
      <trkpt lat="44.10838" lon="3.26084">
        <ele>462.66</ele>
        <time>2026-04-02T12:20:26.151Z</time>
      </trkpt>
      <trkpt lat="44.1084" lon="3.26083">
        <ele>462.43</ele>
        <time>2026-04-02T12:20:31.167Z</time>
      </trkpt>
      <trkpt lat="44.10838" lon="3.26084">
        <ele>461.11</ele>
        <time>2026-04-02T12:20:36.183Z</time>
      </trkpt>
      <trkpt lat="44.10837" lon="3.26084">
        <ele>462.49</ele>
        <time>2026-04-02T12:20:42.159Z</time>
      </trkpt>
      <trkpt lat="44.10836" lon="3.26085">
        <ele>462.95</ele>
        <time>2026-04-02T12:20:56.954Z</time>
      </trkpt>
      <trkpt lat="44.10836" lon="3.26087">
        <ele>460.8</ele>
        <time>2026-04-02T12:21:05.215Z</time>
      </trkpt>
      <trkpt lat="44.10836" lon="3.26088">
        <ele>461.47</ele>
        <time>2026-04-02T12:21:11.879Z</time>
      </trkpt>
      <trkpt lat="44.10835" lon="3.26089">
        <ele>460.25</ele>
        <time>2026-04-02T12:21:17.979Z</time>
      </trkpt>
      <trkpt lat="44.10828" lon="3.26088">
        <ele>457.51</ele>
        <time>2026-04-02T12:21:23.109Z</time>
      </trkpt>
      <trkpt lat="44.10824" lon="3.26075">
        <ele>457.37</ele>
        <time>2026-04-02T12:21:28.581Z</time>
      </trkpt>
      <trkpt lat="44.1083" lon="3.26076">
        <ele>456.95</ele>
        <time>2026-04-02T12:21:34.269Z</time>
      </trkpt>
      <trkpt lat="44.10829" lon="3.26079">
        <ele>457.02</ele>
        <time>2026-04-02T12:21:39.957Z</time>
      </trkpt>
      <trkpt lat="44.10831" lon="3.26074">
        <ele>457.07</ele>
        <time>2026-04-02T12:21:45.153Z</time>
      </trkpt>
      <trkpt lat="44.10833" lon="3.26075">
        <ele>456.68</ele>
        <time>2026-04-02T12:21:50.169Z</time>
      </trkpt>
      <trkpt lat="44.10833" lon="3.26073">
        <ele>456</ele>
        <time>2026-04-02T12:21:56.145Z</time>
      </trkpt>
      <trkpt lat="44.10834" lon="3.26073">
        <ele>457.33</ele>
        <time>2026-04-02T12:22:05.110Z</time>
      </trkpt>
      <trkpt lat="44.10839" lon="3.26072">
        <ele>459.13</ele>
        <time>2026-04-02T12:22:10.126Z</time>
      </trkpt>
      <trkpt lat="44.10831" lon="3.26061">
        <ele>458.04</ele>
        <time>2026-04-02T12:22:15.142Z</time>
      </trkpt>
      <trkpt lat="44.10829" lon="3.26059">
        <ele>455.72</ele>
        <time>2026-04-02T12:22:20.158Z</time>
      </trkpt>
      <trkpt lat="44.10829" lon="3.26063">
        <ele>454.85</ele>
        <time>2026-04-02T12:22:25.174Z</time>
      </trkpt>
      <trkpt lat="44.10829" lon="3.26065">
        <ele>456.96</ele>
        <time>2026-04-02T12:22:31.038Z</time>
      </trkpt>
      <trkpt lat="44.10828" lon="3.26057">
        <ele>459.17</ele>
        <time>2026-04-02T12:22:36.273Z</time>
      </trkpt>
      <trkpt lat="44.10834" lon="3.26057">
        <ele>458.73</ele>
        <time>2026-04-02T12:22:41.944Z</time>
      </trkpt>
      <trkpt lat="44.10836" lon="3.26058">
        <ele>456.81</ele>
        <time>2026-04-02T12:22:47.100Z</time>
      </trkpt>
      <trkpt lat="44.10839" lon="3.26056">
        <ele>456.83</ele>
        <time>2026-04-02T12:22:52.175Z</time>
      </trkpt>
      <trkpt lat="44.10841" lon="3.26052">
        <ele>456.97</ele>
        <time>2026-04-02T12:22:57.656Z</time>
      </trkpt>
      <trkpt lat="44.10846" lon="3.26048">
        <ele>456.24</ele>
        <time>2026-04-02T12:23:02.957Z</time>
      </trkpt>
      <trkpt lat="44.10852" lon="3.26049">
        <ele>457.43</ele>
        <time>2026-04-02T12:23:08.289Z</time>
      </trkpt>
      <trkpt lat="44.10855" lon="3.26049">
        <ele>456.75</ele>
        <time>2026-04-02T12:23:14.158Z</time>
      </trkpt>
      <trkpt lat="44.10858" lon="3.2605">
        <ele>458.69</ele>
        <time>2026-04-02T12:23:19.899Z</time>
      </trkpt>
      <trkpt lat="44.10847" lon="3.26043">
        <ele>454.73</ele>
        <time>2026-04-02T12:25:20.155Z</time>
      </trkpt>
      <trkpt lat="44.10849" lon="3.26043">
        <ele>455.2</ele>
        <time>2026-04-02T12:25:34.133Z</time>
      </trkpt>
      <trkpt lat="44.10852" lon="3.26042">
        <ele>454.52</ele>
        <time>2026-04-02T12:25:39.149Z</time>
      </trkpt>
      <trkpt lat="44.10857" lon="3.26041">
        <ele>454.92</ele>
        <time>2026-04-02T12:25:44.165Z</time>
      </trkpt>
      <trkpt lat="44.10857" lon="3.26039">
        <ele>455.59</ele>
        <time>2026-04-02T12:25:49.180Z</time>
      </trkpt>
      <trkpt lat="44.10856" lon="3.2604">
        <ele>454.88</ele>
        <time>2026-04-02T12:25:55.156Z</time>
      </trkpt>
      <trkpt lat="44.10855" lon="3.26041">
        <ele>454.89</ele>
        <time>2026-04-02T12:26:05.187Z</time>
      </trkpt>
      <trkpt lat="44.10853" lon="3.26042">
        <ele>455.59</ele>
        <time>2026-04-02T12:26:10.201Z</time>
      </trkpt>
      <trkpt lat="44.10852" lon="3.26044">
        <ele>455.61</ele>
        <time>2026-04-02T12:26:15.218Z</time>
      </trkpt>
      <trkpt lat="44.10851" lon="3.26043">
        <ele>454.9</ele>
        <time>2026-04-02T12:26:20.233Z</time>
      </trkpt>
      <trkpt lat="44.1085" lon="3.26042">
        <ele>453.81</ele>
        <time>2026-04-02T12:26:26.102Z</time>
      </trkpt>
      <trkpt lat="44.10848" lon="3.26042">
        <ele>453.23</ele>
        <time>2026-04-02T12:26:31.224Z</time>
      </trkpt>
      <trkpt lat="44.10852" lon="3.26037">
        <ele>453.42</ele>
        <time>2026-04-02T12:26:37.200Z</time>
      </trkpt>
      <trkpt lat="44.10849" lon="3.26039">
        <ele>453.89</ele>
        <time>2026-04-02T12:26:42.839Z</time>
      </trkpt>
      <trkpt lat="44.10847" lon="3.26046">
        <ele>453.35</ele>
        <time>2026-04-02T12:26:48.191Z</time>
      </trkpt>
      <trkpt lat="44.10845" lon="3.26052">
        <ele>453.61</ele>
        <time>2026-04-02T12:26:53.840Z</time>
      </trkpt>
      <trkpt lat="44.10846" lon="3.26051">
        <ele>455.15</ele>
        <time>2026-04-02T12:27:03.139Z</time>
      </trkpt>
      <trkpt lat="44.10845" lon="3.26052">
        <ele>454.25</ele>
        <time>2026-04-02T12:27:12.643Z</time>
      </trkpt>
      <trkpt lat="44.10841" lon="3.26066">
        <ele>454.53</ele>
        <time>2026-04-02T12:27:18.062Z</time>
      </trkpt>
      <trkpt lat="44.10834" lon="3.26072">
        <ele>456.51</ele>
        <time>2026-04-02T12:27:23.533Z</time>
      </trkpt>
      <trkpt lat="44.10828" lon="3.26076">
        <ele>456.81</ele>
        <time>2026-04-02T12:27:29.223Z</time>
      </trkpt>
      <trkpt lat="44.10828" lon="3.26084">
        <ele>457.15</ele>
        <time>2026-04-02T12:27:35.104Z</time>
      </trkpt>
      <trkpt lat="44.10833" lon="3.26088">
        <ele>458.11</ele>
        <time>2026-04-02T12:27:40.646Z</time>
      </trkpt>
      <trkpt lat="44.10833" lon="3.26086">
        <ele>457.41</ele>
        <time>2026-04-02T12:27:45.658Z</time>
      </trkpt>
      <trkpt lat="44.10832" lon="3.26085">
        <ele>457.7</ele>
        <time>2026-04-02T12:27:51.115Z</time>
      </trkpt>
      <trkpt lat="44.10832" lon="3.26083">
        <ele>458.88</ele>
        <time>2026-04-02T12:27:56.131Z</time>
      </trkpt>
      <trkpt lat="44.10833" lon="3.26083">
        <ele>458.21</ele>
        <time>2026-04-02T12:28:01.146Z</time>
      </trkpt>
      <trkpt lat="44.10833" lon="3.26081">
        <ele>457.25</ele>
        <time>2026-04-02T12:28:09.150Z</time>
      </trkpt>
      <trkpt lat="44.10834" lon="3.2608">
        <ele>457.54</ele>
        <time>2026-04-02T12:28:21.736Z</time>
      </trkpt>
      <trkpt lat="44.1084" lon="3.26084">
        <ele>458.88</ele>
        <time>2026-04-02T12:28:27.185Z</time>
      </trkpt>
      <trkpt lat="44.10847" lon="3.26083">
        <ele>460.69</ele>
        <time>2026-04-02T12:28:32.201Z</time>
      </trkpt>
      <trkpt lat="44.10851" lon="3.26081">
        <ele>460.75</ele>
        <time>2026-04-02T12:28:37.216Z</time>
      </trkpt>
      <trkpt lat="44.10852" lon="3.26082">
        <ele>462.72</ele>
        <time>2026-04-02T12:28:43.193Z</time>
      </trkpt>
      <trkpt lat="44.10853" lon="3.26083">
        <ele>464.2</ele>
        <time>2026-04-02T12:28:55.243Z</time>
      </trkpt>
      <trkpt lat="44.1086" lon="3.26086">
        <ele>462.98</ele>
        <time>2026-04-02T12:29:01.246Z</time>
      </trkpt>
      <trkpt lat="44.10868" lon="3.2609">
        <ele>467.85</ele>
        <time>2026-04-02T12:29:06.774Z</time>
      </trkpt>
      <trkpt lat="44.10874" lon="3.26092">
        <ele>467.43</ele>
        <time>2026-04-02T12:29:12.073Z</time>
      </trkpt>
      <trkpt lat="44.10881" lon="3.26089">
        <ele>468.82</ele>
        <time>2026-04-02T12:29:18.048Z</time>
      </trkpt>
      <trkpt lat="44.10887" lon="3.26082">
        <ele>471.42</ele>
        <time>2026-04-02T12:29:23.229Z</time>
      </trkpt>
      <trkpt lat="44.10894" lon="3.26079">
        <ele>471.28</ele>
        <time>2026-04-02T12:29:28.685Z</time>
      </trkpt>
      <trkpt lat="44.10899" lon="3.26087">
        <ele>472.7</ele>
        <time>2026-04-02T12:29:33.983Z</time>
      </trkpt>
      <trkpt lat="44.10907" lon="3.26094">
        <ele>473.49</ele>
        <time>2026-04-02T12:29:39.236Z</time>
      </trkpt>
      <trkpt lat="44.10915" lon="3.261">
        <ele>474.18</ele>
        <time>2026-04-02T12:29:45.031Z</time>
      </trkpt>
      <trkpt lat="44.10921" lon="3.26099">
        <ele>475.25</ele>
        <time>2026-04-02T12:29:50.230Z</time>
      </trkpt>
      <trkpt lat="44.10928" lon="3.26098">
        <ele>474.8</ele>
        <time>2026-04-02T12:29:55.870Z</time>
      </trkpt>
      <trkpt lat="44.10933" lon="3.26095">
        <ele>476.06</ele>
        <time>2026-04-02T12:30:01.217Z</time>
      </trkpt>
      <trkpt lat="44.10938" lon="3.26095">
        <ele>475.5</ele>
        <time>2026-04-02T12:30:06.735Z</time>
      </trkpt>
      <trkpt lat="44.10945" lon="3.26096">
        <ele>479.54</ele>
        <time>2026-04-02T12:30:12.226Z</time>
      </trkpt>
      <trkpt lat="44.1095" lon="3.26097">
        <ele>479.2</ele>
        <time>2026-04-02T12:30:17.242Z</time>
      </trkpt>
      <trkpt lat="44.10956" lon="3.26096">
        <ele>478.87</ele>
        <time>2026-04-02T12:30:22.573Z</time>
      </trkpt>
      <trkpt lat="44.10961" lon="3.26093">
        <ele>477.82</ele>
        <time>2026-04-02T12:30:27.632Z</time>
      </trkpt>
      <trkpt lat="44.10966" lon="3.26091">
        <ele>478.5</ele>
        <time>2026-04-02T12:30:33.095Z</time>
      </trkpt>
      <trkpt lat="44.1097" lon="3.26088">
        <ele>481.3</ele>
        <time>2026-04-02T12:30:38.696Z</time>
      </trkpt>
      <trkpt lat="44.1097" lon="3.26082">
        <ele>483.34</ele>
        <time>2026-04-02T12:30:44.140Z</time>
      </trkpt>
      <trkpt lat="44.1097" lon="3.26083">
        <ele>481.18</ele>
        <time>2026-04-02T12:30:49.156Z</time>
      </trkpt>
      <trkpt lat="44.10971" lon="3.26082">
        <ele>479.8</ele>
        <time>2026-04-02T12:30:54.452Z</time>
      </trkpt>
      <trkpt lat="44.10976" lon="3.26075">
        <ele>481.8</ele>
        <time>2026-04-02T12:31:00.054Z</time>
      </trkpt>
      <trkpt lat="44.10988" lon="3.26074">
        <ele>485.8</ele>
        <time>2026-04-02T12:31:05.278Z</time>
      </trkpt>
      <trkpt lat="44.10997" lon="3.26077">
        <ele>484.63</ele>
        <time>2026-04-02T12:31:10.973Z</time>
      </trkpt>
      <trkpt lat="44.11001" lon="3.26076">
        <ele>485.8</ele>
        <time>2026-04-02T12:31:16.051Z</time>
      </trkpt>
      <trkpt lat="44.11001" lon="3.26072">
        <ele>485.12</ele>
        <time>2026-04-02T12:31:21.178Z</time>
      </trkpt>
      <trkpt lat="44.11002" lon="3.26069">
        <ele>485.02</ele>
        <time>2026-04-02T12:31:26.193Z</time>
      </trkpt>
      <trkpt lat="44.11002" lon="3.26059">
        <ele>485.06</ele>
        <time>2026-04-02T12:31:32.171Z</time>
      </trkpt>
      <trkpt lat="44.11002" lon="3.26052">
        <ele>487.39</ele>
        <time>2026-04-02T12:31:37.811Z</time>
      </trkpt>
      <trkpt lat="44.11007" lon="3.26048">
        <ele>485.77</ele>
        <time>2026-04-02T12:31:43.160Z</time>
      </trkpt>
      <trkpt lat="44.11013" lon="3.26046">
        <ele>485.63</ele>
        <time>2026-04-02T12:31:48.489Z</time>
      </trkpt>
      <trkpt lat="44.11018" lon="3.26046">
        <ele>485.83</ele>
        <time>2026-04-02T12:31:53.514Z</time>
      </trkpt>
      <trkpt lat="44.11025" lon="3.26045">
        <ele>488.24</ele>
        <time>2026-04-02T12:31:58.978Z</time>
      </trkpt>
      <trkpt lat="44.11029" lon="3.26044">
        <ele>487.86</ele>
        <time>2026-04-02T12:32:04.181Z</time>
      </trkpt>
      <trkpt lat="44.11032" lon="3.26039">
        <ele>488.54</ele>
        <time>2026-04-02T12:32:09.297Z</time>
      </trkpt>
      <trkpt lat="44.11035" lon="3.26035">
        <ele>490.05</ele>
        <time>2026-04-02T12:32:15.172Z</time>
      </trkpt>
      <trkpt lat="44.11038" lon="3.26032">
        <ele>489.37</ele>
        <time>2026-04-02T12:32:20.796Z</time>
      </trkpt>
      <trkpt lat="44.11044" lon="3.2603">
        <ele>488.82</ele>
        <time>2026-04-02T12:32:26.016Z</time>
      </trkpt>
      <trkpt lat="44.11051" lon="3.26028">
        <ele>488.02</ele>
        <time>2026-04-02T12:32:31.136Z</time>
      </trkpt>
      <trkpt lat="44.11057" lon="3.26026">
        <ele>487.78</ele>
        <time>2026-04-02T12:32:36.615Z</time>
      </trkpt>
      <trkpt lat="44.11062" lon="3.26026">
        <ele>489.53</ele>
        <time>2026-04-02T12:32:41.819Z</time>
      </trkpt>
      <trkpt lat="44.11069" lon="3.26025">
        <ele>489.13</ele>
        <time>2026-04-02T12:32:47.184Z</time>
      </trkpt>
      <trkpt lat="44.11075" lon="3.26024">
        <ele>489.21</ele>
        <time>2026-04-02T12:32:52.513Z</time>
      </trkpt>
      <trkpt lat="44.11081" lon="3.26022">
        <ele>488.69</ele>
        <time>2026-04-02T12:32:57.572Z</time>
      </trkpt>
      <trkpt lat="44.11088" lon="3.2602">
        <ele>488.2</ele>
        <time>2026-04-02T12:33:03.139Z</time>
      </trkpt>
      <trkpt lat="44.11094" lon="3.26016">
        <ele>491.23</ele>
        <time>2026-04-02T12:33:08.205Z</time>
      </trkpt>
      <trkpt lat="44.11099" lon="3.26013">
        <ele>492.47</ele>
        <time>2026-04-02T12:33:13.641Z</time>
      </trkpt>
      <trkpt lat="44.11103" lon="3.26008">
        <ele>491.76</ele>
        <time>2026-04-02T12:33:18.739Z</time>
      </trkpt>
      <trkpt lat="44.1111" lon="3.26004">
        <ele>491.8</ele>
        <time>2026-04-02T12:33:24.257Z</time>
      </trkpt>
      <trkpt lat="44.11116" lon="3.26001">
        <ele>490.55</ele>
        <time>2026-04-02T12:33:29.318Z</time>
      </trkpt>
      <trkpt lat="44.11122" lon="3.25999">
        <ele>492.08</ele>
        <time>2026-04-02T12:33:34.797Z</time>
      </trkpt>
      <trkpt lat="44.11128" lon="3.25996">
        <ele>493.16</ele>
        <time>2026-04-02T12:33:40.121Z</time>
      </trkpt>
      <trkpt lat="44.11133" lon="3.25995">
        <ele>492</ele>
        <time>2026-04-02T12:33:45.231Z</time>
      </trkpt>
      <trkpt lat="44.11139" lon="3.2599">
        <ele>491.41</ele>
        <time>2026-04-02T12:33:51.206Z</time>
      </trkpt>
      <trkpt lat="44.11144" lon="3.25988">
        <ele>492.13</ele>
        <time>2026-04-02T12:33:56.636Z</time>
      </trkpt>
      <trkpt lat="44.11151" lon="3.25986">
        <ele>494.62</ele>
        <time>2026-04-02T12:34:02.234Z</time>
      </trkpt>
      <trkpt lat="44.11158" lon="3.25983">
        <ele>495.07</ele>
        <time>2026-04-02T12:34:07.600Z</time>
      </trkpt>
      <trkpt lat="44.11164" lon="3.25981">
        <ele>496.11</ele>
        <time>2026-04-02T12:34:12.914Z</time>
      </trkpt>
      <trkpt lat="44.1117" lon="3.25978">
        <ele>495.3</ele>
        <time>2026-04-02T12:34:18.094Z</time>
      </trkpt>
      <trkpt lat="44.11175" lon="3.25976">
        <ele>495.35</ele>
        <time>2026-04-02T12:34:23.114Z</time>
      </trkpt>
      <trkpt lat="44.1118" lon="3.25976">
        <ele>496.24</ele>
        <time>2026-04-02T12:34:28.134Z</time>
      </trkpt>
      <trkpt lat="44.11185" lon="3.25975">
        <ele>494.92</ele>
        <time>2026-04-02T12:34:34.216Z</time>
      </trkpt>
      <trkpt lat="44.1119" lon="3.25974">
        <ele>494.95</ele>
        <time>2026-04-02T12:34:39.793Z</time>
      </trkpt>
      <trkpt lat="44.11194" lon="3.25977">
        <ele>494.17</ele>
        <time>2026-04-02T12:34:45.449Z</time>
      </trkpt>
      <trkpt lat="44.11198" lon="3.25978">
        <ele>494.99</ele>
        <time>2026-04-02T12:34:50.591Z</time>
      </trkpt>
      <trkpt lat="44.11204" lon="3.25979">
        <ele>496.75</ele>
        <time>2026-04-02T12:34:56.197Z</time>
      </trkpt>
      <trkpt lat="44.1121" lon="3.25979">
        <ele>497.48</ele>
        <time>2026-04-02T12:35:01.213Z</time>
      </trkpt>
      <trkpt lat="44.11216" lon="3.25977">
        <ele>495.5</ele>
        <time>2026-04-02T12:35:06.228Z</time>
      </trkpt>
      <trkpt lat="44.11223" lon="3.25975">
        <ele>495.27</ele>
        <time>2026-04-02T12:35:11.228Z</time>
      </trkpt>
      <trkpt lat="44.11229" lon="3.2597">
        <ele>499.83</ele>
        <time>2026-04-02T12:35:16.394Z</time>
      </trkpt>
      <trkpt lat="44.11234" lon="3.25966">
        <ele>495.61</ele>
        <time>2026-04-02T12:35:21.453Z</time>
      </trkpt>
      <trkpt lat="44.1124" lon="3.25964">
        <ele>496.27</ele>
        <time>2026-04-02T12:35:27.029Z</time>
      </trkpt>
      <trkpt lat="44.11246" lon="3.25963">
        <ele>496.15</ele>
        <time>2026-04-02T12:35:32.088Z</time>
      </trkpt>
      <trkpt lat="44.11252" lon="3.25961">
        <ele>496.1</ele>
        <time>2026-04-02T12:35:37.209Z</time>
      </trkpt>
      <trkpt lat="44.11257" lon="3.25958">
        <ele>501.7</ele>
        <time>2026-04-02T12:35:42.269Z</time>
      </trkpt>
      <trkpt lat="44.11264" lon="3.25953">
        <ele>499.77</ele>
        <time>2026-04-02T12:35:47.615Z</time>
      </trkpt>
      <trkpt lat="44.11271" lon="3.25946">
        <ele>496.81</ele>
        <time>2026-04-02T12:35:53.178Z</time>
      </trkpt>
      <trkpt lat="44.11278" lon="3.25943">
        <ele>497.16</ele>
        <time>2026-04-02T12:35:58.193Z</time>
      </trkpt>
      <trkpt lat="44.11285" lon="3.2594">
        <ele>497.22</ele>
        <time>2026-04-02T12:36:03.971Z</time>
      </trkpt>
      <trkpt lat="44.11292" lon="3.25939">
        <ele>502.96</ele>
        <time>2026-04-02T12:36:09.184Z</time>
      </trkpt>
      <trkpt lat="44.11298" lon="3.25937">
        <ele>500.99</ele>
        <time>2026-04-02T12:36:14.871Z</time>
      </trkpt>
      <trkpt lat="44.11304" lon="3.25933">
        <ele>499.16</ele>
        <time>2026-04-02T12:36:19.913Z</time>
      </trkpt>
      <trkpt lat="44.11313" lon="3.25931">
        <ele>498.47</ele>
        <time>2026-04-02T12:36:25.190Z</time>
      </trkpt>
      <trkpt lat="44.11321" lon="3.25929">
        <ele>498.98</ele>
        <time>2026-04-02T12:36:30.205Z</time>
      </trkpt>
      <trkpt lat="44.11326" lon="3.25928">
        <ele>502.51</ele>
        <time>2026-04-02T12:36:35.221Z</time>
      </trkpt>
      <trkpt lat="44.11332" lon="3.25927">
        <ele>502.89</ele>
        <time>2026-04-02T12:36:40.674Z</time>
      </trkpt>
      <trkpt lat="44.11339" lon="3.25924">
        <ele>499.79</ele>
        <time>2026-04-02T12:36:46.210Z</time>
      </trkpt>
      <trkpt lat="44.11344" lon="3.2592">
        <ele>498.94</ele>
        <time>2026-04-02T12:36:51.226Z</time>
      </trkpt>
      <trkpt lat="44.11348" lon="3.25912">
        <ele>498.91</ele>
        <time>2026-04-02T12:36:57.171Z</time>
      </trkpt>
      <trkpt lat="44.11353" lon="3.25904">
        <ele>501.75</ele>
        <time>2026-04-02T12:37:02.755Z</time>
      </trkpt>
      <trkpt lat="44.11359" lon="3.25899">
        <ele>500.16</ele>
        <time>2026-04-02T12:37:08.519Z</time>
      </trkpt>
      <trkpt lat="44.11365" lon="3.25894">
        <ele>495.56</ele>
        <time>2026-04-02T12:37:14.136Z</time>
      </trkpt>
      <trkpt lat="44.11368" lon="3.25893">
        <ele>487.79</ele>
        <time>2026-04-02T12:37:19.324Z</time>
      </trkpt>
      <trkpt lat="44.11366" lon="3.25893">
        <ele>495.71</ele>
        <time>2026-04-02T12:37:25.158Z</time>
      </trkpt>
      <trkpt lat="44.11368" lon="3.25891">
        <ele>499.8</ele>
        <time>2026-04-02T12:37:33.142Z</time>
      </trkpt>
      <trkpt lat="44.11371" lon="3.25885">
        <ele>497.66</ele>
        <time>2026-04-02T12:37:38.748Z</time>
      </trkpt>
      <trkpt lat="44.11373" lon="3.25876">
        <ele>488.82</ele>
        <time>2026-04-02T12:37:44.258Z</time>
      </trkpt>
      <trkpt lat="44.11375" lon="3.25867">
        <ele>487.98</ele>
        <time>2026-04-02T12:37:50.132Z</time>
      </trkpt>
      <trkpt lat="44.11374" lon="3.25857">
        <ele>484.08</ele>
        <time>2026-04-02T12:37:55.349Z</time>
      </trkpt>
      <trkpt lat="44.11372" lon="3.25848">
        <ele>483.31</ele>
        <time>2026-04-02T12:38:00.632Z</time>
      </trkpt>
      <trkpt lat="44.11369" lon="3.25843">
        <ele>482.82</ele>
        <time>2026-04-02T12:38:05.693Z</time>
      </trkpt>
      <trkpt lat="44.11365" lon="3.25836">
        <ele>483.62</ele>
        <time>2026-04-02T12:38:11.037Z</time>
      </trkpt>
      <trkpt lat="44.11358" lon="3.25833">
        <ele>482.85</ele>
        <time>2026-04-02T12:38:16.630Z</time>
      </trkpt>
      <trkpt lat="44.11351" lon="3.2583">
        <ele>481.69</ele>
        <time>2026-04-02T12:38:22.132Z</time>
      </trkpt>
      <trkpt lat="44.11346" lon="3.25826">
        <ele>481.1</ele>
        <time>2026-04-02T12:38:27.259Z</time>
      </trkpt>
      <trkpt lat="44.1134" lon="3.25822">
        <ele>480.9</ele>
        <time>2026-04-02T12:38:33.228Z</time>
      </trkpt>
      <trkpt lat="44.11336" lon="3.25815">
        <ele>480.82</ele>
        <time>2026-04-02T12:38:38.814Z</time>
      </trkpt>
      <trkpt lat="44.11332" lon="3.25809">
        <ele>480.67</ele>
        <time>2026-04-02T12:38:44.225Z</time>
      </trkpt>
      <trkpt lat="44.11327" lon="3.25801">
        <ele>479.85</ele>
        <time>2026-04-02T12:38:49.975Z</time>
      </trkpt>
      <trkpt lat="44.11325" lon="3.25791">
        <ele>479.82</ele>
        <time>2026-04-02T12:38:55.528Z</time>
      </trkpt>
      <trkpt lat="44.11323" lon="3.25782">
        <ele>479.61</ele>
        <time>2026-04-02T12:39:01.070Z</time>
      </trkpt>
      <trkpt lat="44.11323" lon="3.25773">
        <ele>478.71</ele>
        <time>2026-04-02T12:39:06.206Z</time>
      </trkpt>
      <trkpt lat="44.11326" lon="3.25763">
        <ele>477.04</ele>
        <time>2026-04-02T12:39:12.255Z</time>
      </trkpt>
      <trkpt lat="44.11327" lon="3.25752">
        <ele>476.67</ele>
        <time>2026-04-02T12:39:17.756Z</time>
      </trkpt>
      <trkpt lat="44.11329" lon="3.25743">
        <ele>476.59</ele>
        <time>2026-04-02T12:39:23.172Z</time>
      </trkpt>
      <trkpt lat="44.11329" lon="3.25734">
        <ele>476.01</ele>
        <time>2026-04-02T12:39:28.187Z</time>
      </trkpt>
      <trkpt lat="44.11329" lon="3.25726">
        <ele>474.26</ele>
        <time>2026-04-02T12:39:33.202Z</time>
      </trkpt>
      <trkpt lat="44.11327" lon="3.25719">
        <ele>469.69</ele>
        <time>2026-04-02T12:39:39.178Z</time>
      </trkpt>
      <trkpt lat="44.11327" lon="3.2571">
        <ele>469.93</ele>
        <time>2026-04-02T12:39:44.553Z</time>
      </trkpt>
      <trkpt lat="44.11326" lon="3.25702">
        <ele>476.63</ele>
        <time>2026-04-02T12:39:49.929Z</time>
      </trkpt>
      <trkpt lat="44.11324" lon="3.25693">
        <ele>476.45</ele>
        <time>2026-04-02T12:39:55.313Z</time>
      </trkpt>
      <trkpt lat="44.11322" lon="3.25684">
        <ele>475.1</ele>
        <time>2026-04-02T12:40:01.265Z</time>
      </trkpt>
      <trkpt lat="44.11323" lon="3.25673">
        <ele>473.36</ele>
        <time>2026-04-02T12:40:07.032Z</time>
      </trkpt>
      <trkpt lat="44.11324" lon="3.25667">
        <ele>472.58</ele>
        <time>2026-04-02T12:40:12.149Z</time>
      </trkpt>
      <trkpt lat="44.11326" lon="3.25662">
        <ele>472.69</ele>
        <time>2026-04-02T12:40:17.676Z</time>
      </trkpt>
      <trkpt lat="44.11327" lon="3.25657">
        <ele>475.25</ele>
        <time>2026-04-02T12:40:23.138Z</time>
      </trkpt>
      <trkpt lat="44.11329" lon="3.25653">
        <ele>476.4</ele>
        <time>2026-04-02T12:40:28.155Z</time>
      </trkpt>
      <trkpt lat="44.11331" lon="3.25648">
        <ele>477.47</ele>
        <time>2026-04-02T12:40:33.170Z</time>
      </trkpt>
      <trkpt lat="44.11333" lon="3.2564">
        <ele>478.02</ele>
        <time>2026-04-02T12:40:38.794Z</time>
      </trkpt>
      <trkpt lat="44.11334" lon="3.25634">
        <ele>478.29</ele>
        <time>2026-04-02T12:40:43.855Z</time>
      </trkpt>
      <trkpt lat="44.11334" lon="3.25629">
        <ele>480.15</ele>
        <time>2026-04-02T12:40:48.917Z</time>
      </trkpt>
      <trkpt lat="44.11336" lon="3.25625">
        <ele>481.4</ele>
        <time>2026-04-02T12:40:54.658Z</time>
      </trkpt>
      <trkpt lat="44.11338" lon="3.25623">
        <ele>482.27</ele>
        <time>2026-04-02T12:40:59.993Z</time>
      </trkpt>
      <trkpt lat="44.11339" lon="3.2562">
        <ele>481.94</ele>
        <time>2026-04-02T12:41:05.229Z</time>
      </trkpt>
      <trkpt lat="44.11341" lon="3.25616">
        <ele>483.47</ele>
        <time>2026-04-02T12:41:10.636Z</time>
      </trkpt>
      <trkpt lat="44.11345" lon="3.25611">
        <ele>485.31</ele>
        <time>2026-04-02T12:41:15.889Z</time>
      </trkpt>
      <trkpt lat="44.11348" lon="3.25607">
        <ele>485.99</ele>
        <time>2026-04-02T12:41:21.590Z</time>
      </trkpt>
      <trkpt lat="44.1135" lon="3.256">
        <ele>486.11</ele>
        <time>2026-04-02T12:41:27.269Z</time>
      </trkpt>
      <trkpt lat="44.11352" lon="3.25593">
        <ele>486.94</ele>
        <time>2026-04-02T12:41:32.699Z</time>
      </trkpt>
      <trkpt lat="44.11352" lon="3.25588">
        <ele>488.33</ele>
        <time>2026-04-02T12:41:38.117Z</time>
      </trkpt>
      <trkpt lat="44.11353" lon="3.25582">
        <ele>489.48</ele>
        <time>2026-04-02T12:41:43.617Z</time>
      </trkpt>
      <trkpt lat="44.11354" lon="3.25575">
        <ele>491.94</ele>
        <time>2026-04-02T12:41:48.792Z</time>
      </trkpt>
      <trkpt lat="44.11354" lon="3.25569">
        <ele>491.73</ele>
        <time>2026-04-02T12:41:54.075Z</time>
      </trkpt>
      <trkpt lat="44.11354" lon="3.25561">
        <ele>492</ele>
        <time>2026-04-02T12:41:59.578Z</time>
      </trkpt>
      <trkpt lat="44.11355" lon="3.25553">
        <ele>492.61</ele>
        <time>2026-04-02T12:42:04.781Z</time>
      </trkpt>
      <trkpt lat="44.11356" lon="3.25548">
        <ele>493</ele>
        <time>2026-04-02T12:42:09.811Z</time>
      </trkpt>
      <trkpt lat="44.11358" lon="3.25542">
        <ele>495.92</ele>
        <time>2026-04-02T12:42:15.575Z</time>
      </trkpt>
      <trkpt lat="44.1136" lon="3.25536">
        <ele>497.64</ele>
        <time>2026-04-02T12:42:21.211Z</time>
      </trkpt>
      <trkpt lat="44.11364" lon="3.25529">
        <ele>497.85</ele>
        <time>2026-04-02T12:42:26.652Z</time>
      </trkpt>
      <trkpt lat="44.11367" lon="3.25524">
        <ele>499.38</ele>
        <time>2026-04-02T12:42:31.713Z</time>
      </trkpt>
      <trkpt lat="44.11369" lon="3.25518">
        <ele>499.35</ele>
        <time>2026-04-02T12:42:37.232Z</time>
      </trkpt>
      <trkpt lat="44.11372" lon="3.2551">
        <ele>498.66</ele>
        <time>2026-04-02T12:42:42.977Z</time>
      </trkpt>
      <trkpt lat="44.11375" lon="3.25502">
        <ele>499.35</ele>
        <time>2026-04-02T12:42:48.176Z</time>
      </trkpt>
      <trkpt lat="44.11378" lon="3.25497">
        <ele>499.72</ele>
        <time>2026-04-02T12:42:53.238Z</time>
      </trkpt>
      <trkpt lat="44.11381" lon="3.25492">
        <ele>500.68</ele>
        <time>2026-04-02T12:42:59.064Z</time>
      </trkpt>
      <trkpt lat="44.11384" lon="3.25486">
        <ele>501.28</ele>
        <time>2026-04-02T12:43:04.122Z</time>
      </trkpt>
      <trkpt lat="44.11386" lon="3.25481">
        <ele>501.78</ele>
        <time>2026-04-02T12:43:09.200Z</time>
      </trkpt>
      <trkpt lat="44.1139" lon="3.25477">
        <ele>502.73</ele>
        <time>2026-04-02T12:43:14.211Z</time>
      </trkpt>
      <trkpt lat="44.11393" lon="3.25474">
        <ele>502.86</ele>
        <time>2026-04-02T12:43:19.226Z</time>
      </trkpt>
      <trkpt lat="44.11398" lon="3.2547">
        <ele>504.37</ele>
        <time>2026-04-02T12:43:24.587Z</time>
      </trkpt>
      <trkpt lat="44.11402" lon="3.25466">
        <ele>505.25</ele>
        <time>2026-04-02T12:43:29.645Z</time>
      </trkpt>
      <trkpt lat="44.11406" lon="3.25464">
        <ele>506.6</ele>
        <time>2026-04-02T12:43:35.232Z</time>
      </trkpt>
      <trkpt lat="44.11408" lon="3.25463">
        <ele>508</ele>
        <time>2026-04-02T12:43:40.246Z</time>
      </trkpt>
      <trkpt lat="44.11413" lon="3.25461">
        <ele>509.39</ele>
        <time>2026-04-02T12:43:45.262Z</time>
      </trkpt>
      <trkpt lat="44.11417" lon="3.25459">
        <ele>510.64</ele>
        <time>2026-04-02T12:43:50.540Z</time>
      </trkpt>
      <trkpt lat="44.11422" lon="3.25455">
        <ele>511.74</ele>
        <time>2026-04-02T12:43:55.802Z</time>
      </trkpt>
      <trkpt lat="44.11426" lon="3.25454">
        <ele>512.27</ele>
        <time>2026-04-02T12:44:01.160Z</time>
      </trkpt>
      <trkpt lat="44.11429" lon="3.25449">
        <ele>513.25</ele>
        <time>2026-04-02T12:44:06.785Z</time>
      </trkpt>
      <trkpt lat="44.11432" lon="3.25445">
        <ele>513.6</ele>
        <time>2026-04-02T12:44:11.842Z</time>
      </trkpt>
      <trkpt lat="44.11434" lon="3.25442">
        <ele>513.73</ele>
        <time>2026-04-02T12:44:17.087Z</time>
      </trkpt>
      <trkpt lat="44.11436" lon="3.2544">
        <ele>515.16</ele>
        <time>2026-04-02T12:44:22.558Z</time>
      </trkpt>
      <trkpt lat="44.11439" lon="3.25435">
        <ele>516.6</ele>
        <time>2026-04-02T12:44:28.221Z</time>
      </trkpt>
      <trkpt lat="44.11442" lon="3.25428">
        <ele>518.26</ele>
        <time>2026-04-02T12:44:34.165Z</time>
      </trkpt>
      <trkpt lat="44.11443" lon="3.25423">
        <ele>518.83</ele>
        <time>2026-04-02T12:44:39.236Z</time>
      </trkpt>
      <trkpt lat="44.11444" lon="3.25418">
        <ele>519.64</ele>
        <time>2026-04-02T12:44:44.760Z</time>
      </trkpt>
      <trkpt lat="44.11446" lon="3.25414">
        <ele>521.07</ele>
        <time>2026-04-02T12:44:50.243Z</time>
      </trkpt>
      <trkpt lat="44.11449" lon="3.2541">
        <ele>522.42</ele>
        <time>2026-04-02T12:44:55.857Z</time>
      </trkpt>
      <trkpt lat="44.11452" lon="3.25406">
        <ele>523.53</ele>
        <time>2026-04-02T12:45:00.960Z</time>
      </trkpt>
      <trkpt lat="44.11454" lon="3.25403">
        <ele>524.23</ele>
        <time>2026-04-02T12:45:06.169Z</time>
      </trkpt>
      <trkpt lat="44.11455" lon="3.25398">
        <ele>526.16</ele>
        <time>2026-04-02T12:45:11.801Z</time>
      </trkpt>
      <trkpt lat="44.11454" lon="3.25395">
        <ele>527.31</ele>
        <time>2026-04-02T12:45:16.859Z</time>
      </trkpt>
      <trkpt lat="44.11455" lon="3.2539">
        <ele>528.79</ele>
        <time>2026-04-02T12:45:21.937Z</time>
      </trkpt>
      <trkpt lat="44.11455" lon="3.25384">
        <ele>529.6</ele>
        <time>2026-04-02T12:45:27.138Z</time>
      </trkpt>
      <trkpt lat="44.11456" lon="3.25374">
        <ele>529.89</ele>
        <time>2026-04-02T12:45:32.258Z</time>
      </trkpt>
      <trkpt lat="44.11456" lon="3.25368">
        <ele>530.51</ele>
        <time>2026-04-02T12:45:37.925Z</time>
      </trkpt>
      <trkpt lat="44.11457" lon="3.25363">
        <ele>530.96</ele>
        <time>2026-04-02T12:45:43.184Z</time>
      </trkpt>
      <trkpt lat="44.11459" lon="3.25358">
        <ele>532.21</ele>
        <time>2026-04-02T12:45:48.199Z</time>
      </trkpt>
      <trkpt lat="44.11461" lon="3.25354">
        <ele>534.39</ele>
        <time>2026-04-02T12:45:53.214Z</time>
      </trkpt>
      <trkpt lat="44.11463" lon="3.25347">
        <ele>534.66</ele>
        <time>2026-04-02T12:45:58.919Z</time>
      </trkpt>
      <trkpt lat="44.11466" lon="3.25341">
        <ele>535.5</ele>
        <time>2026-04-02T12:46:04.121Z</time>
      </trkpt>
      <trkpt lat="44.11468" lon="3.25332">
        <ele>535.62</ele>
        <time>2026-04-02T12:46:09.863Z</time>
      </trkpt>
      <trkpt lat="44.11469" lon="3.25326">
        <ele>536.49</ele>
        <time>2026-04-02T12:46:14.905Z</time>
      </trkpt>
      <trkpt lat="44.11471" lon="3.25319">
        <ele>537.58</ele>
        <time>2026-04-02T12:46:20.142Z</time>
      </trkpt>
      <trkpt lat="44.11473" lon="3.25311">
        <ele>538.44</ele>
        <time>2026-04-02T12:46:25.224Z</time>
      </trkpt>
      <trkpt lat="44.11475" lon="3.25304">
        <ele>537.86</ele>
        <time>2026-04-02T12:46:30.257Z</time>
      </trkpt>
      <trkpt lat="44.11477" lon="3.25297">
        <ele>537.67</ele>
        <time>2026-04-02T12:46:35.759Z</time>
      </trkpt>
      <trkpt lat="44.1148" lon="3.25291">
        <ele>538.61</ele>
        <time>2026-04-02T12:46:40.833Z</time>
      </trkpt>
      <trkpt lat="44.11483" lon="3.25284">
        <ele>539.04</ele>
        <time>2026-04-02T12:46:46.159Z</time>
      </trkpt>
      <trkpt lat="44.11486" lon="3.25278">
        <ele>539.89</ele>
        <time>2026-04-02T12:46:51.179Z</time>
      </trkpt>
      <trkpt lat="44.11489" lon="3.25272">
        <ele>540.46</ele>
        <time>2026-04-02T12:46:56.269Z</time>
      </trkpt>
      <trkpt lat="44.11493" lon="3.25265">
        <ele>541.85</ele>
        <time>2026-04-02T12:47:01.711Z</time>
      </trkpt>
      <trkpt lat="44.11497" lon="3.25259">
        <ele>543.56</ele>
        <time>2026-04-02T12:47:06.732Z</time>
      </trkpt>
      <trkpt lat="44.11501" lon="3.25254">
        <ele>544.13</ele>
        <time>2026-04-02T12:47:12.034Z</time>
      </trkpt>
      <trkpt lat="44.11503" lon="3.25247">
        <ele>544.46</ele>
        <time>2026-04-02T12:47:17.297Z</time>
      </trkpt>
      <trkpt lat="44.11505" lon="3.2524">
        <ele>544.62</ele>
        <time>2026-04-02T12:47:23.189Z</time>
      </trkpt>
      <trkpt lat="44.11508" lon="3.25238">
        <ele>544.56</ele>
        <time>2026-04-02T12:47:28.796Z</time>
      </trkpt>
      <trkpt lat="44.11512" lon="3.25234">
        <ele>545.29</ele>
        <time>2026-04-02T12:47:33.801Z</time>
      </trkpt>
      <trkpt lat="44.11515" lon="3.25229">
        <ele>547.38</ele>
        <time>2026-04-02T12:47:39.211Z</time>
      </trkpt>
      <trkpt lat="44.11519" lon="3.25225">
        <ele>548.54</ele>
        <time>2026-04-02T12:47:44.800Z</time>
      </trkpt>
      <trkpt lat="44.11523" lon="3.25218">
        <ele>549.2</ele>
        <time>2026-04-02T12:47:50.216Z</time>
      </trkpt>
      <trkpt lat="44.11525" lon="3.2521">
        <ele>549.75</ele>
        <time>2026-04-02T12:47:55.541Z</time>
      </trkpt>
      <trkpt lat="44.11523" lon="3.25205">
        <ele>549.54</ele>
        <time>2026-04-02T12:48:01.192Z</time>
      </trkpt>
      <trkpt lat="44.11526" lon="3.25203">
        <ele>549.52</ele>
        <time>2026-04-02T12:48:06.557Z</time>
      </trkpt>
      <trkpt lat="44.11533" lon="3.25197">
        <ele>549.59</ele>
        <time>2026-04-02T12:48:12.103Z</time>
      </trkpt>
      <trkpt lat="44.11541" lon="3.25191">
        <ele>550.76</ele>
        <time>2026-04-02T12:48:17.619Z</time>
      </trkpt>
      <trkpt lat="44.11547" lon="3.25185">
        <ele>552.27</ele>
        <time>2026-04-02T12:48:23.139Z</time>
      </trkpt>
      <trkpt lat="44.11552" lon="3.25182">
        <ele>553.85</ele>
        <time>2026-04-02T12:48:28.278Z</time>
      </trkpt>
      <trkpt lat="44.11555" lon="3.25176">
        <ele>554.46</ele>
        <time>2026-04-02T12:48:33.857Z</time>
      </trkpt>
      <trkpt lat="44.11559" lon="3.2517">
        <ele>554.85</ele>
        <time>2026-04-02T12:48:39.176Z</time>
      </trkpt>
      <trkpt lat="44.11565" lon="3.25164">
        <ele>554.56</ele>
        <time>2026-04-02T12:48:45.181Z</time>
      </trkpt>
      <trkpt lat="44.11571" lon="3.25161">
        <ele>555.08</ele>
        <time>2026-04-02T12:48:50.257Z</time>
      </trkpt>
      <trkpt lat="44.11576" lon="3.25158">
        <ele>556.14</ele>
        <time>2026-04-02T12:48:55.622Z</time>
      </trkpt>
      <trkpt lat="44.11581" lon="3.25157">
        <ele>556.87</ele>
        <time>2026-04-02T12:49:00.956Z</time>
      </trkpt>
      <trkpt lat="44.11586" lon="3.25151">
        <ele>557.5</ele>
        <time>2026-04-02T12:49:06.044Z</time>
      </trkpt>
      <trkpt lat="44.1159" lon="3.25146">
        <ele>556.91</ele>
        <time>2026-04-02T12:49:11.163Z</time>
      </trkpt>
      <trkpt lat="44.11594" lon="3.25142">
        <ele>558.67</ele>
        <time>2026-04-02T12:49:16.201Z</time>
      </trkpt>
      <trkpt lat="44.116" lon="3.25139">
        <ele>558.49</ele>
        <time>2026-04-02T12:49:21.844Z</time>
      </trkpt>
      <trkpt lat="44.11606" lon="3.25137">
        <ele>559.11</ele>
        <time>2026-04-02T12:49:27.035Z</time>
      </trkpt>
      <trkpt lat="44.11611" lon="3.25135">
        <ele>560.31</ele>
        <time>2026-04-02T12:49:32.665Z</time>
      </trkpt>
      <trkpt lat="44.11616" lon="3.25137">
        <ele>561.79</ele>
        <time>2026-04-02T12:49:38.061Z</time>
      </trkpt>
      <trkpt lat="44.11617" lon="3.25136">
        <ele>561.72</ele>
        <time>2026-04-02T12:49:43.981Z</time>
      </trkpt>
      <trkpt lat="44.11622" lon="3.25139">
        <ele>563.41</ele>
        <time>2026-04-02T12:49:49.278Z</time>
      </trkpt>
      <trkpt lat="44.11622" lon="3.25144">
        <ele>564.11</ele>
        <time>2026-04-02T12:49:54.296Z</time>
      </trkpt>
      <trkpt lat="44.11619" lon="3.25149">
        <ele>566.44</ele>
        <time>2026-04-02T12:49:59.677Z</time>
      </trkpt>
      <trkpt lat="44.11616" lon="3.25154">
        <ele>567.45</ele>
        <time>2026-04-02T12:50:04.896Z</time>
      </trkpt>
      <trkpt lat="44.11613" lon="3.2516">
        <ele>568.6</ele>
        <time>2026-04-02T12:50:09.901Z</time>
      </trkpt>
      <trkpt lat="44.1161" lon="3.25166">
        <ele>569.1</ele>
        <time>2026-04-02T12:50:15.235Z</time>
      </trkpt>
      <trkpt lat="44.11609" lon="3.25172">
        <ele>568.76</ele>
        <time>2026-04-02T12:50:21.139Z</time>
      </trkpt>
      <trkpt lat="44.11609" lon="3.25177">
        <ele>570.6</ele>
        <time>2026-04-02T12:50:26.699Z</time>
      </trkpt>
      <trkpt lat="44.11614" lon="3.25178">
        <ele>572.02</ele>
        <time>2026-04-02T12:50:32.138Z</time>
      </trkpt>
      <trkpt lat="44.11615" lon="3.25176">
        <ele>571.59</ele>
        <time>2026-04-02T12:50:37.185Z</time>
      </trkpt>
      <trkpt lat="44.11618" lon="3.25173">
        <ele>571.07</ele>
        <time>2026-04-02T12:50:43.161Z</time>
      </trkpt>
      <trkpt lat="44.11619" lon="3.25172">
        <ele>571.31</ele>
        <time>2026-04-02T12:50:49.242Z</time>
      </trkpt>
      <trkpt lat="44.11618" lon="3.25172">
        <ele>572.56</ele>
        <time>2026-04-02T12:51:29.254Z</time>
      </trkpt>
      <trkpt lat="44.11617" lon="3.25171">
        <ele>578.85</ele>
        <time>2026-04-02T12:51:44.193Z</time>
      </trkpt>
      <trkpt lat="44.11616" lon="3.2517">
        <ele>575.79</ele>
        <time>2026-04-02T12:52:02.225Z</time>
      </trkpt>
      <trkpt lat="44.11616" lon="3.25169">
        <ele>578.47</ele>
        <time>2026-04-02T12:52:11.188Z</time>
      </trkpt>
      <trkpt lat="44.11615" lon="3.2517">
        <ele>577.75</ele>
        <time>2026-04-02T12:52:28.260Z</time>
      </trkpt>
      <trkpt lat="44.11615" lon="3.25171">
        <ele>580.86</ele>
        <time>2026-04-02T12:52:48.213Z</time>
      </trkpt>
      <trkpt lat="44.11616" lon="3.25171">
        <ele>580.5</ele>
        <time>2026-04-02T12:52:58.136Z</time>
      </trkpt>
      <trkpt lat="44.11617" lon="3.25171">
        <ele>579.37</ele>
        <time>2026-04-02T12:53:10.194Z</time>
      </trkpt>
      <trkpt lat="44.11617" lon="3.25171">
        <ele>582.43</ele>
        <time>2026-04-02T12:53:32.175Z</time>
      </trkpt>
      <trkpt lat="44.11618" lon="3.25173">
        <ele>581.62</ele>
        <time>2026-04-02T12:53:37.189Z</time>
      </trkpt>
      <trkpt lat="44.11618" lon="3.25174">
        <ele>583.33</ele>
        <time>2026-04-02T12:53:47.114Z</time>
      </trkpt>
      <trkpt lat="44.11619" lon="3.25175">
        <ele>583.01</ele>
        <time>2026-04-02T12:53:59.171Z</time>
      </trkpt>
      <trkpt lat="44.1162" lon="3.25175">
        <ele>584.25</ele>
        <time>2026-04-02T12:54:13.256Z</time>
      </trkpt>
      <trkpt lat="44.11622" lon="3.25171">
        <ele>584.36</ele>
        <time>2026-04-02T12:54:18.692Z</time>
      </trkpt>
      <trkpt lat="44.11624" lon="3.25169">
        <ele>584.45</ele>
        <time>2026-04-02T12:54:24.276Z</time>
      </trkpt>
      <trkpt lat="44.11627" lon="3.25167">
        <ele>584.64</ele>
        <time>2026-04-02T12:54:30.220Z</time>
      </trkpt>
      <trkpt lat="44.11636" lon="3.25165">
        <ele>585</ele>
        <time>2026-04-02T12:54:35.237Z</time>
      </trkpt>
      <trkpt lat="44.11644" lon="3.25163">
        <ele>586.38</ele>
        <time>2026-04-02T12:54:40.252Z</time>
      </trkpt>
      <trkpt lat="44.11648" lon="3.25163">
        <ele>585.95</ele>
        <time>2026-04-02T12:54:45.991Z</time>
      </trkpt>
      <trkpt lat="44.11653" lon="3.25163">
        <ele>586.92</ele>
        <time>2026-04-02T12:54:51.270Z</time>
      </trkpt>
      <trkpt lat="44.11661" lon="3.2516">
        <ele>586.17</ele>
        <time>2026-04-02T12:54:56.973Z</time>
      </trkpt>
      <trkpt lat="44.11668" lon="3.25158">
        <ele>587.36</ele>
        <time>2026-04-02T12:55:02.297Z</time>
      </trkpt>
      <trkpt lat="44.11673" lon="3.25158">
        <ele>587.61</ele>
        <time>2026-04-02T12:55:07.971Z</time>
      </trkpt>
      <trkpt lat="44.11679" lon="3.25156">
        <ele>588.16</ele>
        <time>2026-04-02T12:55:13.222Z</time>
      </trkpt>
      <trkpt lat="44.11687" lon="3.25152">
        <ele>588.66</ele>
        <time>2026-04-02T12:55:18.794Z</time>
      </trkpt>
      <trkpt lat="44.11693" lon="3.2515">
        <ele>588.65</ele>
        <time>2026-04-02T12:55:24.323Z</time>
      </trkpt>
      <trkpt lat="44.11699" lon="3.25149">
        <ele>588.22</ele>
        <time>2026-04-02T12:55:30.027Z</time>
      </trkpt>
      <trkpt lat="44.11704" lon="3.25146">
        <ele>588.05</ele>
        <time>2026-04-02T12:55:36.180Z</time>
      </trkpt>
      <trkpt lat="44.11709" lon="3.25147">
        <ele>589.14</ele>
        <time>2026-04-02T12:55:41.724Z</time>
      </trkpt>
      <trkpt lat="44.11715" lon="3.25145">
        <ele>589.23</ele>
        <time>2026-04-02T12:55:46.767Z</time>
      </trkpt>
      <trkpt lat="44.1172" lon="3.25144">
        <ele>589.92</ele>
        <time>2026-04-02T12:55:52.207Z</time>
      </trkpt>
      <trkpt lat="44.11725" lon="3.25139">
        <ele>591.68</ele>
        <time>2026-04-02T12:55:57.584Z</time>
      </trkpt>
      <trkpt lat="44.1173" lon="3.25135">
        <ele>591.53</ele>
        <time>2026-04-02T12:56:03.181Z</time>
      </trkpt>
      <trkpt lat="44.11735" lon="3.25134">
        <ele>592.22</ele>
        <time>2026-04-02T12:56:08.190Z</time>
      </trkpt>
      <trkpt lat="44.1174" lon="3.25134">
        <ele>593.13</ele>
        <time>2026-04-02T12:56:13.205Z</time>
      </trkpt>
      <trkpt lat="44.11743" lon="3.25133">
        <ele>594.1</ele>
        <time>2026-04-02T12:56:18.285Z</time>
      </trkpt>
      <trkpt lat="44.11744" lon="3.25132">
        <ele>595.85</ele>
        <time>2026-04-02T12:56:25.764Z</time>
      </trkpt>
      <trkpt lat="44.11749" lon="3.25129">
        <ele>596.82</ele>
        <time>2026-04-02T12:56:31.237Z</time>
      </trkpt>
      <trkpt lat="44.11756" lon="3.25125">
        <ele>597.66</ele>
        <time>2026-04-02T12:56:36.251Z</time>
      </trkpt>
      <trkpt lat="44.11762" lon="3.25121">
        <ele>598.08</ele>
        <time>2026-04-02T12:56:41.984Z</time>
      </trkpt>
      <trkpt lat="44.11766" lon="3.25119">
        <ele>598.5</ele>
        <time>2026-04-02T12:56:47.041Z</time>
      </trkpt>
      <trkpt lat="44.11771" lon="3.25118">
        <ele>599.12</ele>
        <time>2026-04-02T12:56:52.082Z</time>
      </trkpt>
      <trkpt lat="44.11778" lon="3.25115">
        <ele>599.62</ele>
        <time>2026-04-02T12:56:57.832Z</time>
      </trkpt>
      <trkpt lat="44.11781" lon="3.25113">
        <ele>599.86</ele>
        <time>2026-04-02T12:57:03.247Z</time>
      </trkpt>
      <trkpt lat="44.11784" lon="3.25112">
        <ele>600.13</ele>
        <time>2026-04-02T12:57:08.262Z</time>
      </trkpt>
      <trkpt lat="44.11788" lon="3.2511">
        <ele>600.55</ele>
        <time>2026-04-02T12:57:13.276Z</time>
      </trkpt>
      <trkpt lat="44.11793" lon="3.25106">
        <ele>600.27</ele>
        <time>2026-04-02T12:57:18.856Z</time>
      </trkpt>
      <trkpt lat="44.11799" lon="3.25104">
        <ele>600.71</ele>
        <time>2026-04-02T12:57:24.520Z</time>
      </trkpt>
      <trkpt lat="44.11804" lon="3.25104">
        <ele>602.38</ele>
        <time>2026-04-02T12:57:29.838Z</time>
      </trkpt>
      <trkpt lat="44.11808" lon="3.25104">
        <ele>603.49</ele>
        <time>2026-04-02T12:57:35.057Z</time>
      </trkpt>
      <trkpt lat="44.11813" lon="3.25103">
        <ele>604.47</ele>
        <time>2026-04-02T12:57:40.773Z</time>
      </trkpt>
      <trkpt lat="44.11818" lon="3.25105">
        <ele>604.87</ele>
        <time>2026-04-02T12:57:46.246Z</time>
      </trkpt>
      <trkpt lat="44.11824" lon="3.25102">
        <ele>605.29</ele>
        <time>2026-04-02T12:57:51.261Z</time>
      </trkpt>
      <trkpt lat="44.1183" lon="3.25099">
        <ele>604.85</ele>
        <time>2026-04-02T12:57:56.939Z</time>
      </trkpt>
      <trkpt lat="44.11835" lon="3.25101">
        <ele>606.66</ele>
        <time>2026-04-02T12:58:02.061Z</time>
      </trkpt>
      <trkpt lat="44.11839" lon="3.25104">
        <ele>606.84</ele>
        <time>2026-04-02T12:58:07.136Z</time>
      </trkpt>
      <trkpt lat="44.11844" lon="3.25105">
        <ele>607.05</ele>
        <time>2026-04-02T12:58:12.196Z</time>
      </trkpt>
      <trkpt lat="44.11849" lon="3.25102">
        <ele>607.83</ele>
        <time>2026-04-02T12:58:18.149Z</time>
      </trkpt>
      <trkpt lat="44.11855" lon="3.25099">
        <ele>609.39</ele>
        <time>2026-04-02T12:58:23.530Z</time>
      </trkpt>
      <trkpt lat="44.11862" lon="3.25101">
        <ele>611.89</ele>
        <time>2026-04-02T12:58:29.932Z</time>
      </trkpt>
      <trkpt lat="44.11864" lon="3.25111">
        <ele>613.7</ele>
        <time>2026-04-02T12:58:35.328Z</time>
      </trkpt>
      <trkpt lat="44.11866" lon="3.25114">
        <ele>614.47</ele>
        <time>2026-04-02T12:58:40.479Z</time>
      </trkpt>
      <trkpt lat="44.11869" lon="3.25113">
        <ele>614.72</ele>
        <time>2026-04-02T12:58:45.700Z</time>
      </trkpt>
      <trkpt lat="44.11873" lon="3.2511">
        <ele>615.39</ele>
        <time>2026-04-02T12:58:51.194Z</time>
      </trkpt>
      <trkpt lat="44.11876" lon="3.25107">
        <ele>614.75</ele>
        <time>2026-04-02T12:58:56.241Z</time>
      </trkpt>
      <trkpt lat="44.11879" lon="3.25104">
        <ele>614.73</ele>
        <time>2026-04-02T12:59:01.255Z</time>
      </trkpt>
      <trkpt lat="44.11884" lon="3.25102">
        <ele>614.05</ele>
        <time>2026-04-02T12:59:07.234Z</time>
      </trkpt>
      <trkpt lat="44.11886" lon="3.25101">
        <ele>614.33</ele>
        <time>2026-04-02T12:59:12.245Z</time>
      </trkpt>
      <trkpt lat="44.11887" lon="3.251">
        <ele>613.68</ele>
        <time>2026-04-02T12:59:17.260Z</time>
      </trkpt>
      <trkpt lat="44.11889" lon="3.25099">
        <ele>612.82</ele>
        <time>2026-04-02T12:59:23.202Z</time>
      </trkpt>
      <trkpt lat="44.11891" lon="3.25098">
        <ele>613.03</ele>
        <time>2026-04-02T12:59:28.956Z</time>
      </trkpt>
      <trkpt lat="44.11894" lon="3.25099">
        <ele>612.15</ele>
        <time>2026-04-02T12:59:34.225Z</time>
      </trkpt>
      <trkpt lat="44.11898" lon="3.25098">
        <ele>611.21</ele>
        <time>2026-04-02T12:59:40.292Z</time>
      </trkpt>
      <trkpt lat="44.11911" lon="3.25101">
        <ele>610.97</ele>
        <time>2026-04-02T12:59:46.101Z</time>
      </trkpt>
      <trkpt lat="44.11917" lon="3.25103">
        <ele>610.37</ele>
        <time>2026-04-02T12:59:51.114Z</time>
      </trkpt>
      <trkpt lat="44.11922" lon="3.25105">
        <ele>610.28</ele>
        <time>2026-04-02T12:59:56.216Z</time>
      </trkpt>
      <trkpt lat="44.11931" lon="3.2511">
        <ele>609.37</ele>
        <time>2026-04-02T13:00:01.755Z</time>
      </trkpt>
      <trkpt lat="44.11939" lon="3.25113">
        <ele>609.29</ele>
        <time>2026-04-02T13:00:07.293Z</time>
      </trkpt>
      <trkpt lat="44.1195" lon="3.25115">
        <ele>608.3</ele>
        <time>2026-04-02T13:00:12.916Z</time>
      </trkpt>
      <trkpt lat="44.11961" lon="3.25117">
        <ele>607.82</ele>
        <time>2026-04-02T13:00:18.421Z</time>
      </trkpt>
      <trkpt lat="44.11968" lon="3.2512">
        <ele>606.87</ele>
        <time>2026-04-02T13:00:23.593Z</time>
      </trkpt>
      <trkpt lat="44.11974" lon="3.25121">
        <ele>606.51</ele>
        <time>2026-04-02T13:00:28.759Z</time>
      </trkpt>
      <trkpt lat="44.1198" lon="3.25122">
        <ele>604.95</ele>
        <time>2026-04-02T13:00:34.040Z</time>
      </trkpt>
      <trkpt lat="44.11986" lon="3.25124">
        <ele>604.68</ele>
        <time>2026-04-02T13:00:39.203Z</time>
      </trkpt>
      <trkpt lat="44.11994" lon="3.25125">
        <ele>603.98</ele>
        <time>2026-04-02T13:00:44.219Z</time>
      </trkpt>
      <trkpt lat="44.12002" lon="3.25124">
        <ele>602.71</ele>
        <time>2026-04-02T13:00:49.858Z</time>
      </trkpt>
      <trkpt lat="44.12008" lon="3.25122">
        <ele>602.41</ele>
        <time>2026-04-02T13:00:55.575Z</time>
      </trkpt>
      <trkpt lat="44.12014" lon="3.25117">
        <ele>603.02</ele>
        <time>2026-04-02T13:01:01.288Z</time>
      </trkpt>
      <trkpt lat="44.12018" lon="3.25111">
        <ele>603.34</ele>
        <time>2026-04-02T13:01:06.397Z</time>
      </trkpt>
      <trkpt lat="44.1202" lon="3.25103">
        <ele>602.26</ele>
        <time>2026-04-02T13:01:11.697Z</time>
      </trkpt>
      <trkpt lat="44.12024" lon="3.25096">
        <ele>601.54</ele>
        <time>2026-04-02T13:01:16.719Z</time>
      </trkpt>
      <trkpt lat="44.12027" lon="3.25089">
        <ele>601.37</ele>
        <time>2026-04-02T13:01:22.053Z</time>
      </trkpt>
      <trkpt lat="44.1203" lon="3.25084">
        <ele>601.37</ele>
        <time>2026-04-02T13:01:27.173Z</time>
      </trkpt>
      <trkpt lat="44.12032" lon="3.25073">
        <ele>600.49</ele>
        <time>2026-04-02T13:01:32.230Z</time>
      </trkpt>
      <trkpt lat="44.12032" lon="3.25061">
        <ele>600.44</ele>
        <time>2026-04-02T13:01:38.016Z</time>
      </trkpt>
      <trkpt lat="44.12031" lon="3.25052">
        <ele>600.01</ele>
        <time>2026-04-02T13:01:43.219Z</time>
      </trkpt>
      <trkpt lat="44.12035" lon="3.25043">
        <ele>599.03</ele>
        <time>2026-04-02T13:01:49.294Z</time>
      </trkpt>
      <trkpt lat="44.1204" lon="3.25037">
        <ele>598.01</ele>
        <time>2026-04-02T13:01:54.337Z</time>
      </trkpt>
      <trkpt lat="44.12043" lon="3.2503">
        <ele>597.53</ele>
        <time>2026-04-02T13:01:59.618Z</time>
      </trkpt>
      <trkpt lat="44.12045" lon="3.25025">
        <ele>597.23</ele>
        <time>2026-04-02T13:02:04.854Z</time>
      </trkpt>
      <trkpt lat="44.12047" lon="3.25018">
        <ele>597.18</ele>
        <time>2026-04-02T13:02:10.039Z</time>
      </trkpt>
      <trkpt lat="44.12053" lon="3.25013">
        <ele>597.25</ele>
        <time>2026-04-02T13:02:15.720Z</time>
      </trkpt>
      <trkpt lat="44.12059" lon="3.25011">
        <ele>597.14</ele>
        <time>2026-04-02T13:02:21.202Z</time>
      </trkpt>
      <trkpt lat="44.12064" lon="3.2501">
        <ele>596.71</ele>
        <time>2026-04-02T13:02:26.255Z</time>
      </trkpt>
      <trkpt lat="44.12069" lon="3.25009">
        <ele>596.12</ele>
        <time>2026-04-02T13:02:31.296Z</time>
      </trkpt>
      <trkpt lat="44.12074" lon="3.25007">
        <ele>595.58</ele>
        <time>2026-04-02T13:02:36.739Z</time>
      </trkpt>
      <trkpt lat="44.12079" lon="3.25003">
        <ele>595.6</ele>
        <time>2026-04-02T13:02:41.820Z</time>
      </trkpt>
      <trkpt lat="44.12084" lon="3.25001">
        <ele>594.54</ele>
        <time>2026-04-02T13:02:47.239Z</time>
      </trkpt>
      <trkpt lat="44.1209" lon="3.25">
        <ele>594.44</ele>
        <time>2026-04-02T13:02:52.397Z</time>
      </trkpt>
      <trkpt lat="44.12095" lon="3.24998">
        <ele>593.9</ele>
        <time>2026-04-02T13:02:57.715Z</time>
      </trkpt>
      <trkpt lat="44.121" lon="3.24996">
        <ele>593.44</ele>
        <time>2026-04-02T13:03:02.771Z</time>
      </trkpt>
      <trkpt lat="44.12107" lon="3.24996">
        <ele>593.37</ele>
        <time>2026-04-02T13:03:08.240Z</time>
      </trkpt>
      <trkpt lat="44.12113" lon="3.24994">
        <ele>593.48</ele>
        <time>2026-04-02T13:03:14.153Z</time>
      </trkpt>
      <trkpt lat="44.1212" lon="3.2499">
        <ele>592.76</ele>
        <time>2026-04-02T13:03:19.244Z</time>
      </trkpt>
      <trkpt lat="44.12123" lon="3.24986">
        <ele>593.16</ele>
        <time>2026-04-02T13:03:24.258Z</time>
      </trkpt>
      <trkpt lat="44.12128" lon="3.2498">
        <ele>592.26</ele>
        <time>2026-04-02T13:03:30.060Z</time>
      </trkpt>
      <trkpt lat="44.12135" lon="3.24978">
        <ele>591.98</ele>
        <time>2026-04-02T13:03:35.248Z</time>
      </trkpt>
      <trkpt lat="44.1214" lon="3.24975">
        <ele>591.42</ele>
        <time>2026-04-02T13:03:40.262Z</time>
      </trkpt>
      <trkpt lat="44.12144" lon="3.24969">
        <ele>590.95</ele>
        <time>2026-04-02T13:03:45.538Z</time>
      </trkpt>
      <trkpt lat="44.12148" lon="3.24963">
        <ele>590.44</ele>
        <time>2026-04-02T13:03:50.744Z</time>
      </trkpt>
      <trkpt lat="44.12152" lon="3.24957">
        <ele>589.6</ele>
        <time>2026-04-02T13:03:56.266Z</time>
      </trkpt>
      <trkpt lat="44.12156" lon="3.2495">
        <ele>589.49</ele>
        <time>2026-04-02T13:04:01.434Z</time>
      </trkpt>
      <trkpt lat="44.12159" lon="3.24944">
        <ele>589.22</ele>
        <time>2026-04-02T13:04:06.816Z</time>
      </trkpt>
      <trkpt lat="44.12163" lon="3.24938">
        <ele>588.83</ele>
        <time>2026-04-02T13:04:12.270Z</time>
      </trkpt>
      <trkpt lat="44.12167" lon="3.24933">
        <ele>588.51</ele>
        <time>2026-04-02T13:04:17.492Z</time>
      </trkpt>
      <trkpt lat="44.1217" lon="3.24924">
        <ele>588.87</ele>
        <time>2026-04-02T13:04:22.760Z</time>
      </trkpt>
      <trkpt lat="44.12172" lon="3.24916">
        <ele>587.99</ele>
        <time>2026-04-02T13:04:27.797Z</time>
      </trkpt>
      <trkpt lat="44.12176" lon="3.24911">
        <ele>587.21</ele>
        <time>2026-04-02T13:04:32.920Z</time>
      </trkpt>
      <trkpt lat="44.12181" lon="3.24905">
        <ele>586.58</ele>
        <time>2026-04-02T13:04:37.979Z</time>
      </trkpt>
      <trkpt lat="44.12184" lon="3.24899">
        <ele>585.95</ele>
        <time>2026-04-02T13:04:43.117Z</time>
      </trkpt>
      <trkpt lat="44.12186" lon="3.2489">
        <ele>586.27</ele>
        <time>2026-04-02T13:04:48.226Z</time>
      </trkpt>
      <trkpt lat="44.12185" lon="3.24882">
        <ele>586.18</ele>
        <time>2026-04-02T13:04:53.240Z</time>
      </trkpt>
      <trkpt lat="44.12185" lon="3.24872">
        <ele>585.77</ele>
        <time>2026-04-02T13:04:59.240Z</time>
      </trkpt>
      <trkpt lat="44.12186" lon="3.24864">
        <ele>584.76</ele>
        <time>2026-04-02T13:05:05.016Z</time>
      </trkpt>
      <trkpt lat="44.12184" lon="3.24858">
        <ele>584.7</ele>
        <time>2026-04-02T13:05:10.117Z</time>
      </trkpt>
      <trkpt lat="44.12183" lon="3.24849">
        <ele>583.89</ele>
        <time>2026-04-02T13:05:15.138Z</time>
      </trkpt>
      <trkpt lat="44.12182" lon="3.24841">
        <ele>583.47</ele>
        <time>2026-04-02T13:05:20.653Z</time>
      </trkpt>
      <trkpt lat="44.12183" lon="3.24832">
        <ele>582.59</ele>
        <time>2026-04-02T13:05:26.208Z</time>
      </trkpt>
      <trkpt lat="44.12183" lon="3.24824">
        <ele>581.91</ele>
        <time>2026-04-02T13:05:31.223Z</time>
      </trkpt>
      <trkpt lat="44.12185" lon="3.24817">
        <ele>583.78</ele>
        <time>2026-04-02T13:05:36.800Z</time>
      </trkpt>
      <trkpt lat="44.12185" lon="3.24809">
        <ele>583.48</ele>
        <time>2026-04-02T13:05:42.213Z</time>
      </trkpt>
      <trkpt lat="44.12188" lon="3.24803">
        <ele>582.33</ele>
        <time>2026-04-02T13:05:47.265Z</time>
      </trkpt>
      <trkpt lat="44.12186" lon="3.24796">
        <ele>582.13</ele>
        <time>2026-04-02T13:05:52.751Z</time>
      </trkpt>
      <trkpt lat="44.12188" lon="3.24784">
        <ele>581.41</ele>
        <time>2026-04-02T13:05:58.204Z</time>
      </trkpt>
      <trkpt lat="44.12192" lon="3.24778">
        <ele>580.71</ele>
        <time>2026-04-02T13:06:03.250Z</time>
      </trkpt>
      <trkpt lat="44.12196" lon="3.24772">
        <ele>580.43</ele>
        <time>2026-04-02T13:06:08.339Z</time>
      </trkpt>
      <trkpt lat="44.12199" lon="3.24764">
        <ele>579.97</ele>
        <time>2026-04-02T13:06:13.924Z</time>
      </trkpt>
      <trkpt lat="44.122" lon="3.24755">
        <ele>580.13</ele>
        <time>2026-04-02T13:06:19.254Z</time>
      </trkpt>
      <trkpt lat="44.12203" lon="3.24746">
        <ele>579.09</ele>
        <time>2026-04-02T13:06:25.303Z</time>
      </trkpt>
      <trkpt lat="44.12205" lon="3.24738">
        <ele>578.82</ele>
        <time>2026-04-02T13:06:30.957Z</time>
      </trkpt>
      <trkpt lat="44.12206" lon="3.2473">
        <ele>578.26</ele>
        <time>2026-04-02T13:06:36.001Z</time>
      </trkpt>
      <trkpt lat="44.12211" lon="3.24725">
        <ele>577.61</ele>
        <time>2026-04-02T13:06:41.138Z</time>
      </trkpt>
      <trkpt lat="44.12215" lon="3.24717">
        <ele>577.72</ele>
        <time>2026-04-02T13:06:46.248Z</time>
      </trkpt>
      <trkpt lat="44.12218" lon="3.2471">
        <ele>576.87</ele>
        <time>2026-04-02T13:06:51.981Z</time>
      </trkpt>
      <trkpt lat="44.1222" lon="3.24702">
        <ele>576.17</ele>
        <time>2026-04-02T13:06:57.238Z</time>
      </trkpt>
      <trkpt lat="44.12226" lon="3.24694">
        <ele>575.69</ele>
        <time>2026-04-02T13:07:03.196Z</time>
      </trkpt>
      <trkpt lat="44.12231" lon="3.24688">
        <ele>575.71</ele>
        <time>2026-04-02T13:07:08.722Z</time>
      </trkpt>
      <trkpt lat="44.12236" lon="3.24682">
        <ele>576.56</ele>
        <time>2026-04-02T13:07:14.276Z</time>
      </trkpt>
      <trkpt lat="44.12239" lon="3.24674">
        <ele>576.07</ele>
        <time>2026-04-02T13:07:19.959Z</time>
      </trkpt>
      <trkpt lat="44.12244" lon="3.24668">
        <ele>574.51</ele>
        <time>2026-04-02T13:07:25.192Z</time>
      </trkpt>
      <trkpt lat="44.1225" lon="3.24666">
        <ele>573.84</ele>
        <time>2026-04-02T13:07:30.207Z</time>
      </trkpt>
      <trkpt lat="44.12256" lon="3.24662">
        <ele>574.53</ele>
        <time>2026-04-02T13:07:35.616Z</time>
      </trkpt>
      <trkpt lat="44.12259" lon="3.24656">
        <ele>572.52</ele>
        <time>2026-04-02T13:07:41.196Z</time>
      </trkpt>
      <trkpt lat="44.12261" lon="3.24651">
        <ele>572.95</ele>
        <time>2026-04-02T13:07:46.211Z</time>
      </trkpt>
      <trkpt lat="44.12266" lon="3.24646">
        <ele>572.72</ele>
        <time>2026-04-02T13:07:51.225Z</time>
      </trkpt>
      <trkpt lat="44.12273" lon="3.24644">
        <ele>570.57</ele>
        <time>2026-04-02T13:07:56.481Z</time>
      </trkpt>
      <trkpt lat="44.12279" lon="3.2464">
        <ele>570.96</ele>
        <time>2026-04-02T13:08:01.988Z</time>
      </trkpt>
      <trkpt lat="44.12284" lon="3.24636">
        <ele>570.35</ele>
        <time>2026-04-02T13:08:07.498Z</time>
      </trkpt>
      <trkpt lat="44.1229" lon="3.24633">
        <ele>568.81</ele>
        <time>2026-04-02T13:08:12.585Z</time>
      </trkpt>
      <trkpt lat="44.12295" lon="3.2463">
        <ele>568.73</ele>
        <time>2026-04-02T13:08:18.123Z</time>
      </trkpt>
      <trkpt lat="44.12301" lon="3.24626">
        <ele>569.11</ele>
        <time>2026-04-02T13:08:23.235Z</time>
      </trkpt>
      <trkpt lat="44.12306" lon="3.24624">
        <ele>568.64</ele>
        <time>2026-04-02T13:08:28.704Z</time>
      </trkpt>
      <trkpt lat="44.12313" lon="3.24624">
        <ele>568.15</ele>
        <time>2026-04-02T13:08:34.280Z</time>
      </trkpt>
      <trkpt lat="44.1232" lon="3.24622">
        <ele>567.62</ele>
        <time>2026-04-02T13:08:39.819Z</time>
      </trkpt>
      <trkpt lat="44.12326" lon="3.24622">
        <ele>568.25</ele>
        <time>2026-04-02T13:08:45.215Z</time>
      </trkpt>
      <trkpt lat="44.12331" lon="3.24621">
        <ele>566.51</ele>
        <time>2026-04-02T13:08:50.223Z</time>
      </trkpt>
      <trkpt lat="44.12335" lon="3.24617">
        <ele>565.68</ele>
        <time>2026-04-02T13:08:55.244Z</time>
      </trkpt>
      <trkpt lat="44.12341" lon="3.24612">
        <ele>565.71</ele>
        <time>2026-04-02T13:09:01.080Z</time>
      </trkpt>
      <trkpt lat="44.12344" lon="3.24605">
        <ele>567.55</ele>
        <time>2026-04-02T13:09:06.208Z</time>
      </trkpt>
      <trkpt lat="44.12348" lon="3.246">
        <ele>568.98</ele>
        <time>2026-04-02T13:09:11.250Z</time>
      </trkpt>
      <trkpt lat="44.12351" lon="3.24589">
        <ele>568.79</ele>
        <time>2026-04-02T13:09:16.846Z</time>
      </trkpt>
      <trkpt lat="44.12353" lon="3.24579">
        <ele>566.48</ele>
        <time>2026-04-02T13:09:22.262Z</time>
      </trkpt>
      <trkpt lat="44.12355" lon="3.24571">
        <ele>565.61</ele>
        <time>2026-04-02T13:09:27.802Z</time>
      </trkpt>
      <trkpt lat="44.12356" lon="3.24562">
        <ele>565.38</ele>
        <time>2026-04-02T13:09:33.209Z</time>
      </trkpt>
      <trkpt lat="44.12361" lon="3.24552">
        <ele>564.69</ele>
        <time>2026-04-02T13:09:38.686Z</time>
      </trkpt>
      <trkpt lat="44.12364" lon="3.24547">
        <ele>564.33</ele>
        <time>2026-04-02T13:09:44.047Z</time>
      </trkpt>
      <trkpt lat="44.12369" lon="3.24539">
        <ele>563.16</ele>
        <time>2026-04-02T13:09:49.605Z</time>
      </trkpt>
      <trkpt lat="44.12374" lon="3.24533">
        <ele>563.39</ele>
        <time>2026-04-02T13:09:55.222Z</time>
      </trkpt>
      <trkpt lat="44.12379" lon="3.24527">
        <ele>563.09</ele>
        <time>2026-04-02T13:10:00.225Z</time>
      </trkpt>
      <trkpt lat="44.12384" lon="3.24523">
        <ele>562.54</ele>
        <time>2026-04-02T13:10:05.287Z</time>
      </trkpt>
      <trkpt lat="44.1239" lon="3.24518">
        <ele>561.47</ele>
        <time>2026-04-02T13:10:11.068Z</time>
      </trkpt>
      <trkpt lat="44.12395" lon="3.24513">
        <ele>560.23</ele>
        <time>2026-04-02T13:10:16.375Z</time>
      </trkpt>
      <trkpt lat="44.12402" lon="3.24508">
        <ele>560.27</ele>
        <time>2026-04-02T13:10:22.005Z</time>
      </trkpt>
      <trkpt lat="44.12408" lon="3.24503">
        <ele>559.96</ele>
        <time>2026-04-02T13:10:27.545Z</time>
      </trkpt>
      <trkpt lat="44.12414" lon="3.24499">
        <ele>559.8</ele>
        <time>2026-04-02T13:10:33.102Z</time>
      </trkpt>
      <trkpt lat="44.12419" lon="3.24494">
        <ele>559.5</ele>
        <time>2026-04-02T13:10:38.317Z</time>
      </trkpt>
      <trkpt lat="44.12422" lon="3.24489">
        <ele>558.89</ele>
        <time>2026-04-02T13:10:43.760Z</time>
      </trkpt>
      <trkpt lat="44.12427" lon="3.24483">
        <ele>558.84</ele>
        <time>2026-04-02T13:10:49.172Z</time>
      </trkpt>
      <trkpt lat="44.12431" lon="3.24477">
        <ele>558.66</ele>
        <time>2026-04-02T13:10:54.225Z</time>
      </trkpt>
      <trkpt lat="44.12435" lon="3.24468">
        <ele>558.25</ele>
        <time>2026-04-02T13:10:59.767Z</time>
      </trkpt>
      <trkpt lat="44.12444" lon="3.24464">
        <ele>557.81</ele>
        <time>2026-04-02T13:11:05.201Z</time>
      </trkpt>
      <trkpt lat="44.12448" lon="3.24458">
        <ele>557.17</ele>
        <time>2026-04-02T13:11:10.224Z</time>
      </trkpt>
      <trkpt lat="44.12451" lon="3.24454">
        <ele>556.03</ele>
        <time>2026-04-02T13:11:15.263Z</time>
      </trkpt>
      <trkpt lat="44.12456" lon="3.24452">
        <ele>554.58</ele>
        <time>2026-04-02T13:11:20.865Z</time>
      </trkpt>
      <trkpt lat="44.1246" lon="3.24448">
        <ele>554.18</ele>
        <time>2026-04-02T13:11:26.225Z</time>
      </trkpt>
      <trkpt lat="44.12463" lon="3.2444">
        <ele>555.39</ele>
        <time>2026-04-02T13:11:31.446Z</time>
      </trkpt>
      <trkpt lat="44.12465" lon="3.24431">
        <ele>555.11</ele>
        <time>2026-04-02T13:11:36.787Z</time>
      </trkpt>
      <trkpt lat="44.12471" lon="3.24424">
        <ele>554.37</ele>
        <time>2026-04-02T13:11:41.860Z</time>
      </trkpt>
      <trkpt lat="44.12481" lon="3.24421">
        <ele>553.55</ele>
        <time>2026-04-02T13:11:47.301Z</time>
      </trkpt>
      <trkpt lat="44.12487" lon="3.24417">
        <ele>552.92</ele>
        <time>2026-04-02T13:11:53.003Z</time>
      </trkpt>
      <trkpt lat="44.12491" lon="3.24412">
        <ele>552.87</ele>
        <time>2026-04-02T13:11:58.235Z</time>
      </trkpt>
      <trkpt lat="44.12494" lon="3.24407">
        <ele>552.67</ele>
        <time>2026-04-02T13:12:03.324Z</time>
      </trkpt>
      <trkpt lat="44.12498" lon="3.24404">
        <ele>551.28</ele>
        <time>2026-04-02T13:12:08.846Z</time>
      </trkpt>
      <trkpt lat="44.12502" lon="3.24402">
        <ele>550.62</ele>
        <time>2026-04-02T13:12:13.880Z</time>
      </trkpt>
      <trkpt lat="44.12508" lon="3.244">
        <ele>549.56</ele>
        <time>2026-04-02T13:12:19.900Z</time>
      </trkpt>
      <trkpt lat="44.12514" lon="3.24397">
        <ele>548.73</ele>
        <time>2026-04-02T13:12:25.230Z</time>
      </trkpt>
      <trkpt lat="44.12523" lon="3.24394">
        <ele>548.63</ele>
        <time>2026-04-02T13:12:31.069Z</time>
      </trkpt>
      <trkpt lat="44.12532" lon="3.24391">
        <ele>547.94</ele>
        <time>2026-04-02T13:12:36.328Z</time>
      </trkpt>
      <trkpt lat="44.12539" lon="3.24392">
        <ele>547.84</ele>
        <time>2026-04-02T13:12:42.196Z</time>
      </trkpt>
      <trkpt lat="44.12547" lon="3.24391">
        <ele>548.01</ele>
        <time>2026-04-02T13:12:47.944Z</time>
      </trkpt>
      <trkpt lat="44.12554" lon="3.24388">
        <ele>547.78</ele>
        <time>2026-04-02T13:12:53.340Z</time>
      </trkpt>
      <trkpt lat="44.1256" lon="3.24385">
        <ele>548.05</ele>
        <time>2026-04-02T13:12:58.864Z</time>
      </trkpt>
      <trkpt lat="44.12565" lon="3.24386">
        <ele>547.51</ele>
        <time>2026-04-02T13:13:03.884Z</time>
      </trkpt>
      <trkpt lat="44.12569" lon="3.24384">
        <ele>547.21</ele>
        <time>2026-04-02T13:13:08.899Z</time>
      </trkpt>
      <trkpt lat="44.12576" lon="3.24385">
        <ele>547</ele>
        <time>2026-04-02T13:13:14.435Z</time>
      </trkpt>
      <trkpt lat="44.12582" lon="3.24387">
        <ele>547.24</ele>
        <time>2026-04-02T13:13:19.481Z</time>
      </trkpt>
      <trkpt lat="44.1259" lon="3.24389">
        <ele>547.45</ele>
        <time>2026-04-02T13:13:24.763Z</time>
      </trkpt>
      <trkpt lat="44.12596" lon="3.24401">
        <ele>548.43</ele>
        <time>2026-04-02T13:13:30.221Z</time>
      </trkpt>
      <trkpt lat="44.12599" lon="3.24406">
        <ele>547.32</ele>
        <time>2026-04-02T13:13:35.988Z</time>
      </trkpt>
      <trkpt lat="44.12605" lon="3.24404">
        <ele>546.67</ele>
        <time>2026-04-02T13:13:41.318Z</time>
      </trkpt>
      <trkpt lat="44.12611" lon="3.24399">
        <ele>546.08</ele>
        <time>2026-04-02T13:13:47.084Z</time>
      </trkpt>
      <trkpt lat="44.12616" lon="3.24389">
        <ele>544.74</ele>
        <time>2026-04-02T13:13:52.689Z</time>
      </trkpt>
      <trkpt lat="44.12618" lon="3.24382">
        <ele>544.4</ele>
        <time>2026-04-02T13:13:58.243Z</time>
      </trkpt>
      <trkpt lat="44.12625" lon="3.24379">
        <ele>543.68</ele>
        <time>2026-04-02T13:14:03.299Z</time>
      </trkpt>
      <trkpt lat="44.12628" lon="3.24371">
        <ele>542.47</ele>
        <time>2026-04-02T13:14:09.168Z</time>
      </trkpt>
      <trkpt lat="44.12633" lon="3.24364">
        <ele>541.29</ele>
        <time>2026-04-02T13:14:14.290Z</time>
      </trkpt>
      <trkpt lat="44.12636" lon="3.24356">
        <ele>540.69</ele>
        <time>2026-04-02T13:14:19.297Z</time>
      </trkpt>
      <trkpt lat="44.12639" lon="3.24347">
        <ele>539.19</ele>
        <time>2026-04-02T13:14:24.741Z</time>
      </trkpt>
      <trkpt lat="44.12638" lon="3.24336">
        <ele>538.95</ele>
        <time>2026-04-02T13:14:30.281Z</time>
      </trkpt>
      <trkpt lat="44.12635" lon="3.24326">
        <ele>537.66</ele>
        <time>2026-04-02T13:14:35.741Z</time>
      </trkpt>
      <trkpt lat="44.12634" lon="3.24317">
        <ele>537.47</ele>
        <time>2026-04-02T13:14:41.285Z</time>
      </trkpt>
      <trkpt lat="44.12629" lon="3.24309">
        <ele>537.16</ele>
        <time>2026-04-02T13:14:46.899Z</time>
      </trkpt>
      <trkpt lat="44.12622" lon="3.243">
        <ele>536.22</ele>
        <time>2026-04-02T13:14:52.324Z</time>
      </trkpt>
      <trkpt lat="44.12614" lon="3.24294">
        <ele>535.93</ele>
        <time>2026-04-02T13:14:57.980Z</time>
      </trkpt>
      <trkpt lat="44.12607" lon="3.24291">
        <ele>534.75</ele>
        <time>2026-04-02T13:15:03.265Z</time>
      </trkpt>
      <trkpt lat="44.12601" lon="3.24291">
        <ele>534.04</ele>
        <time>2026-04-02T13:15:09.004Z</time>
      </trkpt>
      <trkpt lat="44.12596" lon="3.24289">
        <ele>533.6</ele>
        <time>2026-04-02T13:15:14.623Z</time>
      </trkpt>
      <trkpt lat="44.1259" lon="3.24287">
        <ele>532.81</ele>
        <time>2026-04-02T13:15:20.102Z</time>
      </trkpt>
      <trkpt lat="44.12584" lon="3.24285">
        <ele>533.2</ele>
        <time>2026-04-02T13:15:25.605Z</time>
      </trkpt>
      <trkpt lat="44.12577" lon="3.24282">
        <ele>533.03</ele>
        <time>2026-04-02T13:15:31.101Z</time>
      </trkpt>
      <trkpt lat="44.12571" lon="3.24278">
        <ele>532.6</ele>
        <time>2026-04-02T13:15:36.545Z</time>
      </trkpt>
      <trkpt lat="44.12566" lon="3.24272">
        <ele>532.74</ele>
        <time>2026-04-02T13:15:42.062Z</time>
      </trkpt>
      <trkpt lat="44.12561" lon="3.24265">
        <ele>532.27</ele>
        <time>2026-04-02T13:15:47.226Z</time>
      </trkpt>
      <trkpt lat="44.12556" lon="3.2426">
        <ele>531.84</ele>
        <time>2026-04-02T13:15:52.983Z</time>
      </trkpt>
      <trkpt lat="44.1255" lon="3.24255">
        <ele>531.19</ele>
        <time>2026-04-02T13:15:58.215Z</time>
      </trkpt>
      <trkpt lat="44.12545" lon="3.24247">
        <ele>530.12</ele>
        <time>2026-04-02T13:16:04.000Z</time>
      </trkpt>
      <trkpt lat="44.12539" lon="3.24241">
        <ele>529.55</ele>
        <time>2026-04-02T13:16:09.324Z</time>
      </trkpt>
      <trkpt lat="44.12533" lon="3.24238">
        <ele>529.61</ele>
        <time>2026-04-02T13:16:14.963Z</time>
      </trkpt>
      <trkpt lat="44.12528" lon="3.24238">
        <ele>528.76</ele>
        <time>2026-04-02T13:16:20.196Z</time>
      </trkpt>
      <trkpt lat="44.12521" lon="3.24237">
        <ele>528.4</ele>
        <time>2026-04-02T13:16:25.372Z</time>
      </trkpt>
      <trkpt lat="44.12514" lon="3.24237">
        <ele>527.57</ele>
        <time>2026-04-02T13:16:30.541Z</time>
      </trkpt>
      <trkpt lat="44.1251" lon="3.24243">
        <ele>526.79</ele>
        <time>2026-04-02T13:16:35.703Z</time>
      </trkpt>
      <trkpt lat="44.12503" lon="3.24242">
        <ele>526.19</ele>
        <time>2026-04-02T13:16:41.061Z</time>
      </trkpt>
      <trkpt lat="44.12498" lon="3.24238">
        <ele>525.6</ele>
        <time>2026-04-02T13:16:46.664Z</time>
      </trkpt>
      <trkpt lat="44.12491" lon="3.24236">
        <ele>525.52</ele>
        <time>2026-04-02T13:16:52.281Z</time>
      </trkpt>
      <trkpt lat="44.12485" lon="3.24236">
        <ele>525.18</ele>
        <time>2026-04-02T13:16:57.948Z</time>
      </trkpt>
      <trkpt lat="44.12478" lon="3.24233">
        <ele>524.53</ele>
        <time>2026-04-02T13:17:03.304Z</time>
      </trkpt>
      <trkpt lat="44.12471" lon="3.24225">
        <ele>524.34</ele>
        <time>2026-04-02T13:17:09.123Z</time>
      </trkpt>
      <trkpt lat="44.12465" lon="3.24223">
        <ele>524.05</ele>
        <time>2026-04-02T13:17:14.294Z</time>
      </trkpt>
      <trkpt lat="44.12458" lon="3.24221">
        <ele>524.14</ele>
        <time>2026-04-02T13:17:20.203Z</time>
      </trkpt>
      <trkpt lat="44.12451" lon="3.24218">
        <ele>524.13</ele>
        <time>2026-04-02T13:17:25.285Z</time>
      </trkpt>
      <trkpt lat="44.12444" lon="3.24219">
        <ele>523.59</ele>
        <time>2026-04-02T13:17:31.202Z</time>
      </trkpt>
      <trkpt lat="44.12437" lon="3.24222">
        <ele>523.3</ele>
        <time>2026-04-02T13:17:36.275Z</time>
      </trkpt>
      <trkpt lat="44.12432" lon="3.24223">
        <ele>523.37</ele>
        <time>2026-04-02T13:17:42.249Z</time>
      </trkpt>
      <trkpt lat="44.12426" lon="3.24225">
        <ele>522.84</ele>
        <time>2026-04-02T13:17:47.265Z</time>
      </trkpt>
      <trkpt lat="44.12419" lon="3.24227">
        <ele>522.73</ele>
        <time>2026-04-02T13:17:52.281Z</time>
      </trkpt>
      <trkpt lat="44.12413" lon="3.24228">
        <ele>521.86</ele>
        <time>2026-04-02T13:17:58.019Z</time>
      </trkpt>
      <trkpt lat="44.12407" lon="3.24227">
        <ele>521.24</ele>
        <time>2026-04-02T13:18:03.029Z</time>
      </trkpt>
      <trkpt lat="44.12403" lon="3.24228">
        <ele>521.16</ele>
        <time>2026-04-02T13:18:08.108Z</time>
      </trkpt>
      <trkpt lat="44.12401" lon="3.24235">
        <ele>520.45</ele>
        <time>2026-04-02T13:18:13.197Z</time>
      </trkpt>
      <trkpt lat="44.12396" lon="3.24244">
        <ele>521</ele>
        <time>2026-04-02T13:18:18.607Z</time>
      </trkpt>
      <trkpt lat="44.12391" lon="3.2425">
        <ele>521</ele>
        <time>2026-04-02T13:18:24.048Z</time>
      </trkpt>
      <trkpt lat="44.12384" lon="3.24253">
        <ele>520.27</ele>
        <time>2026-04-02T13:18:29.307Z</time>
      </trkpt>
      <trkpt lat="44.12377" lon="3.24254">
        <ele>520.08</ele>
        <time>2026-04-02T13:18:34.985Z</time>
      </trkpt>
      <trkpt lat="44.12371" lon="3.24258">
        <ele>519.34</ele>
        <time>2026-04-02T13:18:40.622Z</time>
      </trkpt>
      <trkpt lat="44.12364" lon="3.24258">
        <ele>518.99</ele>
        <time>2026-04-02T13:18:46.127Z</time>
      </trkpt>
      <trkpt lat="44.12356" lon="3.24258">
        <ele>518.75</ele>
        <time>2026-04-02T13:18:51.288Z</time>
      </trkpt>
      <trkpt lat="44.1235" lon="3.24257">
        <ele>517.92</ele>
        <time>2026-04-02T13:18:56.502Z</time>
      </trkpt>
      <trkpt lat="44.12342" lon="3.24256">
        <ele>518.16</ele>
        <time>2026-04-02T13:19:02.278Z</time>
      </trkpt>
      <trkpt lat="44.12337" lon="3.24255">
        <ele>518.58</ele>
        <time>2026-04-02T13:19:07.324Z</time>
      </trkpt>
      <trkpt lat="44.1233" lon="3.24251">
        <ele>517.45</ele>
        <time>2026-04-02T13:19:13.280Z</time>
      </trkpt>
      <trkpt lat="44.12323" lon="3.24247">
        <ele>517.37</ele>
        <time>2026-04-02T13:19:18.630Z</time>
      </trkpt>
      <trkpt lat="44.12318" lon="3.24242">
        <ele>516.03</ele>
        <time>2026-04-02T13:19:24.025Z</time>
      </trkpt>
      <trkpt lat="44.12311" lon="3.24238">
        <ele>515.63</ele>
        <time>2026-04-02T13:19:29.168Z</time>
      </trkpt>
      <trkpt lat="44.12305" lon="3.24231">
        <ele>515.33</ele>
        <time>2026-04-02T13:19:34.800Z</time>
      </trkpt>
      <trkpt lat="44.12299" lon="3.24228">
        <ele>514.7</ele>
        <time>2026-04-02T13:19:40.303Z</time>
      </trkpt>
      <trkpt lat="44.12294" lon="3.24221">
        <ele>514.83</ele>
        <time>2026-04-02T13:19:45.828Z</time>
      </trkpt>
      <trkpt lat="44.12288" lon="3.24218">
        <ele>514.37</ele>
        <time>2026-04-02T13:19:51.206Z</time>
      </trkpt>
      <trkpt lat="44.12281" lon="3.24219">
        <ele>513.21</ele>
        <time>2026-04-02T13:19:56.270Z</time>
      </trkpt>
      <trkpt lat="44.12274" lon="3.24221">
        <ele>513.05</ele>
        <time>2026-04-02T13:20:02.082Z</time>
      </trkpt>
      <trkpt lat="44.12267" lon="3.24217">
        <ele>512.6</ele>
        <time>2026-04-02T13:20:07.262Z</time>
      </trkpt>
      <trkpt lat="44.12262" lon="3.24216">
        <ele>512.17</ele>
        <time>2026-04-02T13:20:12.540Z</time>
      </trkpt>
      <trkpt lat="44.12254" lon="3.24217">
        <ele>511.96</ele>
        <time>2026-04-02T13:20:17.919Z</time>
      </trkpt>
      <trkpt lat="44.12249" lon="3.24215">
        <ele>510.9</ele>
        <time>2026-04-02T13:20:23.121Z</time>
      </trkpt>
      <trkpt lat="44.12241" lon="3.24216">
        <ele>510.37</ele>
        <time>2026-04-02T13:20:28.660Z</time>
      </trkpt>
      <trkpt lat="44.12234" lon="3.24214">
        <ele>510.35</ele>
        <time>2026-04-02T13:20:34.243Z</time>
      </trkpt>
      <trkpt lat="44.12227" lon="3.24214">
        <ele>509.51</ele>
        <time>2026-04-02T13:20:39.769Z</time>
      </trkpt>
      <trkpt lat="44.12221" lon="3.24215">
        <ele>509.28</ele>
        <time>2026-04-02T13:20:45.248Z</time>
      </trkpt>
      <trkpt lat="44.12215" lon="3.24213">
        <ele>508.31</ele>
        <time>2026-04-02T13:20:51.043Z</time>
      </trkpt>
      <trkpt lat="44.12208" lon="3.24214">
        <ele>507.8</ele>
        <time>2026-04-02T13:20:57.157Z</time>
      </trkpt>
      <trkpt lat="44.12204" lon="3.24212">
        <ele>507.27</ele>
        <time>2026-04-02T13:21:02.164Z</time>
      </trkpt>
      <trkpt lat="44.12197" lon="3.24209">
        <ele>506.86</ele>
        <time>2026-04-02T13:21:07.822Z</time>
      </trkpt>
      <trkpt lat="44.12192" lon="3.24201">
        <ele>507.62</ele>
        <time>2026-04-02T13:21:13.324Z</time>
      </trkpt>
      <trkpt lat="44.12184" lon="3.242">
        <ele>506.64</ele>
        <time>2026-04-02T13:21:19.062Z</time>
      </trkpt>
      <trkpt lat="44.12179" lon="3.24194">
        <ele>505.99</ele>
        <time>2026-04-02T13:21:24.973Z</time>
      </trkpt>
      <trkpt lat="44.12173" lon="3.24192">
        <ele>505.92</ele>
        <time>2026-04-02T13:21:30.279Z</time>
      </trkpt>
      <trkpt lat="44.12167" lon="3.24189">
        <ele>505.63</ele>
        <time>2026-04-02T13:21:36.084Z</time>
      </trkpt>
      <trkpt lat="44.1216" lon="3.24186">
        <ele>506.2</ele>
        <time>2026-04-02T13:21:41.270Z</time>
      </trkpt>
      <trkpt lat="44.12153" lon="3.24184">
        <ele>505.51</ele>
        <time>2026-04-02T13:21:47.302Z</time>
      </trkpt>
      <trkpt lat="44.12147" lon="3.2418">
        <ele>505.17</ele>
        <time>2026-04-02T13:21:53.221Z</time>
      </trkpt>
      <trkpt lat="44.12143" lon="3.24177">
        <ele>504.75</ele>
        <time>2026-04-02T13:21:58.246Z</time>
      </trkpt>
      <trkpt lat="44.12141" lon="3.24172">
        <ele>503.28</ele>
        <time>2026-04-02T13:22:04.266Z</time>
      </trkpt>
      <trkpt lat="44.12141" lon="3.24174">
        <ele>502.83</ele>
        <time>2026-04-02T13:22:12.269Z</time>
      </trkpt>
      <trkpt lat="44.12136" lon="3.24177">
        <ele>503.99</ele>
        <time>2026-04-02T13:22:17.626Z</time>
      </trkpt>
      <trkpt lat="44.1213" lon="3.24178">
        <ele>503.92</ele>
        <time>2026-04-02T13:22:22.964Z</time>
      </trkpt>
      <trkpt lat="44.12123" lon="3.24179">
        <ele>504.5</ele>
        <time>2026-04-02T13:22:28.005Z</time>
      </trkpt>
      <trkpt lat="44.12116" lon="3.24179">
        <ele>503.92</ele>
        <time>2026-04-02T13:22:33.292Z</time>
      </trkpt>
      <trkpt lat="44.1211" lon="3.24181">
        <ele>502.58</ele>
        <time>2026-04-02T13:22:38.380Z</time>
      </trkpt>
      <trkpt lat="44.12103" lon="3.24178">
        <ele>501.25</ele>
        <time>2026-04-02T13:22:44.283Z</time>
      </trkpt>
      <trkpt lat="44.12096" lon="3.2417">
        <ele>501.1</ele>
        <time>2026-04-02T13:22:50.066Z</time>
      </trkpt>
      <trkpt lat="44.12093" lon="3.24166">
        <ele>500.58</ele>
        <time>2026-04-02T13:22:55.275Z</time>
      </trkpt>
      <trkpt lat="44.12095" lon="3.24161">
        <ele>501.38</ele>
        <time>2026-04-02T13:23:00.290Z</time>
      </trkpt>
      <trkpt lat="44.12095" lon="3.24163">
        <ele>501.73</ele>
        <time>2026-04-02T13:23:05.306Z</time>
      </trkpt>
      <trkpt lat="44.12096" lon="3.24164">
        <ele>501.46</ele>
        <time>2026-04-02T13:23:11.108Z</time>
      </trkpt>
      <trkpt lat="44.12097" lon="3.24168">
        <ele>501</ele>
        <time>2026-04-02T13:23:16.297Z</time>
      </trkpt>
      <trkpt lat="44.12103" lon="3.24171">
        <ele>503.3</ele>
        <time>2026-04-02T13:23:22.144Z</time>
      </trkpt>
      <trkpt lat="44.1211" lon="3.24173">
        <ele>504.32</ele>
        <time>2026-04-02T13:23:28.004Z</time>
      </trkpt>
      <trkpt lat="44.12115" lon="3.24173">
        <ele>505.31</ele>
        <time>2026-04-02T13:23:33.265Z</time>
      </trkpt>
      <trkpt lat="44.12121" lon="3.2417">
        <ele>506.85</ele>
        <time>2026-04-02T13:23:38.844Z</time>
      </trkpt>
      <trkpt lat="44.12126" lon="3.24165">
        <ele>507.64</ele>
        <time>2026-04-02T13:23:44.256Z</time>
      </trkpt>
      <trkpt lat="44.12129" lon="3.24158">
        <ele>509.38</ele>
        <time>2026-04-02T13:23:49.282Z</time>
      </trkpt>
      <trkpt lat="44.12131" lon="3.24152">
        <ele>510.75</ele>
        <time>2026-04-02T13:23:54.324Z</time>
      </trkpt>
      <trkpt lat="44.12136" lon="3.24147">
        <ele>511.51</ele>
        <time>2026-04-02T13:24:00.125Z</time>
      </trkpt>
      <trkpt lat="44.12138" lon="3.2414">
        <ele>511.76</ele>
        <time>2026-04-02T13:24:05.825Z</time>
      </trkpt>
      <trkpt lat="44.12136" lon="3.24132">
        <ele>512.97</ele>
        <time>2026-04-02T13:24:10.851Z</time>
      </trkpt>
      <trkpt lat="44.12134" lon="3.24123">
        <ele>514.69</ele>
        <time>2026-04-02T13:24:16.269Z</time>
      </trkpt>
      <trkpt lat="44.12131" lon="3.24115">
        <ele>514.79</ele>
        <time>2026-04-02T13:24:21.866Z</time>
      </trkpt>
      <trkpt lat="44.12129" lon="3.24108">
        <ele>515.17</ele>
        <time>2026-04-02T13:24:27.042Z</time>
      </trkpt>
      <trkpt lat="44.12125" lon="3.24101">
        <ele>515.27</ele>
        <time>2026-04-02T13:24:32.430Z</time>
      </trkpt>
      <trkpt lat="44.1212" lon="3.24094">
        <ele>515.86</ele>
        <time>2026-04-02T13:24:37.750Z</time>
      </trkpt>
      <trkpt lat="44.12117" lon="3.24086">
        <ele>516.33</ele>
        <time>2026-04-02T13:24:42.906Z</time>
      </trkpt>
      <trkpt lat="44.12115" lon="3.24077">
        <ele>516.91</ele>
        <time>2026-04-02T13:24:48.028Z</time>
      </trkpt>
      <trkpt lat="44.12112" lon="3.2407">
        <ele>517.53</ele>
        <time>2026-04-02T13:24:53.218Z</time>
      </trkpt>
      <trkpt lat="44.1211" lon="3.24062">
        <ele>518.47</ele>
        <time>2026-04-02T13:24:58.601Z</time>
      </trkpt>
      <trkpt lat="44.12109" lon="3.24053">
        <ele>518.71</ele>
        <time>2026-04-02T13:25:04.063Z</time>
      </trkpt>
      <trkpt lat="44.12108" lon="3.24044">
        <ele>519.34</ele>
        <time>2026-04-02T13:25:09.246Z</time>
      </trkpt>
      <trkpt lat="44.12108" lon="3.24037">
        <ele>520.76</ele>
        <time>2026-04-02T13:25:14.900Z</time>
      </trkpt>
      <trkpt lat="44.12105" lon="3.24029">
        <ele>521.49</ele>
        <time>2026-04-02T13:25:20.323Z</time>
      </trkpt>
      <trkpt lat="44.12101" lon="3.2402">
        <ele>522.64</ele>
        <time>2026-04-02T13:25:26.191Z</time>
      </trkpt>
      <trkpt lat="44.12098" lon="3.24012">
        <ele>523.47</ele>
        <time>2026-04-02T13:25:31.486Z</time>
      </trkpt>
      <trkpt lat="44.12095" lon="3.24008">
        <ele>522.73</ele>
        <time>2026-04-02T13:25:37.289Z</time>
      </trkpt>
      <trkpt lat="44.12096" lon="3.24">
        <ele>523.48</ele>
        <time>2026-04-02T13:25:43.026Z</time>
      </trkpt>
      <trkpt lat="44.121" lon="3.23992">
        <ele>525.7</ele>
        <time>2026-04-02T13:25:48.107Z</time>
      </trkpt>
      <trkpt lat="44.12108" lon="3.23993">
        <ele>528.49</ele>
        <time>2026-04-02T13:25:53.147Z</time>
      </trkpt>
      <trkpt lat="44.12114" lon="3.23994">
        <ele>529.7</ele>
        <time>2026-04-02T13:25:58.311Z</time>
      </trkpt>
      <trkpt lat="44.12119" lon="3.23991">
        <ele>530.3</ele>
        <time>2026-04-02T13:26:03.846Z</time>
      </trkpt>
      <trkpt lat="44.12124" lon="3.2399">
        <ele>529.68</ele>
        <time>2026-04-02T13:26:08.863Z</time>
      </trkpt>
      <trkpt lat="44.12129" lon="3.23989">
        <ele>530.84</ele>
        <time>2026-04-02T13:26:13.921Z</time>
      </trkpt>
      <trkpt lat="44.12132" lon="3.23986">
        <ele>531.16</ele>
        <time>2026-04-02T13:26:19.244Z</time>
      </trkpt>
      <trkpt lat="44.1213" lon="3.23986">
        <ele>530.96</ele>
        <time>2026-04-02T13:26:24.259Z</time>
      </trkpt>
      <trkpt lat="44.12133" lon="3.23987">
        <ele>531.48</ele>
        <time>2026-04-02T13:26:29.787Z</time>
      </trkpt>
      <trkpt lat="44.12139" lon="3.23994">
        <ele>531.81</ele>
        <time>2026-04-02T13:26:35.250Z</time>
      </trkpt>
      <trkpt lat="44.12144" lon="3.24">
        <ele>533.78</ele>
        <time>2026-04-02T13:26:40.265Z</time>
      </trkpt>
      <trkpt lat="44.1215" lon="3.24002">
        <ele>534.7</ele>
        <time>2026-04-02T13:26:45.766Z</time>
      </trkpt>
      <trkpt lat="44.12152" lon="3.23992">
        <ele>535.74</ele>
        <time>2026-04-02T13:26:51.323Z</time>
      </trkpt>
      <trkpt lat="44.12148" lon="3.23979">
        <ele>537.15</ele>
        <time>2026-04-02T13:26:56.959Z</time>
      </trkpt>
      <trkpt lat="44.12146" lon="3.23969">
        <ele>536.71</ele>
        <time>2026-04-02T13:27:02.256Z</time>
      </trkpt>
      <trkpt lat="44.12147" lon="3.23959">
        <ele>536.48</ele>
        <time>2026-04-02T13:27:07.692Z</time>
      </trkpt>
      <trkpt lat="44.12147" lon="3.2395">
        <ele>537.3</ele>
        <time>2026-04-02T13:27:12.790Z</time>
      </trkpt>
      <trkpt lat="44.12146" lon="3.23941">
        <ele>537.48</ele>
        <time>2026-04-02T13:27:18.324Z</time>
      </trkpt>
      <trkpt lat="44.12143" lon="3.23932">
        <ele>537.59</ele>
        <time>2026-04-02T13:27:23.496Z</time>
      </trkpt>
      <trkpt lat="44.12139" lon="3.23924">
        <ele>537.3</ele>
        <time>2026-04-02T13:27:29.089Z</time>
      </trkpt>
      <trkpt lat="44.12133" lon="3.23917">
        <ele>537.35</ele>
        <time>2026-04-02T13:27:34.594Z</time>
      </trkpt>
      <trkpt lat="44.1213" lon="3.23911">
        <ele>538.67</ele>
        <time>2026-04-02T13:27:39.930Z</time>
      </trkpt>
      <trkpt lat="44.12128" lon="3.23905">
        <ele>539.09</ele>
        <time>2026-04-02T13:27:45.168Z</time>
      </trkpt>
      <trkpt lat="44.12125" lon="3.23898">
        <ele>540.64</ele>
        <time>2026-04-02T13:27:50.275Z</time>
      </trkpt>
      <trkpt lat="44.12124" lon="3.23888">
        <ele>541.25</ele>
        <time>2026-04-02T13:27:55.408Z</time>
      </trkpt>
      <trkpt lat="44.12121" lon="3.2388">
        <ele>541.91</ele>
        <time>2026-04-02T13:28:01.013Z</time>
      </trkpt>
      <trkpt lat="44.12119" lon="3.23873">
        <ele>541.59</ele>
        <time>2026-04-02T13:28:06.286Z</time>
      </trkpt>
      <trkpt lat="44.12116" lon="3.23866">
        <ele>541.53</ele>
        <time>2026-04-02T13:28:11.297Z</time>
      </trkpt>
      <trkpt lat="44.12114" lon="3.23858">
        <ele>541.81</ele>
        <time>2026-04-02T13:28:16.324Z</time>
      </trkpt>
      <trkpt lat="44.12115" lon="3.23849">
        <ele>542.28</ele>
        <time>2026-04-02T13:28:21.704Z</time>
      </trkpt>
      <trkpt lat="44.12117" lon="3.23842">
        <ele>543.94</ele>
        <time>2026-04-02T13:28:27.196Z</time>
      </trkpt>
      <trkpt lat="44.12119" lon="3.23834">
        <ele>544.09</ele>
        <time>2026-04-02T13:28:32.909Z</time>
      </trkpt>
      <trkpt lat="44.12121" lon="3.23824">
        <ele>543.65</ele>
        <time>2026-04-02T13:28:38.147Z</time>
      </trkpt>
      <trkpt lat="44.12122" lon="3.23818">
        <ele>545.88</ele>
        <time>2026-04-02T13:28:43.267Z</time>
      </trkpt>
      <trkpt lat="44.12126" lon="3.23814">
        <ele>546.57</ele>
        <time>2026-04-02T13:28:48.967Z</time>
      </trkpt>
      <trkpt lat="44.12128" lon="3.23819">
        <ele>547.34</ele>
        <time>2026-04-02T13:28:54.491Z</time>
      </trkpt>
      <trkpt lat="44.12131" lon="3.23829">
        <ele>548.71</ele>
        <time>2026-04-02T13:28:59.810Z</time>
      </trkpt>
      <trkpt lat="44.12135" lon="3.23835">
        <ele>547.9</ele>
        <time>2026-04-02T13:29:05.298Z</time>
      </trkpt>
      <trkpt lat="44.12134" lon="3.23833">
        <ele>548.02</ele>
        <time>2026-04-02T13:29:11.168Z</time>
      </trkpt>
      <trkpt lat="44.12134" lon="3.23831">
        <ele>548.79</ele>
        <time>2026-04-02T13:29:16.203Z</time>
      </trkpt>
      <trkpt lat="44.12139" lon="3.23829">
        <ele>549.31</ele>
        <time>2026-04-02T13:29:22.266Z</time>
      </trkpt>
      <trkpt lat="44.12144" lon="3.23829">
        <ele>550.41</ele>
        <time>2026-04-02T13:29:27.281Z</time>
      </trkpt>
      <trkpt lat="44.12148" lon="3.23828">
        <ele>550.66</ele>
        <time>2026-04-02T13:29:32.296Z</time>
      </trkpt>
      <trkpt lat="44.12152" lon="3.2383">
        <ele>552.44</ele>
        <time>2026-04-02T13:29:37.787Z</time>
      </trkpt>
      <trkpt lat="44.12156" lon="3.23835">
        <ele>553.36</ele>
        <time>2026-04-02T13:29:43.325Z</time>
      </trkpt>
      <trkpt lat="44.1216" lon="3.23843">
        <ele>555.25</ele>
        <time>2026-04-02T13:29:49.152Z</time>
      </trkpt>
      <trkpt lat="44.12163" lon="3.23849">
        <ele>557.33</ele>
        <time>2026-04-02T13:29:54.743Z</time>
      </trkpt>
      <trkpt lat="44.12166" lon="3.23855">
        <ele>557.07</ele>
        <time>2026-04-02T13:30:00.254Z</time>
      </trkpt>
      <trkpt lat="44.1217" lon="3.23861">
        <ele>559.28</ele>
        <time>2026-04-02T13:30:05.269Z</time>
      </trkpt>
      <trkpt lat="44.12174" lon="3.23867">
        <ele>560.4</ele>
        <time>2026-04-02T13:30:10.306Z</time>
      </trkpt>
      <trkpt lat="44.12177" lon="3.23873">
        <ele>561.95</ele>
        <time>2026-04-02T13:30:15.863Z</time>
      </trkpt>
      <trkpt lat="44.1218" lon="3.23882">
        <ele>562.59</ele>
        <time>2026-04-02T13:30:21.274Z</time>
      </trkpt>
      <trkpt lat="44.12182" lon="3.23889">
        <ele>563.64</ele>
        <time>2026-04-02T13:30:26.290Z</time>
      </trkpt>
      <trkpt lat="44.12187" lon="3.23892">
        <ele>563.4</ele>
        <time>2026-04-02T13:30:31.772Z</time>
      </trkpt>
      <trkpt lat="44.12194" lon="3.23889">
        <ele>564.37</ele>
        <time>2026-04-02T13:30:37.072Z</time>
      </trkpt>
      <trkpt lat="44.122" lon="3.23882">
        <ele>566.18</ele>
        <time>2026-04-02T13:30:42.789Z</time>
      </trkpt>
      <trkpt lat="44.12205" lon="3.23879">
        <ele>567.16</ele>
        <time>2026-04-02T13:30:48.272Z</time>
      </trkpt>
      <trkpt lat="44.12211" lon="3.23876">
        <ele>567.53</ele>
        <time>2026-04-02T13:30:53.287Z</time>
      </trkpt>
      <trkpt lat="44.12215" lon="3.23871">
        <ele>566.34</ele>
        <time>2026-04-02T13:30:58.301Z</time>
      </trkpt>
      <trkpt lat="44.1222" lon="3.23867">
        <ele>566.65</ele>
        <time>2026-04-02T13:31:03.324Z</time>
      </trkpt>
      <trkpt lat="44.12223" lon="3.23861">
        <ele>565.42</ele>
        <time>2026-04-02T13:31:08.468Z</time>
      </trkpt>
      <trkpt lat="44.12225" lon="3.23853">
        <ele>564.79</ele>
        <time>2026-04-02T13:31:14.201Z</time>
      </trkpt>
      <trkpt lat="44.12227" lon="3.23843">
        <ele>564.92</ele>
        <time>2026-04-02T13:31:20.222Z</time>
      </trkpt>
      <trkpt lat="44.12227" lon="3.23835">
        <ele>565.92</ele>
        <time>2026-04-02T13:31:25.282Z</time>
      </trkpt>
      <trkpt lat="44.12231" lon="3.23826">
        <ele>567.39</ele>
        <time>2026-04-02T13:31:30.930Z</time>
      </trkpt>
      <trkpt lat="44.12235" lon="3.23817">
        <ele>567.18</ele>
        <time>2026-04-02T13:31:36.391Z</time>
      </trkpt>
      <trkpt lat="44.12236" lon="3.23809">
        <ele>566.67</ele>
        <time>2026-04-02T13:31:41.672Z</time>
      </trkpt>
      <trkpt lat="44.12237" lon="3.238">
        <ele>566.87</ele>
        <time>2026-04-02T13:31:46.892Z</time>
      </trkpt>
      <trkpt lat="44.12237" lon="3.2379">
        <ele>566.53</ele>
        <time>2026-04-02T13:31:52.294Z</time>
      </trkpt>
      <trkpt lat="44.12236" lon="3.23782">
        <ele>565.73</ele>
        <time>2026-04-02T13:31:57.689Z</time>
      </trkpt>
      <trkpt lat="44.12237" lon="3.23772">
        <ele>566.58</ele>
        <time>2026-04-02T13:32:03.031Z</time>
      </trkpt>
      <trkpt lat="44.12239" lon="3.23763">
        <ele>567.52</ele>
        <time>2026-04-02T13:32:08.300Z</time>
      </trkpt>
      <trkpt lat="44.12239" lon="3.23756">
        <ele>568.18</ele>
        <time>2026-04-02T13:32:13.453Z</time>
      </trkpt>
      <trkpt lat="44.12239" lon="3.23748">
        <ele>568.97</ele>
        <time>2026-04-02T13:32:18.546Z</time>
      </trkpt>
      <trkpt lat="44.1224" lon="3.2374">
        <ele>569.76</ele>
        <time>2026-04-02T13:32:24.305Z</time>
      </trkpt>
      <trkpt lat="44.12242" lon="3.23733">
        <ele>569.9</ele>
        <time>2026-04-02T13:32:29.529Z</time>
      </trkpt>
      <trkpt lat="44.12242" lon="3.23725">
        <ele>570.84</ele>
        <time>2026-04-02T13:32:35.112Z</time>
      </trkpt>
      <trkpt lat="44.12244" lon="3.23716">
        <ele>571.1</ele>
        <time>2026-04-02T13:32:40.410Z</time>
      </trkpt>
      <trkpt lat="44.12245" lon="3.23709">
        <ele>571.28</ele>
        <time>2026-04-02T13:32:45.427Z</time>
      </trkpt>
      <trkpt lat="44.12246" lon="3.23699">
        <ele>571.87</ele>
        <time>2026-04-02T13:32:51.251Z</time>
      </trkpt>
      <trkpt lat="44.1225" lon="3.23691">
        <ele>571.82</ele>
        <time>2026-04-02T13:32:56.324Z</time>
      </trkpt>
      <trkpt lat="44.12255" lon="3.23692">
        <ele>573.57</ele>
        <time>2026-04-02T13:33:01.608Z</time>
      </trkpt>
      <trkpt lat="44.1226" lon="3.23697">
        <ele>574.39</ele>
        <time>2026-04-02T13:33:06.812Z</time>
      </trkpt>
      <trkpt lat="44.12267" lon="3.23701">
        <ele>574.23</ele>
        <time>2026-04-02T13:33:12.214Z</time>
      </trkpt>
      <trkpt lat="44.12272" lon="3.23704">
        <ele>574.43</ele>
        <time>2026-04-02T13:33:17.347Z</time>
      </trkpt>
      <trkpt lat="44.12276" lon="3.23708">
        <ele>575.26</ele>
        <time>2026-04-02T13:33:22.667Z</time>
      </trkpt>
      <trkpt lat="44.12282" lon="3.23708">
        <ele>575.21</ele>
        <time>2026-04-02T13:33:27.868Z</time>
      </trkpt>
      <trkpt lat="44.12287" lon="3.23712">
        <ele>577.19</ele>
        <time>2026-04-02T13:33:33.234Z</time>
      </trkpt>
      <trkpt lat="44.1229" lon="3.23712">
        <ele>577.53</ele>
        <time>2026-04-02T13:33:38.248Z</time>
      </trkpt>
      <trkpt lat="44.12293" lon="3.23705">
        <ele>580.01</ele>
        <time>2026-04-02T13:33:43.264Z</time>
      </trkpt>
      <trkpt lat="44.12295" lon="3.23698">
        <ele>580.84</ele>
        <time>2026-04-02T13:33:48.732Z</time>
      </trkpt>
      <trkpt lat="44.12296" lon="3.23696">
        <ele>580.4</ele>
        <time>2026-04-02T13:33:53.866Z</time>
      </trkpt>
      <trkpt lat="44.12297" lon="3.23697">
        <ele>580.51</ele>
        <time>2026-04-02T13:34:07.324Z</time>
      </trkpt>
      <trkpt lat="44.12296" lon="3.23697">
        <ele>580</ele>
        <time>2026-04-02T13:34:41.324Z</time>
      </trkpt>
      <trkpt lat="44.12296" lon="3.23695">
        <ele>580</ele>
        <time>2026-04-02T13:35:03.324Z</time>
      </trkpt>
      <trkpt lat="44.12297" lon="3.23694">
        <ele>579.99</ele>
        <time>2026-04-02T13:35:14.228Z</time>
      </trkpt>
      <trkpt lat="44.12296" lon="3.23685">
        <ele>580.37</ele>
        <time>2026-04-02T13:35:19.234Z</time>
      </trkpt>
      <trkpt lat="44.12295" lon="3.23675">
        <ele>580.47</ele>
        <time>2026-04-02T13:35:24.326Z</time>
      </trkpt>
      <trkpt lat="44.12294" lon="3.23666">
        <ele>580.15</ele>
        <time>2026-04-02T13:35:29.863Z</time>
      </trkpt>
      <trkpt lat="44.12294" lon="3.23659">
        <ele>580.43</ele>
        <time>2026-04-02T13:35:35.324Z</time>
      </trkpt>
      <trkpt lat="44.12293" lon="3.2365">
        <ele>580.02</ele>
        <time>2026-04-02T13:35:41.153Z</time>
      </trkpt>
      <trkpt lat="44.12294" lon="3.2364">
        <ele>579.62</ele>
        <time>2026-04-02T13:35:46.324Z</time>
      </trkpt>
      <trkpt lat="44.12294" lon="3.23631">
        <ele>579.24</ele>
        <time>2026-04-02T13:35:51.879Z</time>
      </trkpt>
      <trkpt lat="44.12296" lon="3.23623">
        <ele>577.82</ele>
        <time>2026-04-02T13:35:57.317Z</time>
      </trkpt>
      <trkpt lat="44.12295" lon="3.23614">
        <ele>576.98</ele>
        <time>2026-04-02T13:36:03.055Z</time>
      </trkpt>
      <trkpt lat="44.12294" lon="3.23605">
        <ele>576.34</ele>
        <time>2026-04-02T13:36:08.287Z</time>
      </trkpt>
      <trkpt lat="44.12293" lon="3.23597">
        <ele>576.95</ele>
        <time>2026-04-02T13:36:13.441Z</time>
      </trkpt>
      <trkpt lat="44.12293" lon="3.23588">
        <ele>577.48</ele>
        <time>2026-04-02T13:36:18.676Z</time>
      </trkpt>
      <trkpt lat="44.12293" lon="3.23579">
        <ele>577.73</ele>
        <time>2026-04-02T13:36:24.152Z</time>
      </trkpt>
      <trkpt lat="44.12294" lon="3.2357">
        <ele>576.98</ele>
        <time>2026-04-02T13:36:30.235Z</time>
      </trkpt>
      <trkpt lat="44.12295" lon="3.23563">
        <ele>576.24</ele>
        <time>2026-04-02T13:36:35.289Z</time>
      </trkpt>
      <trkpt lat="44.123" lon="3.23556">
        <ele>577.06</ele>
        <time>2026-04-02T13:36:40.639Z</time>
      </trkpt>
      <trkpt lat="44.12302" lon="3.23548">
        <ele>577.49</ele>
        <time>2026-04-02T13:36:45.937Z</time>
      </trkpt>
      <trkpt lat="44.12304" lon="3.2354">
        <ele>577.54</ele>
        <time>2026-04-02T13:36:50.977Z</time>
      </trkpt>
      <trkpt lat="44.12306" lon="3.23531">
        <ele>576.51</ele>
        <time>2026-04-02T13:36:56.039Z</time>
      </trkpt>
      <trkpt lat="44.12308" lon="3.23525">
        <ele>576.03</ele>
        <time>2026-04-02T13:37:01.325Z</time>
      </trkpt>
      <trkpt lat="44.12311" lon="3.23517">
        <ele>575.87</ele>
        <time>2026-04-02T13:37:07.119Z</time>
      </trkpt>
      <trkpt lat="44.12314" lon="3.23507">
        <ele>576.84</ele>
        <time>2026-04-02T13:37:13.260Z</time>
      </trkpt>
      <trkpt lat="44.12315" lon="3.23498">
        <ele>576.16</ele>
        <time>2026-04-02T13:37:18.299Z</time>
      </trkpt>
      <trkpt lat="44.12317" lon="3.2349">
        <ele>576.41</ele>
        <time>2026-04-02T13:37:23.985Z</time>
      </trkpt>
      <trkpt lat="44.12316" lon="3.23483">
        <ele>576.31</ele>
        <time>2026-04-02T13:37:29.400Z</time>
      </trkpt>
      <trkpt lat="44.12318" lon="3.23476">
        <ele>576.03</ele>
        <time>2026-04-02T13:37:34.755Z</time>
      </trkpt>
      <trkpt lat="44.1232" lon="3.23467">
        <ele>576.87</ele>
        <time>2026-04-02T13:37:40.310Z</time>
      </trkpt>
      <trkpt lat="44.12322" lon="3.23458">
        <ele>576.58</ele>
        <time>2026-04-02T13:37:46.249Z</time>
      </trkpt>
      <trkpt lat="44.12323" lon="3.2345">
        <ele>576.32</ele>
        <time>2026-04-02T13:37:51.269Z</time>
      </trkpt>
      <trkpt lat="44.12324" lon="3.23443">
        <ele>576.35</ele>
        <time>2026-04-02T13:37:56.284Z</time>
      </trkpt>
      <trkpt lat="44.12324" lon="3.23434">
        <ele>577.11</ele>
        <time>2026-04-02T13:38:01.768Z</time>
      </trkpt>
      <trkpt lat="44.12325" lon="3.23425">
        <ele>577.77</ele>
        <time>2026-04-02T13:38:06.887Z</time>
      </trkpt>
      <trkpt lat="44.12326" lon="3.23415">
        <ele>577.11</ele>
        <time>2026-04-02T13:38:12.229Z</time>
      </trkpt>
      <trkpt lat="44.12327" lon="3.23406">
        <ele>577.75</ele>
        <time>2026-04-02T13:38:17.304Z</time>
      </trkpt>
      <trkpt lat="44.12328" lon="3.23397">
        <ele>577.75</ele>
        <time>2026-04-02T13:38:22.751Z</time>
      </trkpt>
      <trkpt lat="44.12329" lon="3.23387">
        <ele>577.14</ele>
        <time>2026-04-02T13:38:28.032Z</time>
      </trkpt>
      <trkpt lat="44.12333" lon="3.23379">
        <ele>575.91</ele>
        <time>2026-04-02T13:38:33.324Z</time>
      </trkpt>
      <trkpt lat="44.12335" lon="3.23371">
        <ele>575.79</ele>
        <time>2026-04-02T13:38:38.888Z</time>
      </trkpt>
      <trkpt lat="44.12336" lon="3.23362">
        <ele>575.35</ele>
        <time>2026-04-02T13:38:44.072Z</time>
      </trkpt>
      <trkpt lat="44.1234" lon="3.23354">
        <ele>575.32</ele>
        <time>2026-04-02T13:38:49.111Z</time>
      </trkpt>
      <trkpt lat="44.12345" lon="3.23348">
        <ele>574.2</ele>
        <time>2026-04-02T13:38:54.370Z</time>
      </trkpt>
      <trkpt lat="44.1235" lon="3.23342">
        <ele>574.16</ele>
        <time>2026-04-02T13:38:59.766Z</time>
      </trkpt>
      <trkpt lat="44.12355" lon="3.23334">
        <ele>573.1</ele>
        <time>2026-04-02T13:39:04.812Z</time>
      </trkpt>
      <trkpt lat="44.12359" lon="3.23327">
        <ele>572.97</ele>
        <time>2026-04-02T13:39:10.071Z</time>
      </trkpt>
      <trkpt lat="44.12362" lon="3.23319">
        <ele>573.6</ele>
        <time>2026-04-02T13:39:15.692Z</time>
      </trkpt>
      <trkpt lat="44.12366" lon="3.23311">
        <ele>573.62</ele>
        <time>2026-04-02T13:39:21.230Z</time>
      </trkpt>
      <trkpt lat="44.12372" lon="3.23307">
        <ele>572.37</ele>
        <time>2026-04-02T13:39:26.971Z</time>
      </trkpt>
      <trkpt lat="44.12372" lon="3.23299">
        <ele>570.99</ele>
        <time>2026-04-02T13:39:32.312Z</time>
      </trkpt>
      <trkpt lat="44.12365" lon="3.23291">
        <ele>570.93</ele>
        <time>2026-04-02T13:39:38.311Z</time>
      </trkpt>
      <trkpt lat="44.12362" lon="3.23284">
        <ele>570.31</ele>
        <time>2026-04-02T13:39:44.008Z</time>
      </trkpt>
      <trkpt lat="44.12357" lon="3.23276">
        <ele>569.65</ele>
        <time>2026-04-02T13:39:49.324Z</time>
      </trkpt>
      <trkpt lat="44.12355" lon="3.23268">
        <ele>567.68</ele>
        <time>2026-04-02T13:39:54.395Z</time>
      </trkpt>
      <trkpt lat="44.12358" lon="3.23259">
        <ele>565.99</ele>
        <time>2026-04-02T13:40:00.067Z</time>
      </trkpt>
      <trkpt lat="44.12361" lon="3.23254">
        <ele>564.91</ele>
        <time>2026-04-02T13:40:05.287Z</time>
      </trkpt>
      <trkpt lat="44.12361" lon="3.23249">
        <ele>564.4</ele>
        <time>2026-04-02T13:40:10.324Z</time>
      </trkpt>
      <trkpt lat="44.12358" lon="3.23243">
        <ele>563.72</ele>
        <time>2026-04-02T13:40:15.330Z</time>
      </trkpt>
      <trkpt lat="44.1236" lon="3.23239">
        <ele>563.04</ele>
        <time>2026-04-02T13:40:20.345Z</time>
      </trkpt>
      <trkpt lat="44.12363" lon="3.23244">
        <ele>562.44</ele>
        <time>2026-04-02T13:40:26.324Z</time>
      </trkpt>
      <trkpt lat="44.12368" lon="3.23253">
        <ele>561.16</ele>
        <time>2026-04-02T13:40:31.641Z</time>
      </trkpt>
      <trkpt lat="44.12374" lon="3.23258">
        <ele>561.09</ele>
        <time>2026-04-02T13:40:37.324Z</time>
      </trkpt>
      <trkpt lat="44.12377" lon="3.2326">
        <ele>560.69</ele>
        <time>2026-04-02T13:40:42.826Z</time>
      </trkpt>
      <trkpt lat="44.12379" lon="3.2326">
        <ele>559.92</ele>
        <time>2026-04-02T13:40:48.324Z</time>
      </trkpt>
      <trkpt lat="44.12377" lon="3.23259">
        <ele>558.42</ele>
        <time>2026-04-02T13:40:53.746Z</time>
      </trkpt>
      <trkpt lat="44.12381" lon="3.23257">
        <ele>556.3</ele>
        <time>2026-04-02T13:40:59.249Z</time>
      </trkpt>
      <trkpt lat="44.12391" lon="3.23258">
        <ele>556.18</ele>
        <time>2026-04-02T13:41:05.273Z</time>
      </trkpt>
      <trkpt lat="44.12399" lon="3.23259">
        <ele>556.38</ele>
        <time>2026-04-02T13:41:11.383Z</time>
      </trkpt>
      <trkpt lat="44.12403" lon="3.23258">
        <ele>555.97</ele>
        <time>2026-04-02T13:41:16.606Z</time>
      </trkpt>
      <trkpt lat="44.12409" lon="3.23256">
        <ele>554.81</ele>
        <time>2026-04-02T13:41:21.983Z</time>
      </trkpt>
      <trkpt lat="44.12416" lon="3.23253">
        <ele>553.35</ele>
        <time>2026-04-02T13:41:27.825Z</time>
      </trkpt>
      <trkpt lat="44.12421" lon="3.23252">
        <ele>553.1</ele>
        <time>2026-04-02T13:41:32.947Z</time>
      </trkpt>
      <trkpt lat="44.12427" lon="3.2325">
        <ele>552.73</ele>
        <time>2026-04-02T13:41:38.349Z</time>
      </trkpt>
      <trkpt lat="44.12431" lon="3.2325">
        <ele>551.39</ele>
        <time>2026-04-02T13:41:44.008Z</time>
      </trkpt>
      <trkpt lat="44.12434" lon="3.23248">
        <ele>549.94</ele>
        <time>2026-04-02T13:41:49.662Z</time>
      </trkpt>
      <trkpt lat="44.12439" lon="3.23246">
        <ele>549.22</ele>
        <time>2026-04-02T13:41:54.767Z</time>
      </trkpt>
      <trkpt lat="44.12444" lon="3.23245">
        <ele>547.8</ele>
        <time>2026-04-02T13:41:59.809Z</time>
      </trkpt>
      <trkpt lat="44.12449" lon="3.23244">
        <ele>547.44</ele>
        <time>2026-04-02T13:42:04.920Z</time>
      </trkpt>
      <trkpt lat="44.12452" lon="3.23243">
        <ele>547.58</ele>
        <time>2026-04-02T13:42:10.358Z</time>
      </trkpt>
      <trkpt lat="44.12455" lon="3.23238">
        <ele>546.17</ele>
        <time>2026-04-02T13:42:15.740Z</time>
      </trkpt>
      <trkpt lat="44.12463" lon="3.23235">
        <ele>544.97</ele>
        <time>2026-04-02T13:42:21.086Z</time>
      </trkpt>
      <trkpt lat="44.1247" lon="3.23231">
        <ele>544.03</ele>
        <time>2026-04-02T13:42:26.324Z</time>
      </trkpt>
      <trkpt lat="44.12476" lon="3.23228">
        <ele>544.15</ele>
        <time>2026-04-02T13:42:31.344Z</time>
      </trkpt>
      <trkpt lat="44.12479" lon="3.23219">
        <ele>543.88</ele>
        <time>2026-04-02T13:42:37.107Z</time>
      </trkpt>
      <trkpt lat="44.12484" lon="3.23214">
        <ele>543.19</ele>
        <time>2026-04-02T13:42:43.207Z</time>
      </trkpt>
      <trkpt lat="44.12486" lon="3.23212">
        <ele>542.01</ele>
        <time>2026-04-02T13:42:48.568Z</time>
      </trkpt>
      <trkpt lat="44.12483" lon="3.23209">
        <ele>540.47</ele>
        <time>2026-04-02T13:42:54.316Z</time>
      </trkpt>
      <trkpt lat="44.12475" lon="3.23212">
        <ele>539.25</ele>
        <time>2026-04-02T13:43:00.324Z</time>
      </trkpt>
      <trkpt lat="44.12468" lon="3.23211">
        <ele>538.52</ele>
        <time>2026-04-02T13:43:06.083Z</time>
      </trkpt>
      <trkpt lat="44.1246" lon="3.23214">
        <ele>537.09</ele>
        <time>2026-04-02T13:43:11.704Z</time>
      </trkpt>
      <trkpt lat="44.12455" lon="3.23215">
        <ele>536.27</ele>
        <time>2026-04-02T13:43:17.362Z</time>
      </trkpt>
      <trkpt lat="44.12448" lon="3.23213">
        <ele>535.22</ele>
        <time>2026-04-02T13:43:23.172Z</time>
      </trkpt>
      <trkpt lat="44.1244" lon="3.23209">
        <ele>533.77</ele>
        <time>2026-04-02T13:43:28.871Z</time>
      </trkpt>
      <trkpt lat="44.12435" lon="3.23211">
        <ele>532.26</ele>
        <time>2026-04-02T13:43:33.969Z</time>
      </trkpt>
      <trkpt lat="44.1243" lon="3.23214">
        <ele>530.8</ele>
        <time>2026-04-02T13:43:39.342Z</time>
      </trkpt>
      <trkpt lat="44.12425" lon="3.23214">
        <ele>530.15</ele>
        <time>2026-04-02T13:43:45.215Z</time>
      </trkpt>
      <trkpt lat="44.1242" lon="3.2321">
        <ele>529.18</ele>
        <time>2026-04-02T13:43:50.307Z</time>
      </trkpt>
      <trkpt lat="44.12416" lon="3.23204">
        <ele>528.02</ele>
        <time>2026-04-02T13:43:55.346Z</time>
      </trkpt>
      <trkpt lat="44.12412" lon="3.23199">
        <ele>527.39</ele>
        <time>2026-04-02T13:44:01.323Z</time>
      </trkpt>
      <trkpt lat="44.12408" lon="3.23196">
        <ele>527.42</ele>
        <time>2026-04-02T13:44:06.348Z</time>
      </trkpt>
      <trkpt lat="44.12403" lon="3.2319">
        <ele>526.59</ele>
        <time>2026-04-02T13:44:12.324Z</time>
      </trkpt>
      <trkpt lat="44.12396" lon="3.23188">
        <ele>525.12</ele>
        <time>2026-04-02T13:44:17.684Z</time>
      </trkpt>
      <trkpt lat="44.12391" lon="3.23186">
        <ele>524.08</ele>
        <time>2026-04-02T13:44:22.886Z</time>
      </trkpt>
      <trkpt lat="44.12388" lon="3.23182">
        <ele>523.26</ele>
        <time>2026-04-02T13:44:28.315Z</time>
      </trkpt>
      <trkpt lat="44.12383" lon="3.23182">
        <ele>522.69</ele>
        <time>2026-04-02T13:44:33.804Z</time>
      </trkpt>
      <trkpt lat="44.12377" lon="3.2318">
        <ele>521.81</ele>
        <time>2026-04-02T13:44:39.304Z</time>
      </trkpt>
      <trkpt lat="44.12371" lon="3.23175">
        <ele>521.07</ele>
        <time>2026-04-02T13:44:44.770Z</time>
      </trkpt>
      <trkpt lat="44.12368" lon="3.23169">
        <ele>519.14</ele>
        <time>2026-04-02T13:44:49.927Z</time>
      </trkpt>
      <trkpt lat="44.12362" lon="3.23169">
        <ele>518.41</ele>
        <time>2026-04-02T13:44:55.402Z</time>
      </trkpt>
      <trkpt lat="44.12355" lon="3.23167">
        <ele>518.56</ele>
        <time>2026-04-02T13:45:00.922Z</time>
      </trkpt>
      <trkpt lat="44.12349" lon="3.23163">
        <ele>518.23</ele>
        <time>2026-04-02T13:45:06.297Z</time>
      </trkpt>
      <trkpt lat="44.12343" lon="3.23162">
        <ele>517.71</ele>
        <time>2026-04-02T13:45:11.776Z</time>
      </trkpt>
      <trkpt lat="44.12338" lon="3.23163">
        <ele>517.14</ele>
        <time>2026-04-02T13:45:17.000Z</time>
      </trkpt>
      <trkpt lat="44.12334" lon="3.23166">
        <ele>514.81</ele>
        <time>2026-04-02T13:45:22.155Z</time>
      </trkpt>
      <trkpt lat="44.12337" lon="3.23159">
        <ele>514.62</ele>
        <time>2026-04-02T13:45:28.277Z</time>
      </trkpt>
      <trkpt lat="44.12343" lon="3.23157">
        <ele>514.41</ele>
        <time>2026-04-02T13:45:33.291Z</time>
      </trkpt>
      <trkpt lat="44.12349" lon="3.23155">
        <ele>514.45</ele>
        <time>2026-04-02T13:45:38.306Z</time>
      </trkpt>
      <trkpt lat="44.12355" lon="3.23153">
        <ele>513.49</ele>
        <time>2026-04-02T13:45:44.281Z</time>
      </trkpt>
      <trkpt lat="44.12358" lon="3.23152">
        <ele>512.59</ele>
        <time>2026-04-02T13:45:49.296Z</time>
      </trkpt>
      <trkpt lat="44.12364" lon="3.23152">
        <ele>512.89</ele>
        <time>2026-04-02T13:45:54.680Z</time>
      </trkpt>
      <trkpt lat="44.12371" lon="3.23152">
        <ele>512.32</ele>
        <time>2026-04-02T13:46:00.253Z</time>
      </trkpt>
      <trkpt lat="44.12376" lon="3.23148">
        <ele>511.24</ele>
        <time>2026-04-02T13:46:05.358Z</time>
      </trkpt>
      <trkpt lat="44.12381" lon="3.23148">
        <ele>510.13</ele>
        <time>2026-04-02T13:46:10.736Z</time>
      </trkpt>
      <trkpt lat="44.12383" lon="3.23151">
        <ele>509.04</ele>
        <time>2026-04-02T13:46:16.291Z</time>
      </trkpt>
      <trkpt lat="44.12386" lon="3.2315">
        <ele>507.75</ele>
        <time>2026-04-02T13:46:21.594Z</time>
      </trkpt>
      <trkpt lat="44.12392" lon="3.23151">
        <ele>507.46</ele>
        <time>2026-04-02T13:46:26.846Z</time>
      </trkpt>
      <trkpt lat="44.12395" lon="3.2315">
        <ele>507.05</ele>
        <time>2026-04-02T13:46:31.853Z</time>
      </trkpt>
      <trkpt lat="44.124" lon="3.23147">
        <ele>506.5</ele>
        <time>2026-04-02T13:46:37.214Z</time>
      </trkpt>
      <trkpt lat="44.12404" lon="3.23147">
        <ele>504.68</ele>
        <time>2026-04-02T13:46:42.629Z</time>
      </trkpt>
      <trkpt lat="44.12407" lon="3.23145">
        <ele>503.29</ele>
        <time>2026-04-02T13:46:48.306Z</time>
      </trkpt>
      <trkpt lat="44.12405" lon="3.23144">
        <ele>503.59</ele>
        <time>2026-04-02T13:46:53.592Z</time>
      </trkpt>
      <trkpt lat="44.12402" lon="3.23142">
        <ele>503.14</ele>
        <time>2026-04-02T13:46:58.696Z</time>
      </trkpt>
      <trkpt lat="44.12399" lon="3.23138">
        <ele>502.57</ele>
        <time>2026-04-02T13:47:03.697Z</time>
      </trkpt>
      <trkpt lat="44.12395" lon="3.23133">
        <ele>501.68</ele>
        <time>2026-04-02T13:47:09.214Z</time>
      </trkpt>
      <trkpt lat="44.12389" lon="3.23131">
        <ele>500.07</ele>
        <time>2026-04-02T13:47:14.880Z</time>
      </trkpt>
      <trkpt lat="44.12385" lon="3.23128">
        <ele>499.54</ele>
        <time>2026-04-02T13:47:20.307Z</time>
      </trkpt>
      <trkpt lat="44.12381" lon="3.23127">
        <ele>499.51</ele>
        <time>2026-04-02T13:47:25.851Z</time>
      </trkpt>
      <trkpt lat="44.12376" lon="3.23126">
        <ele>498.56</ele>
        <time>2026-04-02T13:47:30.855Z</time>
      </trkpt>
      <trkpt lat="44.12371" lon="3.23122">
        <ele>497.79</ele>
        <time>2026-04-02T13:47:36.216Z</time>
      </trkpt>
      <trkpt lat="44.12365" lon="3.2312">
        <ele>496.7</ele>
        <time>2026-04-02T13:47:41.231Z</time>
      </trkpt>
      <trkpt lat="44.1236" lon="3.23118">
        <ele>495.48</ele>
        <time>2026-04-02T13:47:46.315Z</time>
      </trkpt>
      <trkpt lat="44.12354" lon="3.23116">
        <ele>495.12</ele>
        <time>2026-04-02T13:47:51.391Z</time>
      </trkpt>
      <trkpt lat="44.12348" lon="3.23117">
        <ele>493.92</ele>
        <time>2026-04-02T13:47:57.013Z</time>
      </trkpt>
      <trkpt lat="44.12344" lon="3.23116">
        <ele>493.56</ele>
        <time>2026-04-02T13:48:02.732Z</time>
      </trkpt>
      <trkpt lat="44.12339" lon="3.23119">
        <ele>493</ele>
        <time>2026-04-02T13:48:07.887Z</time>
      </trkpt>
      <trkpt lat="44.12335" lon="3.23125">
        <ele>492.31</ele>
        <time>2026-04-02T13:48:13.107Z</time>
      </trkpt>
      <trkpt lat="44.12331" lon="3.23128">
        <ele>493.11</ele>
        <time>2026-04-02T13:48:18.356Z</time>
      </trkpt>
      <trkpt lat="44.1233" lon="3.2313">
        <ele>492.72</ele>
        <time>2026-04-02T13:48:24.331Z</time>
      </trkpt>
      <trkpt lat="44.12331" lon="3.23127">
        <ele>492.81</ele>
        <time>2026-04-02T13:48:30.267Z</time>
      </trkpt>
      <trkpt lat="44.12328" lon="3.2313">
        <ele>492.97</ele>
        <time>2026-04-02T13:48:35.321Z</time>
      </trkpt>
      <trkpt lat="44.12323" lon="3.23133">
        <ele>492.21</ele>
        <time>2026-04-02T13:48:40.927Z</time>
      </trkpt>
      <trkpt lat="44.12319" lon="3.23138">
        <ele>491.55</ele>
        <time>2026-04-02T13:48:46.204Z</time>
      </trkpt>
      <trkpt lat="44.12314" lon="3.23142">
        <ele>492.59</ele>
        <time>2026-04-02T13:48:51.325Z</time>
      </trkpt>
      <trkpt lat="44.12315" lon="3.23132">
        <ele>490.98</ele>
        <time>2026-04-02T13:48:56.340Z</time>
      </trkpt>
      <trkpt lat="44.12324" lon="3.23126">
        <ele>489.77</ele>
        <time>2026-04-02T13:49:01.715Z</time>
      </trkpt>
      <trkpt lat="44.1233" lon="3.2312">
        <ele>488.82</ele>
        <time>2026-04-02T13:49:07.111Z</time>
      </trkpt>
      <trkpt lat="44.12333" lon="3.23116">
        <ele>487.88</ele>
        <time>2026-04-02T13:49:12.757Z</time>
      </trkpt>
      <trkpt lat="44.1234" lon="3.23112">
        <ele>488.21</ele>
        <time>2026-04-02T13:49:18.174Z</time>
      </trkpt>
      <trkpt lat="44.12342" lon="3.23107">
        <ele>487.31</ele>
        <time>2026-04-02T13:49:23.343Z</time>
      </trkpt>
      <trkpt lat="44.12345" lon="3.23103">
        <ele>487.36</ele>
        <time>2026-04-02T13:49:28.755Z</time>
      </trkpt>
      <trkpt lat="44.1235" lon="3.231">
        <ele>486.57</ele>
        <time>2026-04-02T13:49:34.053Z</time>
      </trkpt>
      <trkpt lat="44.12356" lon="3.23098">
        <ele>485.29</ele>
        <time>2026-04-02T13:49:39.799Z</time>
      </trkpt>
      <trkpt lat="44.12358" lon="3.23094">
        <ele>483.76</ele>
        <time>2026-04-02T13:49:45.032Z</time>
      </trkpt>
      <trkpt lat="44.12362" lon="3.23094">
        <ele>484.01</ele>
        <time>2026-04-02T13:49:50.337Z</time>
      </trkpt>
      <trkpt lat="44.12367" lon="3.23097">
        <ele>483.74</ele>
        <time>2026-04-02T13:49:55.698Z</time>
      </trkpt>
      <trkpt lat="44.12373" lon="3.23098">
        <ele>483.63</ele>
        <time>2026-04-02T13:50:01.330Z</time>
      </trkpt>
      <trkpt lat="44.12375" lon="3.23098">
        <ele>482.73</ele>
        <time>2026-04-02T13:50:06.531Z</time>
      </trkpt>
      <trkpt lat="44.12376" lon="3.23097">
        <ele>480.64</ele>
        <time>2026-04-02T13:50:12.151Z</time>
      </trkpt>
      <trkpt lat="44.12379" lon="3.23096">
        <ele>480.75</ele>
        <time>2026-04-02T13:50:17.364Z</time>
      </trkpt>
      <trkpt lat="44.12386" lon="3.23095">
        <ele>479.78</ele>
        <time>2026-04-02T13:50:22.859Z</time>
      </trkpt>
      <trkpt lat="44.12392" lon="3.23094">
        <ele>479.42</ele>
        <time>2026-04-02T13:50:28.321Z</time>
      </trkpt>
      <trkpt lat="44.12393" lon="3.23093">
        <ele>479.14</ele>
        <time>2026-04-02T13:50:33.360Z</time>
      </trkpt>
      <trkpt lat="44.12395" lon="3.23093">
        <ele>478.02</ele>
        <time>2026-04-02T13:50:38.406Z</time>
      </trkpt>
      <trkpt lat="44.12398" lon="3.23094">
        <ele>478.41</ele>
        <time>2026-04-02T13:50:44.144Z</time>
      </trkpt>
      <trkpt lat="44.12405" lon="3.23095">
        <ele>476.95</ele>
        <time>2026-04-02T13:50:49.340Z</time>
      </trkpt>
      <trkpt lat="44.12409" lon="3.23089">
        <ele>475.84</ele>
        <time>2026-04-02T13:50:55.020Z</time>
      </trkpt>
      <trkpt lat="44.12405" lon="3.23084">
        <ele>475.11</ele>
        <time>2026-04-02T13:51:00.364Z</time>
      </trkpt>
      <trkpt lat="44.12399" lon="3.23082">
        <ele>474.18</ele>
        <time>2026-04-02T13:51:05.955Z</time>
      </trkpt>
      <trkpt lat="44.12393" lon="3.23084">
        <ele>473.43</ele>
        <time>2026-04-02T13:51:12.115Z</time>
      </trkpt>
      <trkpt lat="44.12386" lon="3.23083">
        <ele>472.6</ele>
        <time>2026-04-02T13:51:17.294Z</time>
      </trkpt>
      <trkpt lat="44.1238" lon="3.23077">
        <ele>472.06</ele>
        <time>2026-04-02T13:51:23.351Z</time>
      </trkpt>
      <trkpt lat="44.12376" lon="3.23072">
        <ele>471.35</ele>
        <time>2026-04-02T13:51:28.828Z</time>
      </trkpt>
      <trkpt lat="44.12374" lon="3.23068">
        <ele>470.48</ele>
        <time>2026-04-02T13:51:34.270Z</time>
      </trkpt>
      <trkpt lat="44.1237" lon="3.23067">
        <ele>469.39</ele>
        <time>2026-04-02T13:51:40.341Z</time>
      </trkpt>
      <trkpt lat="44.12366" lon="3.23062">
        <ele>470.02</ele>
        <time>2026-04-02T13:51:46.309Z</time>
      </trkpt>
      <trkpt lat="44.12361" lon="3.23055">
        <ele>469.04</ele>
        <time>2026-04-02T13:51:52.105Z</time>
      </trkpt>
      <trkpt lat="44.12354" lon="3.23051">
        <ele>468.12</ele>
        <time>2026-04-02T13:51:58.206Z</time>
      </trkpt>
      <trkpt lat="44.12354" lon="3.2305">
        <ele>467.13</ele>
        <time>2026-04-02T13:52:03.280Z</time>
      </trkpt>
      <trkpt lat="44.12357" lon="3.2305">
        <ele>465.83</ele>
        <time>2026-04-02T13:52:08.983Z</time>
      </trkpt>
      <trkpt lat="44.1236" lon="3.23052">
        <ele>466.37</ele>
        <time>2026-04-02T13:52:14.282Z</time>
      </trkpt>
      <trkpt lat="44.12366" lon="3.23053">
        <ele>465.2</ele>
        <time>2026-04-02T13:52:19.284Z</time>
      </trkpt>
      <trkpt lat="44.12368" lon="3.23054">
        <ele>464.84</ele>
        <time>2026-04-02T13:52:24.764Z</time>
      </trkpt>
      <trkpt lat="44.12372" lon="3.23054">
        <ele>464.16</ele>
        <time>2026-04-02T13:52:29.886Z</time>
      </trkpt>
      <trkpt lat="44.12375" lon="3.23056">
        <ele>462.45</ele>
        <time>2026-04-02T13:52:34.946Z</time>
      </trkpt>
      <trkpt lat="44.1238" lon="3.23059">
        <ele>462.68</ele>
        <time>2026-04-02T13:52:40.244Z</time>
      </trkpt>
      <trkpt lat="44.12382" lon="3.23059">
        <ele>462</ele>
        <time>2026-04-02T13:52:45.626Z</time>
      </trkpt>
      <trkpt lat="44.12383" lon="3.23057">
        <ele>461.8</ele>
        <time>2026-04-02T13:52:51.069Z</time>
      </trkpt>
      <trkpt lat="44.12385" lon="3.23058">
        <ele>460.69</ele>
        <time>2026-04-02T13:52:56.349Z</time>
      </trkpt>
      <trkpt lat="44.1239" lon="3.23055">
        <ele>459.59</ele>
        <time>2026-04-02T13:53:02.083Z</time>
      </trkpt>
      <trkpt lat="44.12395" lon="3.23051">
        <ele>459.3</ele>
        <time>2026-04-02T13:53:07.315Z</time>
      </trkpt>
      <trkpt lat="44.124" lon="3.23051">
        <ele>458.8</ele>
        <time>2026-04-02T13:53:13.347Z</time>
      </trkpt>
      <trkpt lat="44.12403" lon="3.23049">
        <ele>458.42</ele>
        <time>2026-04-02T13:53:19.241Z</time>
      </trkpt>
      <trkpt lat="44.12409" lon="3.23045">
        <ele>458.13</ele>
        <time>2026-04-02T13:53:24.898Z</time>
      </trkpt>
      <trkpt lat="44.12421" lon="3.23039">
        <ele>457.28</ele>
        <time>2026-04-02T13:53:30.370Z</time>
      </trkpt>
      <trkpt lat="44.12432" lon="3.23034">
        <ele>456.3</ele>
        <time>2026-04-02T13:53:35.540Z</time>
      </trkpt>
      <trkpt lat="44.12437" lon="3.23024">
        <ele>456.08</ele>
        <time>2026-04-02T13:53:40.838Z</time>
      </trkpt>
      <trkpt lat="44.12439" lon="3.23016">
        <ele>454.98</ele>
        <time>2026-04-02T13:53:45.908Z</time>
      </trkpt>
      <trkpt lat="44.12441" lon="3.23009">
        <ele>454.73</ele>
        <time>2026-04-02T13:53:51.161Z</time>
      </trkpt>
      <trkpt lat="44.12442" lon="3.23002">
        <ele>453.46</ele>
        <time>2026-04-02T13:53:56.329Z</time>
      </trkpt>
      <trkpt lat="44.12441" lon="3.22994">
        <ele>451.18</ele>
        <time>2026-04-02T13:54:01.435Z</time>
      </trkpt>
      <trkpt lat="44.12443" lon="3.22986">
        <ele>451.25</ele>
        <time>2026-04-02T13:54:07.189Z</time>
      </trkpt>
      <trkpt lat="44.12441" lon="3.22983">
        <ele>451.58</ele>
        <time>2026-04-02T13:54:12.364Z</time>
      </trkpt>
      <trkpt lat="44.1244" lon="3.22974">
        <ele>451.8</ele>
        <time>2026-04-02T13:54:18.359Z</time>
      </trkpt>
      <trkpt lat="44.12443" lon="3.22966">
        <ele>449.26</ele>
        <time>2026-04-02T13:54:24.183Z</time>
      </trkpt>
      <trkpt lat="44.12445" lon="3.22956">
        <ele>448.3</ele>
        <time>2026-04-02T13:54:29.607Z</time>
      </trkpt>
      <trkpt lat="44.1245" lon="3.22951">
        <ele>447.84</ele>
        <time>2026-04-02T13:54:35.103Z</time>
      </trkpt>
      <trkpt lat="44.12456" lon="3.22947">
        <ele>447.44</ele>
        <time>2026-04-02T13:54:41.042Z</time>
      </trkpt>
      <trkpt lat="44.12459" lon="3.2294">
        <ele>446.25</ele>
        <time>2026-04-02T13:54:46.239Z</time>
      </trkpt>
      <trkpt lat="44.12464" lon="3.22936">
        <ele>445.6</ele>
        <time>2026-04-02T13:54:51.545Z</time>
      </trkpt>
      <trkpt lat="44.1247" lon="3.22932">
        <ele>444.02</ele>
        <time>2026-04-02T13:54:56.761Z</time>
      </trkpt>
      <trkpt lat="44.12474" lon="3.22928">
        <ele>443.26</ele>
        <time>2026-04-02T13:55:01.821Z</time>
      </trkpt>
      <trkpt lat="44.12475" lon="3.22918">
        <ele>442.46</ele>
        <time>2026-04-02T13:55:07.103Z</time>
      </trkpt>
      <trkpt lat="44.12476" lon="3.22911">
        <ele>442.06</ele>
        <time>2026-04-02T13:55:12.144Z</time>
      </trkpt>
      <trkpt lat="44.12478" lon="3.22905">
        <ele>440.78</ele>
        <time>2026-04-02T13:55:17.364Z</time>
      </trkpt>
      <trkpt lat="44.12485" lon="3.22901">
        <ele>440.31</ele>
        <time>2026-04-02T13:55:23.143Z</time>
      </trkpt>
      <trkpt lat="44.12491" lon="3.22894">
        <ele>439.41</ele>
        <time>2026-04-02T13:55:29.161Z</time>
      </trkpt>
      <trkpt lat="44.12493" lon="3.2289">
        <ele>437.81</ele>
        <time>2026-04-02T13:55:34.444Z</time>
      </trkpt>
      <trkpt lat="44.12498" lon="3.22886">
        <ele>436.56</ele>
        <time>2026-04-02T13:55:39.699Z</time>
      </trkpt>
      <trkpt lat="44.12498" lon="3.2289">
        <ele>435.87</ele>
        <time>2026-04-02T13:55:45.182Z</time>
      </trkpt>
      <trkpt lat="44.12499" lon="3.2289">
        <ele>435.16</ele>
        <time>2026-04-02T13:55:53.880Z</time>
      </trkpt>
      <trkpt lat="44.12502" lon="3.22887">
        <ele>435.1</ele>
        <time>2026-04-02T13:55:59.082Z</time>
      </trkpt>
      <trkpt lat="44.12502" lon="3.22885">
        <ele>435.13</ele>
        <time>2026-04-02T13:56:04.340Z</time>
      </trkpt>
      <trkpt lat="44.12502" lon="3.22884">
        <ele>434.81</ele>
        <time>2026-04-02T13:56:11.275Z</time>
      </trkpt>
      <trkpt lat="44.12503" lon="3.22882">
        <ele>434.25</ele>
        <time>2026-04-02T13:56:16.290Z</time>
      </trkpt>
      <trkpt lat="44.12503" lon="3.22881">
        <ele>434.62</ele>
        <time>2026-04-02T13:56:23.332Z</time>
      </trkpt>
      <trkpt lat="44.12504" lon="3.22881">
        <ele>434.84</ele>
        <time>2026-04-02T13:56:31.335Z</time>
      </trkpt>
      <trkpt lat="44.12508" lon="3.22882">
        <ele>434.92</ele>
        <time>2026-04-02T13:56:36.975Z</time>
      </trkpt>
      <trkpt lat="44.12514" lon="3.22884">
        <ele>436.56</ele>
        <time>2026-04-02T13:56:42.540Z</time>
      </trkpt>
      <trkpt lat="44.12518" lon="3.22889">
        <ele>436.67</ele>
        <time>2026-04-02T13:56:47.859Z</time>
      </trkpt>
      <trkpt lat="44.12525" lon="3.2289">
        <ele>437</ele>
        <time>2026-04-02T13:56:53.017Z</time>
      </trkpt>
      <trkpt lat="44.12533" lon="3.22889">
        <ele>437.31</ele>
        <time>2026-04-02T13:56:58.328Z</time>
      </trkpt>
      <trkpt lat="44.12534" lon="3.22879">
        <ele>437.18</ele>
        <time>2026-04-02T13:57:03.335Z</time>
      </trkpt>
      <trkpt lat="44.12537" lon="3.22868">
        <ele>436.79</ele>
        <time>2026-04-02T13:57:09.039Z</time>
      </trkpt>
      <trkpt lat="44.12539" lon="3.22861">
        <ele>435.31</ele>
        <time>2026-04-02T13:57:14.720Z</time>
      </trkpt>
      <trkpt lat="44.12539" lon="3.22855">
        <ele>435.2</ele>
        <time>2026-04-02T13:57:20.307Z</time>
      </trkpt>
      <trkpt lat="44.12537" lon="3.22848">
        <ele>435.46</ele>
        <time>2026-04-02T13:57:25.761Z</time>
      </trkpt>
      <trkpt lat="44.12536" lon="3.22841">
        <ele>435.81</ele>
        <time>2026-04-02T13:57:31.159Z</time>
      </trkpt>
      <trkpt lat="44.12537" lon="3.22833">
        <ele>435.82</ele>
        <time>2026-04-02T13:57:36.205Z</time>
      </trkpt>
      <trkpt lat="44.12534" lon="3.22826">
        <ele>436.26</ele>
        <time>2026-04-02T13:57:41.759Z</time>
      </trkpt>
      <trkpt lat="44.12536" lon="3.22819">
        <ele>438.09</ele>
        <time>2026-04-02T13:57:47.300Z</time>
      </trkpt>
      <trkpt lat="44.12534" lon="3.22809">
        <ele>438.74</ele>
        <time>2026-04-02T13:57:53.039Z</time>
      </trkpt>
      <trkpt lat="44.12533" lon="3.22797">
        <ele>438.16</ele>
        <time>2026-04-02T13:57:58.291Z</time>
      </trkpt>
      <trkpt lat="44.12534" lon="3.22788">
        <ele>437.26</ele>
        <time>2026-04-02T13:58:04.266Z</time>
      </trkpt>
      <trkpt lat="44.12535" lon="3.22781">
        <ele>436.16</ele>
        <time>2026-04-02T13:58:09.979Z</time>
      </trkpt>
      <trkpt lat="44.12539" lon="3.22774">
        <ele>435.52</ele>
        <time>2026-04-02T13:58:15.633Z</time>
      </trkpt>
      <trkpt lat="44.12539" lon="3.22765">
        <ele>434.23</ele>
        <time>2026-04-02T13:58:21.336Z</time>
      </trkpt>
      <trkpt lat="44.1254" lon="3.22758">
        <ele>433.3</ele>
        <time>2026-04-02T13:58:27.111Z</time>
      </trkpt>
      <trkpt lat="44.12542" lon="3.22752">
        <ele>431.79</ele>
        <time>2026-04-02T13:58:32.215Z</time>
      </trkpt>
      <trkpt lat="44.12544" lon="3.22746">
        <ele>430.69</ele>
        <time>2026-04-02T13:58:37.809Z</time>
      </trkpt>
      <trkpt lat="44.12547" lon="3.22739">
        <ele>429.29</ele>
        <time>2026-04-02T13:58:43.317Z</time>
      </trkpt>
      <trkpt lat="44.12553" lon="3.22732">
        <ele>429.01</ele>
        <time>2026-04-02T13:58:49.223Z</time>
      </trkpt>
      <trkpt lat="44.12559" lon="3.22726">
        <ele>428.98</ele>
        <time>2026-04-02T13:58:54.307Z</time>
      </trkpt>
      <trkpt lat="44.12563" lon="3.22721">
        <ele>428.71</ele>
        <time>2026-04-02T13:58:59.320Z</time>
      </trkpt>
      <trkpt lat="44.12563" lon="3.22715">
        <ele>428.25</ele>
        <time>2026-04-02T13:59:04.336Z</time>
      </trkpt>
      <trkpt lat="44.12562" lon="3.22707">
        <ele>426.16</ele>
        <time>2026-04-02T13:59:09.858Z</time>
      </trkpt>
      <trkpt lat="44.12564" lon="3.22702">
        <ele>425.16</ele>
        <time>2026-04-02T13:59:15.326Z</time>
      </trkpt>
      <trkpt lat="44.12567" lon="3.22695">
        <ele>425.21</ele>
        <time>2026-04-02T13:59:20.833Z</time>
      </trkpt>
      <trkpt lat="44.12571" lon="3.22687">
        <ele>425.87</ele>
        <time>2026-04-02T13:59:26.316Z</time>
      </trkpt>
      <trkpt lat="44.12576" lon="3.22681">
        <ele>426.24</ele>
        <time>2026-04-02T13:59:32.291Z</time>
      </trkpt>
      <trkpt lat="44.12581" lon="3.22675">
        <ele>426.3</ele>
        <time>2026-04-02T13:59:37.738Z</time>
      </trkpt>
      <trkpt lat="44.12586" lon="3.2267">
        <ele>426.61</ele>
        <time>2026-04-02T13:59:42.973Z</time>
      </trkpt>
      <trkpt lat="44.12592" lon="3.22662">
        <ele>426.86</ele>
        <time>2026-04-02T13:59:48.993Z</time>
      </trkpt>
      <trkpt lat="44.12594" lon="3.22657">
        <ele>427.4</ele>
        <time>2026-04-02T13:59:54.113Z</time>
      </trkpt>
      <trkpt lat="44.12595" lon="3.22652">
        <ele>427.65</ele>
        <time>2026-04-02T13:59:59.130Z</time>
      </trkpt>
      <trkpt lat="44.12592" lon="3.22653">
        <ele>426.99</ele>
        <time>2026-04-02T14:00:04.300Z</time>
      </trkpt>
      <trkpt lat="44.1259" lon="3.22655">
        <ele>426.69</ele>
        <time>2026-04-02T14:00:09.791Z</time>
      </trkpt>
      <trkpt lat="44.12588" lon="3.22655">
        <ele>428.46</ele>
        <time>2026-04-02T14:00:15.290Z</time>
      </trkpt>
      <trkpt lat="44.12586" lon="3.22653">
        <ele>430.22</ele>
        <time>2026-04-02T14:00:20.350Z</time>
      </trkpt>
      <trkpt lat="44.12584" lon="3.2265">
        <ele>431.79</ele>
        <time>2026-04-02T14:00:25.732Z</time>
      </trkpt>
      <trkpt lat="44.12582" lon="3.22647">
        <ele>432.92</ele>
        <time>2026-04-02T14:00:31.252Z</time>
      </trkpt>
      <trkpt lat="44.12576" lon="3.22641">
        <ele>434.56</ele>
        <time>2026-04-02T14:00:37.033Z</time>
      </trkpt>
      <trkpt lat="44.12568" lon="3.22633">
        <ele>434.8</ele>
        <time>2026-04-02T14:00:42.200Z</time>
      </trkpt>
      <trkpt lat="44.12565" lon="3.22622">
        <ele>434.87</ele>
        <time>2026-04-02T14:00:47.268Z</time>
      </trkpt>
      <trkpt lat="44.12562" lon="3.22613">
        <ele>434.86</ele>
        <time>2026-04-02T14:00:52.753Z</time>
      </trkpt>
      <trkpt lat="44.12561" lon="3.22606">
        <ele>434.64</ele>
        <time>2026-04-02T14:00:57.795Z</time>
      </trkpt>
      <trkpt lat="44.12563" lon="3.22598">
        <ele>433.96</ele>
        <time>2026-04-02T14:01:03.303Z</time>
      </trkpt>
      <trkpt lat="44.12566" lon="3.22591">
        <ele>434.21</ele>
        <time>2026-04-02T14:01:08.364Z</time>
      </trkpt>
      <trkpt lat="44.12571" lon="3.22584">
        <ele>434.42</ele>
        <time>2026-04-02T14:01:14.030Z</time>
      </trkpt>
      <trkpt lat="44.12573" lon="3.22578">
        <ele>436.78</ele>
        <time>2026-04-02T14:01:19.267Z</time>
      </trkpt>
      <trkpt lat="44.12572" lon="3.2257">
        <ele>437.18</ele>
        <time>2026-04-02T14:01:24.647Z</time>
      </trkpt>
      <trkpt lat="44.12573" lon="3.22562">
        <ele>438</ele>
        <time>2026-04-02T14:01:30.158Z</time>
      </trkpt>
      <trkpt lat="44.12574" lon="3.22552">
        <ele>438.15</ele>
        <time>2026-04-02T14:01:35.556Z</time>
      </trkpt>
      <trkpt lat="44.12573" lon="3.22545">
        <ele>437.45</ele>
        <time>2026-04-02T14:01:41.044Z</time>
      </trkpt>
      <trkpt lat="44.12571" lon="3.22538">
        <ele>437.54</ele>
        <time>2026-04-02T14:01:46.345Z</time>
      </trkpt>
      <trkpt lat="44.1257" lon="3.22531">
        <ele>437.36</ele>
        <time>2026-04-02T14:01:52.277Z</time>
      </trkpt>
      <trkpt lat="44.12572" lon="3.22524">
        <ele>437.65</ele>
        <time>2026-04-02T14:01:57.278Z</time>
      </trkpt>
      <trkpt lat="44.12572" lon="3.22521">
        <ele>437.55</ele>
        <time>2026-04-02T14:02:02.765Z</time>
      </trkpt>
      <trkpt lat="44.1257" lon="3.22514">
        <ele>437.67</ele>
        <time>2026-04-02T14:02:08.338Z</time>
      </trkpt>
      <trkpt lat="44.12569" lon="3.22504">
        <ele>437.41</ele>
        <time>2026-04-02T14:02:13.576Z</time>
      </trkpt>
      <trkpt lat="44.12569" lon="3.22495">
        <ele>437.68</ele>
        <time>2026-04-02T14:02:19.272Z</time>
      </trkpt>
      <trkpt lat="44.12569" lon="3.22487">
        <ele>437.85</ele>
        <time>2026-04-02T14:02:24.287Z</time>
      </trkpt>
      <trkpt lat="44.12568" lon="3.22479">
        <ele>437.61</ele>
        <time>2026-04-02T14:02:29.302Z</time>
      </trkpt>
      <trkpt lat="44.12568" lon="3.2247">
        <ele>437.45</ele>
        <time>2026-04-02T14:02:34.316Z</time>
      </trkpt>
      <trkpt lat="44.12568" lon="3.22461">
        <ele>436.79</ele>
        <time>2026-04-02T14:02:39.331Z</time>
      </trkpt>
      <trkpt lat="44.1257" lon="3.22452">
        <ele>437.16</ele>
        <time>2026-04-02T14:02:44.584Z</time>
      </trkpt>
      <trkpt lat="44.12568" lon="3.22442">
        <ele>436.6</ele>
        <time>2026-04-02T14:02:49.775Z</time>
      </trkpt>
      <trkpt lat="44.12565" lon="3.22435">
        <ele>435.96</ele>
        <time>2026-04-02T14:02:55.321Z</time>
      </trkpt>
      <trkpt lat="44.12562" lon="3.22429">
        <ele>434.71</ele>
        <time>2026-04-02T14:03:00.351Z</time>
      </trkpt>
      <trkpt lat="44.12559" lon="3.22421">
        <ele>433.9</ele>
        <time>2026-04-02T14:03:06.326Z</time>
      </trkpt>
      <trkpt lat="44.12555" lon="3.22413">
        <ele>432.94</ele>
        <time>2026-04-02T14:03:11.478Z</time>
      </trkpt>
      <trkpt lat="44.12553" lon="3.22403">
        <ele>432.09</ele>
        <time>2026-04-02T14:03:17.143Z</time>
      </trkpt>
      <trkpt lat="44.12551" lon="3.22394">
        <ele>431.51</ele>
        <time>2026-04-02T14:03:22.281Z</time>
      </trkpt>
      <trkpt lat="44.12547" lon="3.22387">
        <ele>430.81</ele>
        <time>2026-04-02T14:03:27.778Z</time>
      </trkpt>
      <trkpt lat="44.12544" lon="3.22379">
        <ele>430</ele>
        <time>2026-04-02T14:03:33.321Z</time>
      </trkpt>
      <trkpt lat="44.12544" lon="3.22371">
        <ele>429.24</ele>
        <time>2026-04-02T14:03:38.883Z</time>
      </trkpt>
      <trkpt lat="44.12542" lon="3.22364">
        <ele>428.92</ele>
        <time>2026-04-02T14:03:44.316Z</time>
      </trkpt>
      <trkpt lat="44.1254" lon="3.22357">
        <ele>429.08</ele>
        <time>2026-04-02T14:03:49.781Z</time>
      </trkpt>
      <trkpt lat="44.1254" lon="3.2235">
        <ele>431</ele>
        <time>2026-04-02T14:03:55.306Z</time>
      </trkpt>
      <trkpt lat="44.1254" lon="3.22349">
        <ele>431.61</ele>
        <time>2026-04-02T14:04:08.218Z</time>
      </trkpt>
      <trkpt lat="44.12539" lon="3.22349">
        <ele>432.11</ele>
        <time>2026-04-02T14:04:16.220Z</time>
      </trkpt>
      <trkpt lat="44.12534" lon="3.22352">
        <ele>431.64</ele>
        <time>2026-04-02T14:04:21.236Z</time>
      </trkpt>
      <trkpt lat="44.12533" lon="3.22353">
        <ele>430.94</ele>
        <time>2026-04-02T14:04:26.252Z</time>
      </trkpt>
      <trkpt lat="44.12537" lon="3.22347">
        <ele>429.62</ele>
        <time>2026-04-02T14:04:31.267Z</time>
      </trkpt>
      <trkpt lat="44.12538" lon="3.22349">
        <ele>430.56</ele>
        <time>2026-04-02T14:04:37.243Z</time>
      </trkpt>
      <trkpt lat="44.12539" lon="3.2235">
        <ele>433.5</ele>
        <time>2026-04-02T14:04:43.169Z</time>
      </trkpt>
      <trkpt lat="44.12536" lon="3.22354">
        <ele>432.52</ele>
        <time>2026-04-02T14:04:48.230Z</time>
      </trkpt>
      <trkpt lat="44.12537" lon="3.22357">
        <ele>431.84</ele>
        <time>2026-04-02T14:04:53.352Z</time>
      </trkpt>
      <trkpt lat="44.12533" lon="3.22357">
        <ele>431.26</ele>
        <time>2026-04-02T14:04:59.328Z</time>
      </trkpt>
      <trkpt lat="44.1253" lon="3.22357">
        <ele>430.86</ele>
        <time>2026-04-02T14:05:05.304Z</time>
      </trkpt>
      <trkpt lat="44.12531" lon="3.22357">
        <ele>430.89</ele>
        <time>2026-04-02T14:05:27.393Z</time>
      </trkpt>
      <trkpt lat="44.12532" lon="3.22357">
        <ele>430.44</ele>
        <time>2026-04-02T14:05:36.249Z</time>
      </trkpt>
      <trkpt lat="44.12533" lon="3.22357">
        <ele>430.8</ele>
        <time>2026-04-02T14:05:46.288Z</time>
      </trkpt>
      <trkpt lat="44.12534" lon="3.22356">
        <ele>431.48</ele>
        <time>2026-04-02T14:05:54.117Z</time>
      </trkpt>
      <trkpt lat="44.12535" lon="3.22356">
        <ele>430.69</ele>
        <time>2026-04-02T14:05:59.307Z</time>
      </trkpt>
      <trkpt lat="44.12537" lon="3.2236">
        <ele>429.73</ele>
        <time>2026-04-02T14:06:04.321Z</time>
      </trkpt>
      <trkpt lat="44.12538" lon="3.22361">
        <ele>431.77</ele>
        <time>2026-04-02T14:06:09.337Z</time>
      </trkpt>
      <trkpt lat="44.12538" lon="3.2236">
        <ele>431.35</ele>
        <time>2026-04-02T14:06:19.260Z</time>
      </trkpt>
      <trkpt lat="44.12539" lon="3.22359">
        <ele>428.8</ele>
        <time>2026-04-02T14:06:29.292Z</time>
      </trkpt>
      <trkpt lat="44.1254" lon="3.22356">
        <ele>430.98</ele>
        <time>2026-04-02T14:06:34.306Z</time>
      </trkpt>
      <trkpt lat="44.12538" lon="3.22352">
        <ele>431.88</ele>
        <time>2026-04-02T14:06:39.321Z</time>
      </trkpt>
      <trkpt lat="44.12537" lon="3.22352">
        <ele>430.44</ele>
        <time>2026-04-02T14:06:45.297Z</time>
      </trkpt>
      <trkpt lat="44.12537" lon="3.22354">
        <ele>430.39</ele>
        <time>2026-04-02T14:07:01.304Z</time>
      </trkpt>
      <trkpt lat="44.12537" lon="3.22355">
        <ele>431.01</ele>
        <time>2026-04-02T14:07:08.346Z</time>
      </trkpt>
      <trkpt lat="44.12536" lon="3.22356">
        <ele>430.91</ele>
        <time>2026-04-02T14:07:17.309Z</time>
      </trkpt>
      <trkpt lat="44.12537" lon="3.22357">
        <ele>429.58</ele>
        <time>2026-04-02T14:07:27.340Z</time>
      </trkpt>
      <trkpt lat="44.12538" lon="3.22358">
        <ele>430.35</ele>
        <time>2026-04-02T14:07:39.290Z</time>
      </trkpt>
      <trkpt lat="44.12537" lon="3.22359">
        <ele>431.03</ele>
        <time>2026-04-02T14:07:50.281Z</time>
      </trkpt>
      <trkpt lat="44.12538" lon="3.2236">
        <ele>430.3</ele>
        <time>2026-04-02T14:08:01.270Z</time>
      </trkpt>
      <trkpt lat="44.12542" lon="3.22367">
        <ele>430.77</ele>
        <time>2026-04-02T14:08:06.959Z</time>
      </trkpt>
      <trkpt lat="44.12542" lon="3.22373">
        <ele>430.22</ele>
        <time>2026-04-02T14:08:13.181Z</time>
      </trkpt>
      <trkpt lat="44.12539" lon="3.22371">
        <ele>429.38</ele>
        <time>2026-04-02T14:08:18.322Z</time>
      </trkpt>
      <trkpt lat="44.12535" lon="3.22362">
        <ele>427.98</ele>
        <time>2026-04-02T14:08:23.710Z</time>
      </trkpt>
      <trkpt lat="44.1253" lon="3.22356">
        <ele>427.02</ele>
        <time>2026-04-02T14:08:29.320Z</time>
      </trkpt>
      <trkpt lat="44.12529" lon="3.22348">
        <ele>426.61</ele>
        <time>2026-04-02T14:08:34.576Z</time>
      </trkpt>
      <trkpt lat="44.12526" lon="3.22343">
        <ele>425.91</ele>
        <time>2026-04-02T14:08:39.956Z</time>
      </trkpt>
      <trkpt lat="44.12523" lon="3.22337">
        <ele>424.91</ele>
        <time>2026-04-02T14:08:45.176Z</time>
      </trkpt>
      <trkpt lat="44.12519" lon="3.22332">
        <ele>423.5</ele>
        <time>2026-04-02T14:08:50.617Z</time>
      </trkpt>
      <trkpt lat="44.12515" lon="3.22328">
        <ele>422.05</ele>
        <time>2026-04-02T14:08:55.836Z</time>
      </trkpt>
      <trkpt lat="44.12512" lon="3.22324">
        <ele>421.16</ele>
        <time>2026-04-02T14:09:01.238Z</time>
      </trkpt>
      <trkpt lat="44.12507" lon="3.2232">
        <ele>420.9</ele>
        <time>2026-04-02T14:09:06.675Z</time>
      </trkpt>
      <trkpt lat="44.12504" lon="3.22317">
        <ele>420.33</ele>
        <time>2026-04-02T14:09:12.335Z</time>
      </trkpt>
      <trkpt lat="44.12502" lon="3.22315">
        <ele>419.55</ele>
        <time>2026-04-02T14:09:17.514Z</time>
      </trkpt>
      <trkpt lat="44.12499" lon="3.22314">
        <ele>418.19</ele>
        <time>2026-04-02T14:09:22.680Z</time>
      </trkpt>
      <trkpt lat="44.12496" lon="3.22313">
        <ele>417.11</ele>
        <time>2026-04-02T14:09:27.864Z</time>
      </trkpt>
      <trkpt lat="44.12491" lon="3.22311">
        <ele>416.2</ele>
        <time>2026-04-02T14:09:33.031Z</time>
      </trkpt>
      <trkpt lat="44.12487" lon="3.22309">
        <ele>415.3</ele>
        <time>2026-04-02T14:09:38.589Z</time>
      </trkpt>
      <trkpt lat="44.12484" lon="3.22307">
        <ele>414.94</ele>
        <time>2026-04-02T14:09:43.612Z</time>
      </trkpt>
      <trkpt lat="44.1248" lon="3.22305">
        <ele>414.15</ele>
        <time>2026-04-02T14:09:49.205Z</time>
      </trkpt>
      <trkpt lat="44.12477" lon="3.22298">
        <ele>413.43</ele>
        <time>2026-04-02T14:09:54.690Z</time>
      </trkpt>
      <trkpt lat="44.12475" lon="3.22292">
        <ele>412.72</ele>
        <time>2026-04-02T14:10:00.202Z</time>
      </trkpt>
      <trkpt lat="44.12472" lon="3.22288">
        <ele>412.25</ele>
        <time>2026-04-02T14:10:05.486Z</time>
      </trkpt>
      <trkpt lat="44.12469" lon="3.22286">
        <ele>411.86</ele>
        <time>2026-04-02T14:10:10.513Z</time>
      </trkpt>
      <trkpt lat="44.12466" lon="3.22284">
        <ele>410.91</ele>
        <time>2026-04-02T14:10:16.005Z</time>
      </trkpt>
      <trkpt lat="44.12465" lon="3.22281">
        <ele>409.63</ele>
        <time>2026-04-02T14:10:21.265Z</time>
      </trkpt>
      <trkpt lat="44.12462" lon="3.22275">
        <ele>408.84</ele>
        <time>2026-04-02T14:10:27.347Z</time>
      </trkpt>
      <trkpt lat="44.12456" lon="3.22273">
        <ele>408.32</ele>
        <time>2026-04-02T14:10:32.908Z</time>
      </trkpt>
      <trkpt lat="44.12453" lon="3.2227">
        <ele>407.37</ele>
        <time>2026-04-02T14:10:38.364Z</time>
      </trkpt>
      <trkpt lat="44.12449" lon="3.22272">
        <ele>406.98</ele>
        <time>2026-04-02T14:10:43.446Z</time>
      </trkpt>
      <trkpt lat="44.12445" lon="3.22273">
        <ele>405.52</ele>
        <time>2026-04-02T14:10:49.226Z</time>
      </trkpt>
      <trkpt lat="44.12442" lon="3.22273">
        <ele>404.78</ele>
        <time>2026-04-02T14:10:54.311Z</time>
      </trkpt>
      <trkpt lat="44.12438" lon="3.22275">
        <ele>404.92</ele>
        <time>2026-04-02T14:10:59.788Z</time>
      </trkpt>
      <trkpt lat="44.12433" lon="3.22274">
        <ele>404.75</ele>
        <time>2026-04-02T14:11:04.831Z</time>
      </trkpt>
      <trkpt lat="44.12427" lon="3.22271">
        <ele>404.77</ele>
        <time>2026-04-02T14:11:10.168Z</time>
      </trkpt>
      <trkpt lat="44.12422" lon="3.22269">
        <ele>405.07</ele>
        <time>2026-04-02T14:11:15.866Z</time>
      </trkpt>
      <trkpt lat="44.12417" lon="3.22267">
        <ele>405.15</ele>
        <time>2026-04-02T14:11:21.338Z</time>
      </trkpt>
      <trkpt lat="44.12411" lon="3.22264">
        <ele>405.16</ele>
        <time>2026-04-02T14:11:26.353Z</time>
      </trkpt>
      <trkpt lat="44.12404" lon="3.22262">
        <ele>405.41</ele>
        <time>2026-04-02T14:11:32.352Z</time>
      </trkpt>
      <trkpt lat="44.12396" lon="3.22262">
        <ele>405.53</ele>
        <time>2026-04-02T14:11:38.245Z</time>
      </trkpt>
      <trkpt lat="44.1239" lon="3.22262">
        <ele>405.36</ele>
        <time>2026-04-02T14:11:43.443Z</time>
      </trkpt>
      <trkpt lat="44.12386" lon="3.2226">
        <ele>404.97</ele>
        <time>2026-04-02T14:11:48.894Z</time>
      </trkpt>
      <trkpt lat="44.12381" lon="3.22256">
        <ele>405.18</ele>
        <time>2026-04-02T14:11:53.991Z</time>
      </trkpt>
      <trkpt lat="44.12375" lon="3.22254">
        <ele>405.45</ele>
        <time>2026-04-02T14:11:59.326Z</time>
      </trkpt>
      <trkpt lat="44.1237" lon="3.2225">
        <ele>405.26</ele>
        <time>2026-04-02T14:12:05.189Z</time>
      </trkpt>
      <trkpt lat="44.12367" lon="3.22244">
        <ele>405.16</ele>
        <time>2026-04-02T14:12:10.343Z</time>
      </trkpt>
      <trkpt lat="44.12363" lon="3.22239">
        <ele>404.16</ele>
        <time>2026-04-02T14:12:15.364Z</time>
      </trkpt>
      <trkpt lat="44.12358" lon="3.22236">
        <ele>404.41</ele>
        <time>2026-04-02T14:12:21.304Z</time>
      </trkpt>
      <trkpt lat="44.12354" lon="3.2223">
        <ele>404.65</ele>
        <time>2026-04-02T14:12:26.652Z</time>
      </trkpt>
      <trkpt lat="44.12351" lon="3.22223">
        <ele>404.22</ele>
        <time>2026-04-02T14:12:32.294Z</time>
      </trkpt>
      <trkpt lat="44.12348" lon="3.22221">
        <ele>403.96</ele>
        <time>2026-04-02T14:12:37.309Z</time>
      </trkpt>
      <trkpt lat="44.12342" lon="3.22216">
        <ele>403</ele>
        <time>2026-04-02T14:12:43.226Z</time>
      </trkpt>
      <trkpt lat="44.12338" lon="3.2221">
        <ele>402.88</ele>
        <time>2026-04-02T14:12:48.313Z</time>
      </trkpt>
      <trkpt lat="44.12335" lon="3.22206">
        <ele>402.38</ele>
        <time>2026-04-02T14:12:53.533Z</time>
      </trkpt>
      <trkpt lat="44.12332" lon="3.22205">
        <ele>402.15</ele>
        <time>2026-04-02T14:12:58.830Z</time>
      </trkpt>
      <trkpt lat="44.1233" lon="3.22215">
        <ele>401.98</ele>
        <time>2026-04-02T14:13:03.948Z</time>
      </trkpt>
      <trkpt lat="44.1233" lon="3.22224">
        <ele>401.95</ele>
        <time>2026-04-02T14:13:09.364Z</time>
      </trkpt>
      <trkpt lat="44.12333" lon="3.22221">
        <ele>401.6</ele>
        <time>2026-04-02T14:13:15.402Z</time>
      </trkpt>
      <trkpt lat="44.12337" lon="3.22224">
        <ele>401.57</ele>
        <time>2026-04-02T14:13:47.211Z</time>
      </trkpt>
      <trkpt lat="44.12336" lon="3.22225">
        <ele>401.06</ele>
        <time>2026-04-02T14:13:52.211Z</time>
      </trkpt>
      <trkpt lat="44.12336" lon="3.22224">
        <ele>401</ele>
        <time>2026-04-02T14:13:58.197Z</time>
      </trkpt>
      <trkpt lat="44.12337" lon="3.22224">
        <ele>403.32</ele>
        <time>2026-04-02T14:14:11.364Z</time>
      </trkpt>
      <trkpt lat="44.12336" lon="3.22224">
        <ele>400.2</ele>
        <time>2026-04-02T14:14:53.285Z</time>
      </trkpt>
      <trkpt lat="44.12335" lon="3.22225">
        <ele>400.1</ele>
        <time>2026-04-02T14:14:58.364Z</time>
      </trkpt>
      <trkpt lat="44.12334" lon="3.22224">
        <ele>401.61</ele>
        <time>2026-04-02T14:15:04.364Z</time>
      </trkpt>
      <trkpt lat="44.12332" lon="3.22224">
        <ele>402.13</ele>
        <time>2026-04-02T14:15:09.364Z</time>
      </trkpt>
      <trkpt lat="44.12331" lon="3.22223">
        <ele>401.15</ele>
        <time>2026-04-02T14:15:14.364Z</time>
      </trkpt>
      <trkpt lat="44.12331" lon="3.22221">
        <ele>400.11</ele>
        <time>2026-04-02T14:15:19.371Z</time>
      </trkpt>
      <trkpt lat="44.12334" lon="3.2222">
        <ele>400.61</ele>
        <time>2026-04-02T14:15:24.385Z</time>
      </trkpt>
      <trkpt lat="44.12335" lon="3.22218">
        <ele>400.81</ele>
        <time>2026-04-02T14:15:29.400Z</time>
      </trkpt>
      <trkpt lat="44.12332" lon="3.22219">
        <ele>401.25</ele>
        <time>2026-04-02T14:16:04.214Z</time>
      </trkpt>
      <trkpt lat="44.12328" lon="3.22213">
        <ele>401.81</ele>
        <time>2026-04-02T14:16:09.214Z</time>
      </trkpt>
      <trkpt lat="44.12326" lon="3.22206">
        <ele>401.88</ele>
        <time>2026-04-02T14:16:14.266Z</time>
      </trkpt>
      <trkpt lat="44.12321" lon="3.22198">
        <ele>400.98</ele>
        <time>2026-04-02T14:16:19.364Z</time>
      </trkpt>
      <trkpt lat="44.12316" lon="3.22199">
        <ele>400.21</ele>
        <time>2026-04-02T14:16:25.364Z</time>
      </trkpt>
      <trkpt lat="44.12318" lon="3.22199">
        <ele>400.09</ele>
        <time>2026-04-02T14:16:31.339Z</time>
      </trkpt>
      <trkpt lat="44.12319" lon="3.222">
        <ele>400.18</ele>
        <time>2026-04-02T14:16:38.275Z</time>
      </trkpt>
      <trkpt lat="44.1232" lon="3.222">
        <ele>399.88</ele>
        <time>2026-04-02T14:16:44.364Z</time>
      </trkpt>
      <trkpt lat="44.12321" lon="3.22201">
        <ele>399.82</ele>
        <time>2026-04-02T14:16:50.332Z</time>
      </trkpt>
      <trkpt lat="44.1232" lon="3.222">
        <ele>399.97</ele>
        <time>2026-04-02T14:17:02.072Z</time>
      </trkpt>
      <trkpt lat="44.12318" lon="3.222">
        <ele>399.39</ele>
        <time>2026-04-02T14:17:07.363Z</time>
      </trkpt>
      <trkpt lat="44.12318" lon="3.222">
        <ele>398.88</ele>
        <time>2026-04-02T14:17:14.339Z</time>
      </trkpt>
    </trkseg>
  </trk>
</gpx>